<?xml version="1.0" encoding="UTF-8" standalone="no" ?>
<gpx xmlns="http://www.topografix.com/GPX/1/1" xmlns:xsi="http://www.w3.org/2001/XMLSchema-instance" xsi:schemaLocation="http://www.topografix.com/GPX/1/1 http://www.topografix.com/GPX/1/1/gpx.xsd" version="1.1" creator="VisuGPX - https://www.visugpx.com">
  <metadata>
    <name>Soueix-Rogalle reconnaissance parcours ORSALHER 2025 avec Hocine</name>
  </metadata>
  <trk>
    <name><![CDATA[Soueix-Rogalle reconnaissance parcours ORSALHER 2025 avec Hocine_1]]></name>
    <trkseg>
      <trkpt lat="42.89385" lon="1.21174">
        <ele>478.4</ele>
        <time>2025-06-29T06:50:49Z</time>
      </trkpt>
      <trkpt lat="42.89384" lon="1.21161">
        <ele>478.4</ele>
        <time>2025-06-29T06:50:53Z</time>
      </trkpt>
      <trkpt lat="42.89382" lon="1.21158">
        <ele>481.2</ele>
        <time>2025-06-29T06:50:54Z</time>
      </trkpt>
      <trkpt lat="42.89381" lon="1.21156">
        <ele>482.8</ele>
        <time>2025-06-29T06:50:55Z</time>
      </trkpt>
      <trkpt lat="42.8937" lon="1.21148">
        <ele>482.8</ele>
        <time>2025-06-29T06:51:00Z</time>
      </trkpt>
      <trkpt lat="42.89353" lon="1.21137">
        <ele>482.8</ele>
        <time>2025-06-29T06:51:07Z</time>
      </trkpt>
      <trkpt lat="42.89335" lon="1.21124">
        <ele>482.8</ele>
        <time>2025-06-29T06:51:14Z</time>
      </trkpt>
      <trkpt lat="42.8932" lon="1.21114">
        <ele>482.4</ele>
        <time>2025-06-29T06:51:20Z</time>
      </trkpt>
      <trkpt lat="42.89317" lon="1.21114">
        <ele>482.2</ele>
        <time>2025-06-29T06:51:21Z</time>
      </trkpt>
      <trkpt lat="42.89315" lon="1.21114">
        <ele>482</ele>
        <time>2025-06-29T06:51:22Z</time>
      </trkpt>
      <trkpt lat="42.89312" lon="1.21113">
        <ele>481.8</ele>
        <time>2025-06-29T06:51:23Z</time>
      </trkpt>
      <trkpt lat="42.8931" lon="1.21113">
        <ele>481.6</ele>
        <time>2025-06-29T06:51:24Z</time>
      </trkpt>
      <trkpt lat="42.89293" lon="1.21109">
        <ele>481.6</ele>
        <time>2025-06-29T06:51:30Z</time>
      </trkpt>
      <trkpt lat="42.89278" lon="1.21107">
        <ele>481.6</ele>
        <time>2025-06-29T06:51:35Z</time>
      </trkpt>
      <trkpt lat="42.89254" lon="1.21108">
        <ele>481.6</ele>
        <time>2025-06-29T06:51:43Z</time>
      </trkpt>
      <trkpt lat="42.89242" lon="1.21108">
        <ele>482</ele>
        <time>2025-06-29T06:51:47Z</time>
      </trkpt>
      <trkpt lat="42.8924" lon="1.21109">
        <ele>482.8</ele>
        <time>2025-06-29T06:51:48Z</time>
      </trkpt>
      <trkpt lat="42.89237" lon="1.21109">
        <ele>483.4</ele>
        <time>2025-06-29T06:51:49Z</time>
      </trkpt>
      <trkpt lat="42.89234" lon="1.2111">
        <ele>483.8</ele>
        <time>2025-06-29T06:51:50Z</time>
      </trkpt>
      <trkpt lat="42.89225" lon="1.2111">
        <ele>483.8</ele>
        <time>2025-06-29T06:51:53Z</time>
      </trkpt>
      <trkpt lat="42.89205" lon="1.21107">
        <ele>483.8</ele>
        <time>2025-06-29T06:52:00Z</time>
      </trkpt>
      <trkpt lat="42.89188" lon="1.21104">
        <ele>484.2</ele>
        <time>2025-06-29T06:52:06Z</time>
      </trkpt>
      <trkpt lat="42.89185" lon="1.21104">
        <ele>484.6</ele>
        <time>2025-06-29T06:52:07Z</time>
      </trkpt>
      <trkpt lat="42.89182" lon="1.21103">
        <ele>485</ele>
        <time>2025-06-29T06:52:08Z</time>
      </trkpt>
      <trkpt lat="42.89179" lon="1.21102">
        <ele>485.4</ele>
        <time>2025-06-29T06:52:09Z</time>
      </trkpt>
      <trkpt lat="42.89176" lon="1.211">
        <ele>485.8</ele>
        <time>2025-06-29T06:52:10Z</time>
      </trkpt>
      <trkpt lat="42.89168" lon="1.21096">
        <ele>485.8</ele>
        <time>2025-06-29T06:52:13Z</time>
      </trkpt>
      <trkpt lat="42.89148" lon="1.21087">
        <ele>485.8</ele>
        <time>2025-06-29T06:52:20Z</time>
      </trkpt>
      <trkpt lat="42.89133" lon="1.21082">
        <ele>486.2</ele>
        <time>2025-06-29T06:52:25Z</time>
      </trkpt>
      <trkpt lat="42.8913" lon="1.21081">
        <ele>486.6</ele>
        <time>2025-06-29T06:52:26Z</time>
      </trkpt>
      <trkpt lat="42.89126" lon="1.21081">
        <ele>487</ele>
        <time>2025-06-29T06:52:27Z</time>
      </trkpt>
      <trkpt lat="42.89123" lon="1.2108">
        <ele>487.4</ele>
        <time>2025-06-29T06:52:28Z</time>
      </trkpt>
      <trkpt lat="42.8912" lon="1.21079">
        <ele>487.8</ele>
        <time>2025-06-29T06:52:29Z</time>
      </trkpt>
      <trkpt lat="42.89103" lon="1.21076">
        <ele>487.8</ele>
        <time>2025-06-29T06:52:34Z</time>
      </trkpt>
      <trkpt lat="42.89076" lon="1.21075">
        <ele>487.8</ele>
        <time>2025-06-29T06:52:42Z</time>
      </trkpt>
      <trkpt lat="42.89047" lon="1.21076">
        <ele>487.8</ele>
        <time>2025-06-29T06:52:50Z</time>
      </trkpt>
      <trkpt lat="42.89026" lon="1.21076">
        <ele>487.8</ele>
        <time>2025-06-29T06:52:55Z</time>
      </trkpt>
      <trkpt lat="42.89022" lon="1.21075">
        <ele>487.8</ele>
        <time>2025-06-29T06:52:56Z</time>
      </trkpt>
      <trkpt lat="42.89013" lon="1.21075">
        <ele>487.8</ele>
        <time>2025-06-29T06:52:58Z</time>
      </trkpt>
      <trkpt lat="42.88993" lon="1.21075">
        <ele>487.8</ele>
        <time>2025-06-29T06:53:03Z</time>
      </trkpt>
      <trkpt lat="42.88958" lon="1.21069">
        <ele>487.8</ele>
        <time>2025-06-29T06:53:12Z</time>
      </trkpt>
      <trkpt lat="42.88936" lon="1.21065">
        <ele>487.8</ele>
        <time>2025-06-29T06:53:18Z</time>
      </trkpt>
      <trkpt lat="42.88912" lon="1.21061">
        <ele>487.8</ele>
        <time>2025-06-29T06:53:25Z</time>
      </trkpt>
      <trkpt lat="42.88885" lon="1.21052">
        <ele>487.8</ele>
        <time>2025-06-29T06:53:33Z</time>
      </trkpt>
      <trkpt lat="42.88865" lon="1.21037">
        <ele>487.8</ele>
        <time>2025-06-29T06:53:40Z</time>
      </trkpt>
      <trkpt lat="42.88848" lon="1.21012">
        <ele>487.8</ele>
        <time>2025-06-29T06:53:47Z</time>
      </trkpt>
      <trkpt lat="42.88846" lon="1.21008">
        <ele>488.2</ele>
        <time>2025-06-29T06:53:48Z</time>
      </trkpt>
      <trkpt lat="42.88843" lon="1.21005">
        <ele>488.8</ele>
        <time>2025-06-29T06:53:49Z</time>
      </trkpt>
      <trkpt lat="42.88841" lon="1.21002">
        <ele>489.2</ele>
        <time>2025-06-29T06:53:50Z</time>
      </trkpt>
      <trkpt lat="42.88839" lon="1.20998">
        <ele>489.6</ele>
        <time>2025-06-29T06:53:51Z</time>
      </trkpt>
      <trkpt lat="42.88836" lon="1.20995">
        <ele>490</ele>
        <time>2025-06-29T06:53:52Z</time>
      </trkpt>
      <trkpt lat="42.8883" lon="1.20989">
        <ele>490</ele>
        <time>2025-06-29T06:53:54Z</time>
      </trkpt>
      <trkpt lat="42.88814" lon="1.20982">
        <ele>490</ele>
        <time>2025-06-29T06:53:59Z</time>
      </trkpt>
      <trkpt lat="42.88791" lon="1.20987">
        <ele>490</ele>
        <time>2025-06-29T06:54:05Z</time>
      </trkpt>
      <trkpt lat="42.88775" lon="1.20999">
        <ele>490.4</ele>
        <time>2025-06-29T06:54:11Z</time>
      </trkpt>
      <trkpt lat="42.88772" lon="1.21002">
        <ele>490.8</ele>
        <time>2025-06-29T06:54:12Z</time>
      </trkpt>
      <trkpt lat="42.88769" lon="1.21005">
        <ele>491.2</ele>
        <time>2025-06-29T06:54:13Z</time>
      </trkpt>
      <trkpt lat="42.88767" lon="1.21007">
        <ele>491.6</ele>
        <time>2025-06-29T06:54:14Z</time>
      </trkpt>
      <trkpt lat="42.88764" lon="1.21011">
        <ele>492</ele>
        <time>2025-06-29T06:54:15Z</time>
      </trkpt>
      <trkpt lat="42.88759" lon="1.2102">
        <ele>492</ele>
        <time>2025-06-29T06:54:17Z</time>
      </trkpt>
      <trkpt lat="42.88745" lon="1.21056">
        <ele>492</ele>
        <time>2025-06-29T06:54:25Z</time>
      </trkpt>
      <trkpt lat="42.88734" lon="1.2109">
        <ele>492</ele>
        <time>2025-06-29T06:54:33Z</time>
      </trkpt>
      <trkpt lat="42.88715" lon="1.21113">
        <ele>492</ele>
        <time>2025-06-29T06:54:41Z</time>
      </trkpt>
      <trkpt lat="42.88713" lon="1.21114">
        <ele>492.4</ele>
        <time>2025-06-29T06:54:42Z</time>
      </trkpt>
      <trkpt lat="42.8871" lon="1.21116">
        <ele>492.8</ele>
        <time>2025-06-29T06:54:43Z</time>
      </trkpt>
      <trkpt lat="42.88709" lon="1.21117">
        <ele>493.2</ele>
        <time>2025-06-29T06:54:44Z</time>
      </trkpt>
      <trkpt lat="42.88708" lon="1.21119">
        <ele>493.6</ele>
        <time>2025-06-29T06:54:45Z</time>
      </trkpt>
      <trkpt lat="42.88711" lon="1.21121">
        <ele>494</ele>
        <time>2025-06-29T06:54:46Z</time>
      </trkpt>
      <trkpt lat="42.8872" lon="1.21114">
        <ele>494</ele>
        <time>2025-06-29T06:54:49Z</time>
      </trkpt>
      <trkpt lat="42.88736" lon="1.21093">
        <ele>494</ele>
        <time>2025-06-29T06:54:55Z</time>
      </trkpt>
      <trkpt lat="42.88737" lon="1.2109">
        <ele>494</ele>
        <time>2025-06-29T06:54:56Z</time>
      </trkpt>
      <trkpt lat="42.88734" lon="1.21087">
        <ele>494</ele>
        <time>2025-06-29T06:54:58Z</time>
      </trkpt>
      <trkpt lat="42.88732" lon="1.21087">
        <ele>494</ele>
        <time>2025-06-29T06:55:02Z</time>
      </trkpt>
      <trkpt lat="42.88731" lon="1.2109">
        <ele>494</ele>
        <time>2025-06-29T06:55:26Z</time>
      </trkpt>
      <trkpt lat="42.8873" lon="1.21096">
        <ele>494</ele>
        <time>2025-06-29T06:55:29Z</time>
      </trkpt>
      <trkpt lat="42.88726" lon="1.21099">
        <ele>494</ele>
        <time>2025-06-29T06:55:31Z</time>
      </trkpt>
      <trkpt lat="42.88709" lon="1.21114">
        <ele>494</ele>
        <time>2025-06-29T06:55:38Z</time>
      </trkpt>
      <trkpt lat="42.88689" lon="1.21118">
        <ele>494</ele>
        <time>2025-06-29T06:55:44Z</time>
      </trkpt>
      <trkpt lat="42.88686" lon="1.21119">
        <ele>494</ele>
        <time>2025-06-29T06:55:45Z</time>
      </trkpt>
      <trkpt lat="42.88667" lon="1.21122">
        <ele>494</ele>
        <time>2025-06-29T06:55:51Z</time>
      </trkpt>
      <trkpt lat="42.8864" lon="1.21123">
        <ele>494</ele>
        <time>2025-06-29T06:55:59Z</time>
      </trkpt>
      <trkpt lat="42.88618" lon="1.21115">
        <ele>494</ele>
        <time>2025-06-29T06:56:06Z</time>
      </trkpt>
      <trkpt lat="42.88614" lon="1.21113">
        <ele>494.4</ele>
        <time>2025-06-29T06:56:07Z</time>
      </trkpt>
      <trkpt lat="42.88611" lon="1.21112">
        <ele>494.8</ele>
        <time>2025-06-29T06:56:08Z</time>
      </trkpt>
      <trkpt lat="42.88608" lon="1.21111">
        <ele>495.2</ele>
        <time>2025-06-29T06:56:09Z</time>
      </trkpt>
      <trkpt lat="42.88604" lon="1.21109">
        <ele>495.6</ele>
        <time>2025-06-29T06:56:10Z</time>
      </trkpt>
      <trkpt lat="42.88601" lon="1.21107">
        <ele>496.2</ele>
        <time>2025-06-29T06:56:11Z</time>
      </trkpt>
      <trkpt lat="42.88595" lon="1.21105">
        <ele>496.2</ele>
        <time>2025-06-29T06:56:13Z</time>
      </trkpt>
      <trkpt lat="42.88569" lon="1.21092">
        <ele>496.2</ele>
        <time>2025-06-29T06:56:21Z</time>
      </trkpt>
      <trkpt lat="42.88546" lon="1.21083">
        <ele>496.2</ele>
        <time>2025-06-29T06:56:28Z</time>
      </trkpt>
      <trkpt lat="42.88543" lon="1.21082">
        <ele>496.6</ele>
        <time>2025-06-29T06:56:29Z</time>
      </trkpt>
      <trkpt lat="42.8854" lon="1.21081">
        <ele>497</ele>
        <time>2025-06-29T06:56:30Z</time>
      </trkpt>
      <trkpt lat="42.88536" lon="1.21079">
        <ele>497.4</ele>
        <time>2025-06-29T06:56:31Z</time>
      </trkpt>
      <trkpt lat="42.88533" lon="1.21078">
        <ele>497.8</ele>
        <time>2025-06-29T06:56:32Z</time>
      </trkpt>
      <trkpt lat="42.88529" lon="1.21076">
        <ele>498.2</ele>
        <time>2025-06-29T06:56:33Z</time>
      </trkpt>
      <trkpt lat="42.88519" lon="1.21072">
        <ele>498.2</ele>
        <time>2025-06-29T06:56:36Z</time>
      </trkpt>
      <trkpt lat="42.88493" lon="1.2106">
        <ele>498.2</ele>
        <time>2025-06-29T06:56:44Z</time>
      </trkpt>
      <trkpt lat="42.88468" lon="1.2105">
        <ele>498.2</ele>
        <time>2025-06-29T06:56:52Z</time>
      </trkpt>
      <trkpt lat="42.88451" lon="1.21045">
        <ele>498.6</ele>
        <time>2025-06-29T06:56:57Z</time>
      </trkpt>
      <trkpt lat="42.88448" lon="1.21043">
        <ele>499</ele>
        <time>2025-06-29T06:56:58Z</time>
      </trkpt>
      <trkpt lat="42.88445" lon="1.21042">
        <ele>499.4</ele>
        <time>2025-06-29T06:56:59Z</time>
      </trkpt>
      <trkpt lat="42.88443" lon="1.2104">
        <ele>499.8</ele>
        <time>2025-06-29T06:57:00Z</time>
      </trkpt>
      <trkpt lat="42.8844" lon="1.21038">
        <ele>500.2</ele>
        <time>2025-06-29T06:57:01Z</time>
      </trkpt>
      <trkpt lat="42.88427" lon="1.21026">
        <ele>500.2</ele>
        <time>2025-06-29T06:57:06Z</time>
      </trkpt>
      <trkpt lat="42.88409" lon="1.21006">
        <ele>500.2</ele>
        <time>2025-06-29T06:57:13Z</time>
      </trkpt>
      <trkpt lat="42.88389" lon="1.20987">
        <ele>500.2</ele>
        <time>2025-06-29T06:57:20Z</time>
      </trkpt>
      <trkpt lat="42.88386" lon="1.20984">
        <ele>500.6</ele>
        <time>2025-06-29T06:57:21Z</time>
      </trkpt>
      <trkpt lat="42.88383" lon="1.20981">
        <ele>501</ele>
        <time>2025-06-29T06:57:22Z</time>
      </trkpt>
      <trkpt lat="42.8838" lon="1.20978">
        <ele>501.4</ele>
        <time>2025-06-29T06:57:23Z</time>
      </trkpt>
      <trkpt lat="42.88378" lon="1.20975">
        <ele>501.8</ele>
        <time>2025-06-29T06:57:24Z</time>
      </trkpt>
      <trkpt lat="42.88375" lon="1.20973">
        <ele>502.2</ele>
        <time>2025-06-29T06:57:25Z</time>
      </trkpt>
      <trkpt lat="42.88372" lon="1.2097">
        <ele>502.2</ele>
        <time>2025-06-29T06:57:26Z</time>
      </trkpt>
      <trkpt lat="42.88348" lon="1.2095">
        <ele>502.2</ele>
        <time>2025-06-29T06:57:34Z</time>
      </trkpt>
      <trkpt lat="42.88325" lon="1.20926">
        <ele>502.2</ele>
        <time>2025-06-29T06:57:42Z</time>
      </trkpt>
      <trkpt lat="42.88306" lon="1.20905">
        <ele>502.2</ele>
        <time>2025-06-29T06:57:49Z</time>
      </trkpt>
      <trkpt lat="42.88295" lon="1.20894">
        <ele>502.6</ele>
        <time>2025-06-29T06:57:53Z</time>
      </trkpt>
      <trkpt lat="42.88292" lon="1.20892">
        <ele>503</ele>
        <time>2025-06-29T06:57:54Z</time>
      </trkpt>
      <trkpt lat="42.88289" lon="1.20889">
        <ele>503.4</ele>
        <time>2025-06-29T06:57:55Z</time>
      </trkpt>
      <trkpt lat="42.88286" lon="1.20886">
        <ele>503.8</ele>
        <time>2025-06-29T06:57:56Z</time>
      </trkpt>
      <trkpt lat="42.88283" lon="1.20884">
        <ele>504.4</ele>
        <time>2025-06-29T06:57:57Z</time>
      </trkpt>
      <trkpt lat="42.88265" lon="1.20874">
        <ele>504.4</ele>
        <time>2025-06-29T06:58:02Z</time>
      </trkpt>
      <trkpt lat="42.88245" lon="1.20867">
        <ele>504.4</ele>
        <time>2025-06-29T06:58:08Z</time>
      </trkpt>
      <trkpt lat="42.88224" lon="1.20861">
        <ele>504.4</ele>
        <time>2025-06-29T06:58:14Z</time>
      </trkpt>
      <trkpt lat="42.8821" lon="1.20853">
        <ele>504.8</ele>
        <time>2025-06-29T06:58:18Z</time>
      </trkpt>
      <trkpt lat="42.88207" lon="1.20851">
        <ele>505.2</ele>
        <time>2025-06-29T06:58:19Z</time>
      </trkpt>
      <trkpt lat="42.88204" lon="1.20849">
        <ele>505.6</ele>
        <time>2025-06-29T06:58:20Z</time>
      </trkpt>
      <trkpt lat="42.88201" lon="1.20847">
        <ele>506</ele>
        <time>2025-06-29T06:58:21Z</time>
      </trkpt>
      <trkpt lat="42.88198" lon="1.20844">
        <ele>506.4</ele>
        <time>2025-06-29T06:58:22Z</time>
      </trkpt>
      <trkpt lat="42.88178" lon="1.20822">
        <ele>506.4</ele>
        <time>2025-06-29T06:58:29Z</time>
      </trkpt>
      <trkpt lat="42.88148" lon="1.2079">
        <ele>506.4</ele>
        <time>2025-06-29T06:58:37Z</time>
      </trkpt>
      <trkpt lat="42.88123" lon="1.20763">
        <ele>506.4</ele>
        <time>2025-06-29T06:58:43Z</time>
      </trkpt>
      <trkpt lat="42.88117" lon="1.2076">
        <ele>506.4</ele>
        <time>2025-06-29T06:58:44Z</time>
      </trkpt>
      <trkpt lat="42.88096" lon="1.20757">
        <ele>506.4</ele>
        <time>2025-06-29T06:58:48Z</time>
      </trkpt>
      <trkpt lat="42.88065" lon="1.20755">
        <ele>506.4</ele>
        <time>2025-06-29T06:58:55Z</time>
      </trkpt>
      <trkpt lat="42.88039" lon="1.20752">
        <ele>506.4</ele>
        <time>2025-06-29T06:59:02Z</time>
      </trkpt>
      <trkpt lat="42.88008" lon="1.20754">
        <ele>506.4</ele>
        <time>2025-06-29T06:59:11Z</time>
      </trkpt>
      <trkpt lat="42.88001" lon="1.20754">
        <ele>507.2</ele>
        <time>2025-06-29T06:59:13Z</time>
      </trkpt>
      <trkpt lat="42.87997" lon="1.20754">
        <ele>507.6</ele>
        <time>2025-06-29T06:59:14Z</time>
      </trkpt>
      <trkpt lat="42.87994" lon="1.20755">
        <ele>508</ele>
        <time>2025-06-29T06:59:15Z</time>
      </trkpt>
      <trkpt lat="42.8799" lon="1.20755">
        <ele>508.4</ele>
        <time>2025-06-29T06:59:16Z</time>
      </trkpt>
      <trkpt lat="42.87977" lon="1.20756">
        <ele>508.4</ele>
        <time>2025-06-29T06:59:20Z</time>
      </trkpt>
      <trkpt lat="42.87952" lon="1.20754">
        <ele>508.8</ele>
        <time>2025-06-29T06:59:28Z</time>
      </trkpt>
      <trkpt lat="42.8795" lon="1.20754">
        <ele>509.4</ele>
        <time>2025-06-29T06:59:29Z</time>
      </trkpt>
      <trkpt lat="42.87947" lon="1.20754">
        <ele>509.8</ele>
        <time>2025-06-29T06:59:30Z</time>
      </trkpt>
      <trkpt lat="42.87943" lon="1.20754">
        <ele>510.2</ele>
        <time>2025-06-29T06:59:31Z</time>
      </trkpt>
      <trkpt lat="42.8794" lon="1.20753">
        <ele>510.6</ele>
        <time>2025-06-29T06:59:32Z</time>
      </trkpt>
      <trkpt lat="42.87933" lon="1.20752">
        <ele>510.6</ele>
        <time>2025-06-29T06:59:34Z</time>
      </trkpt>
      <trkpt lat="42.87902" lon="1.20748">
        <ele>511</ele>
        <time>2025-06-29T06:59:43Z</time>
      </trkpt>
      <trkpt lat="42.87899" lon="1.20747">
        <ele>511.4</ele>
        <time>2025-06-29T06:59:44Z</time>
      </trkpt>
      <trkpt lat="42.87895" lon="1.20747">
        <ele>511.8</ele>
        <time>2025-06-29T06:59:45Z</time>
      </trkpt>
      <trkpt lat="42.87892" lon="1.20746">
        <ele>512.2</ele>
        <time>2025-06-29T06:59:46Z</time>
      </trkpt>
      <trkpt lat="42.87889" lon="1.20745">
        <ele>512.6</ele>
        <time>2025-06-29T06:59:47Z</time>
      </trkpt>
      <trkpt lat="42.8788" lon="1.20743">
        <ele>512.6</ele>
        <time>2025-06-29T06:59:50Z</time>
      </trkpt>
      <trkpt lat="42.87861" lon="1.20732">
        <ele>512.6</ele>
        <time>2025-06-29T06:59:56Z</time>
      </trkpt>
      <trkpt lat="42.87843" lon="1.20717">
        <ele>512.6</ele>
        <time>2025-06-29T07:00:01Z</time>
      </trkpt>
      <trkpt lat="42.87816" lon="1.20694">
        <ele>512.6</ele>
        <time>2025-06-29T07:00:06Z</time>
      </trkpt>
      <trkpt lat="42.87802" lon="1.20685">
        <ele>512.2</ele>
        <time>2025-06-29T07:00:08Z</time>
      </trkpt>
      <trkpt lat="42.87794" lon="1.2068">
        <ele>511.8</ele>
        <time>2025-06-29T07:00:09Z</time>
      </trkpt>
      <trkpt lat="42.87787" lon="1.20677">
        <ele>511.2</ele>
        <time>2025-06-29T07:00:10Z</time>
      </trkpt>
      <trkpt lat="42.8778" lon="1.20676">
        <ele>510.8</ele>
        <time>2025-06-29T07:00:11Z</time>
      </trkpt>
      <trkpt lat="42.87773" lon="1.20676">
        <ele>510.4</ele>
        <time>2025-06-29T07:00:12Z</time>
      </trkpt>
      <trkpt lat="42.87763" lon="1.20678">
        <ele>510.4</ele>
        <time>2025-06-29T07:00:14Z</time>
      </trkpt>
      <trkpt lat="42.87756" lon="1.20682">
        <ele>510.4</ele>
        <time>2025-06-29T07:00:16Z</time>
      </trkpt>
      <trkpt lat="42.87745" lon="1.20686">
        <ele>510.4</ele>
        <time>2025-06-29T07:00:19Z</time>
      </trkpt>
      <trkpt lat="42.87738" lon="1.20686">
        <ele>510.8</ele>
        <time>2025-06-29T07:00:21Z</time>
      </trkpt>
      <trkpt lat="42.87734" lon="1.20686">
        <ele>511.2</ele>
        <time>2025-06-29T07:00:22Z</time>
      </trkpt>
      <trkpt lat="42.87731" lon="1.20686">
        <ele>511.6</ele>
        <time>2025-06-29T07:00:23Z</time>
      </trkpt>
      <trkpt lat="42.87727" lon="1.20686">
        <ele>512</ele>
        <time>2025-06-29T07:00:24Z</time>
      </trkpt>
      <trkpt lat="42.87724" lon="1.20686">
        <ele>512.6</ele>
        <time>2025-06-29T07:00:25Z</time>
      </trkpt>
      <trkpt lat="42.87709" lon="1.20682">
        <ele>513</ele>
        <time>2025-06-29T07:00:29Z</time>
      </trkpt>
      <trkpt lat="42.87706" lon="1.2068">
        <ele>513.4</ele>
        <time>2025-06-29T07:00:30Z</time>
      </trkpt>
      <trkpt lat="42.87703" lon="1.20679">
        <ele>513.8</ele>
        <time>2025-06-29T07:00:31Z</time>
      </trkpt>
      <trkpt lat="42.87699" lon="1.20677">
        <ele>514.2</ele>
        <time>2025-06-29T07:00:32Z</time>
      </trkpt>
      <trkpt lat="42.87696" lon="1.20675">
        <ele>514.6</ele>
        <time>2025-06-29T07:00:33Z</time>
      </trkpt>
      <trkpt lat="42.8767" lon="1.20663">
        <ele>514.6</ele>
        <time>2025-06-29T07:00:41Z</time>
      </trkpt>
      <trkpt lat="42.87645" lon="1.2065">
        <ele>514.6</ele>
        <time>2025-06-29T07:00:49Z</time>
      </trkpt>
      <trkpt lat="42.87635" lon="1.20645">
        <ele>515</ele>
        <time>2025-06-29T07:00:52Z</time>
      </trkpt>
      <trkpt lat="42.87632" lon="1.20644">
        <ele>515.4</ele>
        <time>2025-06-29T07:00:53Z</time>
      </trkpt>
      <trkpt lat="42.87628" lon="1.20642">
        <ele>515.8</ele>
        <time>2025-06-29T07:00:54Z</time>
      </trkpt>
      <trkpt lat="42.87625" lon="1.20641">
        <ele>516.2</ele>
        <time>2025-06-29T07:00:55Z</time>
      </trkpt>
      <trkpt lat="42.87621" lon="1.20639">
        <ele>516.6</ele>
        <time>2025-06-29T07:00:56Z</time>
      </trkpt>
      <trkpt lat="42.87618" lon="1.20637">
        <ele>516.6</ele>
        <time>2025-06-29T07:00:57Z</time>
      </trkpt>
      <trkpt lat="42.87597" lon="1.20628">
        <ele>516.6</ele>
        <time>2025-06-29T07:01:04Z</time>
      </trkpt>
      <trkpt lat="42.87568" lon="1.20614">
        <ele>516.6</ele>
        <time>2025-06-29T07:01:13Z</time>
      </trkpt>
      <trkpt lat="42.87564" lon="1.20613">
        <ele>517</ele>
        <time>2025-06-29T07:01:14Z</time>
      </trkpt>
      <trkpt lat="42.87561" lon="1.20611">
        <ele>517.6</ele>
        <time>2025-06-29T07:01:15Z</time>
      </trkpt>
      <trkpt lat="42.87558" lon="1.2061">
        <ele>518.4</ele>
        <time>2025-06-29T07:01:16Z</time>
      </trkpt>
      <trkpt lat="42.87554" lon="1.20608">
        <ele>518.8</ele>
        <time>2025-06-29T07:01:17Z</time>
      </trkpt>
      <trkpt lat="42.87536" lon="1.20601">
        <ele>518.8</ele>
        <time>2025-06-29T07:01:22Z</time>
      </trkpt>
      <trkpt lat="42.87504" lon="1.20586">
        <ele>518.8</ele>
        <time>2025-06-29T07:01:31Z</time>
      </trkpt>
      <trkpt lat="42.87466" lon="1.20568">
        <ele>518.8</ele>
        <time>2025-06-29T07:01:41Z</time>
      </trkpt>
      <trkpt lat="42.87426" lon="1.20548">
        <ele>518.8</ele>
        <time>2025-06-29T07:01:50Z</time>
      </trkpt>
      <trkpt lat="42.87393" lon="1.20533">
        <ele>518.8</ele>
        <time>2025-06-29T07:01:58Z</time>
      </trkpt>
      <trkpt lat="42.87356" lon="1.20517">
        <ele>518.8</ele>
        <time>2025-06-29T07:02:07Z</time>
      </trkpt>
      <trkpt lat="42.87337" lon="1.20508">
        <ele>519.4</ele>
        <time>2025-06-29T07:02:12Z</time>
      </trkpt>
      <trkpt lat="42.87333" lon="1.20506">
        <ele>519.8</ele>
        <time>2025-06-29T07:02:13Z</time>
      </trkpt>
      <trkpt lat="42.8733" lon="1.20505">
        <ele>520.2</ele>
        <time>2025-06-29T07:02:14Z</time>
      </trkpt>
      <trkpt lat="42.87326" lon="1.20503">
        <ele>520.6</ele>
        <time>2025-06-29T07:02:15Z</time>
      </trkpt>
      <trkpt lat="42.87323" lon="1.20501">
        <ele>521</ele>
        <time>2025-06-29T07:02:16Z</time>
      </trkpt>
      <trkpt lat="42.87298" lon="1.20487">
        <ele>521</ele>
        <time>2025-06-29T07:02:23Z</time>
      </trkpt>
      <trkpt lat="42.87274" lon="1.20472">
        <ele>521</ele>
        <time>2025-06-29T07:02:29Z</time>
      </trkpt>
      <trkpt lat="42.87247" lon="1.20456">
        <ele>521</ele>
        <time>2025-06-29T07:02:34Z</time>
      </trkpt>
      <trkpt lat="42.87223" lon="1.20448">
        <ele>520.6</ele>
        <time>2025-06-29T07:02:38Z</time>
      </trkpt>
      <trkpt lat="42.87217" lon="1.20447">
        <ele>520.2</ele>
        <time>2025-06-29T07:02:39Z</time>
      </trkpt>
      <trkpt lat="42.87212" lon="1.20446">
        <ele>519.8</ele>
        <time>2025-06-29T07:02:40Z</time>
      </trkpt>
      <trkpt lat="42.87207" lon="1.20444">
        <ele>519.4</ele>
        <time>2025-06-29T07:02:41Z</time>
      </trkpt>
      <trkpt lat="42.87202" lon="1.20443">
        <ele>518.8</ele>
        <time>2025-06-29T07:02:42Z</time>
      </trkpt>
      <trkpt lat="42.87184" lon="1.20435">
        <ele>518.8</ele>
        <time>2025-06-29T07:02:46Z</time>
      </trkpt>
      <trkpt lat="42.87153" lon="1.20421">
        <ele>518.8</ele>
        <time>2025-06-29T07:02:53Z</time>
      </trkpt>
      <trkpt lat="42.87122" lon="1.20403">
        <ele>518.8</ele>
        <time>2025-06-29T07:03:00Z</time>
      </trkpt>
      <trkpt lat="42.87091" lon="1.2039">
        <ele>518.8</ele>
        <time>2025-06-29T07:03:05Z</time>
      </trkpt>
      <trkpt lat="42.87076" lon="1.20387">
        <ele>518.8</ele>
        <time>2025-06-29T07:03:07Z</time>
      </trkpt>
      <trkpt lat="42.87069" lon="1.20388">
        <ele>518.4</ele>
        <time>2025-06-29T07:03:08Z</time>
      </trkpt>
      <trkpt lat="42.87063" lon="1.2039">
        <ele>517.8</ele>
        <time>2025-06-29T07:03:09Z</time>
      </trkpt>
      <trkpt lat="42.87057" lon="1.20394">
        <ele>517.4</ele>
        <time>2025-06-29T07:03:10Z</time>
      </trkpt>
      <trkpt lat="42.8705" lon="1.20398">
        <ele>516.8</ele>
        <time>2025-06-29T07:03:11Z</time>
      </trkpt>
      <trkpt lat="42.87044" lon="1.20402">
        <ele>516.2</ele>
        <time>2025-06-29T07:03:12Z</time>
      </trkpt>
      <trkpt lat="42.87036" lon="1.20407">
        <ele>515.8</ele>
        <time>2025-06-29T07:03:13Z</time>
      </trkpt>
      <trkpt lat="42.8703" lon="1.20412">
        <ele>515.2</ele>
        <time>2025-06-29T07:03:14Z</time>
      </trkpt>
      <trkpt lat="42.87023" lon="1.20418">
        <ele>514.6</ele>
        <time>2025-06-29T07:03:15Z</time>
      </trkpt>
      <trkpt lat="42.87016" lon="1.20424">
        <ele>513.8</ele>
        <time>2025-06-29T07:03:16Z</time>
      </trkpt>
      <trkpt lat="42.8701" lon="1.2043">
        <ele>513.2</ele>
        <time>2025-06-29T07:03:17Z</time>
      </trkpt>
      <trkpt lat="42.87005" lon="1.20436">
        <ele>512.6</ele>
        <time>2025-06-29T07:03:18Z</time>
      </trkpt>
      <trkpt lat="42.87001" lon="1.20441">
        <ele>512</ele>
        <time>2025-06-29T07:03:19Z</time>
      </trkpt>
      <trkpt lat="42.86997" lon="1.20445">
        <ele>510.6</ele>
        <time>2025-06-29T07:03:20Z</time>
      </trkpt>
      <trkpt lat="42.86992" lon="1.20449">
        <ele>510</ele>
        <time>2025-06-29T07:03:21Z</time>
      </trkpt>
      <trkpt lat="42.86988" lon="1.20451">
        <ele>509.4</ele>
        <time>2025-06-29T07:03:22Z</time>
      </trkpt>
      <trkpt lat="42.86984" lon="1.20452">
        <ele>509</ele>
        <time>2025-06-29T07:03:23Z</time>
      </trkpt>
      <trkpt lat="42.86979" lon="1.20451">
        <ele>508.4</ele>
        <time>2025-06-29T07:03:24Z</time>
      </trkpt>
      <trkpt lat="42.86975" lon="1.20449">
        <ele>508</ele>
        <time>2025-06-29T07:03:25Z</time>
      </trkpt>
      <trkpt lat="42.86971" lon="1.20447">
        <ele>507.4</ele>
        <time>2025-06-29T07:03:26Z</time>
      </trkpt>
      <trkpt lat="42.86968" lon="1.20445">
        <ele>507</ele>
        <time>2025-06-29T07:03:27Z</time>
      </trkpt>
      <trkpt lat="42.86946" lon="1.20434">
        <ele>507</ele>
        <time>2025-06-29T07:03:32Z</time>
      </trkpt>
      <trkpt lat="42.86913" lon="1.20416">
        <ele>507</ele>
        <time>2025-06-29T07:03:39Z</time>
      </trkpt>
      <trkpt lat="42.86874" lon="1.20393">
        <ele>507</ele>
        <time>2025-06-29T07:03:47Z</time>
      </trkpt>
      <trkpt lat="42.86831" lon="1.20368">
        <ele>507</ele>
        <time>2025-06-29T07:03:56Z</time>
      </trkpt>
      <trkpt lat="42.86799" lon="1.20351">
        <ele>507</ele>
        <time>2025-06-29T07:04:03Z</time>
      </trkpt>
      <trkpt lat="42.86764" lon="1.20331">
        <ele>507</ele>
        <time>2025-06-29T07:04:11Z</time>
      </trkpt>
      <trkpt lat="42.86725" lon="1.2031">
        <ele>507</ele>
        <time>2025-06-29T07:04:20Z</time>
      </trkpt>
      <trkpt lat="42.86678" lon="1.20282">
        <ele>507</ele>
        <time>2025-06-29T07:04:31Z</time>
      </trkpt>
      <trkpt lat="42.8665" lon="1.20267">
        <ele>507</ele>
        <time>2025-06-29T07:04:38Z</time>
      </trkpt>
      <trkpt lat="42.86622" lon="1.2025">
        <ele>507</ele>
        <time>2025-06-29T07:04:45Z</time>
      </trkpt>
      <trkpt lat="42.86606" lon="1.20243">
        <ele>507.4</ele>
        <time>2025-06-29T07:04:49Z</time>
      </trkpt>
      <trkpt lat="42.86602" lon="1.20241">
        <ele>507.8</ele>
        <time>2025-06-29T07:04:50Z</time>
      </trkpt>
      <trkpt lat="42.86598" lon="1.20239">
        <ele>508.2</ele>
        <time>2025-06-29T07:04:51Z</time>
      </trkpt>
      <trkpt lat="42.86594" lon="1.20238">
        <ele>508.8</ele>
        <time>2025-06-29T07:04:52Z</time>
      </trkpt>
      <trkpt lat="42.8659" lon="1.20236">
        <ele>509.2</ele>
        <time>2025-06-29T07:04:53Z</time>
      </trkpt>
      <trkpt lat="42.86569" lon="1.20226">
        <ele>509.2</ele>
        <time>2025-06-29T07:04:59Z</time>
      </trkpt>
      <trkpt lat="42.86553" lon="1.20217">
        <ele>509.6</ele>
        <time>2025-06-29T07:05:04Z</time>
      </trkpt>
      <trkpt lat="42.8655" lon="1.20215">
        <ele>510</ele>
        <time>2025-06-29T07:05:05Z</time>
      </trkpt>
      <trkpt lat="42.86548" lon="1.20214">
        <ele>510.4</ele>
        <time>2025-06-29T07:05:06Z</time>
      </trkpt>
      <trkpt lat="42.86546" lon="1.20213">
        <ele>510.8</ele>
        <time>2025-06-29T07:05:07Z</time>
      </trkpt>
      <trkpt lat="42.86543" lon="1.20212">
        <ele>511.2</ele>
        <time>2025-06-29T07:05:08Z</time>
      </trkpt>
      <trkpt lat="42.86534" lon="1.20207">
        <ele>511.2</ele>
        <time>2025-06-29T07:05:11Z</time>
      </trkpt>
      <trkpt lat="42.86517" lon="1.20197">
        <ele>511.2</ele>
        <time>2025-06-29T07:05:17Z</time>
      </trkpt>
      <trkpt lat="42.8649" lon="1.20175">
        <ele>511.2</ele>
        <time>2025-06-29T07:05:24Z</time>
      </trkpt>
      <trkpt lat="42.86469" lon="1.20163">
        <ele>511.6</ele>
        <time>2025-06-29T07:05:30Z</time>
      </trkpt>
      <trkpt lat="42.86465" lon="1.20161">
        <ele>512</ele>
        <time>2025-06-29T07:05:31Z</time>
      </trkpt>
      <trkpt lat="42.86462" lon="1.20159">
        <ele>512.4</ele>
        <time>2025-06-29T07:05:32Z</time>
      </trkpt>
      <trkpt lat="42.86458" lon="1.20157">
        <ele>512.8</ele>
        <time>2025-06-29T07:05:33Z</time>
      </trkpt>
      <trkpt lat="42.86455" lon="1.20155">
        <ele>513.2</ele>
        <time>2025-06-29T07:05:34Z</time>
      </trkpt>
      <trkpt lat="42.86439" lon="1.20145">
        <ele>513.2</ele>
        <time>2025-06-29T07:05:39Z</time>
      </trkpt>
      <trkpt lat="42.86427" lon="1.20137">
        <ele>513.2</ele>
        <time>2025-06-29T07:05:43Z</time>
      </trkpt>
      <trkpt lat="42.86417" lon="1.20133">
        <ele>512.8</ele>
        <time>2025-06-29T07:05:45Z</time>
      </trkpt>
      <trkpt lat="42.86413" lon="1.20133">
        <ele>512.4</ele>
        <time>2025-06-29T07:05:46Z</time>
      </trkpt>
      <trkpt lat="42.86408" lon="1.20133">
        <ele>511.8</ele>
        <time>2025-06-29T07:05:47Z</time>
      </trkpt>
      <trkpt lat="42.86405" lon="1.20134">
        <ele>511</ele>
        <time>2025-06-29T07:05:48Z</time>
      </trkpt>
      <trkpt lat="42.86393" lon="1.20136">
        <ele>511</ele>
        <time>2025-06-29T07:05:51Z</time>
      </trkpt>
      <trkpt lat="42.86381" lon="1.20135">
        <ele>511</ele>
        <time>2025-06-29T07:05:55Z</time>
      </trkpt>
      <trkpt lat="42.86378" lon="1.20132">
        <ele>511</ele>
        <time>2025-06-29T07:05:56Z</time>
      </trkpt>
      <trkpt lat="42.86366" lon="1.20111">
        <ele>511</ele>
        <time>2025-06-29T07:06:02Z</time>
      </trkpt>
      <trkpt lat="42.86368" lon="1.20102">
        <ele>511</ele>
        <time>2025-06-29T07:06:04Z</time>
      </trkpt>
      <trkpt lat="42.8637" lon="1.20099">
        <ele>511</ele>
        <time>2025-06-29T07:06:05Z</time>
      </trkpt>
      <trkpt lat="42.86368" lon="1.20083">
        <ele>511</ele>
        <time>2025-06-29T07:06:09Z</time>
      </trkpt>
      <trkpt lat="42.86368" lon="1.20068">
        <ele>511</ele>
        <time>2025-06-29T07:06:13Z</time>
      </trkpt>
      <trkpt lat="42.8637" lon="1.20057">
        <ele>511</ele>
        <time>2025-06-29T07:06:17Z</time>
      </trkpt>
      <trkpt lat="42.8637" lon="1.20054">
        <ele>511</ele>
        <time>2025-06-29T07:06:18Z</time>
      </trkpt>
      <trkpt lat="42.8637" lon="1.20051">
        <ele>511.4</ele>
        <time>2025-06-29T07:06:19Z</time>
      </trkpt>
      <trkpt lat="42.86368" lon="1.20047">
        <ele>511.8</ele>
        <time>2025-06-29T07:06:20Z</time>
      </trkpt>
      <trkpt lat="42.86365" lon="1.20044">
        <ele>512.2</ele>
        <time>2025-06-29T07:06:21Z</time>
      </trkpt>
      <trkpt lat="42.86363" lon="1.2004">
        <ele>512.6</ele>
        <time>2025-06-29T07:06:22Z</time>
      </trkpt>
      <trkpt lat="42.86362" lon="1.20037">
        <ele>513.2</ele>
        <time>2025-06-29T07:06:23Z</time>
      </trkpt>
      <trkpt lat="42.86364" lon="1.20032">
        <ele>513.2</ele>
        <time>2025-06-29T07:06:25Z</time>
      </trkpt>
      <trkpt lat="42.86366" lon="1.20022">
        <ele>513.2</ele>
        <time>2025-06-29T07:06:28Z</time>
      </trkpt>
      <trkpt lat="42.86368" lon="1.20019">
        <ele>513.2</ele>
        <time>2025-06-29T07:06:29Z</time>
      </trkpt>
      <trkpt lat="42.8637" lon="1.20016">
        <ele>513.2</ele>
        <time>2025-06-29T07:06:30Z</time>
      </trkpt>
      <trkpt lat="42.86373" lon="1.20003">
        <ele>513.2</ele>
        <time>2025-06-29T07:06:34Z</time>
      </trkpt>
      <trkpt lat="42.86371" lon="1.2">
        <ele>513.2</ele>
        <time>2025-06-29T07:06:35Z</time>
      </trkpt>
      <trkpt lat="42.86366" lon="1.19995">
        <ele>513.6</ele>
        <time>2025-06-29T07:06:37Z</time>
      </trkpt>
      <trkpt lat="42.86363" lon="1.19992">
        <ele>514</ele>
        <time>2025-06-29T07:06:38Z</time>
      </trkpt>
      <trkpt lat="42.8636" lon="1.19989">
        <ele>514.4</ele>
        <time>2025-06-29T07:06:39Z</time>
      </trkpt>
      <trkpt lat="42.86357" lon="1.19984">
        <ele>514.8</ele>
        <time>2025-06-29T07:06:40Z</time>
      </trkpt>
      <trkpt lat="42.86355" lon="1.1998">
        <ele>515.2</ele>
        <time>2025-06-29T07:06:41Z</time>
      </trkpt>
      <trkpt lat="42.86334" lon="1.19964">
        <ele>515.2</ele>
        <time>2025-06-29T07:06:47Z</time>
      </trkpt>
      <trkpt lat="42.86316" lon="1.19945">
        <ele>515.2</ele>
        <time>2025-06-29T07:06:54Z</time>
      </trkpt>
      <trkpt lat="42.86296" lon="1.19925">
        <ele>515.2</ele>
        <time>2025-06-29T07:07:01Z</time>
      </trkpt>
      <trkpt lat="42.86293" lon="1.19922">
        <ele>515.6</ele>
        <time>2025-06-29T07:07:02Z</time>
      </trkpt>
      <trkpt lat="42.8629" lon="1.19919">
        <ele>516.2</ele>
        <time>2025-06-29T07:07:03Z</time>
      </trkpt>
      <trkpt lat="42.86287" lon="1.19915">
        <ele>516.6</ele>
        <time>2025-06-29T07:07:04Z</time>
      </trkpt>
      <trkpt lat="42.86284" lon="1.19912">
        <ele>517</ele>
        <time>2025-06-29T07:07:05Z</time>
      </trkpt>
      <trkpt lat="42.86281" lon="1.19909">
        <ele>517.4</ele>
        <time>2025-06-29T07:07:06Z</time>
      </trkpt>
      <trkpt lat="42.8627" lon="1.19899">
        <ele>517.4</ele>
        <time>2025-06-29T07:07:10Z</time>
      </trkpt>
      <trkpt lat="42.86248" lon="1.19883">
        <ele>517.4</ele>
        <time>2025-06-29T07:07:17Z</time>
      </trkpt>
      <trkpt lat="42.86227" lon="1.19877">
        <ele>517.4</ele>
        <time>2025-06-29T07:07:23Z</time>
      </trkpt>
      <trkpt lat="42.86205" lon="1.19871">
        <ele>517.4</ele>
        <time>2025-06-29T07:07:29Z</time>
      </trkpt>
      <trkpt lat="42.86178" lon="1.19864">
        <ele>517.4</ele>
        <time>2025-06-29T07:07:36Z</time>
      </trkpt>
      <trkpt lat="42.86152" lon="1.19854">
        <ele>517.4</ele>
        <time>2025-06-29T07:07:44Z</time>
      </trkpt>
      <trkpt lat="42.86127" lon="1.19848">
        <ele>517.4</ele>
        <time>2025-06-29T07:07:51Z</time>
      </trkpt>
      <trkpt lat="42.86105" lon="1.1984">
        <ele>517.4</ele>
        <time>2025-06-29T07:07:57Z</time>
      </trkpt>
      <trkpt lat="42.86086" lon="1.19827">
        <ele>517.4</ele>
        <time>2025-06-29T07:08:03Z</time>
      </trkpt>
      <trkpt lat="42.86069" lon="1.19815">
        <ele>517.4</ele>
        <time>2025-06-29T07:08:09Z</time>
      </trkpt>
      <trkpt lat="42.86051" lon="1.19803">
        <ele>517.4</ele>
        <time>2025-06-29T07:08:15Z</time>
      </trkpt>
      <trkpt lat="42.86032" lon="1.19787">
        <ele>517.4</ele>
        <time>2025-06-29T07:08:21Z</time>
      </trkpt>
      <trkpt lat="42.86011" lon="1.1977">
        <ele>517.4</ele>
        <time>2025-06-29T07:08:27Z</time>
      </trkpt>
      <trkpt lat="42.85989" lon="1.19751">
        <ele>517.4</ele>
        <time>2025-06-29T07:08:34Z</time>
      </trkpt>
      <trkpt lat="42.85969" lon="1.19744">
        <ele>517.4</ele>
        <time>2025-06-29T07:08:40Z</time>
      </trkpt>
      <trkpt lat="42.85951" lon="1.19739">
        <ele>517.4</ele>
        <time>2025-06-29T07:08:46Z</time>
      </trkpt>
      <trkpt lat="42.85927" lon="1.1973">
        <ele>517.4</ele>
        <time>2025-06-29T07:08:52Z</time>
      </trkpt>
      <trkpt lat="42.85907" lon="1.19724">
        <ele>517.4</ele>
        <time>2025-06-29T07:08:57Z</time>
      </trkpt>
      <trkpt lat="42.85893" lon="1.19725">
        <ele>517.4</ele>
        <time>2025-06-29T07:09:01Z</time>
      </trkpt>
      <trkpt lat="42.85881" lon="1.19728">
        <ele>517.4</ele>
        <time>2025-06-29T07:09:04Z</time>
      </trkpt>
      <trkpt lat="42.85871" lon="1.19727">
        <ele>517</ele>
        <time>2025-06-29T07:09:06Z</time>
      </trkpt>
      <trkpt lat="42.85865" lon="1.19725">
        <ele>516.6</ele>
        <time>2025-06-29T07:09:07Z</time>
      </trkpt>
      <trkpt lat="42.8586" lon="1.19723">
        <ele>516</ele>
        <time>2025-06-29T07:09:08Z</time>
      </trkpt>
      <trkpt lat="42.85855" lon="1.1972">
        <ele>515.6</ele>
        <time>2025-06-29T07:09:09Z</time>
      </trkpt>
      <trkpt lat="42.85851" lon="1.19719">
        <ele>515.2</ele>
        <time>2025-06-29T07:09:10Z</time>
      </trkpt>
      <trkpt lat="42.85828" lon="1.19709">
        <ele>515.2</ele>
        <time>2025-06-29T07:09:16Z</time>
      </trkpt>
      <trkpt lat="42.85805" lon="1.19702">
        <ele>515.2</ele>
        <time>2025-06-29T07:09:23Z</time>
      </trkpt>
      <trkpt lat="42.85785" lon="1.19697">
        <ele>515.2</ele>
        <time>2025-06-29T07:09:29Z</time>
      </trkpt>
      <trkpt lat="42.85763" lon="1.19686">
        <ele>515.2</ele>
        <time>2025-06-29T07:09:36Z</time>
      </trkpt>
      <trkpt lat="42.85748" lon="1.19677">
        <ele>515.2</ele>
        <time>2025-06-29T07:09:41Z</time>
      </trkpt>
      <trkpt lat="42.85735" lon="1.19673">
        <ele>515.2</ele>
        <time>2025-06-29T07:09:46Z</time>
      </trkpt>
      <trkpt lat="42.85722" lon="1.19669">
        <ele>515.2</ele>
        <time>2025-06-29T07:09:51Z</time>
      </trkpt>
      <trkpt lat="42.85711" lon="1.19664">
        <ele>515.2</ele>
        <time>2025-06-29T07:09:57Z</time>
      </trkpt>
      <trkpt lat="42.85701" lon="1.19662">
        <ele>515.2</ele>
        <time>2025-06-29T07:10:02Z</time>
      </trkpt>
      <trkpt lat="42.85689" lon="1.19662">
        <ele>515.2</ele>
        <time>2025-06-29T07:10:08Z</time>
      </trkpt>
      <trkpt lat="42.85668" lon="1.19662">
        <ele>515.2</ele>
        <time>2025-06-29T07:10:15Z</time>
      </trkpt>
      <trkpt lat="42.85659" lon="1.19661">
        <ele>515.2</ele>
        <time>2025-06-29T07:10:18Z</time>
      </trkpt>
      <trkpt lat="42.85654" lon="1.1966">
        <ele>515.2</ele>
        <time>2025-06-29T07:10:20Z</time>
      </trkpt>
      <trkpt lat="42.8564" lon="1.19657">
        <ele>515.2</ele>
        <time>2025-06-29T07:10:25Z</time>
      </trkpt>
      <trkpt lat="42.85636" lon="1.19657">
        <ele>515.2</ele>
        <time>2025-06-29T07:10:27Z</time>
      </trkpt>
      <trkpt lat="42.85631" lon="1.19656">
        <ele>515.2</ele>
        <time>2025-06-29T07:10:30Z</time>
      </trkpt>
      <trkpt lat="42.85618" lon="1.1965">
        <ele>515.2</ele>
        <time>2025-06-29T07:10:35Z</time>
      </trkpt>
      <trkpt lat="42.85603" lon="1.19648">
        <ele>515.2</ele>
        <time>2025-06-29T07:10:42Z</time>
      </trkpt>
      <trkpt lat="42.85594" lon="1.19646">
        <ele>515.2</ele>
        <time>2025-06-29T07:10:47Z</time>
      </trkpt>
      <trkpt lat="42.8558" lon="1.1964">
        <ele>515.2</ele>
        <time>2025-06-29T07:10:53Z</time>
      </trkpt>
      <trkpt lat="42.85576" lon="1.19639">
        <ele>515.6</ele>
        <time>2025-06-29T07:10:54Z</time>
      </trkpt>
      <trkpt lat="42.85574" lon="1.19639">
        <ele>516</ele>
        <time>2025-06-29T07:10:55Z</time>
      </trkpt>
      <trkpt lat="42.85572" lon="1.19637">
        <ele>516.4</ele>
        <time>2025-06-29T07:10:56Z</time>
      </trkpt>
      <trkpt lat="42.85568" lon="1.19636">
        <ele>517</ele>
        <time>2025-06-29T07:10:57Z</time>
      </trkpt>
      <trkpt lat="42.85565" lon="1.19634">
        <ele>517.4</ele>
        <time>2025-06-29T07:10:58Z</time>
      </trkpt>
      <trkpt lat="42.85551" lon="1.19632">
        <ele>517.4</ele>
        <time>2025-06-29T07:11:03Z</time>
      </trkpt>
      <trkpt lat="42.85548" lon="1.19631">
        <ele>517.8</ele>
        <time>2025-06-29T07:11:04Z</time>
      </trkpt>
      <trkpt lat="42.85544" lon="1.1963">
        <ele>518.2</ele>
        <time>2025-06-29T07:11:05Z</time>
      </trkpt>
      <trkpt lat="42.8554" lon="1.19629">
        <ele>518.6</ele>
        <time>2025-06-29T07:11:06Z</time>
      </trkpt>
      <trkpt lat="42.85537" lon="1.19628">
        <ele>519</ele>
        <time>2025-06-29T07:11:07Z</time>
      </trkpt>
      <trkpt lat="42.85534" lon="1.19627">
        <ele>519.4</ele>
        <time>2025-06-29T07:11:08Z</time>
      </trkpt>
      <trkpt lat="42.85528" lon="1.19624">
        <ele>519.4</ele>
        <time>2025-06-29T07:11:10Z</time>
      </trkpt>
      <trkpt lat="42.85511" lon="1.19621">
        <ele>519.4</ele>
        <time>2025-06-29T07:11:15Z</time>
      </trkpt>
      <trkpt lat="42.85496" lon="1.19619">
        <ele>519.8</ele>
        <time>2025-06-29T07:11:21Z</time>
      </trkpt>
      <trkpt lat="42.85493" lon="1.19618">
        <ele>520.2</ele>
        <time>2025-06-29T07:11:22Z</time>
      </trkpt>
      <trkpt lat="42.85491" lon="1.19617">
        <ele>520.8</ele>
        <time>2025-06-29T07:11:23Z</time>
      </trkpt>
      <trkpt lat="42.85489" lon="1.19617">
        <ele>521.2</ele>
        <time>2025-06-29T07:11:24Z</time>
      </trkpt>
      <trkpt lat="42.85486" lon="1.19616">
        <ele>521.6</ele>
        <time>2025-06-29T07:11:25Z</time>
      </trkpt>
      <trkpt lat="42.85484" lon="1.19615">
        <ele>521.6</ele>
        <time>2025-06-29T07:11:26Z</time>
      </trkpt>
      <trkpt lat="42.85482" lon="1.19614">
        <ele>521.6</ele>
        <time>2025-06-29T07:11:27Z</time>
      </trkpt>
      <trkpt lat="42.85473" lon="1.19605">
        <ele>521.6</ele>
        <time>2025-06-29T07:11:31Z</time>
      </trkpt>
      <trkpt lat="42.85472" lon="1.19602">
        <ele>521.6</ele>
        <time>2025-06-29T07:11:32Z</time>
      </trkpt>
      <trkpt lat="42.85468" lon="1.19597">
        <ele>522</ele>
        <time>2025-06-29T07:11:34Z</time>
      </trkpt>
      <trkpt lat="42.85466" lon="1.19595">
        <ele>522.4</ele>
        <time>2025-06-29T07:11:35Z</time>
      </trkpt>
      <trkpt lat="42.85463" lon="1.19592">
        <ele>522.8</ele>
        <time>2025-06-29T07:11:36Z</time>
      </trkpt>
      <trkpt lat="42.85461" lon="1.19589">
        <ele>523.2</ele>
        <time>2025-06-29T07:11:37Z</time>
      </trkpt>
      <trkpt lat="42.85458" lon="1.19586">
        <ele>523.6</ele>
        <time>2025-06-29T07:11:38Z</time>
      </trkpt>
      <trkpt lat="42.8545" lon="1.19575">
        <ele>523.6</ele>
        <time>2025-06-29T07:11:42Z</time>
      </trkpt>
      <trkpt lat="42.8544" lon="1.19562">
        <ele>523.6</ele>
        <time>2025-06-29T07:11:47Z</time>
      </trkpt>
      <trkpt lat="42.85429" lon="1.19542">
        <ele>523.6</ele>
        <time>2025-06-29T07:11:53Z</time>
      </trkpt>
      <trkpt lat="42.85426" lon="1.19533">
        <ele>524</ele>
        <time>2025-06-29T07:11:56Z</time>
      </trkpt>
      <trkpt lat="42.85424" lon="1.1953">
        <ele>524.6</ele>
        <time>2025-06-29T07:11:57Z</time>
      </trkpt>
      <trkpt lat="42.85423" lon="1.19527">
        <ele>525</ele>
        <time>2025-06-29T07:11:58Z</time>
      </trkpt>
      <trkpt lat="42.85422" lon="1.19524">
        <ele>525.8</ele>
        <time>2025-06-29T07:11:59Z</time>
      </trkpt>
      <trkpt lat="42.85416" lon="1.1951">
        <ele>525.8</ele>
        <time>2025-06-29T07:12:04Z</time>
      </trkpt>
      <trkpt lat="42.85411" lon="1.19496">
        <ele>525.8</ele>
        <time>2025-06-29T07:12:09Z</time>
      </trkpt>
      <trkpt lat="42.85405" lon="1.19479">
        <ele>525.8</ele>
        <time>2025-06-29T07:12:14Z</time>
      </trkpt>
      <trkpt lat="42.85397" lon="1.19461">
        <ele>525.8</ele>
        <time>2025-06-29T07:12:19Z</time>
      </trkpt>
      <trkpt lat="42.85391" lon="1.19439">
        <ele>525.8</ele>
        <time>2025-06-29T07:12:25Z</time>
      </trkpt>
      <trkpt lat="42.85383" lon="1.19419">
        <ele>525.8</ele>
        <time>2025-06-29T07:12:31Z</time>
      </trkpt>
      <trkpt lat="42.85376" lon="1.19399">
        <ele>525.8</ele>
        <time>2025-06-29T07:12:36Z</time>
      </trkpt>
      <trkpt lat="42.85369" lon="1.19383">
        <ele>525.8</ele>
        <time>2025-06-29T07:12:41Z</time>
      </trkpt>
      <trkpt lat="42.8536" lon="1.19364">
        <ele>525.8</ele>
        <time>2025-06-29T07:12:47Z</time>
      </trkpt>
      <trkpt lat="42.85347" lon="1.19347">
        <ele>525.8</ele>
        <time>2025-06-29T07:12:53Z</time>
      </trkpt>
      <trkpt lat="42.85338" lon="1.19334">
        <ele>525.8</ele>
        <time>2025-06-29T07:12:57Z</time>
      </trkpt>
      <trkpt lat="42.85326" lon="1.19315">
        <ele>525.8</ele>
        <time>2025-06-29T07:13:03Z</time>
      </trkpt>
      <trkpt lat="42.85317" lon="1.19303">
        <ele>525.8</ele>
        <time>2025-06-29T07:13:08Z</time>
      </trkpt>
      <trkpt lat="42.85309" lon="1.19292">
        <ele>526.4</ele>
        <time>2025-06-29T07:13:13Z</time>
      </trkpt>
      <trkpt lat="42.85307" lon="1.1929">
        <ele>526.8</ele>
        <time>2025-06-29T07:13:14Z</time>
      </trkpt>
      <trkpt lat="42.85306" lon="1.19288">
        <ele>527.2</ele>
        <time>2025-06-29T07:13:15Z</time>
      </trkpt>
      <trkpt lat="42.85304" lon="1.19286">
        <ele>527.6</ele>
        <time>2025-06-29T07:13:16Z</time>
      </trkpt>
      <trkpt lat="42.85302" lon="1.19284">
        <ele>528</ele>
        <time>2025-06-29T07:13:17Z</time>
      </trkpt>
      <trkpt lat="42.85299" lon="1.19279">
        <ele>528</ele>
        <time>2025-06-29T07:13:19Z</time>
      </trkpt>
      <trkpt lat="42.85294" lon="1.19271">
        <ele>528.4</ele>
        <time>2025-06-29T07:13:22Z</time>
      </trkpt>
      <trkpt lat="42.85292" lon="1.19269">
        <ele>528.8</ele>
        <time>2025-06-29T07:13:23Z</time>
      </trkpt>
      <trkpt lat="42.85291" lon="1.19267">
        <ele>529.2</ele>
        <time>2025-06-29T07:13:24Z</time>
      </trkpt>
      <trkpt lat="42.85289" lon="1.19264">
        <ele>529.8</ele>
        <time>2025-06-29T07:13:25Z</time>
      </trkpt>
      <trkpt lat="42.85288" lon="1.19262">
        <ele>530.2</ele>
        <time>2025-06-29T07:13:26Z</time>
      </trkpt>
      <trkpt lat="42.85286" lon="1.1926">
        <ele>530.2</ele>
        <time>2025-06-29T07:13:27Z</time>
      </trkpt>
      <trkpt lat="42.85284" lon="1.19255">
        <ele>530.6</ele>
        <time>2025-06-29T07:13:29Z</time>
      </trkpt>
      <trkpt lat="42.85284" lon="1.19252">
        <ele>531</ele>
        <time>2025-06-29T07:13:30Z</time>
      </trkpt>
      <trkpt lat="42.85284" lon="1.19249">
        <ele>531.4</ele>
        <time>2025-06-29T07:13:31Z</time>
      </trkpt>
      <trkpt lat="42.85284" lon="1.19246">
        <ele>532</ele>
        <time>2025-06-29T07:13:32Z</time>
      </trkpt>
      <trkpt lat="42.85285" lon="1.19244">
        <ele>532.4</ele>
        <time>2025-06-29T07:13:33Z</time>
      </trkpt>
      <trkpt lat="42.85285" lon="1.19237">
        <ele>532.4</ele>
        <time>2025-06-29T07:13:35Z</time>
      </trkpt>
      <trkpt lat="42.85286" lon="1.19234">
        <ele>532.8</ele>
        <time>2025-06-29T07:13:36Z</time>
      </trkpt>
      <trkpt lat="42.85286" lon="1.19231">
        <ele>533.2</ele>
        <time>2025-06-29T07:13:37Z</time>
      </trkpt>
      <trkpt lat="42.85286" lon="1.1923">
        <ele>534.2</ele>
        <time>2025-06-29T07:13:38Z</time>
      </trkpt>
      <trkpt lat="42.85287" lon="1.19228">
        <ele>534.6</ele>
        <time>2025-06-29T07:13:39Z</time>
      </trkpt>
      <trkpt lat="42.85287" lon="1.19222">
        <ele>535.2</ele>
        <time>2025-06-29T07:13:41Z</time>
      </trkpt>
      <trkpt lat="42.85287" lon="1.19219">
        <ele>535.6</ele>
        <time>2025-06-29T07:13:42Z</time>
      </trkpt>
      <trkpt lat="42.85287" lon="1.19217">
        <ele>536</ele>
        <time>2025-06-29T07:13:43Z</time>
      </trkpt>
      <trkpt lat="42.85286" lon="1.19214">
        <ele>536.6</ele>
        <time>2025-06-29T07:13:44Z</time>
      </trkpt>
      <trkpt lat="42.85286" lon="1.19211">
        <ele>537</ele>
        <time>2025-06-29T07:13:45Z</time>
      </trkpt>
      <trkpt lat="42.85285" lon="1.19206">
        <ele>537.4</ele>
        <time>2025-06-29T07:13:47Z</time>
      </trkpt>
      <trkpt lat="42.85284" lon="1.19204">
        <ele>537.8</ele>
        <time>2025-06-29T07:13:48Z</time>
      </trkpt>
      <trkpt lat="42.85284" lon="1.19202">
        <ele>538.2</ele>
        <time>2025-06-29T07:13:49Z</time>
      </trkpt>
      <trkpt lat="42.85283" lon="1.19201">
        <ele>538.6</ele>
        <time>2025-06-29T07:13:50Z</time>
      </trkpt>
      <trkpt lat="42.85282" lon="1.19199">
        <ele>539.2</ele>
        <time>2025-06-29T07:13:51Z</time>
      </trkpt>
      <trkpt lat="42.85281" lon="1.19194">
        <ele>539.2</ele>
        <time>2025-06-29T07:13:54Z</time>
      </trkpt>
      <trkpt lat="42.8528" lon="1.19191">
        <ele>539.6</ele>
        <time>2025-06-29T07:13:55Z</time>
      </trkpt>
      <trkpt lat="42.8528" lon="1.1919">
        <ele>540</ele>
        <time>2025-06-29T07:13:56Z</time>
      </trkpt>
      <trkpt lat="42.85279" lon="1.19188">
        <ele>540.4</ele>
        <time>2025-06-29T07:13:57Z</time>
      </trkpt>
      <trkpt lat="42.85278" lon="1.19187">
        <ele>541</ele>
        <time>2025-06-29T07:13:58Z</time>
      </trkpt>
      <trkpt lat="42.85277" lon="1.19186">
        <ele>541.4</ele>
        <time>2025-06-29T07:13:59Z</time>
      </trkpt>
      <trkpt lat="42.85276" lon="1.19184">
        <ele>541.4</ele>
        <time>2025-06-29T07:14:00Z</time>
      </trkpt>
      <trkpt lat="42.85274" lon="1.19182">
        <ele>542.2</ele>
        <time>2025-06-29T07:14:02Z</time>
      </trkpt>
      <trkpt lat="42.85272" lon="1.1918">
        <ele>542.8</ele>
        <time>2025-06-29T07:14:03Z</time>
      </trkpt>
      <trkpt lat="42.85271" lon="1.19178">
        <ele>543.2</ele>
        <time>2025-06-29T07:14:04Z</time>
      </trkpt>
      <trkpt lat="42.85268" lon="1.19177">
        <ele>543.8</ele>
        <time>2025-06-29T07:14:05Z</time>
      </trkpt>
      <trkpt lat="42.85266" lon="1.19175">
        <ele>544.2</ele>
        <time>2025-06-29T07:14:07Z</time>
      </trkpt>
      <trkpt lat="42.85264" lon="1.19175">
        <ele>544.6</ele>
        <time>2025-06-29T07:14:08Z</time>
      </trkpt>
      <trkpt lat="42.85262" lon="1.19175">
        <ele>545</ele>
        <time>2025-06-29T07:14:09Z</time>
      </trkpt>
      <trkpt lat="42.85261" lon="1.19176">
        <ele>545.4</ele>
        <time>2025-06-29T07:14:10Z</time>
      </trkpt>
      <trkpt lat="42.85259" lon="1.19176">
        <ele>545.8</ele>
        <time>2025-06-29T07:14:11Z</time>
      </trkpt>
      <trkpt lat="42.85254" lon="1.19178">
        <ele>546.2</ele>
        <time>2025-06-29T07:14:15Z</time>
      </trkpt>
      <trkpt lat="42.85253" lon="1.19178">
        <ele>546.6</ele>
        <time>2025-06-29T07:14:16Z</time>
      </trkpt>
      <trkpt lat="42.85252" lon="1.19178">
        <ele>547.2</ele>
        <time>2025-06-29T07:14:17Z</time>
      </trkpt>
      <trkpt lat="42.8525" lon="1.1918">
        <ele>547.6</ele>
        <time>2025-06-29T07:14:18Z</time>
      </trkpt>
      <trkpt lat="42.85248" lon="1.19181">
        <ele>548</ele>
        <time>2025-06-29T07:14:19Z</time>
      </trkpt>
      <trkpt lat="42.85246" lon="1.19182">
        <ele>548</ele>
        <time>2025-06-29T07:14:21Z</time>
      </trkpt>
      <trkpt lat="42.85244" lon="1.19182">
        <ele>548</ele>
        <time>2025-06-29T07:14:22Z</time>
      </trkpt>
      <trkpt lat="42.85242" lon="1.19181">
        <ele>548.4</ele>
        <time>2025-06-29T07:14:23Z</time>
      </trkpt>
      <trkpt lat="42.85241" lon="1.19181">
        <ele>548.8</ele>
        <time>2025-06-29T07:14:24Z</time>
      </trkpt>
      <trkpt lat="42.85239" lon="1.1918">
        <ele>549.2</ele>
        <time>2025-06-29T07:14:25Z</time>
      </trkpt>
      <trkpt lat="42.85237" lon="1.19179">
        <ele>549.6</ele>
        <time>2025-06-29T07:14:26Z</time>
      </trkpt>
      <trkpt lat="42.85235" lon="1.19179">
        <ele>550.2</ele>
        <time>2025-06-29T07:14:27Z</time>
      </trkpt>
      <trkpt lat="42.85224" lon="1.19175">
        <ele>550.2</ele>
        <time>2025-06-29T07:14:33Z</time>
      </trkpt>
      <trkpt lat="42.85215" lon="1.19173">
        <ele>550.2</ele>
        <time>2025-06-29T07:14:37Z</time>
      </trkpt>
      <trkpt lat="42.8521" lon="1.19172">
        <ele>550.2</ele>
        <time>2025-06-29T07:14:39Z</time>
      </trkpt>
      <trkpt lat="42.85203" lon="1.19171">
        <ele>550.6</ele>
        <time>2025-06-29T07:14:42Z</time>
      </trkpt>
      <trkpt lat="42.85202" lon="1.19171">
        <ele>551</ele>
        <time>2025-06-29T07:14:43Z</time>
      </trkpt>
      <trkpt lat="42.852" lon="1.1917">
        <ele>551.4</ele>
        <time>2025-06-29T07:14:44Z</time>
      </trkpt>
      <trkpt lat="42.85197" lon="1.1917">
        <ele>551.8</ele>
        <time>2025-06-29T07:14:45Z</time>
      </trkpt>
      <trkpt lat="42.85195" lon="1.1917">
        <ele>552.2</ele>
        <time>2025-06-29T07:14:46Z</time>
      </trkpt>
      <trkpt lat="42.8518" lon="1.19174">
        <ele>552.2</ele>
        <time>2025-06-29T07:14:52Z</time>
      </trkpt>
      <trkpt lat="42.85174" lon="1.1918">
        <ele>552.6</ele>
        <time>2025-06-29T07:14:55Z</time>
      </trkpt>
      <trkpt lat="42.85172" lon="1.19182">
        <ele>553</ele>
        <time>2025-06-29T07:14:56Z</time>
      </trkpt>
      <trkpt lat="42.8517" lon="1.19183">
        <ele>553.4</ele>
        <time>2025-06-29T07:14:57Z</time>
      </trkpt>
      <trkpt lat="42.85168" lon="1.19186">
        <ele>553.8</ele>
        <time>2025-06-29T07:14:58Z</time>
      </trkpt>
      <trkpt lat="42.85165" lon="1.19188">
        <ele>554.4</ele>
        <time>2025-06-29T07:14:59Z</time>
      </trkpt>
      <trkpt lat="42.85161" lon="1.19188">
        <ele>554.4</ele>
        <time>2025-06-29T07:15:02Z</time>
      </trkpt>
      <trkpt lat="42.85159" lon="1.19187">
        <ele>554.8</ele>
        <time>2025-06-29T07:15:03Z</time>
      </trkpt>
      <trkpt lat="42.85157" lon="1.19187">
        <ele>555.2</ele>
        <time>2025-06-29T07:15:04Z</time>
      </trkpt>
      <trkpt lat="42.85155" lon="1.19186">
        <ele>555.6</ele>
        <time>2025-06-29T07:15:05Z</time>
      </trkpt>
      <trkpt lat="42.85154" lon="1.19185">
        <ele>556</ele>
        <time>2025-06-29T07:15:06Z</time>
      </trkpt>
      <trkpt lat="42.85153" lon="1.19183">
        <ele>556.4</ele>
        <time>2025-06-29T07:15:07Z</time>
      </trkpt>
      <trkpt lat="42.85151" lon="1.19182">
        <ele>557</ele>
        <time>2025-06-29T07:15:08Z</time>
      </trkpt>
      <trkpt lat="42.8515" lon="1.19182">
        <ele>557.4</ele>
        <time>2025-06-29T07:15:09Z</time>
      </trkpt>
      <trkpt lat="42.85148" lon="1.19181">
        <ele>557.8</ele>
        <time>2025-06-29T07:15:10Z</time>
      </trkpt>
      <trkpt lat="42.85146" lon="1.19179">
        <ele>558.4</ele>
        <time>2025-06-29T07:15:11Z</time>
      </trkpt>
      <trkpt lat="42.85145" lon="1.19177">
        <ele>558.8</ele>
        <time>2025-06-29T07:15:12Z</time>
      </trkpt>
      <trkpt lat="42.85144" lon="1.19176">
        <ele>558.8</ele>
        <time>2025-06-29T07:15:13Z</time>
      </trkpt>
      <trkpt lat="42.85142" lon="1.19174">
        <ele>559.2</ele>
        <time>2025-06-29T07:15:14Z</time>
      </trkpt>
      <trkpt lat="42.85141" lon="1.19173">
        <ele>559.8</ele>
        <time>2025-06-29T07:15:15Z</time>
      </trkpt>
      <trkpt lat="42.85139" lon="1.19172">
        <ele>560.2</ele>
        <time>2025-06-29T07:15:16Z</time>
      </trkpt>
      <trkpt lat="42.85138" lon="1.19171">
        <ele>561</ele>
        <time>2025-06-29T07:15:17Z</time>
      </trkpt>
      <trkpt lat="42.85133" lon="1.19166">
        <ele>561.4</ele>
        <time>2025-06-29T07:15:20Z</time>
      </trkpt>
      <trkpt lat="42.85132" lon="1.19165">
        <ele>561.8</ele>
        <time>2025-06-29T07:15:21Z</time>
      </trkpt>
      <trkpt lat="42.85131" lon="1.19164">
        <ele>562.2</ele>
        <time>2025-06-29T07:15:22Z</time>
      </trkpt>
      <trkpt lat="42.8513" lon="1.19162">
        <ele>562.8</ele>
        <time>2025-06-29T07:15:23Z</time>
      </trkpt>
      <trkpt lat="42.85129" lon="1.19161">
        <ele>563.2</ele>
        <time>2025-06-29T07:15:24Z</time>
      </trkpt>
      <trkpt lat="42.85124" lon="1.19158">
        <ele>563.2</ele>
        <time>2025-06-29T07:15:27Z</time>
      </trkpt>
      <trkpt lat="42.85124" lon="1.19158">
        <ele>563.6</ele>
        <time>2025-06-29T07:15:28Z</time>
      </trkpt>
      <trkpt lat="42.85122" lon="1.19157">
        <ele>564</ele>
        <time>2025-06-29T07:15:29Z</time>
      </trkpt>
      <trkpt lat="42.8512" lon="1.19156">
        <ele>564.4</ele>
        <time>2025-06-29T07:15:30Z</time>
      </trkpt>
      <trkpt lat="42.85119" lon="1.19155">
        <ele>565</ele>
        <time>2025-06-29T07:15:31Z</time>
      </trkpt>
      <trkpt lat="42.85117" lon="1.19155">
        <ele>565.4</ele>
        <time>2025-06-29T07:15:32Z</time>
      </trkpt>
      <trkpt lat="42.8511" lon="1.19149">
        <ele>565.8</ele>
        <time>2025-06-29T07:15:36Z</time>
      </trkpt>
      <trkpt lat="42.85109" lon="1.19149">
        <ele>566.2</ele>
        <time>2025-06-29T07:15:37Z</time>
      </trkpt>
      <trkpt lat="42.85107" lon="1.19149">
        <ele>566.6</ele>
        <time>2025-06-29T07:15:38Z</time>
      </trkpt>
      <trkpt lat="42.85105" lon="1.19148">
        <ele>567</ele>
        <time>2025-06-29T07:15:39Z</time>
      </trkpt>
      <trkpt lat="42.85102" lon="1.19148">
        <ele>567.4</ele>
        <time>2025-06-29T07:15:40Z</time>
      </trkpt>
      <trkpt lat="42.85095" lon="1.19147">
        <ele>567.4</ele>
        <time>2025-06-29T07:15:42Z</time>
      </trkpt>
      <trkpt lat="42.85083" lon="1.19139">
        <ele>567.4</ele>
        <time>2025-06-29T07:15:47Z</time>
      </trkpt>
      <trkpt lat="42.85072" lon="1.19134">
        <ele>567.4</ele>
        <time>2025-06-29T07:15:52Z</time>
      </trkpt>
      <trkpt lat="42.85065" lon="1.19129">
        <ele>567.4</ele>
        <time>2025-06-29T07:15:56Z</time>
      </trkpt>
      <trkpt lat="42.85063" lon="1.19129">
        <ele>567.8</ele>
        <time>2025-06-29T07:15:57Z</time>
      </trkpt>
      <trkpt lat="42.85061" lon="1.19127">
        <ele>568.2</ele>
        <time>2025-06-29T07:15:58Z</time>
      </trkpt>
      <trkpt lat="42.85059" lon="1.19127">
        <ele>568.6</ele>
        <time>2025-06-29T07:15:59Z</time>
      </trkpt>
      <trkpt lat="42.85057" lon="1.19125">
        <ele>569</ele>
        <time>2025-06-29T07:16:00Z</time>
      </trkpt>
      <trkpt lat="42.85055" lon="1.19124">
        <ele>569.4</ele>
        <time>2025-06-29T07:16:01Z</time>
      </trkpt>
      <trkpt lat="42.85052" lon="1.19122">
        <ele>569.4</ele>
        <time>2025-06-29T07:16:03Z</time>
      </trkpt>
      <trkpt lat="42.85048" lon="1.1912">
        <ele>569.4</ele>
        <time>2025-06-29T07:16:05Z</time>
      </trkpt>
      <trkpt lat="42.85046" lon="1.19119">
        <ele>570.2</ele>
        <time>2025-06-29T07:16:06Z</time>
      </trkpt>
      <trkpt lat="42.85044" lon="1.19119">
        <ele>570.6</ele>
        <time>2025-06-29T07:16:07Z</time>
      </trkpt>
      <trkpt lat="42.85042" lon="1.19118">
        <ele>571.2</ele>
        <time>2025-06-29T07:16:08Z</time>
      </trkpt>
      <trkpt lat="42.8504" lon="1.19118">
        <ele>571.6</ele>
        <time>2025-06-29T07:16:09Z</time>
      </trkpt>
      <trkpt lat="42.85034" lon="1.19111">
        <ele>571.6</ele>
        <time>2025-06-29T07:16:13Z</time>
      </trkpt>
      <trkpt lat="42.85033" lon="1.19109">
        <ele>572</ele>
        <time>2025-06-29T07:16:14Z</time>
      </trkpt>
      <trkpt lat="42.85031" lon="1.19107">
        <ele>572.4</ele>
        <time>2025-06-29T07:16:15Z</time>
      </trkpt>
      <trkpt lat="42.85029" lon="1.19105">
        <ele>572.8</ele>
        <time>2025-06-29T07:16:16Z</time>
      </trkpt>
      <trkpt lat="42.85028" lon="1.19103">
        <ele>573.2</ele>
        <time>2025-06-29T07:16:17Z</time>
      </trkpt>
      <trkpt lat="42.85026" lon="1.19101">
        <ele>573.6</ele>
        <time>2025-06-29T07:16:18Z</time>
      </trkpt>
      <trkpt lat="42.85025" lon="1.191">
        <ele>573.6</ele>
        <time>2025-06-29T07:16:19Z</time>
      </trkpt>
      <trkpt lat="42.85017" lon="1.19093">
        <ele>573.6</ele>
        <time>2025-06-29T07:16:25Z</time>
      </trkpt>
      <trkpt lat="42.8501" lon="1.19082">
        <ele>573.6</ele>
        <time>2025-06-29T07:16:30Z</time>
      </trkpt>
      <trkpt lat="42.85006" lon="1.19077">
        <ele>574</ele>
        <time>2025-06-29T07:16:33Z</time>
      </trkpt>
      <trkpt lat="42.85005" lon="1.19075">
        <ele>574.4</ele>
        <time>2025-06-29T07:16:34Z</time>
      </trkpt>
      <trkpt lat="42.85003" lon="1.19073">
        <ele>574.8</ele>
        <time>2025-06-29T07:16:35Z</time>
      </trkpt>
      <trkpt lat="42.85002" lon="1.19071">
        <ele>575.4</ele>
        <time>2025-06-29T07:16:36Z</time>
      </trkpt>
      <trkpt lat="42.85" lon="1.19068">
        <ele>575.8</ele>
        <time>2025-06-29T07:16:37Z</time>
      </trkpt>
      <trkpt lat="42.84999" lon="1.19063">
        <ele>576.2</ele>
        <time>2025-06-29T07:16:39Z</time>
      </trkpt>
      <trkpt lat="42.84997" lon="1.19059">
        <ele>576.6</ele>
        <time>2025-06-29T07:16:40Z</time>
      </trkpt>
      <trkpt lat="42.84997" lon="1.19056">
        <ele>577</ele>
        <time>2025-06-29T07:16:41Z</time>
      </trkpt>
      <trkpt lat="42.84996" lon="1.19053">
        <ele>577.4</ele>
        <time>2025-06-29T07:16:42Z</time>
      </trkpt>
      <trkpt lat="42.84996" lon="1.19051">
        <ele>577.8</ele>
        <time>2025-06-29T07:16:43Z</time>
      </trkpt>
      <trkpt lat="42.84996" lon="1.19049">
        <ele>578.2</ele>
        <time>2025-06-29T07:16:44Z</time>
      </trkpt>
      <trkpt lat="42.84996" lon="1.19047">
        <ele>578.6</ele>
        <time>2025-06-29T07:16:45Z</time>
      </trkpt>
      <trkpt lat="42.84996" lon="1.19045">
        <ele>579.2</ele>
        <time>2025-06-29T07:16:46Z</time>
      </trkpt>
      <trkpt lat="42.84995" lon="1.19043">
        <ele>579.6</ele>
        <time>2025-06-29T07:16:47Z</time>
      </trkpt>
      <trkpt lat="42.84995" lon="1.19041">
        <ele>580</ele>
        <time>2025-06-29T07:16:48Z</time>
      </trkpt>
      <trkpt lat="42.84994" lon="1.19038">
        <ele>580</ele>
        <time>2025-06-29T07:16:49Z</time>
      </trkpt>
      <trkpt lat="42.84992" lon="1.19029">
        <ele>580.4</ele>
        <time>2025-06-29T07:16:52Z</time>
      </trkpt>
      <trkpt lat="42.8499" lon="1.19027">
        <ele>580.8</ele>
        <time>2025-06-29T07:16:53Z</time>
      </trkpt>
      <trkpt lat="42.84989" lon="1.19025">
        <ele>581.2</ele>
        <time>2025-06-29T07:16:54Z</time>
      </trkpt>
      <trkpt lat="42.84988" lon="1.19023">
        <ele>582.2</ele>
        <time>2025-06-29T07:16:55Z</time>
      </trkpt>
      <trkpt lat="42.84985" lon="1.19019">
        <ele>582.6</ele>
        <time>2025-06-29T07:16:57Z</time>
      </trkpt>
      <trkpt lat="42.84984" lon="1.19017">
        <ele>583</ele>
        <time>2025-06-29T07:16:58Z</time>
      </trkpt>
      <trkpt lat="42.84983" lon="1.19014">
        <ele>583.4</ele>
        <time>2025-06-29T07:16:59Z</time>
      </trkpt>
      <trkpt lat="42.84982" lon="1.19012">
        <ele>583.8</ele>
        <time>2025-06-29T07:17:00Z</time>
      </trkpt>
      <trkpt lat="42.84981" lon="1.19009">
        <ele>584.4</ele>
        <time>2025-06-29T07:17:01Z</time>
      </trkpt>
      <trkpt lat="42.84976" lon="1.18997">
        <ele>584.8</ele>
        <time>2025-06-29T07:17:06Z</time>
      </trkpt>
      <trkpt lat="42.84975" lon="1.18995">
        <ele>585.2</ele>
        <time>2025-06-29T07:17:07Z</time>
      </trkpt>
      <trkpt lat="42.84974" lon="1.18992">
        <ele>585.6</ele>
        <time>2025-06-29T07:17:08Z</time>
      </trkpt>
      <trkpt lat="42.84973" lon="1.1899">
        <ele>586</ele>
        <time>2025-06-29T07:17:09Z</time>
      </trkpt>
      <trkpt lat="42.84972" lon="1.18988">
        <ele>586.4</ele>
        <time>2025-06-29T07:17:10Z</time>
      </trkpt>
      <trkpt lat="42.84965" lon="1.18981">
        <ele>586.8</ele>
        <time>2025-06-29T07:17:14Z</time>
      </trkpt>
      <trkpt lat="42.84964" lon="1.18981">
        <ele>587.2</ele>
        <time>2025-06-29T07:17:15Z</time>
      </trkpt>
      <trkpt lat="42.84963" lon="1.18981">
        <ele>587.8</ele>
        <time>2025-06-29T07:17:16Z</time>
      </trkpt>
      <trkpt lat="42.84961" lon="1.18981">
        <ele>588.2</ele>
        <time>2025-06-29T07:17:17Z</time>
      </trkpt>
      <trkpt lat="42.84959" lon="1.18982">
        <ele>588.6</ele>
        <time>2025-06-29T07:17:18Z</time>
      </trkpt>
      <trkpt lat="42.84955" lon="1.18984">
        <ele>588.6</ele>
        <time>2025-06-29T07:17:20Z</time>
      </trkpt>
      <trkpt lat="42.84954" lon="1.18985">
        <ele>588.6</ele>
        <time>2025-06-29T07:17:21Z</time>
      </trkpt>
      <trkpt lat="42.84945" lon="1.18993">
        <ele>588.6</ele>
        <time>2025-06-29T07:17:26Z</time>
      </trkpt>
      <trkpt lat="42.84932" lon="1.19001">
        <ele>588.6</ele>
        <time>2025-06-29T07:17:32Z</time>
      </trkpt>
      <trkpt lat="42.84922" lon="1.18998">
        <ele>588.6</ele>
        <time>2025-06-29T07:17:36Z</time>
      </trkpt>
      <trkpt lat="42.84907" lon="1.18997">
        <ele>588.6</ele>
        <time>2025-06-29T07:17:41Z</time>
      </trkpt>
      <trkpt lat="42.84896" lon="1.18997">
        <ele>588</ele>
        <time>2025-06-29T07:17:44Z</time>
      </trkpt>
      <trkpt lat="42.84894" lon="1.18999">
        <ele>587.2</ele>
        <time>2025-06-29T07:17:45Z</time>
      </trkpt>
      <trkpt lat="42.8489" lon="1.19002">
        <ele>586.8</ele>
        <time>2025-06-29T07:17:46Z</time>
      </trkpt>
      <trkpt lat="42.84887" lon="1.19004">
        <ele>586.4</ele>
        <time>2025-06-29T07:17:47Z</time>
      </trkpt>
      <trkpt lat="42.84882" lon="1.19007">
        <ele>585.8</ele>
        <time>2025-06-29T07:17:48Z</time>
      </trkpt>
      <trkpt lat="42.84878" lon="1.19008">
        <ele>585.4</ele>
        <time>2025-06-29T07:17:49Z</time>
      </trkpt>
      <trkpt lat="42.84873" lon="1.1901">
        <ele>584.8</ele>
        <time>2025-06-29T07:17:50Z</time>
      </trkpt>
      <trkpt lat="42.84868" lon="1.19013">
        <ele>584.4</ele>
        <time>2025-06-29T07:17:51Z</time>
      </trkpt>
      <trkpt lat="42.84863" lon="1.19017">
        <ele>584.4</ele>
        <time>2025-06-29T07:17:53Z</time>
      </trkpt>
      <trkpt lat="42.84844" lon="1.19028">
        <ele>584.4</ele>
        <time>2025-06-29T07:17:59Z</time>
      </trkpt>
      <trkpt lat="42.84829" lon="1.19028">
        <ele>584.4</ele>
        <time>2025-06-29T07:18:05Z</time>
      </trkpt>
      <trkpt lat="42.84812" lon="1.19022">
        <ele>584.4</ele>
        <time>2025-06-29T07:18:12Z</time>
      </trkpt>
      <trkpt lat="42.84803" lon="1.19016">
        <ele>584.4</ele>
        <time>2025-06-29T07:18:16Z</time>
      </trkpt>
      <trkpt lat="42.84801" lon="1.19014">
        <ele>584.8</ele>
        <time>2025-06-29T07:18:17Z</time>
      </trkpt>
      <trkpt lat="42.84799" lon="1.19011">
        <ele>585.2</ele>
        <time>2025-06-29T07:18:18Z</time>
      </trkpt>
      <trkpt lat="42.84799" lon="1.19007">
        <ele>585.6</ele>
        <time>2025-06-29T07:18:19Z</time>
      </trkpt>
      <trkpt lat="42.84798" lon="1.19004">
        <ele>586</ele>
        <time>2025-06-29T07:18:20Z</time>
      </trkpt>
      <trkpt lat="42.84799" lon="1.19001">
        <ele>586.4</ele>
        <time>2025-06-29T07:18:21Z</time>
      </trkpt>
      <trkpt lat="42.848" lon="1.18998">
        <ele>586.4</ele>
        <time>2025-06-29T07:18:22Z</time>
      </trkpt>
      <trkpt lat="42.84801" lon="1.18995">
        <ele>586.4</ele>
        <time>2025-06-29T07:18:23Z</time>
      </trkpt>
      <trkpt lat="42.84802" lon="1.18993">
        <ele>587</ele>
        <time>2025-06-29T07:18:24Z</time>
      </trkpt>
      <trkpt lat="42.84803" lon="1.1899">
        <ele>587.4</ele>
        <time>2025-06-29T07:18:25Z</time>
      </trkpt>
      <trkpt lat="42.84803" lon="1.18988">
        <ele>588</ele>
        <time>2025-06-29T07:18:26Z</time>
      </trkpt>
      <trkpt lat="42.84802" lon="1.18984">
        <ele>588.6</ele>
        <time>2025-06-29T07:18:27Z</time>
      </trkpt>
      <trkpt lat="42.84803" lon="1.18982">
        <ele>589</ele>
        <time>2025-06-29T07:18:28Z</time>
      </trkpt>
      <trkpt lat="42.84805" lon="1.18976">
        <ele>589.4</ele>
        <time>2025-06-29T07:18:30Z</time>
      </trkpt>
      <trkpt lat="42.84805" lon="1.18973">
        <ele>589.8</ele>
        <time>2025-06-29T07:18:31Z</time>
      </trkpt>
      <trkpt lat="42.84806" lon="1.18971">
        <ele>590.2</ele>
        <time>2025-06-29T07:18:32Z</time>
      </trkpt>
      <trkpt lat="42.84806" lon="1.18968">
        <ele>590.6</ele>
        <time>2025-06-29T07:18:33Z</time>
      </trkpt>
      <trkpt lat="42.84807" lon="1.18966">
        <ele>591.2</ele>
        <time>2025-06-29T07:18:34Z</time>
      </trkpt>
      <trkpt lat="42.84804" lon="1.18949">
        <ele>591.2</ele>
        <time>2025-06-29T07:18:39Z</time>
      </trkpt>
      <trkpt lat="42.84805" lon="1.18935">
        <ele>591.2</ele>
        <time>2025-06-29T07:18:44Z</time>
      </trkpt>
      <trkpt lat="42.84806" lon="1.18927">
        <ele>591.6</ele>
        <time>2025-06-29T07:18:48Z</time>
      </trkpt>
      <trkpt lat="42.84805" lon="1.18922">
        <ele>592</ele>
        <time>2025-06-29T07:18:49Z</time>
      </trkpt>
      <trkpt lat="42.84805" lon="1.1892">
        <ele>592.4</ele>
        <time>2025-06-29T07:18:50Z</time>
      </trkpt>
      <trkpt lat="42.84805" lon="1.18917">
        <ele>592.8</ele>
        <time>2025-06-29T07:18:51Z</time>
      </trkpt>
      <trkpt lat="42.84805" lon="1.18912">
        <ele>593.2</ele>
        <time>2025-06-29T07:18:52Z</time>
      </trkpt>
      <trkpt lat="42.84806" lon="1.18886">
        <ele>593.2</ele>
        <time>2025-06-29T07:18:59Z</time>
      </trkpt>
      <trkpt lat="42.84812" lon="1.18862">
        <ele>593.2</ele>
        <time>2025-06-29T07:19:05Z</time>
      </trkpt>
      <trkpt lat="42.84813" lon="1.18844">
        <ele>593.2</ele>
        <time>2025-06-29T07:19:10Z</time>
      </trkpt>
      <trkpt lat="42.84815" lon="1.18824">
        <ele>593.2</ele>
        <time>2025-06-29T07:19:16Z</time>
      </trkpt>
      <trkpt lat="42.84814" lon="1.18815">
        <ele>593.2</ele>
        <time>2025-06-29T07:19:21Z</time>
      </trkpt>
      <trkpt lat="42.84812" lon="1.18813">
        <ele>593.2</ele>
        <time>2025-06-29T07:19:23Z</time>
      </trkpt>
      <trkpt lat="42.84812" lon="1.18808">
        <ele>593.2</ele>
        <time>2025-06-29T07:25:49Z</time>
      </trkpt>
      <trkpt lat="42.84811" lon="1.18799">
        <ele>593.2</ele>
        <time>2025-06-29T07:25:51Z</time>
      </trkpt>
      <trkpt lat="42.84812" lon="1.18795">
        <ele>592.8</ele>
        <time>2025-06-29T07:25:52Z</time>
      </trkpt>
      <trkpt lat="42.84811" lon="1.1879">
        <ele>592.4</ele>
        <time>2025-06-29T07:25:53Z</time>
      </trkpt>
      <trkpt lat="42.84812" lon="1.18785">
        <ele>591.8</ele>
        <time>2025-06-29T07:25:54Z</time>
      </trkpt>
      <trkpt lat="42.84812" lon="1.18781">
        <ele>591.4</ele>
        <time>2025-06-29T07:25:55Z</time>
      </trkpt>
      <trkpt lat="42.84811" lon="1.18776">
        <ele>591</ele>
        <time>2025-06-29T07:25:56Z</time>
      </trkpt>
      <trkpt lat="42.8481" lon="1.18772">
        <ele>590.4</ele>
        <time>2025-06-29T07:25:57Z</time>
      </trkpt>
      <trkpt lat="42.84809" lon="1.18768">
        <ele>590</ele>
        <time>2025-06-29T07:25:58Z</time>
      </trkpt>
      <trkpt lat="42.84809" lon="1.18765">
        <ele>588.8</ele>
        <time>2025-06-29T07:25:59Z</time>
      </trkpt>
      <trkpt lat="42.8481" lon="1.18763">
        <ele>588.2</ele>
        <time>2025-06-29T07:26:00Z</time>
      </trkpt>
      <trkpt lat="42.84809" lon="1.1876">
        <ele>587.6</ele>
        <time>2025-06-29T07:26:01Z</time>
      </trkpt>
      <trkpt lat="42.84808" lon="1.18754">
        <ele>587</ele>
        <time>2025-06-29T07:26:02Z</time>
      </trkpt>
      <trkpt lat="42.84806" lon="1.18749">
        <ele>586.4</ele>
        <time>2025-06-29T07:26:03Z</time>
      </trkpt>
      <trkpt lat="42.84805" lon="1.18743">
        <ele>586</ele>
        <time>2025-06-29T07:26:04Z</time>
      </trkpt>
      <trkpt lat="42.84805" lon="1.18738">
        <ele>585.6</ele>
        <time>2025-06-29T07:26:05Z</time>
      </trkpt>
      <trkpt lat="42.84806" lon="1.18733">
        <ele>585.2</ele>
        <time>2025-06-29T07:26:06Z</time>
      </trkpt>
      <trkpt lat="42.84807" lon="1.18728">
        <ele>584.6</ele>
        <time>2025-06-29T07:26:07Z</time>
      </trkpt>
      <trkpt lat="42.84809" lon="1.18712">
        <ele>584.6</ele>
        <time>2025-06-29T07:26:11Z</time>
      </trkpt>
      <trkpt lat="42.84809" lon="1.18709">
        <ele>584.2</ele>
        <time>2025-06-29T07:26:12Z</time>
      </trkpt>
      <trkpt lat="42.84806" lon="1.18704">
        <ele>583.8</ele>
        <time>2025-06-29T07:26:13Z</time>
      </trkpt>
      <trkpt lat="42.84804" lon="1.18699">
        <ele>583.4</ele>
        <time>2025-06-29T07:26:14Z</time>
      </trkpt>
      <trkpt lat="42.84803" lon="1.18693">
        <ele>582.8</ele>
        <time>2025-06-29T07:26:15Z</time>
      </trkpt>
      <trkpt lat="42.848" lon="1.18687">
        <ele>582</ele>
        <time>2025-06-29T07:26:16Z</time>
      </trkpt>
      <trkpt lat="42.84799" lon="1.18681">
        <ele>581.2</ele>
        <time>2025-06-29T07:26:17Z</time>
      </trkpt>
      <trkpt lat="42.84798" lon="1.18677">
        <ele>580.6</ele>
        <time>2025-06-29T07:26:18Z</time>
      </trkpt>
      <trkpt lat="42.84798" lon="1.18675">
        <ele>579.8</ele>
        <time>2025-06-29T07:26:19Z</time>
      </trkpt>
      <trkpt lat="42.84798" lon="1.18672">
        <ele>579.8</ele>
        <time>2025-06-29T07:26:22Z</time>
      </trkpt>
      <trkpt lat="42.84796" lon="1.18664">
        <ele>579.8</ele>
        <time>2025-06-29T07:26:30Z</time>
      </trkpt>
      <trkpt lat="42.84795" lon="1.18649">
        <ele>579.8</ele>
        <time>2025-06-29T07:26:36Z</time>
      </trkpt>
      <trkpt lat="42.84796" lon="1.18644">
        <ele>580.2</ele>
        <time>2025-06-29T07:26:38Z</time>
      </trkpt>
      <trkpt lat="42.84796" lon="1.18643">
        <ele>580.6</ele>
        <time>2025-06-29T07:26:39Z</time>
      </trkpt>
      <trkpt lat="42.84796" lon="1.18641">
        <ele>581.2</ele>
        <time>2025-06-29T07:26:40Z</time>
      </trkpt>
      <trkpt lat="42.84796" lon="1.1864">
        <ele>581.6</ele>
        <time>2025-06-29T07:26:41Z</time>
      </trkpt>
      <trkpt lat="42.84796" lon="1.1864">
        <ele>582</ele>
        <time>2025-06-29T07:26:42Z</time>
      </trkpt>
      <trkpt lat="42.84796" lon="1.18642">
        <ele>582</ele>
        <time>2025-06-29T07:26:53Z</time>
      </trkpt>
      <trkpt lat="42.84794" lon="1.18649">
        <ele>582</ele>
        <time>2025-06-29T07:26:55Z</time>
      </trkpt>
      <trkpt lat="42.84794" lon="1.18671">
        <ele>581.6</ele>
        <time>2025-06-29T07:27:01Z</time>
      </trkpt>
      <trkpt lat="42.84795" lon="1.18671">
        <ele>581.2</ele>
        <time>2025-06-29T07:27:02Z</time>
      </trkpt>
      <trkpt lat="42.84796" lon="1.18671">
        <ele>580.6</ele>
        <time>2025-06-29T07:27:03Z</time>
      </trkpt>
      <trkpt lat="42.84797" lon="1.18671">
        <ele>580.2</ele>
        <time>2025-06-29T07:27:04Z</time>
      </trkpt>
      <trkpt lat="42.84798" lon="1.18667">
        <ele>579.8</ele>
        <time>2025-06-29T07:27:31Z</time>
      </trkpt>
      <trkpt lat="42.84795" lon="1.18655">
        <ele>579.8</ele>
        <time>2025-06-29T07:27:36Z</time>
      </trkpt>
      <trkpt lat="42.84794" lon="1.18653">
        <ele>579.8</ele>
        <time>2025-06-29T07:27:37Z</time>
      </trkpt>
      <trkpt lat="42.84795" lon="1.18653">
        <ele>579.8</ele>
        <time>2025-06-29T07:27:38Z</time>
      </trkpt>
      <trkpt lat="42.84796" lon="1.18649">
        <ele>582</ele>
        <time>2025-06-29T07:28:07Z</time>
      </trkpt>
      <trkpt lat="42.84802" lon="1.18633">
        <ele>582.4</ele>
        <time>2025-06-29T07:28:14Z</time>
      </trkpt>
      <trkpt lat="42.84803" lon="1.1863">
        <ele>583</ele>
        <time>2025-06-29T07:28:15Z</time>
      </trkpt>
      <trkpt lat="42.84804" lon="1.18628">
        <ele>583.4</ele>
        <time>2025-06-29T07:28:16Z</time>
      </trkpt>
      <trkpt lat="42.84806" lon="1.18625">
        <ele>583.8</ele>
        <time>2025-06-29T07:28:17Z</time>
      </trkpt>
      <trkpt lat="42.84807" lon="1.18622">
        <ele>584.2</ele>
        <time>2025-06-29T07:28:18Z</time>
      </trkpt>
      <trkpt lat="42.84808" lon="1.18618">
        <ele>584.8</ele>
        <time>2025-06-29T07:28:20Z</time>
      </trkpt>
      <trkpt lat="42.84809" lon="1.18616">
        <ele>585.2</ele>
        <time>2025-06-29T07:28:21Z</time>
      </trkpt>
      <trkpt lat="42.8481" lon="1.18614">
        <ele>585.6</ele>
        <time>2025-06-29T07:28:22Z</time>
      </trkpt>
      <trkpt lat="42.8481" lon="1.1861">
        <ele>586.2</ele>
        <time>2025-06-29T07:28:23Z</time>
      </trkpt>
      <trkpt lat="42.84811" lon="1.18607">
        <ele>586.6</ele>
        <time>2025-06-29T07:28:24Z</time>
      </trkpt>
      <trkpt lat="42.8481" lon="1.18604">
        <ele>586.6</ele>
        <time>2025-06-29T07:28:25Z</time>
      </trkpt>
      <trkpt lat="42.84809" lon="1.18599">
        <ele>587</ele>
        <time>2025-06-29T07:28:27Z</time>
      </trkpt>
      <trkpt lat="42.84809" lon="1.18598">
        <ele>588</ele>
        <time>2025-06-29T07:28:28Z</time>
      </trkpt>
      <trkpt lat="42.84809" lon="1.18597">
        <ele>588.4</ele>
        <time>2025-06-29T07:28:29Z</time>
      </trkpt>
      <trkpt lat="42.84809" lon="1.18595">
        <ele>588.8</ele>
        <time>2025-06-29T07:28:30Z</time>
      </trkpt>
      <trkpt lat="42.8481" lon="1.18591">
        <ele>588.8</ele>
        <time>2025-06-29T07:28:33Z</time>
      </trkpt>
      <trkpt lat="42.84805" lon="1.18584">
        <ele>588.8</ele>
        <time>2025-06-29T07:28:44Z</time>
      </trkpt>
      <trkpt lat="42.84794" lon="1.18584">
        <ele>588.8</ele>
        <time>2025-06-29T07:28:51Z</time>
      </trkpt>
      <trkpt lat="42.84785" lon="1.18577">
        <ele>588.8</ele>
        <time>2025-06-29T07:28:58Z</time>
      </trkpt>
      <trkpt lat="42.84778" lon="1.18576">
        <ele>589.2</ele>
        <time>2025-06-29T07:29:02Z</time>
      </trkpt>
      <trkpt lat="42.84777" lon="1.18578">
        <ele>589.6</ele>
        <time>2025-06-29T07:29:03Z</time>
      </trkpt>
      <trkpt lat="42.84776" lon="1.1858">
        <ele>590</ele>
        <time>2025-06-29T07:29:04Z</time>
      </trkpt>
      <trkpt lat="42.84775" lon="1.18582">
        <ele>590.4</ele>
        <time>2025-06-29T07:29:05Z</time>
      </trkpt>
      <trkpt lat="42.84774" lon="1.18585">
        <ele>590.8</ele>
        <time>2025-06-29T07:29:06Z</time>
      </trkpt>
      <trkpt lat="42.8477" lon="1.18597">
        <ele>590.8</ele>
        <time>2025-06-29T07:29:10Z</time>
      </trkpt>
      <trkpt lat="42.84769" lon="1.18606">
        <ele>591.4</ele>
        <time>2025-06-29T07:29:13Z</time>
      </trkpt>
      <trkpt lat="42.8477" lon="1.18608">
        <ele>591.8</ele>
        <time>2025-06-29T07:29:14Z</time>
      </trkpt>
      <trkpt lat="42.8477" lon="1.18611">
        <ele>592.2</ele>
        <time>2025-06-29T07:29:15Z</time>
      </trkpt>
      <trkpt lat="42.8477" lon="1.18614">
        <ele>592.6</ele>
        <time>2025-06-29T07:29:16Z</time>
      </trkpt>
      <trkpt lat="42.8477" lon="1.18616">
        <ele>593</ele>
        <time>2025-06-29T07:29:17Z</time>
      </trkpt>
      <trkpt lat="42.84772" lon="1.18625">
        <ele>593.6</ele>
        <time>2025-06-29T07:29:20Z</time>
      </trkpt>
      <trkpt lat="42.84771" lon="1.18627">
        <ele>594</ele>
        <time>2025-06-29T07:29:21Z</time>
      </trkpt>
      <trkpt lat="42.84771" lon="1.1863">
        <ele>594.4</ele>
        <time>2025-06-29T07:29:22Z</time>
      </trkpt>
      <trkpt lat="42.84772" lon="1.18633">
        <ele>594.8</ele>
        <time>2025-06-29T07:29:23Z</time>
      </trkpt>
      <trkpt lat="42.84771" lon="1.18636">
        <ele>595.2</ele>
        <time>2025-06-29T07:29:24Z</time>
      </trkpt>
      <trkpt lat="42.84767" lon="1.18648">
        <ele>595.2</ele>
        <time>2025-06-29T07:29:28Z</time>
      </trkpt>
      <trkpt lat="42.84767" lon="1.18651">
        <ele>595.6</ele>
        <time>2025-06-29T07:29:29Z</time>
      </trkpt>
      <trkpt lat="42.84766" lon="1.18654">
        <ele>596</ele>
        <time>2025-06-29T07:29:30Z</time>
      </trkpt>
      <trkpt lat="42.84765" lon="1.18656">
        <ele>596.6</ele>
        <time>2025-06-29T07:29:31Z</time>
      </trkpt>
      <trkpt lat="42.84764" lon="1.18659">
        <ele>597</ele>
        <time>2025-06-29T07:29:32Z</time>
      </trkpt>
      <trkpt lat="42.84763" lon="1.18662">
        <ele>597.4</ele>
        <time>2025-06-29T07:29:33Z</time>
      </trkpt>
      <trkpt lat="42.84761" lon="1.18671">
        <ele>597.4</ele>
        <time>2025-06-29T07:29:36Z</time>
      </trkpt>
      <trkpt lat="42.84758" lon="1.18679">
        <ele>597.8</ele>
        <time>2025-06-29T07:29:39Z</time>
      </trkpt>
      <trkpt lat="42.84757" lon="1.18681">
        <ele>598.2</ele>
        <time>2025-06-29T07:29:40Z</time>
      </trkpt>
      <trkpt lat="42.84755" lon="1.18685">
        <ele>598.6</ele>
        <time>2025-06-29T07:29:41Z</time>
      </trkpt>
      <trkpt lat="42.84754" lon="1.18688">
        <ele>599.4</ele>
        <time>2025-06-29T07:29:42Z</time>
      </trkpt>
      <trkpt lat="42.84753" lon="1.18691">
        <ele>599.4</ele>
        <time>2025-06-29T07:29:43Z</time>
      </trkpt>
      <trkpt lat="42.84749" lon="1.187">
        <ele>600</ele>
        <time>2025-06-29T07:29:47Z</time>
      </trkpt>
      <trkpt lat="42.84748" lon="1.18703">
        <ele>600.4</ele>
        <time>2025-06-29T07:29:48Z</time>
      </trkpt>
      <trkpt lat="42.84746" lon="1.18706">
        <ele>600.8</ele>
        <time>2025-06-29T07:29:49Z</time>
      </trkpt>
      <trkpt lat="42.84745" lon="1.18709">
        <ele>601.2</ele>
        <time>2025-06-29T07:29:50Z</time>
      </trkpt>
      <trkpt lat="42.84743" lon="1.18712">
        <ele>601.6</ele>
        <time>2025-06-29T07:29:51Z</time>
      </trkpt>
      <trkpt lat="42.84738" lon="1.18726">
        <ele>601.6</ele>
        <time>2025-06-29T07:29:56Z</time>
      </trkpt>
      <trkpt lat="42.84737" lon="1.18728">
        <ele>602.2</ele>
        <time>2025-06-29T07:29:57Z</time>
      </trkpt>
      <trkpt lat="42.84736" lon="1.18731">
        <ele>602.6</ele>
        <time>2025-06-29T07:29:58Z</time>
      </trkpt>
      <trkpt lat="42.84735" lon="1.18734">
        <ele>603</ele>
        <time>2025-06-29T07:29:59Z</time>
      </trkpt>
      <trkpt lat="42.84734" lon="1.18738">
        <ele>603.4</ele>
        <time>2025-06-29T07:30:00Z</time>
      </trkpt>
      <trkpt lat="42.84732" lon="1.18741">
        <ele>603.8</ele>
        <time>2025-06-29T07:30:01Z</time>
      </trkpt>
      <trkpt lat="42.84731" lon="1.18745">
        <ele>603.8</ele>
        <time>2025-06-29T07:30:02Z</time>
      </trkpt>
      <trkpt lat="42.84725" lon="1.18758">
        <ele>604.6</ele>
        <time>2025-06-29T07:30:06Z</time>
      </trkpt>
      <trkpt lat="42.84724" lon="1.18761">
        <ele>605</ele>
        <time>2025-06-29T07:30:07Z</time>
      </trkpt>
      <trkpt lat="42.84722" lon="1.18763">
        <ele>605.6</ele>
        <time>2025-06-29T07:30:08Z</time>
      </trkpt>
      <trkpt lat="42.84721" lon="1.18766">
        <ele>606</ele>
        <time>2025-06-29T07:30:09Z</time>
      </trkpt>
      <trkpt lat="42.84714" lon="1.18775">
        <ele>606</ele>
        <time>2025-06-29T07:30:12Z</time>
      </trkpt>
      <trkpt lat="42.84704" lon="1.18787">
        <ele>606.4</ele>
        <time>2025-06-29T07:30:17Z</time>
      </trkpt>
      <trkpt lat="42.84702" lon="1.18789">
        <ele>606.8</ele>
        <time>2025-06-29T07:30:18Z</time>
      </trkpt>
      <trkpt lat="42.84699" lon="1.18791">
        <ele>607.2</ele>
        <time>2025-06-29T07:30:19Z</time>
      </trkpt>
      <trkpt lat="42.84697" lon="1.18792">
        <ele>607.6</ele>
        <time>2025-06-29T07:30:20Z</time>
      </trkpt>
      <trkpt lat="42.84695" lon="1.18793">
        <ele>608</ele>
        <time>2025-06-29T07:30:21Z</time>
      </trkpt>
      <trkpt lat="42.84685" lon="1.18795">
        <ele>608</ele>
        <time>2025-06-29T07:30:25Z</time>
      </trkpt>
      <trkpt lat="42.84678" lon="1.18795">
        <ele>608.6</ele>
        <time>2025-06-29T07:30:28Z</time>
      </trkpt>
      <trkpt lat="42.84676" lon="1.18794">
        <ele>609</ele>
        <time>2025-06-29T07:30:29Z</time>
      </trkpt>
      <trkpt lat="42.84673" lon="1.18793">
        <ele>609.4</ele>
        <time>2025-06-29T07:30:30Z</time>
      </trkpt>
      <trkpt lat="42.84671" lon="1.18792">
        <ele>610.2</ele>
        <time>2025-06-29T07:30:31Z</time>
      </trkpt>
      <trkpt lat="42.8467" lon="1.1879">
        <ele>610.2</ele>
        <time>2025-06-29T07:30:32Z</time>
      </trkpt>
      <trkpt lat="42.84672" lon="1.18784">
        <ele>610.2</ele>
        <time>2025-06-29T07:30:35Z</time>
      </trkpt>
      <trkpt lat="42.84677" lon="1.18782">
        <ele>610.6</ele>
        <time>2025-06-29T07:30:38Z</time>
      </trkpt>
      <trkpt lat="42.84679" lon="1.18782">
        <ele>611</ele>
        <time>2025-06-29T07:30:39Z</time>
      </trkpt>
      <trkpt lat="42.84682" lon="1.18781">
        <ele>611.4</ele>
        <time>2025-06-29T07:30:40Z</time>
      </trkpt>
      <trkpt lat="42.84684" lon="1.18781">
        <ele>612</ele>
        <time>2025-06-29T07:30:41Z</time>
      </trkpt>
      <trkpt lat="42.84686" lon="1.18781">
        <ele>612.4</ele>
        <time>2025-06-29T07:30:42Z</time>
      </trkpt>
      <trkpt lat="42.84692" lon="1.18777">
        <ele>612.4</ele>
        <time>2025-06-29T07:30:45Z</time>
      </trkpt>
      <trkpt lat="42.84699" lon="1.18768">
        <ele>612.8</ele>
        <time>2025-06-29T07:30:49Z</time>
      </trkpt>
      <trkpt lat="42.847" lon="1.18766">
        <ele>613.2</ele>
        <time>2025-06-29T07:30:50Z</time>
      </trkpt>
      <trkpt lat="42.84701" lon="1.18763">
        <ele>613.6</ele>
        <time>2025-06-29T07:30:51Z</time>
      </trkpt>
      <trkpt lat="42.84702" lon="1.1876">
        <ele>614</ele>
        <time>2025-06-29T07:30:52Z</time>
      </trkpt>
      <trkpt lat="42.84703" lon="1.18757">
        <ele>614.4</ele>
        <time>2025-06-29T07:30:53Z</time>
      </trkpt>
      <trkpt lat="42.84705" lon="1.18749">
        <ele>614.4</ele>
        <time>2025-06-29T07:30:56Z</time>
      </trkpt>
      <trkpt lat="42.84707" lon="1.18744">
        <ele>614.8</ele>
        <time>2025-06-29T07:30:58Z</time>
      </trkpt>
      <trkpt lat="42.84707" lon="1.18741">
        <ele>615.4</ele>
        <time>2025-06-29T07:30:59Z</time>
      </trkpt>
      <trkpt lat="42.84708" lon="1.18739">
        <ele>615.8</ele>
        <time>2025-06-29T07:31:00Z</time>
      </trkpt>
      <trkpt lat="42.84708" lon="1.18736">
        <ele>616.2</ele>
        <time>2025-06-29T07:31:01Z</time>
      </trkpt>
      <trkpt lat="42.84709" lon="1.18734">
        <ele>616.6</ele>
        <time>2025-06-29T07:31:02Z</time>
      </trkpt>
      <trkpt lat="42.84713" lon="1.18712">
        <ele>617</ele>
        <time>2025-06-29T07:31:09Z</time>
      </trkpt>
      <trkpt lat="42.84713" lon="1.18708">
        <ele>617.4</ele>
        <time>2025-06-29T07:31:10Z</time>
      </trkpt>
      <trkpt lat="42.84714" lon="1.18706">
        <ele>618</ele>
        <time>2025-06-29T07:31:11Z</time>
      </trkpt>
      <trkpt lat="42.84714" lon="1.18703">
        <ele>618.4</ele>
        <time>2025-06-29T07:31:12Z</time>
      </trkpt>
      <trkpt lat="42.84715" lon="1.187">
        <ele>618.8</ele>
        <time>2025-06-29T07:31:13Z</time>
      </trkpt>
      <trkpt lat="42.84716" lon="1.18694">
        <ele>618.8</ele>
        <time>2025-06-29T07:31:15Z</time>
      </trkpt>
      <trkpt lat="42.84719" lon="1.18684">
        <ele>619.2</ele>
        <time>2025-06-29T07:31:19Z</time>
      </trkpt>
      <trkpt lat="42.84719" lon="1.18682">
        <ele>619.6</ele>
        <time>2025-06-29T07:31:20Z</time>
      </trkpt>
      <trkpt lat="42.84719" lon="1.1868">
        <ele>620.6</ele>
        <time>2025-06-29T07:31:21Z</time>
      </trkpt>
      <trkpt lat="42.84719" lon="1.18677">
        <ele>621</ele>
        <time>2025-06-29T07:31:22Z</time>
      </trkpt>
      <trkpt lat="42.84721" lon="1.18664">
        <ele>621.4</ele>
        <time>2025-06-29T07:31:27Z</time>
      </trkpt>
      <trkpt lat="42.84721" lon="1.1866">
        <ele>621.8</ele>
        <time>2025-06-29T07:31:28Z</time>
      </trkpt>
      <trkpt lat="42.84723" lon="1.18658">
        <ele>622.2</ele>
        <time>2025-06-29T07:31:29Z</time>
      </trkpt>
      <trkpt lat="42.84724" lon="1.18656">
        <ele>622.8</ele>
        <time>2025-06-29T07:31:30Z</time>
      </trkpt>
      <trkpt lat="42.84724" lon="1.18651">
        <ele>623.2</ele>
        <time>2025-06-29T07:31:31Z</time>
      </trkpt>
      <trkpt lat="42.84724" lon="1.18637">
        <ele>623.2</ele>
        <time>2025-06-29T07:31:35Z</time>
      </trkpt>
      <trkpt lat="42.84724" lon="1.18629">
        <ele>623.6</ele>
        <time>2025-06-29T07:31:37Z</time>
      </trkpt>
      <trkpt lat="42.84724" lon="1.18626">
        <ele>624</ele>
        <time>2025-06-29T07:31:38Z</time>
      </trkpt>
      <trkpt lat="42.84724" lon="1.18623">
        <ele>624.4</ele>
        <time>2025-06-29T07:31:39Z</time>
      </trkpt>
      <trkpt lat="42.84724" lon="1.1862">
        <ele>624.8</ele>
        <time>2025-06-29T07:31:40Z</time>
      </trkpt>
      <trkpt lat="42.84724" lon="1.18617">
        <ele>625.4</ele>
        <time>2025-06-29T07:31:41Z</time>
      </trkpt>
      <trkpt lat="42.84724" lon="1.18614">
        <ele>625.4</ele>
        <time>2025-06-29T07:31:42Z</time>
      </trkpt>
      <trkpt lat="42.84722" lon="1.18607">
        <ele>625.8</ele>
        <time>2025-06-29T07:31:45Z</time>
      </trkpt>
      <trkpt lat="42.84721" lon="1.18605">
        <ele>626.2</ele>
        <time>2025-06-29T07:31:46Z</time>
      </trkpt>
      <trkpt lat="42.8472" lon="1.18602">
        <ele>626.6</ele>
        <time>2025-06-29T07:31:47Z</time>
      </trkpt>
      <trkpt lat="42.8472" lon="1.18599">
        <ele>627</ele>
        <time>2025-06-29T07:31:48Z</time>
      </trkpt>
      <trkpt lat="42.84719" lon="1.18596">
        <ele>627.4</ele>
        <time>2025-06-29T07:31:49Z</time>
      </trkpt>
      <trkpt lat="42.84714" lon="1.18582">
        <ele>627.4</ele>
        <time>2025-06-29T07:31:54Z</time>
      </trkpt>
      <trkpt lat="42.84713" lon="1.18578">
        <ele>627.8</ele>
        <time>2025-06-29T07:31:55Z</time>
      </trkpt>
      <trkpt lat="42.84713" lon="1.18575">
        <ele>628.2</ele>
        <time>2025-06-29T07:31:56Z</time>
      </trkpt>
      <trkpt lat="42.84711" lon="1.18572">
        <ele>628.6</ele>
        <time>2025-06-29T07:31:57Z</time>
      </trkpt>
      <trkpt lat="42.84711" lon="1.18569">
        <ele>629.2</ele>
        <time>2025-06-29T07:31:58Z</time>
      </trkpt>
      <trkpt lat="42.8471" lon="1.18566">
        <ele>629.6</ele>
        <time>2025-06-29T07:31:59Z</time>
      </trkpt>
      <trkpt lat="42.84708" lon="1.18556">
        <ele>629.6</ele>
        <time>2025-06-29T07:32:02Z</time>
      </trkpt>
      <trkpt lat="42.84707" lon="1.18549">
        <ele>630</ele>
        <time>2025-06-29T07:32:05Z</time>
      </trkpt>
      <trkpt lat="42.84706" lon="1.18546">
        <ele>630.4</ele>
        <time>2025-06-29T07:32:06Z</time>
      </trkpt>
      <trkpt lat="42.84706" lon="1.18543">
        <ele>630.8</ele>
        <time>2025-06-29T07:32:07Z</time>
      </trkpt>
      <trkpt lat="42.84706" lon="1.1854">
        <ele>631.2</ele>
        <time>2025-06-29T07:32:08Z</time>
      </trkpt>
      <trkpt lat="42.84706" lon="1.18538">
        <ele>631.6</ele>
        <time>2025-06-29T07:32:09Z</time>
      </trkpt>
      <trkpt lat="42.84705" lon="1.18536">
        <ele>631.6</ele>
        <time>2025-06-29T07:32:13Z</time>
      </trkpt>
      <trkpt lat="42.84703" lon="1.1853">
        <ele>633.6</ele>
        <time>2025-06-29T07:34:06Z</time>
      </trkpt>
      <trkpt lat="42.84698" lon="1.1851">
        <ele>634</ele>
        <time>2025-06-29T07:34:12Z</time>
      </trkpt>
      <trkpt lat="42.84697" lon="1.18507">
        <ele>635</ele>
        <time>2025-06-29T07:34:13Z</time>
      </trkpt>
      <trkpt lat="42.84696" lon="1.18505">
        <ele>635.4</ele>
        <time>2025-06-29T07:34:14Z</time>
      </trkpt>
      <trkpt lat="42.84695" lon="1.18503">
        <ele>635.8</ele>
        <time>2025-06-29T07:34:15Z</time>
      </trkpt>
      <trkpt lat="42.84695" lon="1.18497">
        <ele>635.8</ele>
        <time>2025-06-29T07:34:18Z</time>
      </trkpt>
      <trkpt lat="42.84695" lon="1.18493">
        <ele>636.2</ele>
        <time>2025-06-29T07:34:20Z</time>
      </trkpt>
      <trkpt lat="42.84695" lon="1.18491">
        <ele>636.6</ele>
        <time>2025-06-29T07:34:21Z</time>
      </trkpt>
      <trkpt lat="42.84695" lon="1.18488">
        <ele>637</ele>
        <time>2025-06-29T07:34:22Z</time>
      </trkpt>
      <trkpt lat="42.84694" lon="1.18486">
        <ele>637.4</ele>
        <time>2025-06-29T07:34:23Z</time>
      </trkpt>
      <trkpt lat="42.84693" lon="1.18482">
        <ele>637.8</ele>
        <time>2025-06-29T07:34:24Z</time>
      </trkpt>
      <trkpt lat="42.84691" lon="1.18466">
        <ele>637.8</ele>
        <time>2025-06-29T07:34:30Z</time>
      </trkpt>
      <trkpt lat="42.84692" lon="1.18464">
        <ele>637.8</ele>
        <time>2025-06-29T07:34:31Z</time>
      </trkpt>
      <trkpt lat="42.84695" lon="1.18463">
        <ele>638.2</ele>
        <time>2025-06-29T07:34:33Z</time>
      </trkpt>
      <trkpt lat="42.84697" lon="1.18462">
        <ele>638.6</ele>
        <time>2025-06-29T07:34:34Z</time>
      </trkpt>
      <trkpt lat="42.84699" lon="1.18462">
        <ele>639.2</ele>
        <time>2025-06-29T07:34:35Z</time>
      </trkpt>
      <trkpt lat="42.84701" lon="1.18463">
        <ele>639.6</ele>
        <time>2025-06-29T07:34:36Z</time>
      </trkpt>
      <trkpt lat="42.84703" lon="1.18463">
        <ele>640</ele>
        <time>2025-06-29T07:34:37Z</time>
      </trkpt>
      <trkpt lat="42.84707" lon="1.18465">
        <ele>640.4</ele>
        <time>2025-06-29T07:34:39Z</time>
      </trkpt>
      <trkpt lat="42.84709" lon="1.18466">
        <ele>640.8</ele>
        <time>2025-06-29T07:34:40Z</time>
      </trkpt>
      <trkpt lat="42.84711" lon="1.18467">
        <ele>641.2</ele>
        <time>2025-06-29T07:34:41Z</time>
      </trkpt>
      <trkpt lat="42.84713" lon="1.18468">
        <ele>641.8</ele>
        <time>2025-06-29T07:34:42Z</time>
      </trkpt>
      <trkpt lat="42.84714" lon="1.18469">
        <ele>642.2</ele>
        <time>2025-06-29T07:34:43Z</time>
      </trkpt>
      <trkpt lat="42.84721" lon="1.18471">
        <ele>642.6</ele>
        <time>2025-06-29T07:34:46Z</time>
      </trkpt>
      <trkpt lat="42.84723" lon="1.18472">
        <ele>643</ele>
        <time>2025-06-29T07:34:47Z</time>
      </trkpt>
      <trkpt lat="42.84725" lon="1.18473">
        <ele>643.4</ele>
        <time>2025-06-29T07:34:48Z</time>
      </trkpt>
      <trkpt lat="42.84727" lon="1.18473">
        <ele>643.8</ele>
        <time>2025-06-29T07:34:49Z</time>
      </trkpt>
      <trkpt lat="42.84729" lon="1.18474">
        <ele>644.2</ele>
        <time>2025-06-29T07:34:50Z</time>
      </trkpt>
      <trkpt lat="42.84735" lon="1.18474">
        <ele>644.2</ele>
        <time>2025-06-29T07:34:53Z</time>
      </trkpt>
      <trkpt lat="42.84737" lon="1.18473">
        <ele>644.2</ele>
        <time>2025-06-29T07:34:54Z</time>
      </trkpt>
      <trkpt lat="42.8474" lon="1.18471">
        <ele>644.6</ele>
        <time>2025-06-29T07:34:55Z</time>
      </trkpt>
      <trkpt lat="42.84743" lon="1.18469">
        <ele>645</ele>
        <time>2025-06-29T07:34:56Z</time>
      </trkpt>
      <trkpt lat="42.84745" lon="1.18467">
        <ele>645.4</ele>
        <time>2025-06-29T07:34:57Z</time>
      </trkpt>
      <trkpt lat="42.84747" lon="1.18466">
        <ele>645.8</ele>
        <time>2025-06-29T07:34:58Z</time>
      </trkpt>
      <trkpt lat="42.84749" lon="1.18464">
        <ele>646.2</ele>
        <time>2025-06-29T07:34:59Z</time>
      </trkpt>
      <trkpt lat="42.84752" lon="1.18462">
        <ele>646.2</ele>
        <time>2025-06-29T07:35:00Z</time>
      </trkpt>
      <trkpt lat="42.8476" lon="1.18454">
        <ele>646.8</ele>
        <time>2025-06-29T07:35:04Z</time>
      </trkpt>
      <trkpt lat="42.84762" lon="1.18451">
        <ele>647.2</ele>
        <time>2025-06-29T07:35:05Z</time>
      </trkpt>
      <trkpt lat="42.84764" lon="1.18448">
        <ele>647.6</ele>
        <time>2025-06-29T07:35:06Z</time>
      </trkpt>
      <trkpt lat="42.84765" lon="1.18445">
        <ele>648</ele>
        <time>2025-06-29T07:35:07Z</time>
      </trkpt>
      <trkpt lat="42.84766" lon="1.18442">
        <ele>648.4</ele>
        <time>2025-06-29T07:35:08Z</time>
      </trkpt>
      <trkpt lat="42.84771" lon="1.18436">
        <ele>648.4</ele>
        <time>2025-06-29T07:35:11Z</time>
      </trkpt>
      <trkpt lat="42.84773" lon="1.18433">
        <ele>648.8</ele>
        <time>2025-06-29T07:35:13Z</time>
      </trkpt>
      <trkpt lat="42.84774" lon="1.18432">
        <ele>649.2</ele>
        <time>2025-06-29T07:35:14Z</time>
      </trkpt>
      <trkpt lat="42.84775" lon="1.18429">
        <ele>649.6</ele>
        <time>2025-06-29T07:35:15Z</time>
      </trkpt>
      <trkpt lat="42.84775" lon="1.18427">
        <ele>650</ele>
        <time>2025-06-29T07:35:16Z</time>
      </trkpt>
      <trkpt lat="42.84777" lon="1.18424">
        <ele>650.4</ele>
        <time>2025-06-29T07:35:17Z</time>
      </trkpt>
      <trkpt lat="42.84782" lon="1.18411">
        <ele>650.4</ele>
        <time>2025-06-29T07:35:21Z</time>
      </trkpt>
      <trkpt lat="42.84784" lon="1.18406">
        <ele>651</ele>
        <time>2025-06-29T07:35:23Z</time>
      </trkpt>
      <trkpt lat="42.84785" lon="1.18404">
        <ele>651.4</ele>
        <time>2025-06-29T07:35:24Z</time>
      </trkpt>
      <trkpt lat="42.84787" lon="1.18401">
        <ele>651.8</ele>
        <time>2025-06-29T07:35:25Z</time>
      </trkpt>
      <trkpt lat="42.84788" lon="1.18398">
        <ele>652.2</ele>
        <time>2025-06-29T07:35:26Z</time>
      </trkpt>
      <trkpt lat="42.84788" lon="1.18395">
        <ele>652.8</ele>
        <time>2025-06-29T07:35:27Z</time>
      </trkpt>
      <trkpt lat="42.84789" lon="1.18392">
        <ele>652.8</ele>
        <time>2025-06-29T07:35:28Z</time>
      </trkpt>
      <trkpt lat="42.84795" lon="1.1838">
        <ele>653.2</ele>
        <time>2025-06-29T07:35:32Z</time>
      </trkpt>
      <trkpt lat="42.84797" lon="1.18378">
        <ele>653.6</ele>
        <time>2025-06-29T07:35:33Z</time>
      </trkpt>
      <trkpt lat="42.84798" lon="1.18375">
        <ele>654</ele>
        <time>2025-06-29T07:35:34Z</time>
      </trkpt>
      <trkpt lat="42.84799" lon="1.18372">
        <ele>654.6</ele>
        <time>2025-06-29T07:35:35Z</time>
      </trkpt>
      <trkpt lat="42.848" lon="1.18369">
        <ele>655</ele>
        <time>2025-06-29T07:35:36Z</time>
      </trkpt>
      <trkpt lat="42.84803" lon="1.18353">
        <ele>655</ele>
        <time>2025-06-29T07:35:41Z</time>
      </trkpt>
      <trkpt lat="42.84804" lon="1.1835">
        <ele>655.4</ele>
        <time>2025-06-29T07:35:42Z</time>
      </trkpt>
      <trkpt lat="42.84804" lon="1.18347">
        <ele>655.8</ele>
        <time>2025-06-29T07:35:43Z</time>
      </trkpt>
      <trkpt lat="42.84805" lon="1.18344">
        <ele>656.2</ele>
        <time>2025-06-29T07:35:44Z</time>
      </trkpt>
      <trkpt lat="42.84806" lon="1.18341">
        <ele>656.6</ele>
        <time>2025-06-29T07:35:45Z</time>
      </trkpt>
      <trkpt lat="42.84807" lon="1.18339">
        <ele>657</ele>
        <time>2025-06-29T07:35:46Z</time>
      </trkpt>
      <trkpt lat="42.84807" lon="1.18336">
        <ele>657</ele>
        <time>2025-06-29T07:35:47Z</time>
      </trkpt>
      <trkpt lat="42.8481" lon="1.18321">
        <ele>658</ele>
        <time>2025-06-29T07:35:52Z</time>
      </trkpt>
      <trkpt lat="42.84811" lon="1.18317">
        <ele>658.4</ele>
        <time>2025-06-29T07:35:53Z</time>
      </trkpt>
      <trkpt lat="42.84812" lon="1.18314">
        <ele>658.8</ele>
        <time>2025-06-29T07:35:54Z</time>
      </trkpt>
      <trkpt lat="42.84813" lon="1.18311">
        <ele>659.2</ele>
        <time>2025-06-29T07:35:55Z</time>
      </trkpt>
      <trkpt lat="42.84815" lon="1.18304">
        <ele>659.2</ele>
        <time>2025-06-29T07:35:58Z</time>
      </trkpt>
      <trkpt lat="42.84817" lon="1.18298">
        <ele>659.2</ele>
        <time>2025-06-29T07:36:00Z</time>
      </trkpt>
      <trkpt lat="42.84819" lon="1.18293">
        <ele>659.6</ele>
        <time>2025-06-29T07:36:02Z</time>
      </trkpt>
      <trkpt lat="42.84819" lon="1.1829">
        <ele>660</ele>
        <time>2025-06-29T07:36:03Z</time>
      </trkpt>
      <trkpt lat="42.84821" lon="1.18286">
        <ele>660.4</ele>
        <time>2025-06-29T07:36:04Z</time>
      </trkpt>
      <trkpt lat="42.84822" lon="1.18283">
        <ele>660.8</ele>
        <time>2025-06-29T07:36:05Z</time>
      </trkpt>
      <trkpt lat="42.84823" lon="1.18281">
        <ele>661.4</ele>
        <time>2025-06-29T07:36:06Z</time>
      </trkpt>
      <trkpt lat="42.84827" lon="1.18265">
        <ele>661.8</ele>
        <time>2025-06-29T07:36:11Z</time>
      </trkpt>
      <trkpt lat="42.84827" lon="1.18262">
        <ele>662.2</ele>
        <time>2025-06-29T07:36:12Z</time>
      </trkpt>
      <trkpt lat="42.84828" lon="1.18259">
        <ele>662.6</ele>
        <time>2025-06-29T07:36:13Z</time>
      </trkpt>
      <trkpt lat="42.84829" lon="1.18256">
        <ele>663</ele>
        <time>2025-06-29T07:36:14Z</time>
      </trkpt>
      <trkpt lat="42.8483" lon="1.18253">
        <ele>663.4</ele>
        <time>2025-06-29T07:36:15Z</time>
      </trkpt>
      <trkpt lat="42.84832" lon="1.18244">
        <ele>663.4</ele>
        <time>2025-06-29T07:36:18Z</time>
      </trkpt>
      <trkpt lat="42.84833" lon="1.18238">
        <ele>663.8</ele>
        <time>2025-06-29T07:36:20Z</time>
      </trkpt>
      <trkpt lat="42.84834" lon="1.18235">
        <ele>664.2</ele>
        <time>2025-06-29T07:36:21Z</time>
      </trkpt>
      <trkpt lat="42.84834" lon="1.18232">
        <ele>664.8</ele>
        <time>2025-06-29T07:36:22Z</time>
      </trkpt>
      <trkpt lat="42.84834" lon="1.18229">
        <ele>665.2</ele>
        <time>2025-06-29T07:36:23Z</time>
      </trkpt>
      <trkpt lat="42.84835" lon="1.18227">
        <ele>665.6</ele>
        <time>2025-06-29T07:36:24Z</time>
      </trkpt>
      <trkpt lat="42.84836" lon="1.18222">
        <ele>665.6</ele>
        <time>2025-06-29T07:36:26Z</time>
      </trkpt>
      <trkpt lat="42.84839" lon="1.18212">
        <ele>666</ele>
        <time>2025-06-29T07:36:30Z</time>
      </trkpt>
      <trkpt lat="42.8484" lon="1.1821">
        <ele>666.6</ele>
        <time>2025-06-29T07:36:31Z</time>
      </trkpt>
      <trkpt lat="42.84841" lon="1.18208">
        <ele>667</ele>
        <time>2025-06-29T07:36:32Z</time>
      </trkpt>
      <trkpt lat="42.84841" lon="1.18205">
        <ele>667.4</ele>
        <time>2025-06-29T07:36:33Z</time>
      </trkpt>
      <trkpt lat="42.84841" lon="1.18202">
        <ele>668</ele>
        <time>2025-06-29T07:36:34Z</time>
      </trkpt>
      <trkpt lat="42.84841" lon="1.18187">
        <ele>668.4</ele>
        <time>2025-06-29T07:36:39Z</time>
      </trkpt>
      <trkpt lat="42.84842" lon="1.18184">
        <ele>668.8</ele>
        <time>2025-06-29T07:36:40Z</time>
      </trkpt>
      <trkpt lat="42.84843" lon="1.18181">
        <ele>669.6</ele>
        <time>2025-06-29T07:36:41Z</time>
      </trkpt>
      <trkpt lat="42.84844" lon="1.18178">
        <ele>670</ele>
        <time>2025-06-29T07:36:42Z</time>
      </trkpt>
      <trkpt lat="42.84845" lon="1.18165">
        <ele>670.4</ele>
        <time>2025-06-29T07:36:46Z</time>
      </trkpt>
      <trkpt lat="42.84846" lon="1.18162">
        <ele>670.8</ele>
        <time>2025-06-29T07:36:47Z</time>
      </trkpt>
      <trkpt lat="42.84846" lon="1.18159">
        <ele>671.2</ele>
        <time>2025-06-29T07:36:48Z</time>
      </trkpt>
      <trkpt lat="42.84847" lon="1.18156">
        <ele>671.6</ele>
        <time>2025-06-29T07:36:49Z</time>
      </trkpt>
      <trkpt lat="42.84847" lon="1.18153">
        <ele>672</ele>
        <time>2025-06-29T07:36:50Z</time>
      </trkpt>
      <trkpt lat="42.84848" lon="1.18143">
        <ele>672</ele>
        <time>2025-06-29T07:36:53Z</time>
      </trkpt>
      <trkpt lat="42.84848" lon="1.1814">
        <ele>672.4</ele>
        <time>2025-06-29T07:36:54Z</time>
      </trkpt>
      <trkpt lat="42.84848" lon="1.18137">
        <ele>672.8</ele>
        <time>2025-06-29T07:36:55Z</time>
      </trkpt>
      <trkpt lat="42.84849" lon="1.18134">
        <ele>673.4</ele>
        <time>2025-06-29T07:36:56Z</time>
      </trkpt>
      <trkpt lat="42.84849" lon="1.18131">
        <ele>673.8</ele>
        <time>2025-06-29T07:36:57Z</time>
      </trkpt>
      <trkpt lat="42.8485" lon="1.18127">
        <ele>674.2</ele>
        <time>2025-06-29T07:36:58Z</time>
      </trkpt>
      <trkpt lat="42.84849" lon="1.1812">
        <ele>674.2</ele>
        <time>2025-06-29T07:37:00Z</time>
      </trkpt>
      <trkpt lat="42.84853" lon="1.18102">
        <ele>674.6</ele>
        <time>2025-06-29T07:37:05Z</time>
      </trkpt>
      <trkpt lat="42.84853" lon="1.18099">
        <ele>675.4</ele>
        <time>2025-06-29T07:37:06Z</time>
      </trkpt>
      <trkpt lat="42.84854" lon="1.18096">
        <ele>675.8</ele>
        <time>2025-06-29T07:37:07Z</time>
      </trkpt>
      <trkpt lat="42.84855" lon="1.18092">
        <ele>676.2</ele>
        <time>2025-06-29T07:37:08Z</time>
      </trkpt>
      <trkpt lat="42.84857" lon="1.18077">
        <ele>676.2</ele>
        <time>2025-06-29T07:37:13Z</time>
      </trkpt>
      <trkpt lat="42.84858" lon="1.18074">
        <ele>676.8</ele>
        <time>2025-06-29T07:37:14Z</time>
      </trkpt>
      <trkpt lat="42.84859" lon="1.18071">
        <ele>677.2</ele>
        <time>2025-06-29T07:37:15Z</time>
      </trkpt>
      <trkpt lat="42.8486" lon="1.18068">
        <ele>677.6</ele>
        <time>2025-06-29T07:37:16Z</time>
      </trkpt>
      <trkpt lat="42.84861" lon="1.18064">
        <ele>678</ele>
        <time>2025-06-29T07:37:17Z</time>
      </trkpt>
      <trkpt lat="42.84862" lon="1.1806">
        <ele>678.4</ele>
        <time>2025-06-29T07:37:18Z</time>
      </trkpt>
      <trkpt lat="42.84864" lon="1.18054">
        <ele>678.4</ele>
        <time>2025-06-29T07:37:20Z</time>
      </trkpt>
      <trkpt lat="42.84865" lon="1.18051">
        <ele>678.4</ele>
        <time>2025-06-29T07:37:21Z</time>
      </trkpt>
      <trkpt lat="42.84866" lon="1.18046">
        <ele>678.8</ele>
        <time>2025-06-29T07:37:23Z</time>
      </trkpt>
      <trkpt lat="42.84866" lon="1.18043">
        <ele>679.4</ele>
        <time>2025-06-29T07:37:24Z</time>
      </trkpt>
      <trkpt lat="42.84866" lon="1.1804">
        <ele>679.8</ele>
        <time>2025-06-29T07:37:25Z</time>
      </trkpt>
      <trkpt lat="42.84867" lon="1.18037">
        <ele>680.2</ele>
        <time>2025-06-29T07:37:26Z</time>
      </trkpt>
      <trkpt lat="42.84867" lon="1.18034">
        <ele>680.6</ele>
        <time>2025-06-29T07:37:27Z</time>
      </trkpt>
      <trkpt lat="42.84867" lon="1.18023">
        <ele>680.6</ele>
        <time>2025-06-29T07:37:31Z</time>
      </trkpt>
      <trkpt lat="42.84868" lon="1.1802">
        <ele>681</ele>
        <time>2025-06-29T07:37:32Z</time>
      </trkpt>
      <trkpt lat="42.84868" lon="1.18018">
        <ele>681.4</ele>
        <time>2025-06-29T07:37:33Z</time>
      </trkpt>
      <trkpt lat="42.84868" lon="1.18015">
        <ele>681.8</ele>
        <time>2025-06-29T07:37:34Z</time>
      </trkpt>
      <trkpt lat="42.84868" lon="1.18012">
        <ele>682.2</ele>
        <time>2025-06-29T07:37:35Z</time>
      </trkpt>
      <trkpt lat="42.84868" lon="1.18009">
        <ele>682.8</ele>
        <time>2025-06-29T07:37:36Z</time>
      </trkpt>
      <trkpt lat="42.84868" lon="1.18007">
        <ele>682.8</ele>
        <time>2025-06-29T07:37:37Z</time>
      </trkpt>
      <trkpt lat="42.84865" lon="1.17993">
        <ele>683.2</ele>
        <time>2025-06-29T07:37:42Z</time>
      </trkpt>
      <trkpt lat="42.84864" lon="1.1799">
        <ele>683.6</ele>
        <time>2025-06-29T07:37:43Z</time>
      </trkpt>
      <trkpt lat="42.84864" lon="1.17987">
        <ele>684</ele>
        <time>2025-06-29T07:37:44Z</time>
      </trkpt>
      <trkpt lat="42.84863" lon="1.17985">
        <ele>684.4</ele>
        <time>2025-06-29T07:37:45Z</time>
      </trkpt>
      <trkpt lat="42.84864" lon="1.17982">
        <ele>684.8</ele>
        <time>2025-06-29T07:37:46Z</time>
      </trkpt>
      <trkpt lat="42.84865" lon="1.17979">
        <ele>684.8</ele>
        <time>2025-06-29T07:37:47Z</time>
      </trkpt>
      <trkpt lat="42.84867" lon="1.17975">
        <ele>684.8</ele>
        <time>2025-06-29T07:37:49Z</time>
      </trkpt>
      <trkpt lat="42.84876" lon="1.17971">
        <ele>685.2</ele>
        <time>2025-06-29T07:37:54Z</time>
      </trkpt>
      <trkpt lat="42.84877" lon="1.17971">
        <ele>686.2</ele>
        <time>2025-06-29T07:37:55Z</time>
      </trkpt>
      <trkpt lat="42.84878" lon="1.17971">
        <ele>686.6</ele>
        <time>2025-06-29T07:37:56Z</time>
      </trkpt>
      <trkpt lat="42.8488" lon="1.17971">
        <ele>687</ele>
        <time>2025-06-29T07:37:57Z</time>
      </trkpt>
      <trkpt lat="42.84886" lon="1.17973">
        <ele>687.4</ele>
        <time>2025-06-29T07:38:02Z</time>
      </trkpt>
      <trkpt lat="42.84888" lon="1.17973">
        <ele>687.8</ele>
        <time>2025-06-29T07:38:03Z</time>
      </trkpt>
      <trkpt lat="42.8489" lon="1.17974">
        <ele>688.2</ele>
        <time>2025-06-29T07:38:04Z</time>
      </trkpt>
      <trkpt lat="42.84892" lon="1.17974">
        <ele>688.6</ele>
        <time>2025-06-29T07:38:05Z</time>
      </trkpt>
      <trkpt lat="42.84894" lon="1.17975">
        <ele>689</ele>
        <time>2025-06-29T07:38:06Z</time>
      </trkpt>
      <trkpt lat="42.84898" lon="1.17974">
        <ele>689</ele>
        <time>2025-06-29T07:38:08Z</time>
      </trkpt>
      <trkpt lat="42.84905" lon="1.17972">
        <ele>689.4</ele>
        <time>2025-06-29T07:38:11Z</time>
      </trkpt>
      <trkpt lat="42.84906" lon="1.1797">
        <ele>690</ele>
        <time>2025-06-29T07:38:12Z</time>
      </trkpt>
      <trkpt lat="42.84907" lon="1.17968">
        <ele>690.4</ele>
        <time>2025-06-29T07:38:13Z</time>
      </trkpt>
      <trkpt lat="42.84907" lon="1.17967">
        <ele>690.8</ele>
        <time>2025-06-29T07:38:14Z</time>
      </trkpt>
      <trkpt lat="42.84907" lon="1.17965">
        <ele>691.2</ele>
        <time>2025-06-29T07:38:15Z</time>
      </trkpt>
      <trkpt lat="42.84906" lon="1.17958">
        <ele>691.2</ele>
        <time>2025-06-29T07:38:19Z</time>
      </trkpt>
      <trkpt lat="42.84907" lon="1.17955">
        <ele>691.2</ele>
        <time>2025-06-29T07:38:20Z</time>
      </trkpt>
      <trkpt lat="42.84907" lon="1.17953">
        <ele>692</ele>
        <time>2025-06-29T07:38:21Z</time>
      </trkpt>
      <trkpt lat="42.84907" lon="1.1795">
        <ele>692.4</ele>
        <time>2025-06-29T07:38:22Z</time>
      </trkpt>
      <trkpt lat="42.84907" lon="1.17948">
        <ele>692.8</ele>
        <time>2025-06-29T07:38:23Z</time>
      </trkpt>
      <trkpt lat="42.84906" lon="1.17945">
        <ele>693.4</ele>
        <time>2025-06-29T07:38:24Z</time>
      </trkpt>
      <trkpt lat="42.84905" lon="1.17939">
        <ele>693.4</ele>
        <time>2025-06-29T07:38:26Z</time>
      </trkpt>
      <trkpt lat="42.84907" lon="1.1793">
        <ele>693.8</ele>
        <time>2025-06-29T07:38:30Z</time>
      </trkpt>
      <trkpt lat="42.84907" lon="1.17927">
        <ele>694.2</ele>
        <time>2025-06-29T07:38:31Z</time>
      </trkpt>
      <trkpt lat="42.84907" lon="1.17924">
        <ele>694.6</ele>
        <time>2025-06-29T07:38:32Z</time>
      </trkpt>
      <trkpt lat="42.84908" lon="1.1792">
        <ele>695</ele>
        <time>2025-06-29T07:38:33Z</time>
      </trkpt>
      <trkpt lat="42.84908" lon="1.17917">
        <ele>695.4</ele>
        <time>2025-06-29T07:38:34Z</time>
      </trkpt>
      <trkpt lat="42.84909" lon="1.17901">
        <ele>695.8</ele>
        <time>2025-06-29T07:38:39Z</time>
      </trkpt>
      <trkpt lat="42.84909" lon="1.17898">
        <ele>696.2</ele>
        <time>2025-06-29T07:38:40Z</time>
      </trkpt>
      <trkpt lat="42.8491" lon="1.17895">
        <ele>696.8</ele>
        <time>2025-06-29T07:38:41Z</time>
      </trkpt>
      <trkpt lat="42.84911" lon="1.17891">
        <ele>697.2</ele>
        <time>2025-06-29T07:38:42Z</time>
      </trkpt>
      <trkpt lat="42.84911" lon="1.17889">
        <ele>697.6</ele>
        <time>2025-06-29T07:38:43Z</time>
      </trkpt>
      <trkpt lat="42.84913" lon="1.17885">
        <ele>697.6</ele>
        <time>2025-06-29T07:38:45Z</time>
      </trkpt>
      <trkpt lat="42.84918" lon="1.17881">
        <ele>698</ele>
        <time>2025-06-29T07:38:48Z</time>
      </trkpt>
      <trkpt lat="42.84919" lon="1.1788">
        <ele>698.6</ele>
        <time>2025-06-29T07:38:49Z</time>
      </trkpt>
      <trkpt lat="42.84921" lon="1.17879">
        <ele>699</ele>
        <time>2025-06-29T07:38:50Z</time>
      </trkpt>
      <trkpt lat="42.84922" lon="1.17879">
        <ele>699.4</ele>
        <time>2025-06-29T07:38:51Z</time>
      </trkpt>
      <trkpt lat="42.84923" lon="1.1788">
        <ele>699.8</ele>
        <time>2025-06-29T07:38:52Z</time>
      </trkpt>
      <trkpt lat="42.84925" lon="1.17881">
        <ele>699.8</ele>
        <time>2025-06-29T07:38:53Z</time>
      </trkpt>
      <trkpt lat="42.84931" lon="1.17882">
        <ele>700.4</ele>
        <time>2025-06-29T07:38:57Z</time>
      </trkpt>
      <trkpt lat="42.84934" lon="1.17882">
        <ele>700.8</ele>
        <time>2025-06-29T07:38:58Z</time>
      </trkpt>
      <trkpt lat="42.84936" lon="1.17882">
        <ele>701.2</ele>
        <time>2025-06-29T07:38:59Z</time>
      </trkpt>
      <trkpt lat="42.84938" lon="1.17883">
        <ele>701.6</ele>
        <time>2025-06-29T07:39:00Z</time>
      </trkpt>
      <trkpt lat="42.8494" lon="1.17884">
        <ele>702.2</ele>
        <time>2025-06-29T07:39:01Z</time>
      </trkpt>
      <trkpt lat="42.84944" lon="1.17887">
        <ele>702.2</ele>
        <time>2025-06-29T07:39:03Z</time>
      </trkpt>
      <trkpt lat="42.84945" lon="1.17889">
        <ele>702.2</ele>
        <time>2025-06-29T07:39:04Z</time>
      </trkpt>
      <trkpt lat="42.84951" lon="1.17896">
        <ele>702.6</ele>
        <time>2025-06-29T07:39:07Z</time>
      </trkpt>
      <trkpt lat="42.84953" lon="1.17897">
        <ele>703</ele>
        <time>2025-06-29T07:39:08Z</time>
      </trkpt>
      <trkpt lat="42.84954" lon="1.179">
        <ele>703.4</ele>
        <time>2025-06-29T07:39:09Z</time>
      </trkpt>
      <trkpt lat="42.84956" lon="1.17902">
        <ele>704.2</ele>
        <time>2025-06-29T07:39:10Z</time>
      </trkpt>
      <trkpt lat="42.84968" lon="1.17919">
        <ele>704.6</ele>
        <time>2025-06-29T07:39:17Z</time>
      </trkpt>
      <trkpt lat="42.8497" lon="1.17921">
        <ele>705</ele>
        <time>2025-06-29T07:39:18Z</time>
      </trkpt>
      <trkpt lat="42.84971" lon="1.17924">
        <ele>705.4</ele>
        <time>2025-06-29T07:39:19Z</time>
      </trkpt>
      <trkpt lat="42.84973" lon="1.17926">
        <ele>705.8</ele>
        <time>2025-06-29T07:39:20Z</time>
      </trkpt>
      <trkpt lat="42.84975" lon="1.17928">
        <ele>706.2</ele>
        <time>2025-06-29T07:39:21Z</time>
      </trkpt>
      <trkpt lat="42.84984" lon="1.17936">
        <ele>706.2</ele>
        <time>2025-06-29T07:39:25Z</time>
      </trkpt>
      <trkpt lat="42.84998" lon="1.17947">
        <ele>706.6</ele>
        <time>2025-06-29T07:39:31Z</time>
      </trkpt>
      <trkpt lat="42.85001" lon="1.17948">
        <ele>707</ele>
        <time>2025-06-29T07:39:32Z</time>
      </trkpt>
      <trkpt lat="42.85004" lon="1.17948">
        <ele>707.4</ele>
        <time>2025-06-29T07:39:33Z</time>
      </trkpt>
      <trkpt lat="42.85006" lon="1.17948">
        <ele>707.8</ele>
        <time>2025-06-29T07:39:34Z</time>
      </trkpt>
      <trkpt lat="42.85009" lon="1.17947">
        <ele>708.2</ele>
        <time>2025-06-29T07:39:35Z</time>
      </trkpt>
      <trkpt lat="42.85014" lon="1.17944">
        <ele>708.2</ele>
        <time>2025-06-29T07:39:37Z</time>
      </trkpt>
      <trkpt lat="42.85023" lon="1.17934">
        <ele>708.6</ele>
        <time>2025-06-29T07:39:42Z</time>
      </trkpt>
      <trkpt lat="42.85024" lon="1.17932">
        <ele>709.2</ele>
        <time>2025-06-29T07:39:43Z</time>
      </trkpt>
      <trkpt lat="42.85026" lon="1.1793">
        <ele>709.6</ele>
        <time>2025-06-29T07:39:44Z</time>
      </trkpt>
      <trkpt lat="42.85028" lon="1.17928">
        <ele>710</ele>
        <time>2025-06-29T07:39:45Z</time>
      </trkpt>
      <trkpt lat="42.85029" lon="1.17926">
        <ele>710.4</ele>
        <time>2025-06-29T07:39:46Z</time>
      </trkpt>
      <trkpt lat="42.85033" lon="1.17921">
        <ele>710.4</ele>
        <time>2025-06-29T07:39:48Z</time>
      </trkpt>
      <trkpt lat="42.85041" lon="1.17914">
        <ele>710.8</ele>
        <time>2025-06-29T07:39:53Z</time>
      </trkpt>
      <trkpt lat="42.85042" lon="1.17913">
        <ele>711.2</ele>
        <time>2025-06-29T07:39:54Z</time>
      </trkpt>
      <trkpt lat="42.85044" lon="1.17911">
        <ele>711.6</ele>
        <time>2025-06-29T07:39:55Z</time>
      </trkpt>
      <trkpt lat="42.85047" lon="1.1791">
        <ele>712</ele>
        <time>2025-06-29T07:39:56Z</time>
      </trkpt>
      <trkpt lat="42.85049" lon="1.17911">
        <ele>712.4</ele>
        <time>2025-06-29T07:39:57Z</time>
      </trkpt>
      <trkpt lat="42.85056" lon="1.17911">
        <ele>712.4</ele>
        <time>2025-06-29T07:40:00Z</time>
      </trkpt>
      <trkpt lat="42.85061" lon="1.17913">
        <ele>712.8</ele>
        <time>2025-06-29T07:40:02Z</time>
      </trkpt>
      <trkpt lat="42.85063" lon="1.17914">
        <ele>713.2</ele>
        <time>2025-06-29T07:40:03Z</time>
      </trkpt>
      <trkpt lat="42.85065" lon="1.17916">
        <ele>713.6</ele>
        <time>2025-06-29T07:40:04Z</time>
      </trkpt>
      <trkpt lat="42.85067" lon="1.17917">
        <ele>714</ele>
        <time>2025-06-29T07:40:05Z</time>
      </trkpt>
      <trkpt lat="42.85069" lon="1.17918">
        <ele>714.4</ele>
        <time>2025-06-29T07:40:06Z</time>
      </trkpt>
      <trkpt lat="42.8508" lon="1.17926">
        <ele>714.8</ele>
        <time>2025-06-29T07:40:11Z</time>
      </trkpt>
      <trkpt lat="42.85082" lon="1.17927">
        <ele>715.2</ele>
        <time>2025-06-29T07:40:12Z</time>
      </trkpt>
      <trkpt lat="42.85084" lon="1.17929">
        <ele>715.6</ele>
        <time>2025-06-29T07:40:13Z</time>
      </trkpt>
      <trkpt lat="42.85086" lon="1.17931">
        <ele>716</ele>
        <time>2025-06-29T07:40:14Z</time>
      </trkpt>
      <trkpt lat="42.85089" lon="1.17933">
        <ele>716.6</ele>
        <time>2025-06-29T07:40:15Z</time>
      </trkpt>
      <trkpt lat="42.85096" lon="1.17941">
        <ele>716.6</ele>
        <time>2025-06-29T07:40:19Z</time>
      </trkpt>
      <trkpt lat="42.851" lon="1.17949">
        <ele>717</ele>
        <time>2025-06-29T07:40:22Z</time>
      </trkpt>
      <trkpt lat="42.85101" lon="1.17951">
        <ele>717.4</ele>
        <time>2025-06-29T07:40:23Z</time>
      </trkpt>
      <trkpt lat="42.85102" lon="1.17953">
        <ele>718.2</ele>
        <time>2025-06-29T07:40:24Z</time>
      </trkpt>
      <trkpt lat="42.85103" lon="1.17956">
        <ele>718.6</ele>
        <time>2025-06-29T07:40:25Z</time>
      </trkpt>
      <trkpt lat="42.85104" lon="1.17959">
        <ele>718.6</ele>
        <time>2025-06-29T07:40:26Z</time>
      </trkpt>
      <trkpt lat="42.85109" lon="1.1797">
        <ele>719</ele>
        <time>2025-06-29T07:40:31Z</time>
      </trkpt>
      <trkpt lat="42.85111" lon="1.17973">
        <ele>719.4</ele>
        <time>2025-06-29T07:40:32Z</time>
      </trkpt>
      <trkpt lat="42.85112" lon="1.17976">
        <ele>719.8</ele>
        <time>2025-06-29T07:40:33Z</time>
      </trkpt>
      <trkpt lat="42.85113" lon="1.17979">
        <ele>720.4</ele>
        <time>2025-06-29T07:40:34Z</time>
      </trkpt>
      <trkpt lat="42.85115" lon="1.17983">
        <ele>720.8</ele>
        <time>2025-06-29T07:40:35Z</time>
      </trkpt>
      <trkpt lat="42.8512" lon="1.17998">
        <ele>720.8</ele>
        <time>2025-06-29T07:40:40Z</time>
      </trkpt>
      <trkpt lat="42.85122" lon="1.18005">
        <ele>721.2</ele>
        <time>2025-06-29T07:40:42Z</time>
      </trkpt>
      <trkpt lat="42.85123" lon="1.18008">
        <ele>721.6</ele>
        <time>2025-06-29T07:40:43Z</time>
      </trkpt>
      <trkpt lat="42.85124" lon="1.18011">
        <ele>722</ele>
        <time>2025-06-29T07:40:44Z</time>
      </trkpt>
      <trkpt lat="42.85124" lon="1.18014">
        <ele>722.4</ele>
        <time>2025-06-29T07:40:45Z</time>
      </trkpt>
      <trkpt lat="42.85125" lon="1.18018">
        <ele>722.8</ele>
        <time>2025-06-29T07:40:46Z</time>
      </trkpt>
      <trkpt lat="42.85126" lon="1.18022">
        <ele>722.8</ele>
        <time>2025-06-29T07:40:47Z</time>
      </trkpt>
      <trkpt lat="42.85132" lon="1.18045">
        <ele>723.2</ele>
        <time>2025-06-29T07:40:54Z</time>
      </trkpt>
      <trkpt lat="42.85133" lon="1.18049">
        <ele>723.8</ele>
        <time>2025-06-29T07:40:55Z</time>
      </trkpt>
      <trkpt lat="42.85133" lon="1.18052">
        <ele>724.2</ele>
        <time>2025-06-29T07:40:56Z</time>
      </trkpt>
      <trkpt lat="42.85134" lon="1.18056">
        <ele>724.6</ele>
        <time>2025-06-29T07:40:57Z</time>
      </trkpt>
      <trkpt lat="42.85135" lon="1.18059">
        <ele>725</ele>
        <time>2025-06-29T07:40:58Z</time>
      </trkpt>
      <trkpt lat="42.85139" lon="1.18076">
        <ele>725</ele>
        <time>2025-06-29T07:41:03Z</time>
      </trkpt>
      <trkpt lat="42.85139" lon="1.18092">
        <ele>725.4</ele>
        <time>2025-06-29T07:41:07Z</time>
      </trkpt>
      <trkpt lat="42.85138" lon="1.18096">
        <ele>725.8</ele>
        <time>2025-06-29T07:41:08Z</time>
      </trkpt>
      <trkpt lat="42.85138" lon="1.181">
        <ele>726.2</ele>
        <time>2025-06-29T07:41:09Z</time>
      </trkpt>
      <trkpt lat="42.85137" lon="1.18103">
        <ele>726.6</ele>
        <time>2025-06-29T07:41:10Z</time>
      </trkpt>
      <trkpt lat="42.85136" lon="1.18107">
        <ele>727</ele>
        <time>2025-06-29T07:41:11Z</time>
      </trkpt>
      <trkpt lat="42.85133" lon="1.18129">
        <ele>727</ele>
        <time>2025-06-29T07:41:17Z</time>
      </trkpt>
      <trkpt lat="42.85135" lon="1.18145">
        <ele>727</ele>
        <time>2025-06-29T07:41:22Z</time>
      </trkpt>
      <trkpt lat="42.85141" lon="1.18142">
        <ele>727</ele>
        <time>2025-06-29T07:41:25Z</time>
      </trkpt>
      <trkpt lat="42.85142" lon="1.18139">
        <ele>727.6</ele>
        <time>2025-06-29T07:41:26Z</time>
      </trkpt>
      <trkpt lat="42.85142" lon="1.18136">
        <ele>728</ele>
        <time>2025-06-29T07:41:27Z</time>
      </trkpt>
      <trkpt lat="42.85143" lon="1.18133">
        <ele>728.4</ele>
        <time>2025-06-29T07:41:28Z</time>
      </trkpt>
      <trkpt lat="42.85143" lon="1.18129">
        <ele>728.8</ele>
        <time>2025-06-29T07:41:29Z</time>
      </trkpt>
      <trkpt lat="42.85144" lon="1.18125">
        <ele>729.4</ele>
        <time>2025-06-29T07:41:30Z</time>
      </trkpt>
      <trkpt lat="42.85144" lon="1.18121">
        <ele>729.4</ele>
        <time>2025-06-29T07:41:31Z</time>
      </trkpt>
      <trkpt lat="42.85149" lon="1.18109">
        <ele>729.8</ele>
        <time>2025-06-29T07:41:35Z</time>
      </trkpt>
      <trkpt lat="42.8515" lon="1.18106">
        <ele>730.2</ele>
        <time>2025-06-29T07:41:36Z</time>
      </trkpt>
      <trkpt lat="42.85152" lon="1.18103">
        <ele>730.6</ele>
        <time>2025-06-29T07:41:37Z</time>
      </trkpt>
      <trkpt lat="42.85153" lon="1.181">
        <ele>731.4</ele>
        <time>2025-06-29T07:41:38Z</time>
      </trkpt>
      <trkpt lat="42.85156" lon="1.18082">
        <ele>731.8</ele>
        <time>2025-06-29T07:41:43Z</time>
      </trkpt>
      <trkpt lat="42.85157" lon="1.18078">
        <ele>732.2</ele>
        <time>2025-06-29T07:41:44Z</time>
      </trkpt>
      <trkpt lat="42.85158" lon="1.18075">
        <ele>732.6</ele>
        <time>2025-06-29T07:41:45Z</time>
      </trkpt>
      <trkpt lat="42.85159" lon="1.18072">
        <ele>733</ele>
        <time>2025-06-29T07:41:46Z</time>
      </trkpt>
      <trkpt lat="42.85159" lon="1.18068">
        <ele>733.4</ele>
        <time>2025-06-29T07:41:47Z</time>
      </trkpt>
      <trkpt lat="42.85161" lon="1.18055">
        <ele>733.4</ele>
        <time>2025-06-29T07:41:51Z</time>
      </trkpt>
      <trkpt lat="42.85161" lon="1.18052">
        <ele>733.8</ele>
        <time>2025-06-29T07:41:52Z</time>
      </trkpt>
      <trkpt lat="42.85161" lon="1.18048">
        <ele>734.4</ele>
        <time>2025-06-29T07:41:53Z</time>
      </trkpt>
      <trkpt lat="42.85161" lon="1.18044">
        <ele>734.8</ele>
        <time>2025-06-29T07:41:54Z</time>
      </trkpt>
      <trkpt lat="42.85162" lon="1.1804">
        <ele>735.2</ele>
        <time>2025-06-29T07:41:55Z</time>
      </trkpt>
      <trkpt lat="42.85162" lon="1.18036">
        <ele>735.6</ele>
        <time>2025-06-29T07:41:56Z</time>
      </trkpt>
      <trkpt lat="42.85163" lon="1.18029">
        <ele>735.6</ele>
        <time>2025-06-29T07:41:58Z</time>
      </trkpt>
      <trkpt lat="42.85165" lon="1.18011">
        <ele>736.6</ele>
        <time>2025-06-29T07:42:03Z</time>
      </trkpt>
      <trkpt lat="42.85165" lon="1.18008">
        <ele>737</ele>
        <time>2025-06-29T07:42:04Z</time>
      </trkpt>
      <trkpt lat="42.85166" lon="1.18004">
        <ele>737.4</ele>
        <time>2025-06-29T07:42:05Z</time>
      </trkpt>
      <trkpt lat="42.85166" lon="1.18001">
        <ele>737.8</ele>
        <time>2025-06-29T07:42:06Z</time>
      </trkpt>
      <trkpt lat="42.85169" lon="1.17979">
        <ele>738.2</ele>
        <time>2025-06-29T07:42:13Z</time>
      </trkpt>
      <trkpt lat="42.85169" lon="1.17976">
        <ele>738.6</ele>
        <time>2025-06-29T07:42:14Z</time>
      </trkpt>
      <trkpt lat="42.85168" lon="1.17972">
        <ele>739.2</ele>
        <time>2025-06-29T07:42:15Z</time>
      </trkpt>
      <trkpt lat="42.85168" lon="1.1797">
        <ele>739.6</ele>
        <time>2025-06-29T07:42:16Z</time>
      </trkpt>
      <trkpt lat="42.85168" lon="1.17968">
        <ele>740</ele>
        <time>2025-06-29T07:42:17Z</time>
      </trkpt>
      <trkpt lat="42.85166" lon="1.17963">
        <ele>740</ele>
        <time>2025-06-29T07:42:19Z</time>
      </trkpt>
      <trkpt lat="42.85167" lon="1.17959">
        <ele>740</ele>
        <time>2025-06-29T07:42:21Z</time>
      </trkpt>
      <trkpt lat="42.85166" lon="1.17957">
        <ele>740.4</ele>
        <time>2025-06-29T07:42:22Z</time>
      </trkpt>
      <trkpt lat="42.85166" lon="1.17955">
        <ele>740.8</ele>
        <time>2025-06-29T07:42:23Z</time>
      </trkpt>
      <trkpt lat="42.85165" lon="1.17952">
        <ele>741.2</ele>
        <time>2025-06-29T07:42:24Z</time>
      </trkpt>
      <trkpt lat="42.85164" lon="1.1795">
        <ele>741.6</ele>
        <time>2025-06-29T07:42:25Z</time>
      </trkpt>
      <trkpt lat="42.85164" lon="1.17947">
        <ele>742</ele>
        <time>2025-06-29T07:42:26Z</time>
      </trkpt>
      <trkpt lat="42.85162" lon="1.17941">
        <ele>742</ele>
        <time>2025-06-29T07:42:29Z</time>
      </trkpt>
      <trkpt lat="42.85161" lon="1.17928">
        <ele>742.4</ele>
        <time>2025-06-29T07:42:35Z</time>
      </trkpt>
      <trkpt lat="42.85161" lon="1.17926">
        <ele>742.8</ele>
        <time>2025-06-29T07:42:36Z</time>
      </trkpt>
      <trkpt lat="42.85161" lon="1.17925">
        <ele>743.2</ele>
        <time>2025-06-29T07:42:37Z</time>
      </trkpt>
      <trkpt lat="42.85161" lon="1.17923">
        <ele>743.6</ele>
        <time>2025-06-29T07:42:38Z</time>
      </trkpt>
      <trkpt lat="42.85162" lon="1.17922">
        <ele>744</ele>
        <time>2025-06-29T07:42:39Z</time>
      </trkpt>
      <trkpt lat="42.85162" lon="1.17921">
        <ele>744</ele>
        <time>2025-06-29T07:42:40Z</time>
      </trkpt>
      <trkpt lat="42.85163" lon="1.17919">
        <ele>744</ele>
        <time>2025-06-29T07:42:42Z</time>
      </trkpt>
      <trkpt lat="42.85165" lon="1.17916">
        <ele>744</ele>
        <time>2025-06-29T07:42:45Z</time>
      </trkpt>
      <trkpt lat="42.85166" lon="1.17915">
        <ele>744</ele>
        <time>2025-06-29T07:42:47Z</time>
      </trkpt>
      <trkpt lat="42.85169" lon="1.17916">
        <ele>744</ele>
        <time>2025-06-29T07:42:54Z</time>
      </trkpt>
      <trkpt lat="42.85171" lon="1.17915">
        <ele>744</ele>
        <time>2025-06-29T07:42:55Z</time>
      </trkpt>
      <trkpt lat="42.85177" lon="1.17915">
        <ele>744.4</ele>
        <time>2025-06-29T07:42:58Z</time>
      </trkpt>
      <trkpt lat="42.85179" lon="1.17915">
        <ele>744.8</ele>
        <time>2025-06-29T07:42:59Z</time>
      </trkpt>
      <trkpt lat="42.85181" lon="1.17914">
        <ele>745.2</ele>
        <time>2025-06-29T07:43:00Z</time>
      </trkpt>
      <trkpt lat="42.85183" lon="1.17914">
        <ele>745.8</ele>
        <time>2025-06-29T07:43:01Z</time>
      </trkpt>
      <trkpt lat="42.85185" lon="1.17913">
        <ele>746.2</ele>
        <time>2025-06-29T07:43:02Z</time>
      </trkpt>
      <trkpt lat="42.85187" lon="1.17913">
        <ele>746.2</ele>
        <time>2025-06-29T07:43:03Z</time>
      </trkpt>
      <trkpt lat="42.85195" lon="1.17912">
        <ele>746.6</ele>
        <time>2025-06-29T07:43:07Z</time>
      </trkpt>
      <trkpt lat="42.85196" lon="1.17912">
        <ele>747</ele>
        <time>2025-06-29T07:43:08Z</time>
      </trkpt>
      <trkpt lat="42.85198" lon="1.17912">
        <ele>747.4</ele>
        <time>2025-06-29T07:43:09Z</time>
      </trkpt>
      <trkpt lat="42.852" lon="1.17912">
        <ele>747.8</ele>
        <time>2025-06-29T07:43:10Z</time>
      </trkpt>
      <trkpt lat="42.85202" lon="1.17912">
        <ele>748.2</ele>
        <time>2025-06-29T07:43:11Z</time>
      </trkpt>
      <trkpt lat="42.85204" lon="1.17912">
        <ele>748.2</ele>
        <time>2025-06-29T07:43:12Z</time>
      </trkpt>
      <trkpt lat="42.85215" lon="1.17912">
        <ele>748.6</ele>
        <time>2025-06-29T07:43:18Z</time>
      </trkpt>
      <trkpt lat="42.85217" lon="1.17911">
        <ele>749</ele>
        <time>2025-06-29T07:43:19Z</time>
      </trkpt>
      <trkpt lat="42.85219" lon="1.17911">
        <ele>749.4</ele>
        <time>2025-06-29T07:43:20Z</time>
      </trkpt>
      <trkpt lat="42.85221" lon="1.17911">
        <ele>749.8</ele>
        <time>2025-06-29T07:43:21Z</time>
      </trkpt>
      <trkpt lat="42.85222" lon="1.1791">
        <ele>750.2</ele>
        <time>2025-06-29T07:43:22Z</time>
      </trkpt>
      <trkpt lat="42.85229" lon="1.17908">
        <ele>750.6</ele>
        <time>2025-06-29T07:43:26Z</time>
      </trkpt>
      <trkpt lat="42.85231" lon="1.17906">
        <ele>751</ele>
        <time>2025-06-29T07:43:27Z</time>
      </trkpt>
      <trkpt lat="42.85233" lon="1.17905">
        <ele>751.6</ele>
        <time>2025-06-29T07:43:28Z</time>
      </trkpt>
      <trkpt lat="42.85235" lon="1.17904">
        <ele>752</ele>
        <time>2025-06-29T07:43:29Z</time>
      </trkpt>
      <trkpt lat="42.85236" lon="1.17903">
        <ele>752.4</ele>
        <time>2025-06-29T07:43:30Z</time>
      </trkpt>
      <trkpt lat="42.85241" lon="1.17894">
        <ele>752.4</ele>
        <time>2025-06-29T07:43:34Z</time>
      </trkpt>
      <trkpt lat="42.85252" lon="1.17882">
        <ele>752.4</ele>
        <time>2025-06-29T07:43:40Z</time>
      </trkpt>
      <trkpt lat="42.85254" lon="1.1788">
        <ele>752.8</ele>
        <time>2025-06-29T07:43:41Z</time>
      </trkpt>
      <trkpt lat="42.85257" lon="1.17879">
        <ele>753.6</ele>
        <time>2025-06-29T07:43:42Z</time>
      </trkpt>
      <trkpt lat="42.85259" lon="1.17877">
        <ele>754</ele>
        <time>2025-06-29T07:43:43Z</time>
      </trkpt>
      <trkpt lat="42.85261" lon="1.17877">
        <ele>754.4</ele>
        <time>2025-06-29T07:43:44Z</time>
      </trkpt>
      <trkpt lat="42.85263" lon="1.17877">
        <ele>754.4</ele>
        <time>2025-06-29T07:43:45Z</time>
      </trkpt>
      <trkpt lat="42.85264" lon="1.17877">
        <ele>754.4</ele>
        <time>2025-06-29T07:43:47Z</time>
      </trkpt>
      <trkpt lat="42.8527" lon="1.17889">
        <ele>756.4</ele>
        <time>2025-06-29T07:47:11Z</time>
      </trkpt>
      <trkpt lat="42.85271" lon="1.17891">
        <ele>756.4</ele>
        <time>2025-06-29T07:47:12Z</time>
      </trkpt>
      <trkpt lat="42.85272" lon="1.17897">
        <ele>756.8</ele>
        <time>2025-06-29T07:47:15Z</time>
      </trkpt>
      <trkpt lat="42.85272" lon="1.179">
        <ele>757.2</ele>
        <time>2025-06-29T07:47:16Z</time>
      </trkpt>
      <trkpt lat="42.85272" lon="1.17902">
        <ele>757.8</ele>
        <time>2025-06-29T07:47:17Z</time>
      </trkpt>
      <trkpt lat="42.85272" lon="1.17904">
        <ele>758.2</ele>
        <time>2025-06-29T07:47:18Z</time>
      </trkpt>
      <trkpt lat="42.85272" lon="1.17906">
        <ele>758.6</ele>
        <time>2025-06-29T07:47:19Z</time>
      </trkpt>
      <trkpt lat="42.85272" lon="1.1791">
        <ele>759</ele>
        <time>2025-06-29T07:47:21Z</time>
      </trkpt>
      <trkpt lat="42.85272" lon="1.17912">
        <ele>759.4</ele>
        <time>2025-06-29T07:47:22Z</time>
      </trkpt>
      <trkpt lat="42.85272" lon="1.17914">
        <ele>760.2</ele>
        <time>2025-06-29T07:47:23Z</time>
      </trkpt>
      <trkpt lat="42.85272" lon="1.17916">
        <ele>760.6</ele>
        <time>2025-06-29T07:47:24Z</time>
      </trkpt>
      <trkpt lat="42.85273" lon="1.17925">
        <ele>761</ele>
        <time>2025-06-29T07:47:28Z</time>
      </trkpt>
      <trkpt lat="42.85274" lon="1.17927">
        <ele>761.4</ele>
        <time>2025-06-29T07:47:29Z</time>
      </trkpt>
      <trkpt lat="42.85275" lon="1.17929">
        <ele>761.8</ele>
        <time>2025-06-29T07:47:30Z</time>
      </trkpt>
      <trkpt lat="42.85275" lon="1.1793">
        <ele>762.2</ele>
        <time>2025-06-29T07:47:31Z</time>
      </trkpt>
      <trkpt lat="42.85276" lon="1.17932">
        <ele>762.6</ele>
        <time>2025-06-29T07:47:32Z</time>
      </trkpt>
      <trkpt lat="42.85277" lon="1.17936">
        <ele>763.2</ele>
        <time>2025-06-29T07:47:34Z</time>
      </trkpt>
      <trkpt lat="42.85277" lon="1.17938">
        <ele>763.6</ele>
        <time>2025-06-29T07:47:35Z</time>
      </trkpt>
      <trkpt lat="42.85278" lon="1.17939">
        <ele>764</ele>
        <time>2025-06-29T07:47:36Z</time>
      </trkpt>
      <trkpt lat="42.85279" lon="1.17941">
        <ele>764.4</ele>
        <time>2025-06-29T07:47:37Z</time>
      </trkpt>
      <trkpt lat="42.8528" lon="1.17943">
        <ele>764.8</ele>
        <time>2025-06-29T07:47:38Z</time>
      </trkpt>
      <trkpt lat="42.85282" lon="1.17946">
        <ele>765.2</ele>
        <time>2025-06-29T07:47:40Z</time>
      </trkpt>
      <trkpt lat="42.85283" lon="1.17948">
        <ele>765.6</ele>
        <time>2025-06-29T07:47:41Z</time>
      </trkpt>
      <trkpt lat="42.85284" lon="1.1795">
        <ele>766</ele>
        <time>2025-06-29T07:47:42Z</time>
      </trkpt>
      <trkpt lat="42.85285" lon="1.17951">
        <ele>766.4</ele>
        <time>2025-06-29T07:47:43Z</time>
      </trkpt>
      <trkpt lat="42.85287" lon="1.17953">
        <ele>766.8</ele>
        <time>2025-06-29T07:47:44Z</time>
      </trkpt>
      <trkpt lat="42.85289" lon="1.17957">
        <ele>767.4</ele>
        <time>2025-06-29T07:47:47Z</time>
      </trkpt>
      <trkpt lat="42.8529" lon="1.17959">
        <ele>768.2</ele>
        <time>2025-06-29T07:47:48Z</time>
      </trkpt>
      <trkpt lat="42.85291" lon="1.1796">
        <ele>768.8</ele>
        <time>2025-06-29T07:47:49Z</time>
      </trkpt>
      <trkpt lat="42.85292" lon="1.17962">
        <ele>769.2</ele>
        <time>2025-06-29T07:47:50Z</time>
      </trkpt>
      <trkpt lat="42.85294" lon="1.17965">
        <ele>769.6</ele>
        <time>2025-06-29T07:47:52Z</time>
      </trkpt>
      <trkpt lat="42.85295" lon="1.17967">
        <ele>770</ele>
        <time>2025-06-29T07:47:53Z</time>
      </trkpt>
      <trkpt lat="42.85295" lon="1.17969">
        <ele>770.4</ele>
        <time>2025-06-29T07:47:54Z</time>
      </trkpt>
      <trkpt lat="42.85295" lon="1.17971">
        <ele>770.8</ele>
        <time>2025-06-29T07:47:55Z</time>
      </trkpt>
      <trkpt lat="42.85295" lon="1.17973">
        <ele>771.2</ele>
        <time>2025-06-29T07:47:56Z</time>
      </trkpt>
      <trkpt lat="42.85295" lon="1.17975">
        <ele>771.2</ele>
        <time>2025-06-29T07:47:57Z</time>
      </trkpt>
      <trkpt lat="42.85295" lon="1.17977">
        <ele>771.6</ele>
        <time>2025-06-29T07:47:58Z</time>
      </trkpt>
      <trkpt lat="42.85294" lon="1.17979">
        <ele>772</ele>
        <time>2025-06-29T07:47:59Z</time>
      </trkpt>
      <trkpt lat="42.85294" lon="1.17982">
        <ele>772.4</ele>
        <time>2025-06-29T07:48:00Z</time>
      </trkpt>
      <trkpt lat="42.85294" lon="1.17984">
        <ele>772.8</ele>
        <time>2025-06-29T07:48:01Z</time>
      </trkpt>
      <trkpt lat="42.85293" lon="1.17986">
        <ele>773.2</ele>
        <time>2025-06-29T07:48:02Z</time>
      </trkpt>
      <trkpt lat="42.85293" lon="1.17989">
        <ele>773.2</ele>
        <time>2025-06-29T07:48:03Z</time>
      </trkpt>
      <trkpt lat="42.85293" lon="1.17995">
        <ele>773.6</ele>
        <time>2025-06-29T07:48:06Z</time>
      </trkpt>
      <trkpt lat="42.85293" lon="1.17997">
        <ele>774.2</ele>
        <time>2025-06-29T07:48:07Z</time>
      </trkpt>
      <trkpt lat="42.85294" lon="1.17999">
        <ele>774.6</ele>
        <time>2025-06-29T07:48:08Z</time>
      </trkpt>
      <trkpt lat="42.85294" lon="1.18002">
        <ele>775</ele>
        <time>2025-06-29T07:48:09Z</time>
      </trkpt>
      <trkpt lat="42.85294" lon="1.18004">
        <ele>775.4</ele>
        <time>2025-06-29T07:48:10Z</time>
      </trkpt>
      <trkpt lat="42.85296" lon="1.18009">
        <ele>775.8</ele>
        <time>2025-06-29T07:48:13Z</time>
      </trkpt>
      <trkpt lat="42.85296" lon="1.18011">
        <ele>776.4</ele>
        <time>2025-06-29T07:48:14Z</time>
      </trkpt>
      <trkpt lat="42.85297" lon="1.18012">
        <ele>776.8</ele>
        <time>2025-06-29T07:48:15Z</time>
      </trkpt>
      <trkpt lat="42.85298" lon="1.18014">
        <ele>777.2</ele>
        <time>2025-06-29T07:48:16Z</time>
      </trkpt>
      <trkpt lat="42.85298" lon="1.18016">
        <ele>777.8</ele>
        <time>2025-06-29T07:48:17Z</time>
      </trkpt>
      <trkpt lat="42.85299" lon="1.18018">
        <ele>778.2</ele>
        <time>2025-06-29T07:48:19Z</time>
      </trkpt>
      <trkpt lat="42.853" lon="1.1802">
        <ele>778.6</ele>
        <time>2025-06-29T07:48:20Z</time>
      </trkpt>
      <trkpt lat="42.853" lon="1.18022">
        <ele>779.2</ele>
        <time>2025-06-29T07:48:21Z</time>
      </trkpt>
      <trkpt lat="42.853" lon="1.18024">
        <ele>779.6</ele>
        <time>2025-06-29T07:48:22Z</time>
      </trkpt>
      <trkpt lat="42.853" lon="1.18026">
        <ele>780.2</ele>
        <time>2025-06-29T07:48:23Z</time>
      </trkpt>
      <trkpt lat="42.85302" lon="1.18031">
        <ele>780.6</ele>
        <time>2025-06-29T07:48:26Z</time>
      </trkpt>
      <trkpt lat="42.85303" lon="1.18033">
        <ele>781</ele>
        <time>2025-06-29T07:48:27Z</time>
      </trkpt>
      <trkpt lat="42.85304" lon="1.18035">
        <ele>781.4</ele>
        <time>2025-06-29T07:48:28Z</time>
      </trkpt>
      <trkpt lat="42.85304" lon="1.18037">
        <ele>781.8</ele>
        <time>2025-06-29T07:48:29Z</time>
      </trkpt>
      <trkpt lat="42.85306" lon="1.18038">
        <ele>782.2</ele>
        <time>2025-06-29T07:48:30Z</time>
      </trkpt>
      <trkpt lat="42.85308" lon="1.18041">
        <ele>782.2</ele>
        <time>2025-06-29T07:48:32Z</time>
      </trkpt>
      <trkpt lat="42.8531" lon="1.18043">
        <ele>782.6</ele>
        <time>2025-06-29T07:48:34Z</time>
      </trkpt>
      <trkpt lat="42.85311" lon="1.18043">
        <ele>783</ele>
        <time>2025-06-29T07:48:35Z</time>
      </trkpt>
      <trkpt lat="42.85313" lon="1.18044">
        <ele>783.4</ele>
        <time>2025-06-29T07:48:36Z</time>
      </trkpt>
      <trkpt lat="42.85314" lon="1.18044">
        <ele>784.2</ele>
        <time>2025-06-29T07:48:37Z</time>
      </trkpt>
      <trkpt lat="42.85316" lon="1.18044">
        <ele>784.2</ele>
        <time>2025-06-29T07:48:38Z</time>
      </trkpt>
      <trkpt lat="42.85326" lon="1.18041">
        <ele>784.6</ele>
        <time>2025-06-29T07:48:44Z</time>
      </trkpt>
      <trkpt lat="42.85327" lon="1.1804">
        <ele>785</ele>
        <time>2025-06-29T07:48:45Z</time>
      </trkpt>
      <trkpt lat="42.85329" lon="1.18039">
        <ele>785.4</ele>
        <time>2025-06-29T07:48:46Z</time>
      </trkpt>
      <trkpt lat="42.8533" lon="1.18038">
        <ele>785.8</ele>
        <time>2025-06-29T07:48:47Z</time>
      </trkpt>
      <trkpt lat="42.85332" lon="1.18036">
        <ele>786.2</ele>
        <time>2025-06-29T07:48:48Z</time>
      </trkpt>
      <trkpt lat="42.85335" lon="1.18035">
        <ele>786.2</ele>
        <time>2025-06-29T07:48:50Z</time>
      </trkpt>
      <trkpt lat="42.85345" lon="1.18033">
        <ele>786.2</ele>
        <time>2025-06-29T07:48:56Z</time>
      </trkpt>
      <trkpt lat="42.85346" lon="1.18031">
        <ele>786.2</ele>
        <time>2025-06-29T07:48:57Z</time>
      </trkpt>
      <trkpt lat="42.85347" lon="1.18031">
        <ele>786.6</ele>
        <time>2025-06-29T07:48:58Z</time>
      </trkpt>
      <trkpt lat="42.85349" lon="1.1803">
        <ele>787</ele>
        <time>2025-06-29T07:48:59Z</time>
      </trkpt>
      <trkpt lat="42.85351" lon="1.18029">
        <ele>787.4</ele>
        <time>2025-06-29T07:49:00Z</time>
      </trkpt>
      <trkpt lat="42.85353" lon="1.18029">
        <ele>787.8</ele>
        <time>2025-06-29T07:49:01Z</time>
      </trkpt>
      <trkpt lat="42.85354" lon="1.18029">
        <ele>788.2</ele>
        <time>2025-06-29T07:49:02Z</time>
      </trkpt>
      <trkpt lat="42.85359" lon="1.18029">
        <ele>788.8</ele>
        <time>2025-06-29T07:49:05Z</time>
      </trkpt>
      <trkpt lat="42.8536" lon="1.18028">
        <ele>789.2</ele>
        <time>2025-06-29T07:49:06Z</time>
      </trkpt>
      <trkpt lat="42.85362" lon="1.18028">
        <ele>789.6</ele>
        <time>2025-06-29T07:49:07Z</time>
      </trkpt>
      <trkpt lat="42.85363" lon="1.18027">
        <ele>790</ele>
        <time>2025-06-29T07:49:08Z</time>
      </trkpt>
      <trkpt lat="42.85364" lon="1.18027">
        <ele>790.4</ele>
        <time>2025-06-29T07:49:09Z</time>
      </trkpt>
      <trkpt lat="42.85367" lon="1.18028">
        <ele>791</ele>
        <time>2025-06-29T07:49:11Z</time>
      </trkpt>
      <trkpt lat="42.85369" lon="1.18028">
        <ele>791.4</ele>
        <time>2025-06-29T07:49:12Z</time>
      </trkpt>
      <trkpt lat="42.8537" lon="1.18028">
        <ele>791.8</ele>
        <time>2025-06-29T07:49:13Z</time>
      </trkpt>
      <trkpt lat="42.85371" lon="1.18028">
        <ele>792.2</ele>
        <time>2025-06-29T07:49:14Z</time>
      </trkpt>
      <trkpt lat="42.85372" lon="1.18028">
        <ele>792.6</ele>
        <time>2025-06-29T07:49:15Z</time>
      </trkpt>
      <trkpt lat="42.85374" lon="1.18028">
        <ele>792.6</ele>
        <time>2025-06-29T07:49:16Z</time>
      </trkpt>
      <trkpt lat="42.85376" lon="1.18028">
        <ele>793</ele>
        <time>2025-06-29T07:49:17Z</time>
      </trkpt>
      <trkpt lat="42.85378" lon="1.18028">
        <ele>793.4</ele>
        <time>2025-06-29T07:49:18Z</time>
      </trkpt>
      <trkpt lat="42.85379" lon="1.18028">
        <ele>793.8</ele>
        <time>2025-06-29T07:49:19Z</time>
      </trkpt>
      <trkpt lat="42.85381" lon="1.18027">
        <ele>794.2</ele>
        <time>2025-06-29T07:49:20Z</time>
      </trkpt>
      <trkpt lat="42.85383" lon="1.18027">
        <ele>794.6</ele>
        <time>2025-06-29T07:49:21Z</time>
      </trkpt>
      <trkpt lat="42.85384" lon="1.18028">
        <ele>794.6</ele>
        <time>2025-06-29T07:49:22Z</time>
      </trkpt>
      <trkpt lat="42.85388" lon="1.18028">
        <ele>795.2</ele>
        <time>2025-06-29T07:49:24Z</time>
      </trkpt>
      <trkpt lat="42.85389" lon="1.18028">
        <ele>795.6</ele>
        <time>2025-06-29T07:49:25Z</time>
      </trkpt>
      <trkpt lat="42.8539" lon="1.18029">
        <ele>796.2</ele>
        <time>2025-06-29T07:49:26Z</time>
      </trkpt>
      <trkpt lat="42.85392" lon="1.18029">
        <ele>797</ele>
        <time>2025-06-29T07:49:27Z</time>
      </trkpt>
      <trkpt lat="42.85395" lon="1.18028">
        <ele>797</ele>
        <time>2025-06-29T07:49:29Z</time>
      </trkpt>
      <trkpt lat="42.85399" lon="1.18027">
        <ele>797.4</ele>
        <time>2025-06-29T07:49:31Z</time>
      </trkpt>
      <trkpt lat="42.85402" lon="1.18027">
        <ele>798</ele>
        <time>2025-06-29T07:49:32Z</time>
      </trkpt>
      <trkpt lat="42.85403" lon="1.18027">
        <ele>798.4</ele>
        <time>2025-06-29T07:49:33Z</time>
      </trkpt>
      <trkpt lat="42.85405" lon="1.18027">
        <ele>798.8</ele>
        <time>2025-06-29T07:49:34Z</time>
      </trkpt>
      <trkpt lat="42.85406" lon="1.18026">
        <ele>799.2</ele>
        <time>2025-06-29T07:49:35Z</time>
      </trkpt>
      <trkpt lat="42.85408" lon="1.18026">
        <ele>799.2</ele>
        <time>2025-06-29T07:49:36Z</time>
      </trkpt>
      <trkpt lat="42.85411" lon="1.18025">
        <ele>799.6</ele>
        <time>2025-06-29T07:49:38Z</time>
      </trkpt>
      <trkpt lat="42.85413" lon="1.18025">
        <ele>800</ele>
        <time>2025-06-29T07:49:39Z</time>
      </trkpt>
      <trkpt lat="42.85415" lon="1.18025">
        <ele>800.4</ele>
        <time>2025-06-29T07:49:40Z</time>
      </trkpt>
      <trkpt lat="42.85416" lon="1.18024">
        <ele>800.8</ele>
        <time>2025-06-29T07:49:41Z</time>
      </trkpt>
      <trkpt lat="42.85418" lon="1.18024">
        <ele>801.2</ele>
        <time>2025-06-29T07:49:42Z</time>
      </trkpt>
      <trkpt lat="42.8542" lon="1.18024">
        <ele>801.2</ele>
        <time>2025-06-29T07:49:43Z</time>
      </trkpt>
      <trkpt lat="42.85428" lon="1.18024">
        <ele>801.6</ele>
        <time>2025-06-29T07:49:47Z</time>
      </trkpt>
      <trkpt lat="42.8543" lon="1.18024">
        <ele>802.2</ele>
        <time>2025-06-29T07:49:48Z</time>
      </trkpt>
      <trkpt lat="42.85432" lon="1.18025">
        <ele>802.6</ele>
        <time>2025-06-29T07:49:49Z</time>
      </trkpt>
      <trkpt lat="42.85433" lon="1.18025">
        <ele>803</ele>
        <time>2025-06-29T07:49:50Z</time>
      </trkpt>
      <trkpt lat="42.85435" lon="1.18025">
        <ele>803.4</ele>
        <time>2025-06-29T07:49:51Z</time>
      </trkpt>
      <trkpt lat="42.85437" lon="1.18025">
        <ele>804</ele>
        <time>2025-06-29T07:49:52Z</time>
      </trkpt>
      <trkpt lat="42.85439" lon="1.18026">
        <ele>804.4</ele>
        <time>2025-06-29T07:49:53Z</time>
      </trkpt>
      <trkpt lat="42.8544" lon="1.18027">
        <ele>804.8</ele>
        <time>2025-06-29T07:49:54Z</time>
      </trkpt>
      <trkpt lat="42.85442" lon="1.18028">
        <ele>805.4</ele>
        <time>2025-06-29T07:49:55Z</time>
      </trkpt>
      <trkpt lat="42.85443" lon="1.18028">
        <ele>805.8</ele>
        <time>2025-06-29T07:49:56Z</time>
      </trkpt>
      <trkpt lat="42.85445" lon="1.18028">
        <ele>806.2</ele>
        <time>2025-06-29T07:49:58Z</time>
      </trkpt>
      <trkpt lat="42.85446" lon="1.18028">
        <ele>806.8</ele>
        <time>2025-06-29T07:49:59Z</time>
      </trkpt>
      <trkpt lat="42.85448" lon="1.18027">
        <ele>807.2</ele>
        <time>2025-06-29T07:50:00Z</time>
      </trkpt>
      <trkpt lat="42.8545" lon="1.18027">
        <ele>807.6</ele>
        <time>2025-06-29T07:50:01Z</time>
      </trkpt>
      <trkpt lat="42.85451" lon="1.18028">
        <ele>808.2</ele>
        <time>2025-06-29T07:50:02Z</time>
      </trkpt>
      <trkpt lat="42.85457" lon="1.18028">
        <ele>808.2</ele>
        <time>2025-06-29T07:50:05Z</time>
      </trkpt>
      <trkpt lat="42.85459" lon="1.18029">
        <ele>808.6</ele>
        <time>2025-06-29T07:50:06Z</time>
      </trkpt>
      <trkpt lat="42.85461" lon="1.18029">
        <ele>809</ele>
        <time>2025-06-29T07:50:07Z</time>
      </trkpt>
      <trkpt lat="42.85462" lon="1.18029">
        <ele>809.4</ele>
        <time>2025-06-29T07:50:08Z</time>
      </trkpt>
      <trkpt lat="42.85464" lon="1.18029">
        <ele>809.8</ele>
        <time>2025-06-29T07:50:09Z</time>
      </trkpt>
      <trkpt lat="42.85465" lon="1.18028">
        <ele>810.2</ele>
        <time>2025-06-29T07:50:10Z</time>
      </trkpt>
      <trkpt lat="42.85471" lon="1.18029">
        <ele>810.6</ele>
        <time>2025-06-29T07:50:13Z</time>
      </trkpt>
      <trkpt lat="42.85473" lon="1.18029">
        <ele>811</ele>
        <time>2025-06-29T07:50:14Z</time>
      </trkpt>
      <trkpt lat="42.85475" lon="1.1803">
        <ele>811.4</ele>
        <time>2025-06-29T07:50:15Z</time>
      </trkpt>
      <trkpt lat="42.85477" lon="1.1803">
        <ele>812.4</ele>
        <time>2025-06-29T07:50:16Z</time>
      </trkpt>
      <trkpt lat="42.8548" lon="1.18031">
        <ele>812.8</ele>
        <time>2025-06-29T07:50:18Z</time>
      </trkpt>
      <trkpt lat="42.85481" lon="1.18031">
        <ele>813.2</ele>
        <time>2025-06-29T07:50:19Z</time>
      </trkpt>
      <trkpt lat="42.85482" lon="1.18031">
        <ele>813.6</ele>
        <time>2025-06-29T07:50:20Z</time>
      </trkpt>
      <trkpt lat="42.85483" lon="1.18031">
        <ele>814.2</ele>
        <time>2025-06-29T07:50:21Z</time>
      </trkpt>
      <trkpt lat="42.85484" lon="1.18032">
        <ele>814.6</ele>
        <time>2025-06-29T07:50:22Z</time>
      </trkpt>
      <trkpt lat="42.85489" lon="1.18034">
        <ele>815</ele>
        <time>2025-06-29T07:50:24Z</time>
      </trkpt>
      <trkpt lat="42.85491" lon="1.18034">
        <ele>815.4</ele>
        <time>2025-06-29T07:50:25Z</time>
      </trkpt>
      <trkpt lat="42.85493" lon="1.18034">
        <ele>815.8</ele>
        <time>2025-06-29T07:50:26Z</time>
      </trkpt>
      <trkpt lat="42.85495" lon="1.18035">
        <ele>816.2</ele>
        <time>2025-06-29T07:50:27Z</time>
      </trkpt>
      <trkpt lat="42.85496" lon="1.18035">
        <ele>816.8</ele>
        <time>2025-06-29T07:50:28Z</time>
      </trkpt>
      <trkpt lat="42.85498" lon="1.18035">
        <ele>816.8</ele>
        <time>2025-06-29T07:50:29Z</time>
      </trkpt>
      <trkpt lat="42.85501" lon="1.18037">
        <ele>817.2</ele>
        <time>2025-06-29T07:50:31Z</time>
      </trkpt>
      <trkpt lat="42.85502" lon="1.18036">
        <ele>817.6</ele>
        <time>2025-06-29T07:50:32Z</time>
      </trkpt>
      <trkpt lat="42.85503" lon="1.18036">
        <ele>818</ele>
        <time>2025-06-29T07:50:33Z</time>
      </trkpt>
      <trkpt lat="42.85505" lon="1.18036">
        <ele>818.6</ele>
        <time>2025-06-29T07:50:34Z</time>
      </trkpt>
      <trkpt lat="42.85507" lon="1.18037">
        <ele>819</ele>
        <time>2025-06-29T07:50:35Z</time>
      </trkpt>
      <trkpt lat="42.85508" lon="1.18038">
        <ele>819</ele>
        <time>2025-06-29T07:50:36Z</time>
      </trkpt>
      <trkpt lat="42.8551" lon="1.18039">
        <ele>819.4</ele>
        <time>2025-06-29T07:50:37Z</time>
      </trkpt>
      <trkpt lat="42.85511" lon="1.18039">
        <ele>820</ele>
        <time>2025-06-29T07:50:38Z</time>
      </trkpt>
      <trkpt lat="42.85513" lon="1.18039">
        <ele>820.4</ele>
        <time>2025-06-29T07:50:39Z</time>
      </trkpt>
      <trkpt lat="42.85514" lon="1.1804">
        <ele>820.8</ele>
        <time>2025-06-29T07:50:40Z</time>
      </trkpt>
      <trkpt lat="42.85515" lon="1.1804">
        <ele>821.4</ele>
        <time>2025-06-29T07:50:41Z</time>
      </trkpt>
      <trkpt lat="42.85518" lon="1.18042">
        <ele>821.8</ele>
        <time>2025-06-29T07:50:43Z</time>
      </trkpt>
      <trkpt lat="42.85518" lon="1.18042">
        <ele>822.2</ele>
        <time>2025-06-29T07:50:44Z</time>
      </trkpt>
      <trkpt lat="42.8553" lon="1.18045">
        <ele>824.6</ele>
        <time>2025-06-29T07:50:51Z</time>
      </trkpt>
      <trkpt lat="42.85531" lon="1.18046">
        <ele>825</ele>
        <time>2025-06-29T07:50:52Z</time>
      </trkpt>
      <trkpt lat="42.85532" lon="1.18046">
        <ele>825.4</ele>
        <time>2025-06-29T07:50:53Z</time>
      </trkpt>
      <trkpt lat="42.85535" lon="1.18046">
        <ele>825.4</ele>
        <time>2025-06-29T07:50:55Z</time>
      </trkpt>
      <trkpt lat="42.85537" lon="1.18046">
        <ele>825.8</ele>
        <time>2025-06-29T07:50:56Z</time>
      </trkpt>
      <trkpt lat="42.85539" lon="1.18046">
        <ele>826.2</ele>
        <time>2025-06-29T07:50:57Z</time>
      </trkpt>
      <trkpt lat="42.8554" lon="1.18047">
        <ele>826.6</ele>
        <time>2025-06-29T07:50:58Z</time>
      </trkpt>
      <trkpt lat="42.85541" lon="1.18047">
        <ele>827.2</ele>
        <time>2025-06-29T07:50:59Z</time>
      </trkpt>
      <trkpt lat="42.85542" lon="1.18048">
        <ele>827.6</ele>
        <time>2025-06-29T07:51:00Z</time>
      </trkpt>
      <trkpt lat="42.85548" lon="1.18051">
        <ele>828</ele>
        <time>2025-06-29T07:51:03Z</time>
      </trkpt>
      <trkpt lat="42.85549" lon="1.18051">
        <ele>828.6</ele>
        <time>2025-06-29T07:51:04Z</time>
      </trkpt>
      <trkpt lat="42.85551" lon="1.1805">
        <ele>829</ele>
        <time>2025-06-29T07:51:05Z</time>
      </trkpt>
      <trkpt lat="42.85552" lon="1.1805">
        <ele>830</ele>
        <time>2025-06-29T07:51:06Z</time>
      </trkpt>
      <trkpt lat="42.85558" lon="1.18049">
        <ele>830</ele>
        <time>2025-06-29T07:51:10Z</time>
      </trkpt>
      <trkpt lat="42.85561" lon="1.18049">
        <ele>830.4</ele>
        <time>2025-06-29T07:51:12Z</time>
      </trkpt>
      <trkpt lat="42.85563" lon="1.18049">
        <ele>830.8</ele>
        <time>2025-06-29T07:51:13Z</time>
      </trkpt>
      <trkpt lat="42.85565" lon="1.18049">
        <ele>831.2</ele>
        <time>2025-06-29T07:51:14Z</time>
      </trkpt>
      <trkpt lat="42.85566" lon="1.1805">
        <ele>831.6</ele>
        <time>2025-06-29T07:51:15Z</time>
      </trkpt>
      <trkpt lat="42.85569" lon="1.18051">
        <ele>832</ele>
        <time>2025-06-29T07:51:16Z</time>
      </trkpt>
      <trkpt lat="42.85574" lon="1.18053">
        <ele>832.6</ele>
        <time>2025-06-29T07:51:19Z</time>
      </trkpt>
      <trkpt lat="42.85576" lon="1.18053">
        <ele>833</ele>
        <time>2025-06-29T07:51:20Z</time>
      </trkpt>
      <trkpt lat="42.85577" lon="1.18054">
        <ele>833.4</ele>
        <time>2025-06-29T07:51:21Z</time>
      </trkpt>
      <trkpt lat="42.85579" lon="1.18054">
        <ele>833.8</ele>
        <time>2025-06-29T07:51:22Z</time>
      </trkpt>
      <trkpt lat="42.85581" lon="1.18055">
        <ele>834.4</ele>
        <time>2025-06-29T07:51:23Z</time>
      </trkpt>
      <trkpt lat="42.85582" lon="1.18055">
        <ele>834.8</ele>
        <time>2025-06-29T07:51:24Z</time>
      </trkpt>
      <trkpt lat="42.85583" lon="1.18056">
        <ele>835.2</ele>
        <time>2025-06-29T07:51:25Z</time>
      </trkpt>
      <trkpt lat="42.85584" lon="1.18056">
        <ele>835.6</ele>
        <time>2025-06-29T07:51:26Z</time>
      </trkpt>
      <trkpt lat="42.85586" lon="1.18057">
        <ele>836</ele>
        <time>2025-06-29T07:51:27Z</time>
      </trkpt>
      <trkpt lat="42.85587" lon="1.18057">
        <ele>836.4</ele>
        <time>2025-06-29T07:51:28Z</time>
      </trkpt>
      <trkpt lat="42.85592" lon="1.1806">
        <ele>836.8</ele>
        <time>2025-06-29T07:51:31Z</time>
      </trkpt>
      <trkpt lat="42.85594" lon="1.18061">
        <ele>837.2</ele>
        <time>2025-06-29T07:51:32Z</time>
      </trkpt>
      <trkpt lat="42.85596" lon="1.18062">
        <ele>837.8</ele>
        <time>2025-06-29T07:51:33Z</time>
      </trkpt>
      <trkpt lat="42.85597" lon="1.18063">
        <ele>838.2</ele>
        <time>2025-06-29T07:51:34Z</time>
      </trkpt>
      <trkpt lat="42.85599" lon="1.18063">
        <ele>838.6</ele>
        <time>2025-06-29T07:51:35Z</time>
      </trkpt>
      <trkpt lat="42.85601" lon="1.18064">
        <ele>839.2</ele>
        <time>2025-06-29T07:51:36Z</time>
      </trkpt>
      <trkpt lat="42.85602" lon="1.18064">
        <ele>839.6</ele>
        <time>2025-06-29T07:51:37Z</time>
      </trkpt>
      <trkpt lat="42.85603" lon="1.18064">
        <ele>840</ele>
        <time>2025-06-29T07:51:38Z</time>
      </trkpt>
      <trkpt lat="42.85604" lon="1.18065">
        <ele>840.4</ele>
        <time>2025-06-29T07:51:39Z</time>
      </trkpt>
      <trkpt lat="42.85606" lon="1.18064">
        <ele>840.8</ele>
        <time>2025-06-29T07:51:40Z</time>
      </trkpt>
      <trkpt lat="42.85608" lon="1.18063">
        <ele>840.8</ele>
        <time>2025-06-29T07:51:42Z</time>
      </trkpt>
      <trkpt lat="42.85609" lon="1.18064">
        <ele>840.8</ele>
        <time>2025-06-29T07:51:43Z</time>
      </trkpt>
      <trkpt lat="42.85698" lon="1.18092">
        <ele>857</ele>
        <time>2025-06-29T07:52:39Z</time>
      </trkpt>
      <trkpt lat="42.857" lon="1.18092">
        <ele>857.4</ele>
        <time>2025-06-29T07:52:40Z</time>
      </trkpt>
      <trkpt lat="42.85702" lon="1.18091">
        <ele>858</ele>
        <time>2025-06-29T07:52:41Z</time>
      </trkpt>
      <trkpt lat="42.85711" lon="1.18088">
        <ele>858</ele>
        <time>2025-06-29T07:52:45Z</time>
      </trkpt>
      <trkpt lat="42.85728" lon="1.18084">
        <ele>858</ele>
        <time>2025-06-29T07:52:51Z</time>
      </trkpt>
      <trkpt lat="42.85747" lon="1.18078">
        <ele>858</ele>
        <time>2025-06-29T07:52:58Z</time>
      </trkpt>
      <trkpt lat="42.85759" lon="1.18076">
        <ele>858</ele>
        <time>2025-06-29T07:53:03Z</time>
      </trkpt>
      <trkpt lat="42.85773" lon="1.18075">
        <ele>858</ele>
        <time>2025-06-29T07:53:09Z</time>
      </trkpt>
      <trkpt lat="42.85787" lon="1.18068">
        <ele>858</ele>
        <time>2025-06-29T07:53:15Z</time>
      </trkpt>
      <trkpt lat="42.85804" lon="1.18059">
        <ele>858</ele>
        <time>2025-06-29T07:53:21Z</time>
      </trkpt>
      <trkpt lat="42.85822" lon="1.18049">
        <ele>858</ele>
        <time>2025-06-29T07:53:27Z</time>
      </trkpt>
      <trkpt lat="42.85833" lon="1.18045">
        <ele>858</ele>
        <time>2025-06-29T07:53:32Z</time>
      </trkpt>
      <trkpt lat="42.85837" lon="1.18043">
        <ele>858.8</ele>
        <time>2025-06-29T07:53:34Z</time>
      </trkpt>
      <trkpt lat="42.8584" lon="1.18043">
        <ele>859.2</ele>
        <time>2025-06-29T07:53:35Z</time>
      </trkpt>
      <trkpt lat="42.85842" lon="1.18043">
        <ele>859.6</ele>
        <time>2025-06-29T07:53:36Z</time>
      </trkpt>
      <trkpt lat="42.85843" lon="1.18044">
        <ele>860</ele>
        <time>2025-06-29T07:53:37Z</time>
      </trkpt>
      <trkpt lat="42.85844" lon="1.18045">
        <ele>860</ele>
        <time>2025-06-29T07:53:38Z</time>
      </trkpt>
      <trkpt lat="42.85845" lon="1.18047">
        <ele>860</ele>
        <time>2025-06-29T07:53:39Z</time>
      </trkpt>
      <trkpt lat="42.85849" lon="1.18057">
        <ele>860</ele>
        <time>2025-06-29T07:53:42Z</time>
      </trkpt>
      <trkpt lat="42.85852" lon="1.18062">
        <ele>860</ele>
        <time>2025-06-29T07:53:44Z</time>
      </trkpt>
      <trkpt lat="42.85858" lon="1.1807">
        <ele>859.6</ele>
        <time>2025-06-29T07:53:47Z</time>
      </trkpt>
      <trkpt lat="42.8586" lon="1.18073">
        <ele>859</ele>
        <time>2025-06-29T07:53:48Z</time>
      </trkpt>
      <trkpt lat="42.85864" lon="1.18076">
        <ele>858.6</ele>
        <time>2025-06-29T07:53:49Z</time>
      </trkpt>
      <trkpt lat="42.85867" lon="1.1808">
        <ele>858.2</ele>
        <time>2025-06-29T07:53:50Z</time>
      </trkpt>
      <trkpt lat="42.85871" lon="1.18084">
        <ele>857.8</ele>
        <time>2025-06-29T07:53:51Z</time>
      </trkpt>
      <trkpt lat="42.8589" lon="1.18096">
        <ele>857.4</ele>
        <time>2025-06-29T07:53:56Z</time>
      </trkpt>
      <trkpt lat="42.85894" lon="1.18098">
        <ele>856.8</ele>
        <time>2025-06-29T07:53:57Z</time>
      </trkpt>
      <trkpt lat="42.85896" lon="1.18099">
        <ele>856</ele>
        <time>2025-06-29T07:53:58Z</time>
      </trkpt>
      <trkpt lat="42.85898" lon="1.18099">
        <ele>855.6</ele>
        <time>2025-06-29T07:53:59Z</time>
      </trkpt>
      <trkpt lat="42.85903" lon="1.181">
        <ele>855.6</ele>
        <time>2025-06-29T07:54:01Z</time>
      </trkpt>
      <trkpt lat="42.85916" lon="1.18102">
        <ele>855.6</ele>
        <time>2025-06-29T07:54:06Z</time>
      </trkpt>
      <trkpt lat="42.85924" lon="1.18103">
        <ele>855.6</ele>
        <time>2025-06-29T07:54:08Z</time>
      </trkpt>
      <trkpt lat="42.85944" lon="1.18107">
        <ele>855.6</ele>
        <time>2025-06-29T07:54:12Z</time>
      </trkpt>
      <trkpt lat="42.85956" lon="1.18107">
        <ele>855.6</ele>
        <time>2025-06-29T07:54:15Z</time>
      </trkpt>
      <trkpt lat="42.8596" lon="1.18106">
        <ele>855.2</ele>
        <time>2025-06-29T07:54:16Z</time>
      </trkpt>
      <trkpt lat="42.85965" lon="1.18108">
        <ele>854.8</ele>
        <time>2025-06-29T07:54:17Z</time>
      </trkpt>
      <trkpt lat="42.85968" lon="1.18108">
        <ele>854.4</ele>
        <time>2025-06-29T07:54:18Z</time>
      </trkpt>
      <trkpt lat="42.85973" lon="1.18109">
        <ele>854</ele>
        <time>2025-06-29T07:54:19Z</time>
      </trkpt>
      <trkpt lat="42.85977" lon="1.1811">
        <ele>853.6</ele>
        <time>2025-06-29T07:54:20Z</time>
      </trkpt>
      <trkpt lat="42.85983" lon="1.18114">
        <ele>853.6</ele>
        <time>2025-06-29T07:54:22Z</time>
      </trkpt>
      <trkpt lat="42.85991" lon="1.18116">
        <ele>853.6</ele>
        <time>2025-06-29T07:54:24Z</time>
      </trkpt>
      <trkpt lat="42.86011" lon="1.18124">
        <ele>853.6</ele>
        <time>2025-06-29T07:54:29Z</time>
      </trkpt>
      <trkpt lat="42.86015" lon="1.18126">
        <ele>853.2</ele>
        <time>2025-06-29T07:54:31Z</time>
      </trkpt>
      <trkpt lat="42.8602" lon="1.18127">
        <ele>852.8</ele>
        <time>2025-06-29T07:54:32Z</time>
      </trkpt>
      <trkpt lat="42.86024" lon="1.18129">
        <ele>852.4</ele>
        <time>2025-06-29T07:54:33Z</time>
      </trkpt>
      <trkpt lat="42.86027" lon="1.18132">
        <ele>852</ele>
        <time>2025-06-29T07:54:34Z</time>
      </trkpt>
      <trkpt lat="42.86031" lon="1.18133">
        <ele>851.4</ele>
        <time>2025-06-29T07:54:35Z</time>
      </trkpt>
      <trkpt lat="42.8606" lon="1.18156">
        <ele>851.4</ele>
        <time>2025-06-29T07:54:40Z</time>
      </trkpt>
      <trkpt lat="42.86075" lon="1.18175">
        <ele>851.4</ele>
        <time>2025-06-29T07:54:45Z</time>
      </trkpt>
      <trkpt lat="42.86104" lon="1.18204">
        <ele>852</ele>
        <time>2025-06-29T07:54:50Z</time>
      </trkpt>
      <trkpt lat="42.86109" lon="1.18208">
        <ele>852.4</ele>
        <time>2025-06-29T07:54:51Z</time>
      </trkpt>
      <trkpt lat="42.86113" lon="1.18214">
        <ele>853</ele>
        <time>2025-06-29T07:54:52Z</time>
      </trkpt>
      <trkpt lat="42.86117" lon="1.18217">
        <ele>853.4</ele>
        <time>2025-06-29T07:54:53Z</time>
      </trkpt>
      <trkpt lat="42.8612" lon="1.18222">
        <ele>854</ele>
        <time>2025-06-29T07:54:54Z</time>
      </trkpt>
      <trkpt lat="42.86125" lon="1.18228">
        <ele>854.4</ele>
        <time>2025-06-29T07:54:56Z</time>
      </trkpt>
      <trkpt lat="42.86128" lon="1.18233">
        <ele>854.8</ele>
        <time>2025-06-29T07:54:57Z</time>
      </trkpt>
      <trkpt lat="42.8613" lon="1.18236">
        <ele>855.2</ele>
        <time>2025-06-29T07:54:58Z</time>
      </trkpt>
      <trkpt lat="42.86133" lon="1.18241">
        <ele>855.6</ele>
        <time>2025-06-29T07:54:59Z</time>
      </trkpt>
      <trkpt lat="42.86137" lon="1.18244">
        <ele>856</ele>
        <time>2025-06-29T07:55:00Z</time>
      </trkpt>
      <trkpt lat="42.86143" lon="1.18255">
        <ele>856</ele>
        <time>2025-06-29T07:55:03Z</time>
      </trkpt>
      <trkpt lat="42.8615" lon="1.18267">
        <ele>856.4</ele>
        <time>2025-06-29T07:55:06Z</time>
      </trkpt>
      <trkpt lat="42.86152" lon="1.18271">
        <ele>856.8</ele>
        <time>2025-06-29T07:55:07Z</time>
      </trkpt>
      <trkpt lat="42.86154" lon="1.18274">
        <ele>857.2</ele>
        <time>2025-06-29T07:55:08Z</time>
      </trkpt>
      <trkpt lat="42.86156" lon="1.18278">
        <ele>857.6</ele>
        <time>2025-06-29T07:55:09Z</time>
      </trkpt>
      <trkpt lat="42.86157" lon="1.18282">
        <ele>858</ele>
        <time>2025-06-29T07:55:10Z</time>
      </trkpt>
      <trkpt lat="42.86169" lon="1.18305">
        <ele>858</ele>
        <time>2025-06-29T07:55:16Z</time>
      </trkpt>
      <trkpt lat="42.86175" lon="1.18324">
        <ele>858</ele>
        <time>2025-06-29T07:55:22Z</time>
      </trkpt>
      <trkpt lat="42.86176" lon="1.18335">
        <ele>858</ele>
        <time>2025-06-29T07:55:26Z</time>
      </trkpt>
      <trkpt lat="42.86176" lon="1.18341">
        <ele>858.4</ele>
        <time>2025-06-29T07:55:28Z</time>
      </trkpt>
      <trkpt lat="42.86175" lon="1.18344">
        <ele>858.8</ele>
        <time>2025-06-29T07:55:29Z</time>
      </trkpt>
      <trkpt lat="42.86175" lon="1.18346">
        <ele>859.2</ele>
        <time>2025-06-29T07:55:30Z</time>
      </trkpt>
      <trkpt lat="42.86176" lon="1.1835">
        <ele>859.6</ele>
        <time>2025-06-29T07:55:31Z</time>
      </trkpt>
      <trkpt lat="42.86178" lon="1.18353">
        <ele>860</ele>
        <time>2025-06-29T07:55:32Z</time>
      </trkpt>
      <trkpt lat="42.86181" lon="1.18375">
        <ele>860</ele>
        <time>2025-06-29T07:55:37Z</time>
      </trkpt>
      <trkpt lat="42.86182" lon="1.18377">
        <ele>859.6</ele>
        <time>2025-06-29T07:55:39Z</time>
      </trkpt>
      <trkpt lat="42.86182" lon="1.1838">
        <ele>859.2</ele>
        <time>2025-06-29T07:55:40Z</time>
      </trkpt>
      <trkpt lat="42.86184" lon="1.18382">
        <ele>858.6</ele>
        <time>2025-06-29T07:55:41Z</time>
      </trkpt>
      <trkpt lat="42.86184" lon="1.18388">
        <ele>858.2</ele>
        <time>2025-06-29T07:55:42Z</time>
      </trkpt>
      <trkpt lat="42.86185" lon="1.18394">
        <ele>857.8</ele>
        <time>2025-06-29T07:55:43Z</time>
      </trkpt>
      <trkpt lat="42.86184" lon="1.18402">
        <ele>857.8</ele>
        <time>2025-06-29T07:55:44Z</time>
      </trkpt>
      <trkpt lat="42.86183" lon="1.18414">
        <ele>857.8</ele>
        <time>2025-06-29T07:55:46Z</time>
      </trkpt>
      <trkpt lat="42.86182" lon="1.18424">
        <ele>857.8</ele>
        <time>2025-06-29T07:55:48Z</time>
      </trkpt>
      <trkpt lat="42.86181" lon="1.18447">
        <ele>857.2</ele>
        <time>2025-06-29T07:55:51Z</time>
      </trkpt>
      <trkpt lat="42.8618" lon="1.18455">
        <ele>856.8</ele>
        <time>2025-06-29T07:55:52Z</time>
      </trkpt>
      <trkpt lat="42.86179" lon="1.18462">
        <ele>856.2</ele>
        <time>2025-06-29T07:55:53Z</time>
      </trkpt>
      <trkpt lat="42.86179" lon="1.18467">
        <ele>855.8</ele>
        <time>2025-06-29T07:55:54Z</time>
      </trkpt>
      <trkpt lat="42.86177" lon="1.18472">
        <ele>855.2</ele>
        <time>2025-06-29T07:55:55Z</time>
      </trkpt>
      <trkpt lat="42.86175" lon="1.18476">
        <ele>855.2</ele>
        <time>2025-06-29T07:55:56Z</time>
      </trkpt>
      <trkpt lat="42.8617" lon="1.18495">
        <ele>854.8</ele>
        <time>2025-06-29T07:56:00Z</time>
      </trkpt>
      <trkpt lat="42.8617" lon="1.185">
        <ele>854.4</ele>
        <time>2025-06-29T07:56:01Z</time>
      </trkpt>
      <trkpt lat="42.86169" lon="1.18507">
        <ele>853.6</ele>
        <time>2025-06-29T07:56:02Z</time>
      </trkpt>
      <trkpt lat="42.8617" lon="1.18512">
        <ele>852.8</ele>
        <time>2025-06-29T07:56:03Z</time>
      </trkpt>
      <trkpt lat="42.86171" lon="1.18518">
        <ele>852.2</ele>
        <time>2025-06-29T07:56:04Z</time>
      </trkpt>
      <trkpt lat="42.8617" lon="1.18523">
        <ele>851.6</ele>
        <time>2025-06-29T07:56:05Z</time>
      </trkpt>
      <trkpt lat="42.86169" lon="1.18529">
        <ele>851</ele>
        <time>2025-06-29T07:56:06Z</time>
      </trkpt>
      <trkpt lat="42.86167" lon="1.18535">
        <ele>850.4</ele>
        <time>2025-06-29T07:56:07Z</time>
      </trkpt>
      <trkpt lat="42.86165" lon="1.18541">
        <ele>849.8</ele>
        <time>2025-06-29T07:56:08Z</time>
      </trkpt>
      <trkpt lat="42.86163" lon="1.18547">
        <ele>849.2</ele>
        <time>2025-06-29T07:56:09Z</time>
      </trkpt>
      <trkpt lat="42.8616" lon="1.18554">
        <ele>848.6</ele>
        <time>2025-06-29T07:56:10Z</time>
      </trkpt>
      <trkpt lat="42.86159" lon="1.18559">
        <ele>848</ele>
        <time>2025-06-29T07:56:11Z</time>
      </trkpt>
      <trkpt lat="42.86156" lon="1.18567">
        <ele>847.4</ele>
        <time>2025-06-29T07:56:12Z</time>
      </trkpt>
      <trkpt lat="42.86154" lon="1.1857">
        <ele>846.6</ele>
        <time>2025-06-29T07:56:13Z</time>
      </trkpt>
      <trkpt lat="42.86122" lon="1.18634">
        <ele>846</ele>
        <time>2025-06-29T07:56:14Z</time>
      </trkpt>
      <trkpt lat="42.86119" lon="1.18634">
        <ele>845.2</ele>
        <time>2025-06-29T07:56:15Z</time>
      </trkpt>
      <trkpt lat="42.86117" lon="1.18635">
        <ele>844.4</ele>
        <time>2025-06-29T07:56:16Z</time>
      </trkpt>
      <trkpt lat="42.86115" lon="1.18637">
        <ele>843.6</ele>
        <time>2025-06-29T07:56:17Z</time>
      </trkpt>
      <trkpt lat="42.86112" lon="1.18639">
        <ele>842.8</ele>
        <time>2025-06-29T07:56:18Z</time>
      </trkpt>
      <trkpt lat="42.86109" lon="1.18641">
        <ele>842.2</ele>
        <time>2025-06-29T07:56:19Z</time>
      </trkpt>
      <trkpt lat="42.86108" lon="1.18646">
        <ele>841.4</ele>
        <time>2025-06-29T07:56:20Z</time>
      </trkpt>
      <trkpt lat="42.86105" lon="1.18654">
        <ele>840.4</ele>
        <time>2025-06-29T07:56:21Z</time>
      </trkpt>
      <trkpt lat="42.86103" lon="1.18663">
        <ele>839.4</ele>
        <time>2025-06-29T07:56:22Z</time>
      </trkpt>
      <trkpt lat="42.86101" lon="1.1867">
        <ele>838.6</ele>
        <time>2025-06-29T07:56:23Z</time>
      </trkpt>
      <trkpt lat="42.86099" lon="1.18677">
        <ele>837.4</ele>
        <time>2025-06-29T07:56:24Z</time>
      </trkpt>
      <trkpt lat="42.86097" lon="1.18684">
        <ele>836.4</ele>
        <time>2025-06-29T07:56:25Z</time>
      </trkpt>
      <trkpt lat="42.86095" lon="1.1869">
        <ele>834.2</ele>
        <time>2025-06-29T07:56:26Z</time>
      </trkpt>
      <trkpt lat="42.86093" lon="1.18697">
        <ele>833.2</ele>
        <time>2025-06-29T07:56:27Z</time>
      </trkpt>
      <trkpt lat="42.8609" lon="1.18703">
        <ele>832</ele>
        <time>2025-06-29T07:56:28Z</time>
      </trkpt>
      <trkpt lat="42.86086" lon="1.1871">
        <ele>830.8</ele>
        <time>2025-06-29T07:56:29Z</time>
      </trkpt>
      <trkpt lat="42.86084" lon="1.18716">
        <ele>829.8</ele>
        <time>2025-06-29T07:56:30Z</time>
      </trkpt>
      <trkpt lat="42.86082" lon="1.18718">
        <ele>828.6</ele>
        <time>2025-06-29T07:56:31Z</time>
      </trkpt>
      <trkpt lat="42.86079" lon="1.18721">
        <ele>827.6</ele>
        <time>2025-06-29T07:56:32Z</time>
      </trkpt>
      <trkpt lat="42.86077" lon="1.18727">
        <ele>826.6</ele>
        <time>2025-06-29T07:56:33Z</time>
      </trkpt>
      <trkpt lat="42.86074" lon="1.18731">
        <ele>825.8</ele>
        <time>2025-06-29T07:56:34Z</time>
      </trkpt>
      <trkpt lat="42.86072" lon="1.18735">
        <ele>824.8</ele>
        <time>2025-06-29T07:56:35Z</time>
      </trkpt>
      <trkpt lat="42.8607" lon="1.18741">
        <ele>824</ele>
        <time>2025-06-29T07:56:36Z</time>
      </trkpt>
      <trkpt lat="42.86067" lon="1.18746">
        <ele>823.4</ele>
        <time>2025-06-29T07:56:37Z</time>
      </trkpt>
      <trkpt lat="42.86064" lon="1.18749">
        <ele>822.8</ele>
        <time>2025-06-29T07:56:38Z</time>
      </trkpt>
      <trkpt lat="42.86063" lon="1.18752">
        <ele>821.8</ele>
        <time>2025-06-29T07:56:39Z</time>
      </trkpt>
      <trkpt lat="42.8606" lon="1.18755">
        <ele>821</ele>
        <time>2025-06-29T07:56:40Z</time>
      </trkpt>
      <trkpt lat="42.86057" lon="1.18759">
        <ele>820.2</ele>
        <time>2025-06-29T07:56:41Z</time>
      </trkpt>
      <trkpt lat="42.86054" lon="1.18763">
        <ele>819.4</ele>
        <time>2025-06-29T07:56:42Z</time>
      </trkpt>
      <trkpt lat="42.8605" lon="1.18768">
        <ele>818.8</ele>
        <time>2025-06-29T07:56:43Z</time>
      </trkpt>
      <trkpt lat="42.86046" lon="1.18771">
        <ele>818</ele>
        <time>2025-06-29T07:56:44Z</time>
      </trkpt>
      <trkpt lat="42.86043" lon="1.18773">
        <ele>817.2</ele>
        <time>2025-06-29T07:56:45Z</time>
      </trkpt>
      <trkpt lat="42.86042" lon="1.18775">
        <ele>816.2</ele>
        <time>2025-06-29T07:56:46Z</time>
      </trkpt>
      <trkpt lat="42.8604" lon="1.18777">
        <ele>815.4</ele>
        <time>2025-06-29T07:56:47Z</time>
      </trkpt>
      <trkpt lat="42.8604" lon="1.18778">
        <ele>814.4</ele>
        <time>2025-06-29T07:56:48Z</time>
      </trkpt>
      <trkpt lat="42.86039" lon="1.1878">
        <ele>813.8</ele>
        <time>2025-06-29T07:56:49Z</time>
      </trkpt>
      <trkpt lat="42.8604" lon="1.18782">
        <ele>812.8</ele>
        <time>2025-06-29T07:56:50Z</time>
      </trkpt>
      <trkpt lat="42.86041" lon="1.18784">
        <ele>812.2</ele>
        <time>2025-06-29T07:56:51Z</time>
      </trkpt>
      <trkpt lat="42.86043" lon="1.18785">
        <ele>811.4</ele>
        <time>2025-06-29T07:56:52Z</time>
      </trkpt>
      <trkpt lat="42.86044" lon="1.18786">
        <ele>810.8</ele>
        <time>2025-06-29T07:56:53Z</time>
      </trkpt>
      <trkpt lat="42.86046" lon="1.18787">
        <ele>810.2</ele>
        <time>2025-06-29T07:56:54Z</time>
      </trkpt>
      <trkpt lat="42.86047" lon="1.18788">
        <ele>809.4</ele>
        <time>2025-06-29T07:56:55Z</time>
      </trkpt>
      <trkpt lat="42.86048" lon="1.18788">
        <ele>808.6</ele>
        <time>2025-06-29T07:56:56Z</time>
      </trkpt>
      <trkpt lat="42.86049" lon="1.18787">
        <ele>807.8</ele>
        <time>2025-06-29T07:56:57Z</time>
      </trkpt>
      <trkpt lat="42.8605" lon="1.18786">
        <ele>807</ele>
        <time>2025-06-29T07:56:58Z</time>
      </trkpt>
      <trkpt lat="42.86051" lon="1.18786">
        <ele>806.4</ele>
        <time>2025-06-29T07:56:59Z</time>
      </trkpt>
      <trkpt lat="42.86051" lon="1.18784">
        <ele>806.4</ele>
        <time>2025-06-29T07:57:01Z</time>
      </trkpt>
      <trkpt lat="42.86052" lon="1.18789">
        <ele>804.2</ele>
        <time>2025-06-29T07:57:48Z</time>
      </trkpt>
      <trkpt lat="42.8605" lon="1.18791">
        <ele>804.2</ele>
        <time>2025-06-29T07:57:49Z</time>
      </trkpt>
      <trkpt lat="42.86048" lon="1.18794">
        <ele>803.6</ele>
        <time>2025-06-29T07:57:51Z</time>
      </trkpt>
      <trkpt lat="42.86047" lon="1.18794">
        <ele>803.2</ele>
        <time>2025-06-29T07:57:52Z</time>
      </trkpt>
      <trkpt lat="42.86047" lon="1.18795">
        <ele>802.8</ele>
        <time>2025-06-29T07:57:53Z</time>
      </trkpt>
      <trkpt lat="42.86047" lon="1.18795">
        <ele>802.4</ele>
        <time>2025-06-29T07:57:54Z</time>
      </trkpt>
      <trkpt lat="42.8606" lon="1.18796">
        <ele>799.8</ele>
        <time>2025-06-29T07:58:27Z</time>
      </trkpt>
      <trkpt lat="42.86064" lon="1.18795">
        <ele>799.2</ele>
        <time>2025-06-29T07:58:28Z</time>
      </trkpt>
      <trkpt lat="42.86068" lon="1.18795">
        <ele>798.8</ele>
        <time>2025-06-29T07:58:29Z</time>
      </trkpt>
      <trkpt lat="42.86072" lon="1.18793">
        <ele>797.8</ele>
        <time>2025-06-29T07:58:30Z</time>
      </trkpt>
      <trkpt lat="42.86076" lon="1.18791">
        <ele>797.4</ele>
        <time>2025-06-29T07:58:31Z</time>
      </trkpt>
      <trkpt lat="42.86081" lon="1.18789">
        <ele>796.8</ele>
        <time>2025-06-29T07:58:32Z</time>
      </trkpt>
      <trkpt lat="42.86087" lon="1.18786">
        <ele>796.4</ele>
        <time>2025-06-29T07:58:33Z</time>
      </trkpt>
      <trkpt lat="42.86091" lon="1.18784">
        <ele>796</ele>
        <time>2025-06-29T07:58:34Z</time>
      </trkpt>
      <trkpt lat="42.86095" lon="1.18783">
        <ele>795.4</ele>
        <time>2025-06-29T07:58:35Z</time>
      </trkpt>
      <trkpt lat="42.86098" lon="1.18782">
        <ele>795</ele>
        <time>2025-06-29T07:58:36Z</time>
      </trkpt>
      <trkpt lat="42.86101" lon="1.18781">
        <ele>794.6</ele>
        <time>2025-06-29T07:58:37Z</time>
      </trkpt>
      <trkpt lat="42.86104" lon="1.18779">
        <ele>794.2</ele>
        <time>2025-06-29T07:58:38Z</time>
      </trkpt>
      <trkpt lat="42.86105" lon="1.18778">
        <ele>793.8</ele>
        <time>2025-06-29T07:58:39Z</time>
      </trkpt>
      <trkpt lat="42.86107" lon="1.18776">
        <ele>793.2</ele>
        <time>2025-06-29T07:58:40Z</time>
      </trkpt>
      <trkpt lat="42.86108" lon="1.18776">
        <ele>792.8</ele>
        <time>2025-06-29T07:58:41Z</time>
      </trkpt>
      <trkpt lat="42.86109" lon="1.18776">
        <ele>792.8</ele>
        <time>2025-06-29T07:58:42Z</time>
      </trkpt>
      <trkpt lat="42.86115" lon="1.18766">
        <ele>792.8</ele>
        <time>2025-06-29T07:58:49Z</time>
      </trkpt>
      <trkpt lat="42.86118" lon="1.18764">
        <ele>792.8</ele>
        <time>2025-06-29T07:58:50Z</time>
      </trkpt>
      <trkpt lat="42.86125" lon="1.18755">
        <ele>792.4</ele>
        <time>2025-06-29T07:58:53Z</time>
      </trkpt>
      <trkpt lat="42.86126" lon="1.18753">
        <ele>791.6</ele>
        <time>2025-06-29T07:58:54Z</time>
      </trkpt>
      <trkpt lat="42.86128" lon="1.18752">
        <ele>791</ele>
        <time>2025-06-29T07:58:55Z</time>
      </trkpt>
      <trkpt lat="42.86148" lon="1.18754">
        <ele>786.6</ele>
        <time>2025-06-29T08:06:25Z</time>
      </trkpt>
      <trkpt lat="42.86146" lon="1.18758">
        <ele>786.6</ele>
        <time>2025-06-29T08:06:27Z</time>
      </trkpt>
      <trkpt lat="42.86144" lon="1.18764">
        <ele>786</ele>
        <time>2025-06-29T08:06:29Z</time>
      </trkpt>
      <trkpt lat="42.86144" lon="1.18768">
        <ele>785.6</ele>
        <time>2025-06-29T08:06:30Z</time>
      </trkpt>
      <trkpt lat="42.86143" lon="1.18772">
        <ele>785.2</ele>
        <time>2025-06-29T08:06:31Z</time>
      </trkpt>
      <trkpt lat="42.86143" lon="1.18775">
        <ele>784.8</ele>
        <time>2025-06-29T08:06:32Z</time>
      </trkpt>
      <trkpt lat="42.86142" lon="1.18777">
        <ele>784.2</ele>
        <time>2025-06-29T08:06:33Z</time>
      </trkpt>
      <trkpt lat="42.86141" lon="1.18781">
        <ele>783.8</ele>
        <time>2025-06-29T08:06:35Z</time>
      </trkpt>
      <trkpt lat="42.86141" lon="1.18783">
        <ele>783.4</ele>
        <time>2025-06-29T08:06:36Z</time>
      </trkpt>
      <trkpt lat="42.8614" lon="1.18785">
        <ele>782.8</ele>
        <time>2025-06-29T08:06:37Z</time>
      </trkpt>
      <trkpt lat="42.86139" lon="1.18787">
        <ele>782.4</ele>
        <time>2025-06-29T08:06:38Z</time>
      </trkpt>
      <trkpt lat="42.86138" lon="1.18788">
        <ele>782</ele>
        <time>2025-06-29T08:06:39Z</time>
      </trkpt>
      <trkpt lat="42.86138" lon="1.18789">
        <ele>782</ele>
        <time>2025-06-29T08:06:41Z</time>
      </trkpt>
      <trkpt lat="42.8614" lon="1.18786">
        <ele>779.4</ele>
        <time>2025-06-29T08:06:48Z</time>
      </trkpt>
      <trkpt lat="42.86142" lon="1.18784">
        <ele>779</ele>
        <time>2025-06-29T08:06:49Z</time>
      </trkpt>
      <trkpt lat="42.86144" lon="1.18782">
        <ele>778.6</ele>
        <time>2025-06-29T08:06:50Z</time>
      </trkpt>
      <trkpt lat="42.86147" lon="1.18781">
        <ele>778.2</ele>
        <time>2025-06-29T08:06:51Z</time>
      </trkpt>
      <trkpt lat="42.86149" lon="1.1878">
        <ele>777.6</ele>
        <time>2025-06-29T08:06:52Z</time>
      </trkpt>
      <trkpt lat="42.86155" lon="1.1878">
        <ele>777.2</ele>
        <time>2025-06-29T08:06:54Z</time>
      </trkpt>
      <trkpt lat="42.86158" lon="1.1878">
        <ele>776.8</ele>
        <time>2025-06-29T08:06:55Z</time>
      </trkpt>
      <trkpt lat="42.8616" lon="1.1878">
        <ele>776.4</ele>
        <time>2025-06-29T08:06:56Z</time>
      </trkpt>
      <trkpt lat="42.86163" lon="1.18779">
        <ele>776</ele>
        <time>2025-06-29T08:06:57Z</time>
      </trkpt>
      <trkpt lat="42.86167" lon="1.18777">
        <ele>775.4</ele>
        <time>2025-06-29T08:06:58Z</time>
      </trkpt>
      <trkpt lat="42.86169" lon="1.18777">
        <ele>775</ele>
        <time>2025-06-29T08:06:59Z</time>
      </trkpt>
      <trkpt lat="42.86171" lon="1.18776">
        <ele>774.4</ele>
        <time>2025-06-29T08:07:00Z</time>
      </trkpt>
      <trkpt lat="42.86173" lon="1.18775">
        <ele>773.8</ele>
        <time>2025-06-29T08:07:01Z</time>
      </trkpt>
      <trkpt lat="42.86176" lon="1.18772">
        <ele>773</ele>
        <time>2025-06-29T08:07:02Z</time>
      </trkpt>
      <trkpt lat="42.8618" lon="1.1877">
        <ele>772.4</ele>
        <time>2025-06-29T08:07:03Z</time>
      </trkpt>
      <trkpt lat="42.86183" lon="1.18768">
        <ele>771.8</ele>
        <time>2025-06-29T08:07:04Z</time>
      </trkpt>
      <trkpt lat="42.86186" lon="1.18766">
        <ele>771</ele>
        <time>2025-06-29T08:07:05Z</time>
      </trkpt>
      <trkpt lat="42.86187" lon="1.18764">
        <ele>770.4</ele>
        <time>2025-06-29T08:07:06Z</time>
      </trkpt>
      <trkpt lat="42.8619" lon="1.18763">
        <ele>769.6</ele>
        <time>2025-06-29T08:07:07Z</time>
      </trkpt>
      <trkpt lat="42.86192" lon="1.18762">
        <ele>768</ele>
        <time>2025-06-29T08:07:08Z</time>
      </trkpt>
      <trkpt lat="42.86194" lon="1.1876">
        <ele>767.2</ele>
        <time>2025-06-29T08:07:09Z</time>
      </trkpt>
      <trkpt lat="42.86196" lon="1.18757">
        <ele>766.2</ele>
        <time>2025-06-29T08:07:10Z</time>
      </trkpt>
      <trkpt lat="42.86198" lon="1.18754">
        <ele>765.4</ele>
        <time>2025-06-29T08:07:11Z</time>
      </trkpt>
      <trkpt lat="42.86199" lon="1.18751">
        <ele>764.6</ele>
        <time>2025-06-29T08:07:12Z</time>
      </trkpt>
      <trkpt lat="42.86207" lon="1.18739">
        <ele>762.4</ele>
        <time>2025-06-29T08:07:15Z</time>
      </trkpt>
      <trkpt lat="42.86212" lon="1.18729">
        <ele>760.6</ele>
        <time>2025-06-29T08:07:17Z</time>
      </trkpt>
      <trkpt lat="42.86215" lon="1.18724">
        <ele>759.8</ele>
        <time>2025-06-29T08:07:18Z</time>
      </trkpt>
      <trkpt lat="42.86218" lon="1.18719">
        <ele>759</ele>
        <time>2025-06-29T08:07:19Z</time>
      </trkpt>
      <trkpt lat="42.86227" lon="1.18713">
        <ele>758.4</ele>
        <time>2025-06-29T08:07:20Z</time>
      </trkpt>
      <trkpt lat="42.8623" lon="1.1871">
        <ele>757.6</ele>
        <time>2025-06-29T08:07:21Z</time>
      </trkpt>
      <trkpt lat="42.8623" lon="1.18707">
        <ele>757</ele>
        <time>2025-06-29T08:07:22Z</time>
      </trkpt>
      <trkpt lat="42.86232" lon="1.18705">
        <ele>756.4</ele>
        <time>2025-06-29T08:07:23Z</time>
      </trkpt>
      <trkpt lat="42.86233" lon="1.18702">
        <ele>755.8</ele>
        <time>2025-06-29T08:07:24Z</time>
      </trkpt>
      <trkpt lat="42.86235" lon="1.187">
        <ele>755.2</ele>
        <time>2025-06-29T08:07:25Z</time>
      </trkpt>
      <trkpt lat="42.86236" lon="1.18698">
        <ele>754.4</ele>
        <time>2025-06-29T08:07:26Z</time>
      </trkpt>
      <trkpt lat="42.86243" lon="1.18693">
        <ele>753.8</ele>
        <time>2025-06-29T08:07:27Z</time>
      </trkpt>
      <trkpt lat="42.86249" lon="1.18693">
        <ele>753.2</ele>
        <time>2025-06-29T08:07:28Z</time>
      </trkpt>
      <trkpt lat="42.86253" lon="1.18693">
        <ele>753.2</ele>
        <time>2025-06-29T08:07:29Z</time>
      </trkpt>
      <trkpt lat="42.86255" lon="1.18695">
        <ele>753.2</ele>
        <time>2025-06-29T08:07:31Z</time>
      </trkpt>
      <trkpt lat="42.86254" lon="1.18709">
        <ele>753.2</ele>
        <time>2025-06-29T08:09:47Z</time>
      </trkpt>
      <trkpt lat="42.86252" lon="1.18717">
        <ele>753.2</ele>
        <time>2025-06-29T08:09:49Z</time>
      </trkpt>
      <trkpt lat="42.86253" lon="1.18723">
        <ele>752.8</ele>
        <time>2025-06-29T08:09:50Z</time>
      </trkpt>
      <trkpt lat="42.86252" lon="1.18729">
        <ele>752.2</ele>
        <time>2025-06-29T08:09:51Z</time>
      </trkpt>
      <trkpt lat="42.86251" lon="1.18733">
        <ele>751.8</ele>
        <time>2025-06-29T08:09:52Z</time>
      </trkpt>
      <trkpt lat="42.8625" lon="1.18738">
        <ele>751.2</ele>
        <time>2025-06-29T08:09:53Z</time>
      </trkpt>
      <trkpt lat="42.86248" lon="1.18744">
        <ele>750.6</ele>
        <time>2025-06-29T08:09:54Z</time>
      </trkpt>
      <trkpt lat="42.86247" lon="1.18749">
        <ele>750</ele>
        <time>2025-06-29T08:09:55Z</time>
      </trkpt>
      <trkpt lat="42.86245" lon="1.18752">
        <ele>749.4</ele>
        <time>2025-06-29T08:09:56Z</time>
      </trkpt>
      <trkpt lat="42.86243" lon="1.18754">
        <ele>748.8</ele>
        <time>2025-06-29T08:09:57Z</time>
      </trkpt>
      <trkpt lat="42.86241" lon="1.18755">
        <ele>748.2</ele>
        <time>2025-06-29T08:09:58Z</time>
      </trkpt>
      <trkpt lat="42.8624" lon="1.18757">
        <ele>747.8</ele>
        <time>2025-06-29T08:09:59Z</time>
      </trkpt>
      <trkpt lat="42.86239" lon="1.1876">
        <ele>747.2</ele>
        <time>2025-06-29T08:10:00Z</time>
      </trkpt>
      <trkpt lat="42.86239" lon="1.18764">
        <ele>746</ele>
        <time>2025-06-29T08:10:01Z</time>
      </trkpt>
      <trkpt lat="42.86237" lon="1.18768">
        <ele>745.6</ele>
        <time>2025-06-29T08:10:02Z</time>
      </trkpt>
      <trkpt lat="42.86236" lon="1.18773">
        <ele>745</ele>
        <time>2025-06-29T08:10:03Z</time>
      </trkpt>
      <trkpt lat="42.86235" lon="1.18778">
        <ele>744.6</ele>
        <time>2025-06-29T08:10:04Z</time>
      </trkpt>
      <trkpt lat="42.86234" lon="1.18783">
        <ele>744</ele>
        <time>2025-06-29T08:10:05Z</time>
      </trkpt>
      <trkpt lat="42.86231" lon="1.1879">
        <ele>743.4</ele>
        <time>2025-06-29T08:10:06Z</time>
      </trkpt>
      <trkpt lat="42.86228" lon="1.18796">
        <ele>742.8</ele>
        <time>2025-06-29T08:10:07Z</time>
      </trkpt>
      <trkpt lat="42.86225" lon="1.18802">
        <ele>742</ele>
        <time>2025-06-29T08:10:08Z</time>
      </trkpt>
      <trkpt lat="42.86222" lon="1.18806">
        <ele>741.4</ele>
        <time>2025-06-29T08:10:09Z</time>
      </trkpt>
      <trkpt lat="42.8622" lon="1.18809">
        <ele>740.6</ele>
        <time>2025-06-29T08:10:10Z</time>
      </trkpt>
      <trkpt lat="42.8622" lon="1.18811">
        <ele>740</ele>
        <time>2025-06-29T08:10:11Z</time>
      </trkpt>
      <trkpt lat="42.86219" lon="1.18814">
        <ele>739.4</ele>
        <time>2025-06-29T08:10:12Z</time>
      </trkpt>
      <trkpt lat="42.86219" lon="1.18816">
        <ele>738.6</ele>
        <time>2025-06-29T08:10:13Z</time>
      </trkpt>
      <trkpt lat="42.86221" lon="1.18813">
        <ele>736.8</ele>
        <time>2025-06-29T08:10:16Z</time>
      </trkpt>
      <trkpt lat="42.86223" lon="1.1881">
        <ele>736.4</ele>
        <time>2025-06-29T08:10:17Z</time>
      </trkpt>
      <trkpt lat="42.86225" lon="1.18806">
        <ele>736</ele>
        <time>2025-06-29T08:10:18Z</time>
      </trkpt>
      <trkpt lat="42.86226" lon="1.18802">
        <ele>735.6</ele>
        <time>2025-06-29T08:10:19Z</time>
      </trkpt>
      <trkpt lat="42.86229" lon="1.18797">
        <ele>735.2</ele>
        <time>2025-06-29T08:10:20Z</time>
      </trkpt>
      <trkpt lat="42.86232" lon="1.18792">
        <ele>734.8</ele>
        <time>2025-06-29T08:10:21Z</time>
      </trkpt>
      <trkpt lat="42.86235" lon="1.18789">
        <ele>734.2</ele>
        <time>2025-06-29T08:10:22Z</time>
      </trkpt>
      <trkpt lat="42.86238" lon="1.18787">
        <ele>733.8</ele>
        <time>2025-06-29T08:10:23Z</time>
      </trkpt>
      <trkpt lat="42.86242" lon="1.18782">
        <ele>733.2</ele>
        <time>2025-06-29T08:10:24Z</time>
      </trkpt>
      <trkpt lat="42.86246" lon="1.18778">
        <ele>732.6</ele>
        <time>2025-06-29T08:10:25Z</time>
      </trkpt>
      <trkpt lat="42.86249" lon="1.18773">
        <ele>731.4</ele>
        <time>2025-06-29T08:10:26Z</time>
      </trkpt>
      <trkpt lat="42.86252" lon="1.18768">
        <ele>730.6</ele>
        <time>2025-06-29T08:10:27Z</time>
      </trkpt>
      <trkpt lat="42.86255" lon="1.18762">
        <ele>729.8</ele>
        <time>2025-06-29T08:10:28Z</time>
      </trkpt>
      <trkpt lat="42.86258" lon="1.18755">
        <ele>729</ele>
        <time>2025-06-29T08:10:29Z</time>
      </trkpt>
      <trkpt lat="42.86259" lon="1.18749">
        <ele>728.2</ele>
        <time>2025-06-29T08:10:30Z</time>
      </trkpt>
      <trkpt lat="42.86261" lon="1.18743">
        <ele>727.4</ele>
        <time>2025-06-29T08:10:31Z</time>
      </trkpt>
      <trkpt lat="42.86262" lon="1.18737">
        <ele>726.6</ele>
        <time>2025-06-29T08:10:32Z</time>
      </trkpt>
      <trkpt lat="42.86265" lon="1.1873">
        <ele>725.8</ele>
        <time>2025-06-29T08:10:33Z</time>
      </trkpt>
      <trkpt lat="42.86268" lon="1.18724">
        <ele>725</ele>
        <time>2025-06-29T08:10:34Z</time>
      </trkpt>
      <trkpt lat="42.86268" lon="1.18718">
        <ele>724.2</ele>
        <time>2025-06-29T08:10:35Z</time>
      </trkpt>
      <trkpt lat="42.8627" lon="1.18711">
        <ele>723.4</ele>
        <time>2025-06-29T08:10:36Z</time>
      </trkpt>
      <trkpt lat="42.86273" lon="1.18705">
        <ele>722.6</ele>
        <time>2025-06-29T08:10:37Z</time>
      </trkpt>
      <trkpt lat="42.86276" lon="1.187">
        <ele>721.8</ele>
        <time>2025-06-29T08:10:38Z</time>
      </trkpt>
      <trkpt lat="42.86278" lon="1.18695">
        <ele>721</ele>
        <time>2025-06-29T08:10:39Z</time>
      </trkpt>
      <trkpt lat="42.86281" lon="1.18689">
        <ele>720</ele>
        <time>2025-06-29T08:10:40Z</time>
      </trkpt>
      <trkpt lat="42.86284" lon="1.18683">
        <ele>719.2</ele>
        <time>2025-06-29T08:10:41Z</time>
      </trkpt>
      <trkpt lat="42.86287" lon="1.18677">
        <ele>718.4</ele>
        <time>2025-06-29T08:10:42Z</time>
      </trkpt>
      <trkpt lat="42.86292" lon="1.18672">
        <ele>717.6</ele>
        <time>2025-06-29T08:10:43Z</time>
      </trkpt>
      <trkpt lat="42.86294" lon="1.18667">
        <ele>716.8</ele>
        <time>2025-06-29T08:10:44Z</time>
      </trkpt>
      <trkpt lat="42.86298" lon="1.18662">
        <ele>716.2</ele>
        <time>2025-06-29T08:10:45Z</time>
      </trkpt>
      <trkpt lat="42.863" lon="1.18658">
        <ele>715.6</ele>
        <time>2025-06-29T08:10:46Z</time>
      </trkpt>
      <trkpt lat="42.86301" lon="1.18655">
        <ele>715</ele>
        <time>2025-06-29T08:10:47Z</time>
      </trkpt>
      <trkpt lat="42.86304" lon="1.1865">
        <ele>714.2</ele>
        <time>2025-06-29T08:10:48Z</time>
      </trkpt>
      <trkpt lat="42.86308" lon="1.18644">
        <ele>713.6</ele>
        <time>2025-06-29T08:10:49Z</time>
      </trkpt>
      <trkpt lat="42.86312" lon="1.18639">
        <ele>713.2</ele>
        <time>2025-06-29T08:10:50Z</time>
      </trkpt>
      <trkpt lat="42.86317" lon="1.18634">
        <ele>711.8</ele>
        <time>2025-06-29T08:10:51Z</time>
      </trkpt>
      <trkpt lat="42.86323" lon="1.18629">
        <ele>711.2</ele>
        <time>2025-06-29T08:10:52Z</time>
      </trkpt>
      <trkpt lat="42.86326" lon="1.18624">
        <ele>710.6</ele>
        <time>2025-06-29T08:10:53Z</time>
      </trkpt>
      <trkpt lat="42.86329" lon="1.1862">
        <ele>709.8</ele>
        <time>2025-06-29T08:10:54Z</time>
      </trkpt>
      <trkpt lat="42.86332" lon="1.18617">
        <ele>709.2</ele>
        <time>2025-06-29T08:10:55Z</time>
      </trkpt>
      <trkpt lat="42.86334" lon="1.18615">
        <ele>708.6</ele>
        <time>2025-06-29T08:10:56Z</time>
      </trkpt>
      <trkpt lat="42.86335" lon="1.18612">
        <ele>707.8</ele>
        <time>2025-06-29T08:10:57Z</time>
      </trkpt>
      <trkpt lat="42.86337" lon="1.18611">
        <ele>707.2</ele>
        <time>2025-06-29T08:10:58Z</time>
      </trkpt>
      <trkpt lat="42.86338" lon="1.18607">
        <ele>707.2</ele>
        <time>2025-06-29T08:10:59Z</time>
      </trkpt>
      <trkpt lat="42.86339" lon="1.18605">
        <ele>707.2</ele>
        <time>2025-06-29T08:18:42Z</time>
      </trkpt>
      <trkpt lat="42.8634" lon="1.18603">
        <ele>707.2</ele>
        <time>2025-06-29T08:18:43Z</time>
      </trkpt>
      <trkpt lat="42.86346" lon="1.18585">
        <ele>706.8</ele>
        <time>2025-06-29T08:18:48Z</time>
      </trkpt>
      <trkpt lat="42.86348" lon="1.18579">
        <ele>706.2</ele>
        <time>2025-06-29T08:18:49Z</time>
      </trkpt>
      <trkpt lat="42.86351" lon="1.18574">
        <ele>705.8</ele>
        <time>2025-06-29T08:18:50Z</time>
      </trkpt>
      <trkpt lat="42.86352" lon="1.18571">
        <ele>705.4</ele>
        <time>2025-06-29T08:18:51Z</time>
      </trkpt>
      <trkpt lat="42.86353" lon="1.18567">
        <ele>704.8</ele>
        <time>2025-06-29T08:18:52Z</time>
      </trkpt>
      <trkpt lat="42.86354" lon="1.18563">
        <ele>704.2</ele>
        <time>2025-06-29T08:18:53Z</time>
      </trkpt>
      <trkpt lat="42.86356" lon="1.18558">
        <ele>703.6</ele>
        <time>2025-06-29T08:18:54Z</time>
      </trkpt>
      <trkpt lat="42.86358" lon="1.18553">
        <ele>702.8</ele>
        <time>2025-06-29T08:18:55Z</time>
      </trkpt>
      <trkpt lat="42.86361" lon="1.18549">
        <ele>702</ele>
        <time>2025-06-29T08:18:56Z</time>
      </trkpt>
      <trkpt lat="42.86363" lon="1.18545">
        <ele>701.4</ele>
        <time>2025-06-29T08:18:57Z</time>
      </trkpt>
      <trkpt lat="42.86364" lon="1.18542">
        <ele>700.6</ele>
        <time>2025-06-29T08:18:58Z</time>
      </trkpt>
      <trkpt lat="42.86365" lon="1.18538">
        <ele>700</ele>
        <time>2025-06-29T08:18:59Z</time>
      </trkpt>
      <trkpt lat="42.86366" lon="1.18534">
        <ele>699.2</ele>
        <time>2025-06-29T08:19:00Z</time>
      </trkpt>
      <trkpt lat="42.86367" lon="1.18531">
        <ele>698.4</ele>
        <time>2025-06-29T08:19:01Z</time>
      </trkpt>
      <trkpt lat="42.8637" lon="1.18526">
        <ele>697.8</ele>
        <time>2025-06-29T08:19:02Z</time>
      </trkpt>
      <trkpt lat="42.86373" lon="1.18521">
        <ele>697.2</ele>
        <time>2025-06-29T08:19:03Z</time>
      </trkpt>
      <trkpt lat="42.86375" lon="1.18517">
        <ele>696.4</ele>
        <time>2025-06-29T08:19:04Z</time>
      </trkpt>
      <trkpt lat="42.86377" lon="1.18512">
        <ele>695</ele>
        <time>2025-06-29T08:19:05Z</time>
      </trkpt>
      <trkpt lat="42.86379" lon="1.18506">
        <ele>694.2</ele>
        <time>2025-06-29T08:19:06Z</time>
      </trkpt>
      <trkpt lat="42.8638" lon="1.18501">
        <ele>693.4</ele>
        <time>2025-06-29T08:19:07Z</time>
      </trkpt>
      <trkpt lat="42.86382" lon="1.18495">
        <ele>692.6</ele>
        <time>2025-06-29T08:19:08Z</time>
      </trkpt>
      <trkpt lat="42.86384" lon="1.1849">
        <ele>691.8</ele>
        <time>2025-06-29T08:19:09Z</time>
      </trkpt>
      <trkpt lat="42.86386" lon="1.18486">
        <ele>691</ele>
        <time>2025-06-29T08:19:10Z</time>
      </trkpt>
      <trkpt lat="42.8639" lon="1.18481">
        <ele>690.2</ele>
        <time>2025-06-29T08:19:11Z</time>
      </trkpt>
      <trkpt lat="42.8639" lon="1.1848">
        <ele>688.2</ele>
        <time>2025-06-29T08:20:24Z</time>
      </trkpt>
      <trkpt lat="42.86391" lon="1.18477">
        <ele>688.2</ele>
        <time>2025-06-29T08:20:25Z</time>
      </trkpt>
      <trkpt lat="42.86397" lon="1.18458">
        <ele>688.2</ele>
        <time>2025-06-29T08:20:30Z</time>
      </trkpt>
      <trkpt lat="42.86401" lon="1.18452">
        <ele>687.6</ele>
        <time>2025-06-29T08:20:31Z</time>
      </trkpt>
      <trkpt lat="42.86403" lon="1.18447">
        <ele>687.2</ele>
        <time>2025-06-29T08:20:32Z</time>
      </trkpt>
      <trkpt lat="42.86405" lon="1.18443">
        <ele>686.8</ele>
        <time>2025-06-29T08:20:33Z</time>
      </trkpt>
      <trkpt lat="42.86406" lon="1.18436">
        <ele>686.2</ele>
        <time>2025-06-29T08:20:34Z</time>
      </trkpt>
      <trkpt lat="42.86406" lon="1.1843">
        <ele>685.8</ele>
        <time>2025-06-29T08:20:35Z</time>
      </trkpt>
      <trkpt lat="42.86405" lon="1.18424">
        <ele>685.2</ele>
        <time>2025-06-29T08:20:36Z</time>
      </trkpt>
      <trkpt lat="42.86405" lon="1.18419">
        <ele>684.6</ele>
        <time>2025-06-29T08:20:37Z</time>
      </trkpt>
      <trkpt lat="42.86405" lon="1.18413">
        <ele>684.2</ele>
        <time>2025-06-29T08:20:38Z</time>
      </trkpt>
      <trkpt lat="42.86405" lon="1.18406">
        <ele>683.6</ele>
        <time>2025-06-29T08:20:39Z</time>
      </trkpt>
      <trkpt lat="42.86405" lon="1.18401">
        <ele>683.2</ele>
        <time>2025-06-29T08:20:40Z</time>
      </trkpt>
      <trkpt lat="42.86406" lon="1.18396">
        <ele>682.6</ele>
        <time>2025-06-29T08:20:41Z</time>
      </trkpt>
      <trkpt lat="42.86407" lon="1.18393">
        <ele>682.2</ele>
        <time>2025-06-29T08:20:42Z</time>
      </trkpt>
      <trkpt lat="42.86408" lon="1.18391">
        <ele>680.6</ele>
        <time>2025-06-29T08:20:43Z</time>
      </trkpt>
      <trkpt lat="42.86408" lon="1.18388">
        <ele>680</ele>
        <time>2025-06-29T08:20:44Z</time>
      </trkpt>
      <trkpt lat="42.86408" lon="1.18385">
        <ele>679.2</ele>
        <time>2025-06-29T08:20:45Z</time>
      </trkpt>
      <trkpt lat="42.86409" lon="1.18384">
        <ele>678.4</ele>
        <time>2025-06-29T08:20:46Z</time>
      </trkpt>
      <trkpt lat="42.86409" lon="1.18378">
        <ele>678.4</ele>
        <time>2025-06-29T08:20:49Z</time>
      </trkpt>
      <trkpt lat="42.86409" lon="1.18374">
        <ele>678.4</ele>
        <time>2025-06-29T08:20:50Z</time>
      </trkpt>
      <trkpt lat="42.86409" lon="1.1837">
        <ele>678</ele>
        <time>2025-06-29T08:20:51Z</time>
      </trkpt>
      <trkpt lat="42.86409" lon="1.18366">
        <ele>677.6</ele>
        <time>2025-06-29T08:20:52Z</time>
      </trkpt>
      <trkpt lat="42.8641" lon="1.18361">
        <ele>677.2</ele>
        <time>2025-06-29T08:20:53Z</time>
      </trkpt>
      <trkpt lat="42.8641" lon="1.18357">
        <ele>676.8</ele>
        <time>2025-06-29T08:20:54Z</time>
      </trkpt>
      <trkpt lat="42.8641" lon="1.18352">
        <ele>676.4</ele>
        <time>2025-06-29T08:20:55Z</time>
      </trkpt>
      <trkpt lat="42.86409" lon="1.18346">
        <ele>675.8</ele>
        <time>2025-06-29T08:20:56Z</time>
      </trkpt>
      <trkpt lat="42.86409" lon="1.18339">
        <ele>675.4</ele>
        <time>2025-06-29T08:20:57Z</time>
      </trkpt>
      <trkpt lat="42.86409" lon="1.18331">
        <ele>674.8</ele>
        <time>2025-06-29T08:20:58Z</time>
      </trkpt>
      <trkpt lat="42.86409" lon="1.18324">
        <ele>674.2</ele>
        <time>2025-06-29T08:20:59Z</time>
      </trkpt>
      <trkpt lat="42.86409" lon="1.18318">
        <ele>673.4</ele>
        <time>2025-06-29T08:21:00Z</time>
      </trkpt>
      <trkpt lat="42.86408" lon="1.1831">
        <ele>672.8</ele>
        <time>2025-06-29T08:21:01Z</time>
      </trkpt>
      <trkpt lat="42.86409" lon="1.18302">
        <ele>672</ele>
        <time>2025-06-29T08:21:02Z</time>
      </trkpt>
      <trkpt lat="42.86408" lon="1.18291">
        <ele>671.4</ele>
        <time>2025-06-29T08:21:03Z</time>
      </trkpt>
      <trkpt lat="42.86407" lon="1.18283">
        <ele>670.6</ele>
        <time>2025-06-29T08:21:04Z</time>
      </trkpt>
      <trkpt lat="42.86407" lon="1.18276">
        <ele>670</ele>
        <time>2025-06-29T08:21:05Z</time>
      </trkpt>
      <trkpt lat="42.86408" lon="1.18269">
        <ele>669.2</ele>
        <time>2025-06-29T08:21:06Z</time>
      </trkpt>
      <trkpt lat="42.86408" lon="1.18264">
        <ele>668.6</ele>
        <time>2025-06-29T08:21:07Z</time>
      </trkpt>
      <trkpt lat="42.86408" lon="1.18259">
        <ele>667.2</ele>
        <time>2025-06-29T08:21:08Z</time>
      </trkpt>
      <trkpt lat="42.86407" lon="1.18252">
        <ele>666.6</ele>
        <time>2025-06-29T08:21:09Z</time>
      </trkpt>
      <trkpt lat="42.86407" lon="1.18245">
        <ele>665.8</ele>
        <time>2025-06-29T08:21:10Z</time>
      </trkpt>
      <trkpt lat="42.86406" lon="1.18238">
        <ele>665.4</ele>
        <time>2025-06-29T08:21:11Z</time>
      </trkpt>
      <trkpt lat="42.86405" lon="1.1823">
        <ele>664.8</ele>
        <time>2025-06-29T08:21:12Z</time>
      </trkpt>
      <trkpt lat="42.86404" lon="1.18223">
        <ele>664.4</ele>
        <time>2025-06-29T08:21:13Z</time>
      </trkpt>
      <trkpt lat="42.86404" lon="1.18215">
        <ele>663.6</ele>
        <time>2025-06-29T08:21:14Z</time>
      </trkpt>
      <trkpt lat="42.86403" lon="1.18207">
        <ele>663</ele>
        <time>2025-06-29T08:21:15Z</time>
      </trkpt>
      <trkpt lat="42.86403" lon="1.18199">
        <ele>662.2</ele>
        <time>2025-06-29T08:21:16Z</time>
      </trkpt>
      <trkpt lat="42.86403" lon="1.18191">
        <ele>661.4</ele>
        <time>2025-06-29T08:21:17Z</time>
      </trkpt>
      <trkpt lat="42.86403" lon="1.18183">
        <ele>660.6</ele>
        <time>2025-06-29T08:21:18Z</time>
      </trkpt>
      <trkpt lat="42.86404" lon="1.18174">
        <ele>659.8</ele>
        <time>2025-06-29T08:21:19Z</time>
      </trkpt>
      <trkpt lat="42.86404" lon="1.18165">
        <ele>659</ele>
        <time>2025-06-29T08:21:20Z</time>
      </trkpt>
      <trkpt lat="42.86405" lon="1.18159">
        <ele>658</ele>
        <time>2025-06-29T08:21:21Z</time>
      </trkpt>
      <trkpt lat="42.86406" lon="1.18155">
        <ele>657.2</ele>
        <time>2025-06-29T08:21:22Z</time>
      </trkpt>
      <trkpt lat="42.86407" lon="1.18152">
        <ele>656.2</ele>
        <time>2025-06-29T08:21:23Z</time>
      </trkpt>
      <trkpt lat="42.86407" lon="1.1815">
        <ele>655.4</ele>
        <time>2025-06-29T08:21:24Z</time>
      </trkpt>
      <trkpt lat="42.86407" lon="1.1815">
        <ele>654.4</ele>
        <time>2025-06-29T08:21:25Z</time>
      </trkpt>
      <trkpt lat="42.86409" lon="1.1815">
        <ele>651.4</ele>
        <time>2025-06-29T08:22:01Z</time>
      </trkpt>
      <trkpt lat="42.86411" lon="1.18157">
        <ele>651.4</ele>
        <time>2025-06-29T08:22:03Z</time>
      </trkpt>
      <trkpt lat="42.86414" lon="1.18167">
        <ele>651</ele>
        <time>2025-06-29T08:22:05Z</time>
      </trkpt>
      <trkpt lat="42.86416" lon="1.18173">
        <ele>650.6</ele>
        <time>2025-06-29T08:22:06Z</time>
      </trkpt>
      <trkpt lat="42.86417" lon="1.18179">
        <ele>650</ele>
        <time>2025-06-29T08:22:07Z</time>
      </trkpt>
      <trkpt lat="42.86419" lon="1.18185">
        <ele>649.6</ele>
        <time>2025-06-29T08:22:08Z</time>
      </trkpt>
      <trkpt lat="42.86421" lon="1.18191">
        <ele>649</ele>
        <time>2025-06-29T08:22:09Z</time>
      </trkpt>
      <trkpt lat="42.86423" lon="1.18198">
        <ele>648.6</ele>
        <time>2025-06-29T08:22:10Z</time>
      </trkpt>
      <trkpt lat="42.86425" lon="1.18204">
        <ele>648</ele>
        <time>2025-06-29T08:22:11Z</time>
      </trkpt>
      <trkpt lat="42.86427" lon="1.1821">
        <ele>647.2</ele>
        <time>2025-06-29T08:22:12Z</time>
      </trkpt>
      <trkpt lat="42.86429" lon="1.18217">
        <ele>646.6</ele>
        <time>2025-06-29T08:22:13Z</time>
      </trkpt>
      <trkpt lat="42.8643" lon="1.18223">
        <ele>646</ele>
        <time>2025-06-29T08:22:14Z</time>
      </trkpt>
      <trkpt lat="42.86432" lon="1.18229">
        <ele>645.2</ele>
        <time>2025-06-29T08:22:15Z</time>
      </trkpt>
      <trkpt lat="42.86434" lon="1.18236">
        <ele>644.4</ele>
        <time>2025-06-29T08:22:16Z</time>
      </trkpt>
      <trkpt lat="42.86436" lon="1.18242">
        <ele>643.8</ele>
        <time>2025-06-29T08:22:17Z</time>
      </trkpt>
      <trkpt lat="42.86439" lon="1.18247">
        <ele>643</ele>
        <time>2025-06-29T08:22:18Z</time>
      </trkpt>
      <trkpt lat="42.86442" lon="1.18251">
        <ele>642.2</ele>
        <time>2025-06-29T08:22:19Z</time>
      </trkpt>
      <trkpt lat="42.86445" lon="1.18256">
        <ele>641.6</ele>
        <time>2025-06-29T08:22:20Z</time>
      </trkpt>
      <trkpt lat="42.86448" lon="1.18261">
        <ele>640.8</ele>
        <time>2025-06-29T08:22:21Z</time>
      </trkpt>
      <trkpt lat="42.86452" lon="1.18267">
        <ele>639.2</ele>
        <time>2025-06-29T08:22:22Z</time>
      </trkpt>
      <trkpt lat="42.86455" lon="1.18275">
        <ele>638.4</ele>
        <time>2025-06-29T08:22:23Z</time>
      </trkpt>
      <trkpt lat="42.86457" lon="1.18285">
        <ele>637.8</ele>
        <time>2025-06-29T08:22:24Z</time>
      </trkpt>
      <trkpt lat="42.86459" lon="1.18294">
        <ele>637</ele>
        <time>2025-06-29T08:22:25Z</time>
      </trkpt>
      <trkpt lat="42.86461" lon="1.18305">
        <ele>636.2</ele>
        <time>2025-06-29T08:22:26Z</time>
      </trkpt>
      <trkpt lat="42.86461" lon="1.18316">
        <ele>635.6</ele>
        <time>2025-06-29T08:22:27Z</time>
      </trkpt>
      <trkpt lat="42.86461" lon="1.18326">
        <ele>635</ele>
        <time>2025-06-29T08:22:28Z</time>
      </trkpt>
      <trkpt lat="42.86462" lon="1.18336">
        <ele>634.2</ele>
        <time>2025-06-29T08:22:29Z</time>
      </trkpt>
      <trkpt lat="42.86464" lon="1.18346">
        <ele>633.6</ele>
        <time>2025-06-29T08:22:30Z</time>
      </trkpt>
      <trkpt lat="42.86466" lon="1.18356">
        <ele>633</ele>
        <time>2025-06-29T08:22:31Z</time>
      </trkpt>
      <trkpt lat="42.86469" lon="1.18366">
        <ele>632.2</ele>
        <time>2025-06-29T08:22:32Z</time>
      </trkpt>
      <trkpt lat="42.86471" lon="1.18377">
        <ele>631.6</ele>
        <time>2025-06-29T08:22:33Z</time>
      </trkpt>
      <trkpt lat="42.86474" lon="1.18388">
        <ele>631</ele>
        <time>2025-06-29T08:22:34Z</time>
      </trkpt>
      <trkpt lat="42.86477" lon="1.184">
        <ele>630.4</ele>
        <time>2025-06-29T08:22:35Z</time>
      </trkpt>
      <trkpt lat="42.86479" lon="1.18412">
        <ele>629.8</ele>
        <time>2025-06-29T08:22:36Z</time>
      </trkpt>
      <trkpt lat="42.86481" lon="1.18424">
        <ele>629</ele>
        <time>2025-06-29T08:22:37Z</time>
      </trkpt>
      <trkpt lat="42.86484" lon="1.18435">
        <ele>628.2</ele>
        <time>2025-06-29T08:22:38Z</time>
      </trkpt>
      <trkpt lat="42.86486" lon="1.18446">
        <ele>627.4</ele>
        <time>2025-06-29T08:22:39Z</time>
      </trkpt>
      <trkpt lat="42.86488" lon="1.18457">
        <ele>626.4</ele>
        <time>2025-06-29T08:22:40Z</time>
      </trkpt>
      <trkpt lat="42.86489" lon="1.18467">
        <ele>625.6</ele>
        <time>2025-06-29T08:22:41Z</time>
      </trkpt>
      <trkpt lat="42.86491" lon="1.18478">
        <ele>624.6</ele>
        <time>2025-06-29T08:22:42Z</time>
      </trkpt>
      <trkpt lat="42.86491" lon="1.18488">
        <ele>624</ele>
        <time>2025-06-29T08:22:43Z</time>
      </trkpt>
      <trkpt lat="42.86493" lon="1.18497">
        <ele>623.2</ele>
        <time>2025-06-29T08:22:44Z</time>
      </trkpt>
      <trkpt lat="42.86493" lon="1.18506">
        <ele>622.6</ele>
        <time>2025-06-29T08:22:45Z</time>
      </trkpt>
      <trkpt lat="42.86492" lon="1.18513">
        <ele>621.8</ele>
        <time>2025-06-29T08:22:46Z</time>
      </trkpt>
      <trkpt lat="42.86491" lon="1.18519">
        <ele>620.2</ele>
        <time>2025-06-29T08:22:47Z</time>
      </trkpt>
      <trkpt lat="42.86491" lon="1.18521">
        <ele>619.4</ele>
        <time>2025-06-29T08:22:48Z</time>
      </trkpt>
      <trkpt lat="42.86491" lon="1.1852">
        <ele>618.6</ele>
        <time>2025-06-29T08:22:49Z</time>
      </trkpt>
      <trkpt lat="42.86492" lon="1.18518">
        <ele>618</ele>
        <time>2025-06-29T08:22:50Z</time>
      </trkpt>
      <trkpt lat="42.86492" lon="1.18516">
        <ele>617.2</ele>
        <time>2025-06-29T08:22:51Z</time>
      </trkpt>
      <trkpt lat="42.86493" lon="1.18514">
        <ele>616.6</ele>
        <time>2025-06-29T08:22:52Z</time>
      </trkpt>
      <trkpt lat="42.86494" lon="1.18511">
        <ele>616</ele>
        <time>2025-06-29T08:22:53Z</time>
      </trkpt>
      <trkpt lat="42.86497" lon="1.18505">
        <ele>615.4</ele>
        <time>2025-06-29T08:22:54Z</time>
      </trkpt>
      <trkpt lat="42.86498" lon="1.18497">
        <ele>614.8</ele>
        <time>2025-06-29T08:22:55Z</time>
      </trkpt>
      <trkpt lat="42.865" lon="1.18489">
        <ele>614</ele>
        <time>2025-06-29T08:22:56Z</time>
      </trkpt>
      <trkpt lat="42.86501" lon="1.1848">
        <ele>613.4</ele>
        <time>2025-06-29T08:22:57Z</time>
      </trkpt>
      <trkpt lat="42.86502" lon="1.1847">
        <ele>612.8</ele>
        <time>2025-06-29T08:22:58Z</time>
      </trkpt>
      <trkpt lat="42.86503" lon="1.1846">
        <ele>612</ele>
        <time>2025-06-29T08:22:59Z</time>
      </trkpt>
      <trkpt lat="42.86504" lon="1.1845">
        <ele>611.4</ele>
        <time>2025-06-29T08:23:00Z</time>
      </trkpt>
      <trkpt lat="42.86505" lon="1.18441">
        <ele>610.6</ele>
        <time>2025-06-29T08:23:01Z</time>
      </trkpt>
      <trkpt lat="42.86506" lon="1.18431">
        <ele>609.8</ele>
        <time>2025-06-29T08:23:02Z</time>
      </trkpt>
      <trkpt lat="42.86506" lon="1.1842">
        <ele>609</ele>
        <time>2025-06-29T08:23:03Z</time>
      </trkpt>
      <trkpt lat="42.86507" lon="1.18409">
        <ele>608</ele>
        <time>2025-06-29T08:23:04Z</time>
      </trkpt>
      <trkpt lat="42.86508" lon="1.18401">
        <ele>607.2</ele>
        <time>2025-06-29T08:23:05Z</time>
      </trkpt>
      <trkpt lat="42.86508" lon="1.18393">
        <ele>606.2</ele>
        <time>2025-06-29T08:23:06Z</time>
      </trkpt>
      <trkpt lat="42.86508" lon="1.18386">
        <ele>605.2</ele>
        <time>2025-06-29T08:23:07Z</time>
      </trkpt>
      <trkpt lat="42.86507" lon="1.1838">
        <ele>604.2</ele>
        <time>2025-06-29T08:23:08Z</time>
      </trkpt>
      <trkpt lat="42.86507" lon="1.18375">
        <ele>603.2</ele>
        <time>2025-06-29T08:23:09Z</time>
      </trkpt>
      <trkpt lat="42.86507" lon="1.18372">
        <ele>602.2</ele>
        <time>2025-06-29T08:23:10Z</time>
      </trkpt>
      <trkpt lat="42.86507" lon="1.1837">
        <ele>601.2</ele>
        <time>2025-06-29T08:23:11Z</time>
      </trkpt>
      <trkpt lat="42.86508" lon="1.18368">
        <ele>600.2</ele>
        <time>2025-06-29T08:23:12Z</time>
      </trkpt>
      <trkpt lat="42.86508" lon="1.18367">
        <ele>600.2</ele>
        <time>2025-06-29T08:23:13Z</time>
      </trkpt>
      <trkpt lat="42.86511" lon="1.18359">
        <ele>599.2</ele>
        <time>2025-06-29T08:23:41Z</time>
      </trkpt>
      <trkpt lat="42.86511" lon="1.18356">
        <ele>598.8</ele>
        <time>2025-06-29T08:23:42Z</time>
      </trkpt>
      <trkpt lat="42.86511" lon="1.18354">
        <ele>598.4</ele>
        <time>2025-06-29T08:23:43Z</time>
      </trkpt>
      <trkpt lat="42.86512" lon="1.18353">
        <ele>598</ele>
        <time>2025-06-29T08:23:44Z</time>
      </trkpt>
      <trkpt lat="42.86513" lon="1.18352">
        <ele>597.6</ele>
        <time>2025-06-29T08:23:45Z</time>
      </trkpt>
      <trkpt lat="42.86513" lon="1.18351">
        <ele>597</ele>
        <time>2025-06-29T08:23:46Z</time>
      </trkpt>
      <trkpt lat="42.86514" lon="1.18352">
        <ele>596.6</ele>
        <time>2025-06-29T08:23:47Z</time>
      </trkpt>
      <trkpt lat="42.86515" lon="1.18353">
        <ele>596.2</ele>
        <time>2025-06-29T08:23:48Z</time>
      </trkpt>
      <trkpt lat="42.86515" lon="1.18355">
        <ele>595.8</ele>
        <time>2025-06-29T08:23:49Z</time>
      </trkpt>
      <trkpt lat="42.86515" lon="1.18358">
        <ele>595.2</ele>
        <time>2025-06-29T08:23:50Z</time>
      </trkpt>
      <trkpt lat="42.86515" lon="1.18363">
        <ele>594.8</ele>
        <time>2025-06-29T08:23:51Z</time>
      </trkpt>
      <trkpt lat="42.86515" lon="1.18368">
        <ele>594.4</ele>
        <time>2025-06-29T08:23:52Z</time>
      </trkpt>
      <trkpt lat="42.86515" lon="1.18374">
        <ele>594</ele>
        <time>2025-06-29T08:23:53Z</time>
      </trkpt>
      <trkpt lat="42.86515" lon="1.1838">
        <ele>593.2</ele>
        <time>2025-06-29T08:23:54Z</time>
      </trkpt>
      <trkpt lat="42.86515" lon="1.18385">
        <ele>592.6</ele>
        <time>2025-06-29T08:23:55Z</time>
      </trkpt>
      <trkpt lat="42.86515" lon="1.18393">
        <ele>592</ele>
        <time>2025-06-29T08:23:56Z</time>
      </trkpt>
      <trkpt lat="42.86514" lon="1.184">
        <ele>591</ele>
        <time>2025-06-29T08:23:57Z</time>
      </trkpt>
      <trkpt lat="42.86513" lon="1.18408">
        <ele>590.2</ele>
        <time>2025-06-29T08:23:58Z</time>
      </trkpt>
      <trkpt lat="42.86512" lon="1.18416">
        <ele>589.4</ele>
        <time>2025-06-29T08:23:59Z</time>
      </trkpt>
      <trkpt lat="42.86511" lon="1.18424">
        <ele>588.6</ele>
        <time>2025-06-29T08:24:00Z</time>
      </trkpt>
      <trkpt lat="42.86511" lon="1.18432">
        <ele>587</ele>
        <time>2025-06-29T08:24:01Z</time>
      </trkpt>
      <trkpt lat="42.86511" lon="1.18441">
        <ele>586</ele>
        <time>2025-06-29T08:24:02Z</time>
      </trkpt>
      <trkpt lat="42.86511" lon="1.18449">
        <ele>585</ele>
        <time>2025-06-29T08:24:03Z</time>
      </trkpt>
      <trkpt lat="42.86512" lon="1.18458">
        <ele>584.2</ele>
        <time>2025-06-29T08:24:04Z</time>
      </trkpt>
      <trkpt lat="42.86513" lon="1.18469">
        <ele>583.2</ele>
        <time>2025-06-29T08:24:05Z</time>
      </trkpt>
      <trkpt lat="42.86518" lon="1.18483">
        <ele>582.2</ele>
        <time>2025-06-29T08:24:06Z</time>
      </trkpt>
      <trkpt lat="42.86521" lon="1.18495">
        <ele>581.2</ele>
        <time>2025-06-29T08:24:07Z</time>
      </trkpt>
      <trkpt lat="42.86525" lon="1.18508">
        <ele>580.4</ele>
        <time>2025-06-29T08:24:08Z</time>
      </trkpt>
      <trkpt lat="42.86528" lon="1.18519">
        <ele>579.4</ele>
        <time>2025-06-29T08:24:09Z</time>
      </trkpt>
      <trkpt lat="42.86531" lon="1.18532">
        <ele>578.4</ele>
        <time>2025-06-29T08:24:10Z</time>
      </trkpt>
      <trkpt lat="42.86533" lon="1.18544">
        <ele>577.4</ele>
        <time>2025-06-29T08:24:11Z</time>
      </trkpt>
      <trkpt lat="42.86534" lon="1.18555">
        <ele>576.4</ele>
        <time>2025-06-29T08:24:12Z</time>
      </trkpt>
      <trkpt lat="42.86534" lon="1.18567">
        <ele>575.4</ele>
        <time>2025-06-29T08:24:13Z</time>
      </trkpt>
      <trkpt lat="42.86533" lon="1.18578">
        <ele>574.4</ele>
        <time>2025-06-29T08:24:14Z</time>
      </trkpt>
      <trkpt lat="42.86532" lon="1.18589">
        <ele>573.4</ele>
        <time>2025-06-29T08:24:15Z</time>
      </trkpt>
      <trkpt lat="42.86534" lon="1.18602">
        <ele>572.8</ele>
        <time>2025-06-29T08:24:16Z</time>
      </trkpt>
      <trkpt lat="42.86533" lon="1.18613">
        <ele>572</ele>
        <time>2025-06-29T08:24:17Z</time>
      </trkpt>
      <trkpt lat="42.86532" lon="1.18624">
        <ele>571.4</ele>
        <time>2025-06-29T08:24:18Z</time>
      </trkpt>
      <trkpt lat="42.8653" lon="1.18635">
        <ele>570.8</ele>
        <time>2025-06-29T08:24:19Z</time>
      </trkpt>
      <trkpt lat="42.86528" lon="1.18646">
        <ele>570</ele>
        <time>2025-06-29T08:24:20Z</time>
      </trkpt>
      <trkpt lat="42.86527" lon="1.18657">
        <ele>569.6</ele>
        <time>2025-06-29T08:24:21Z</time>
      </trkpt>
      <trkpt lat="42.86527" lon="1.18667">
        <ele>569.2</ele>
        <time>2025-06-29T08:24:22Z</time>
      </trkpt>
      <trkpt lat="42.86526" lon="1.18676">
        <ele>568.6</ele>
        <time>2025-06-29T08:24:23Z</time>
      </trkpt>
      <trkpt lat="42.86527" lon="1.18685">
        <ele>568.2</ele>
        <time>2025-06-29T08:24:24Z</time>
      </trkpt>
      <trkpt lat="42.86527" lon="1.18695">
        <ele>567.6</ele>
        <time>2025-06-29T08:24:25Z</time>
      </trkpt>
      <trkpt lat="42.86528" lon="1.18705">
        <ele>567</ele>
        <time>2025-06-29T08:24:26Z</time>
      </trkpt>
      <trkpt lat="42.8653" lon="1.18716">
        <ele>565.8</ele>
        <time>2025-06-29T08:24:27Z</time>
      </trkpt>
      <trkpt lat="42.86531" lon="1.18725">
        <ele>565.2</ele>
        <time>2025-06-29T08:24:28Z</time>
      </trkpt>
      <trkpt lat="42.86534" lon="1.18733">
        <ele>564.6</ele>
        <time>2025-06-29T08:24:29Z</time>
      </trkpt>
      <trkpt lat="42.86537" lon="1.18741">
        <ele>563.8</ele>
        <time>2025-06-29T08:24:30Z</time>
      </trkpt>
      <trkpt lat="42.8654" lon="1.18748">
        <ele>563.2</ele>
        <time>2025-06-29T08:24:31Z</time>
      </trkpt>
      <trkpt lat="42.86544" lon="1.18752">
        <ele>562.6</ele>
        <time>2025-06-29T08:24:32Z</time>
      </trkpt>
      <trkpt lat="42.8655" lon="1.18757">
        <ele>561.8</ele>
        <time>2025-06-29T08:24:33Z</time>
      </trkpt>
      <trkpt lat="42.86555" lon="1.18764">
        <ele>561</ele>
        <time>2025-06-29T08:24:34Z</time>
      </trkpt>
      <trkpt lat="42.86559" lon="1.18771">
        <ele>560.2</ele>
        <time>2025-06-29T08:24:35Z</time>
      </trkpt>
      <trkpt lat="42.86563" lon="1.18779">
        <ele>559.2</ele>
        <time>2025-06-29T08:24:36Z</time>
      </trkpt>
      <trkpt lat="42.86566" lon="1.18785">
        <ele>558.4</ele>
        <time>2025-06-29T08:24:37Z</time>
      </trkpt>
      <trkpt lat="42.86569" lon="1.1879">
        <ele>557.4</ele>
        <time>2025-06-29T08:24:38Z</time>
      </trkpt>
      <trkpt lat="42.86572" lon="1.18795">
        <ele>556.6</ele>
        <time>2025-06-29T08:24:39Z</time>
      </trkpt>
      <trkpt lat="42.86574" lon="1.18801">
        <ele>556</ele>
        <time>2025-06-29T08:24:40Z</time>
      </trkpt>
      <trkpt lat="42.86576" lon="1.18807">
        <ele>555.4</ele>
        <time>2025-06-29T08:24:41Z</time>
      </trkpt>
      <trkpt lat="42.86579" lon="1.18813">
        <ele>554.8</ele>
        <time>2025-06-29T08:24:42Z</time>
      </trkpt>
      <trkpt lat="42.86581" lon="1.18818">
        <ele>554.2</ele>
        <time>2025-06-29T08:24:43Z</time>
      </trkpt>
      <trkpt lat="42.86582" lon="1.18824">
        <ele>553.6</ele>
        <time>2025-06-29T08:24:44Z</time>
      </trkpt>
      <trkpt lat="42.86584" lon="1.18828">
        <ele>553.6</ele>
        <time>2025-06-29T08:24:45Z</time>
      </trkpt>
      <trkpt lat="42.86593" lon="1.18836">
        <ele>553.6</ele>
        <time>2025-06-29T08:24:49Z</time>
      </trkpt>
      <trkpt lat="42.86604" lon="1.18833">
        <ele>553.6</ele>
        <time>2025-06-29T08:24:54Z</time>
      </trkpt>
      <trkpt lat="42.86606" lon="1.18832">
        <ele>554</ele>
        <time>2025-06-29T08:24:55Z</time>
      </trkpt>
      <trkpt lat="42.86608" lon="1.18831">
        <ele>554.4</ele>
        <time>2025-06-29T08:24:56Z</time>
      </trkpt>
      <trkpt lat="42.8661" lon="1.1883">
        <ele>554.8</ele>
        <time>2025-06-29T08:24:57Z</time>
      </trkpt>
      <trkpt lat="42.86611" lon="1.18829">
        <ele>555.4</ele>
        <time>2025-06-29T08:24:58Z</time>
      </trkpt>
      <trkpt lat="42.86613" lon="1.18829">
        <ele>555.8</ele>
        <time>2025-06-29T08:24:59Z</time>
      </trkpt>
      <trkpt lat="42.86617" lon="1.18827">
        <ele>555.8</ele>
        <time>2025-06-29T08:25:01Z</time>
      </trkpt>
      <trkpt lat="42.8662" lon="1.18827">
        <ele>555.8</ele>
        <time>2025-06-29T08:25:03Z</time>
      </trkpt>
      <trkpt lat="42.86622" lon="1.18831">
        <ele>556.2</ele>
        <time>2025-06-29T08:25:05Z</time>
      </trkpt>
      <trkpt lat="42.86623" lon="1.18833">
        <ele>556.6</ele>
        <time>2025-06-29T08:25:06Z</time>
      </trkpt>
      <trkpt lat="42.86624" lon="1.18836">
        <ele>557</ele>
        <time>2025-06-29T08:25:07Z</time>
      </trkpt>
      <trkpt lat="42.86624" lon="1.18839">
        <ele>557.4</ele>
        <time>2025-06-29T08:25:08Z</time>
      </trkpt>
      <trkpt lat="42.86625" lon="1.18841">
        <ele>557.8</ele>
        <time>2025-06-29T08:25:09Z</time>
      </trkpt>
      <trkpt lat="42.86625" lon="1.18843">
        <ele>557.8</ele>
        <time>2025-06-29T08:25:10Z</time>
      </trkpt>
      <trkpt lat="42.86625" lon="1.18848">
        <ele>557.8</ele>
        <time>2025-06-29T08:25:12Z</time>
      </trkpt>
      <trkpt lat="42.86627" lon="1.18862">
        <ele>557.8</ele>
        <time>2025-06-29T08:25:17Z</time>
      </trkpt>
      <trkpt lat="42.86628" lon="1.18875">
        <ele>557.8</ele>
        <time>2025-06-29T08:25:23Z</time>
      </trkpt>
      <trkpt lat="42.86623" lon="1.18891">
        <ele>557.8</ele>
        <time>2025-06-29T08:25:30Z</time>
      </trkpt>
      <trkpt lat="42.8662" lon="1.1891">
        <ele>557.8</ele>
        <time>2025-06-29T08:25:36Z</time>
      </trkpt>
      <trkpt lat="42.86622" lon="1.18933">
        <ele>557.8</ele>
        <time>2025-06-29T08:25:42Z</time>
      </trkpt>
      <trkpt lat="42.86625" lon="1.18964">
        <ele>557.8</ele>
        <time>2025-06-29T08:25:50Z</time>
      </trkpt>
      <trkpt lat="42.86625" lon="1.1898">
        <ele>557.4</ele>
        <time>2025-06-29T08:25:54Z</time>
      </trkpt>
      <trkpt lat="42.86625" lon="1.18983">
        <ele>557</ele>
        <time>2025-06-29T08:25:55Z</time>
      </trkpt>
      <trkpt lat="42.86626" lon="1.18987">
        <ele>556.6</ele>
        <time>2025-06-29T08:25:56Z</time>
      </trkpt>
      <trkpt lat="42.86626" lon="1.18991">
        <ele>556.2</ele>
        <time>2025-06-29T08:25:57Z</time>
      </trkpt>
      <trkpt lat="42.86626" lon="1.18995">
        <ele>555.8</ele>
        <time>2025-06-29T08:25:58Z</time>
      </trkpt>
      <trkpt lat="42.8663" lon="1.19018">
        <ele>555.8</ele>
        <time>2025-06-29T08:26:03Z</time>
      </trkpt>
      <trkpt lat="42.86639" lon="1.19045">
        <ele>555.8</ele>
        <time>2025-06-29T08:26:09Z</time>
      </trkpt>
      <trkpt lat="42.86648" lon="1.19082">
        <ele>555.8</ele>
        <time>2025-06-29T08:26:16Z</time>
      </trkpt>
      <trkpt lat="42.86657" lon="1.19118">
        <ele>555.4</ele>
        <time>2025-06-29T08:26:23Z</time>
      </trkpt>
      <trkpt lat="42.86658" lon="1.19123">
        <ele>555</ele>
        <time>2025-06-29T08:26:24Z</time>
      </trkpt>
      <trkpt lat="42.8666" lon="1.19127">
        <ele>554.6</ele>
        <time>2025-06-29T08:26:25Z</time>
      </trkpt>
      <trkpt lat="42.86661" lon="1.19133">
        <ele>554.2</ele>
        <time>2025-06-29T08:26:26Z</time>
      </trkpt>
      <trkpt lat="42.86663" lon="1.19137">
        <ele>553.8</ele>
        <time>2025-06-29T08:26:27Z</time>
      </trkpt>
      <trkpt lat="42.86667" lon="1.1915">
        <ele>553.8</ele>
        <time>2025-06-29T08:26:30Z</time>
      </trkpt>
      <trkpt lat="42.86686" lon="1.19178">
        <ele>553.8</ele>
        <time>2025-06-29T08:26:37Z</time>
      </trkpt>
      <trkpt lat="42.86712" lon="1.19205">
        <ele>553.8</ele>
        <time>2025-06-29T08:26:45Z</time>
      </trkpt>
      <trkpt lat="42.86718" lon="1.19211">
        <ele>553.8</ele>
        <time>2025-06-29T08:26:47Z</time>
      </trkpt>
      <trkpt lat="42.86733" lon="1.19225">
        <ele>553.8</ele>
        <time>2025-06-29T08:26:51Z</time>
      </trkpt>
      <trkpt lat="42.86742" lon="1.19237">
        <ele>553.8</ele>
        <time>2025-06-29T08:26:54Z</time>
      </trkpt>
      <trkpt lat="42.86743" lon="1.19241">
        <ele>553</ele>
        <time>2025-06-29T08:26:55Z</time>
      </trkpt>
      <trkpt lat="42.86744" lon="1.19244">
        <ele>552.6</ele>
        <time>2025-06-29T08:26:56Z</time>
      </trkpt>
      <trkpt lat="42.86744" lon="1.19249">
        <ele>552</ele>
        <time>2025-06-29T08:26:57Z</time>
      </trkpt>
      <trkpt lat="42.86743" lon="1.19254">
        <ele>551.6</ele>
        <time>2025-06-29T08:26:58Z</time>
      </trkpt>
      <trkpt lat="42.86741" lon="1.19259">
        <ele>551.6</ele>
        <time>2025-06-29T08:26:59Z</time>
      </trkpt>
      <trkpt lat="42.86736" lon="1.19268">
        <ele>551.6</ele>
        <time>2025-06-29T08:27:01Z</time>
      </trkpt>
      <trkpt lat="42.86728" lon="1.19285">
        <ele>551.2</ele>
        <time>2025-06-29T08:27:04Z</time>
      </trkpt>
      <trkpt lat="42.86725" lon="1.19291">
        <ele>550.8</ele>
        <time>2025-06-29T08:27:05Z</time>
      </trkpt>
      <trkpt lat="42.86722" lon="1.19298">
        <ele>550.4</ele>
        <time>2025-06-29T08:27:06Z</time>
      </trkpt>
      <trkpt lat="42.86718" lon="1.19304">
        <ele>550</ele>
        <time>2025-06-29T08:27:07Z</time>
      </trkpt>
      <trkpt lat="42.86715" lon="1.1931">
        <ele>549.6</ele>
        <time>2025-06-29T08:27:08Z</time>
      </trkpt>
      <trkpt lat="42.86706" lon="1.19322">
        <ele>549.2</ele>
        <time>2025-06-29T08:27:10Z</time>
      </trkpt>
      <trkpt lat="42.86702" lon="1.19329">
        <ele>548.8</ele>
        <time>2025-06-29T08:27:11Z</time>
      </trkpt>
      <trkpt lat="42.86699" lon="1.19336">
        <ele>548.4</ele>
        <time>2025-06-29T08:27:12Z</time>
      </trkpt>
      <trkpt lat="42.86695" lon="1.19343">
        <ele>547.8</ele>
        <time>2025-06-29T08:27:13Z</time>
      </trkpt>
      <trkpt lat="42.86691" lon="1.19351">
        <ele>547.4</ele>
        <time>2025-06-29T08:27:14Z</time>
      </trkpt>
      <trkpt lat="42.86687" lon="1.19358">
        <ele>546.8</ele>
        <time>2025-06-29T08:27:15Z</time>
      </trkpt>
      <trkpt lat="42.86683" lon="1.19365">
        <ele>546.2</ele>
        <time>2025-06-29T08:27:16Z</time>
      </trkpt>
      <trkpt lat="42.86679" lon="1.19373">
        <ele>545.8</ele>
        <time>2025-06-29T08:27:17Z</time>
      </trkpt>
      <trkpt lat="42.86675" lon="1.1938">
        <ele>545.2</ele>
        <time>2025-06-29T08:27:18Z</time>
      </trkpt>
      <trkpt lat="42.8667" lon="1.19388">
        <ele>544.6</ele>
        <time>2025-06-29T08:27:19Z</time>
      </trkpt>
      <trkpt lat="42.86666" lon="1.19395">
        <ele>543.4</ele>
        <time>2025-06-29T08:27:20Z</time>
      </trkpt>
      <trkpt lat="42.86662" lon="1.19403">
        <ele>543</ele>
        <time>2025-06-29T08:27:21Z</time>
      </trkpt>
      <trkpt lat="42.86658" lon="1.19411">
        <ele>542.4</ele>
        <time>2025-06-29T08:27:22Z</time>
      </trkpt>
      <trkpt lat="42.86655" lon="1.19418">
        <ele>541.8</ele>
        <time>2025-06-29T08:27:23Z</time>
      </trkpt>
      <trkpt lat="42.86651" lon="1.19426">
        <ele>541.2</ele>
        <time>2025-06-29T08:27:24Z</time>
      </trkpt>
      <trkpt lat="42.86648" lon="1.19432">
        <ele>540.8</ele>
        <time>2025-06-29T08:27:25Z</time>
      </trkpt>
      <trkpt lat="42.86644" lon="1.19439">
        <ele>540.2</ele>
        <time>2025-06-29T08:27:26Z</time>
      </trkpt>
      <trkpt lat="42.86641" lon="1.19446">
        <ele>539.8</ele>
        <time>2025-06-29T08:27:27Z</time>
      </trkpt>
      <trkpt lat="42.86637" lon="1.19453">
        <ele>539.4</ele>
        <time>2025-06-29T08:27:28Z</time>
      </trkpt>
      <trkpt lat="42.86633" lon="1.1946">
        <ele>539</ele>
        <time>2025-06-29T08:27:29Z</time>
      </trkpt>
      <trkpt lat="42.8663" lon="1.19467">
        <ele>538.6</ele>
        <time>2025-06-29T08:27:30Z</time>
      </trkpt>
      <trkpt lat="42.86622" lon="1.19481">
        <ele>538.2</ele>
        <time>2025-06-29T08:27:32Z</time>
      </trkpt>
      <trkpt lat="42.86618" lon="1.19488">
        <ele>537.8</ele>
        <time>2025-06-29T08:27:33Z</time>
      </trkpt>
      <trkpt lat="42.86615" lon="1.19496">
        <ele>537.4</ele>
        <time>2025-06-29T08:27:34Z</time>
      </trkpt>
      <trkpt lat="42.86612" lon="1.19504">
        <ele>537</ele>
        <time>2025-06-29T08:27:35Z</time>
      </trkpt>
      <trkpt lat="42.86609" lon="1.19511">
        <ele>536.6</ele>
        <time>2025-06-29T08:27:36Z</time>
      </trkpt>
      <trkpt lat="42.866" lon="1.19532">
        <ele>536.2</ele>
        <time>2025-06-29T08:27:39Z</time>
      </trkpt>
      <trkpt lat="42.86597" lon="1.1954">
        <ele>535.8</ele>
        <time>2025-06-29T08:27:40Z</time>
      </trkpt>
      <trkpt lat="42.86594" lon="1.19547">
        <ele>535.4</ele>
        <time>2025-06-29T08:27:41Z</time>
      </trkpt>
      <trkpt lat="42.86591" lon="1.19555">
        <ele>535</ele>
        <time>2025-06-29T08:27:42Z</time>
      </trkpt>
      <trkpt lat="42.86588" lon="1.19563">
        <ele>534.4</ele>
        <time>2025-06-29T08:27:43Z</time>
      </trkpt>
      <trkpt lat="42.86583" lon="1.1958">
        <ele>534.4</ele>
        <time>2025-06-29T08:27:45Z</time>
      </trkpt>
      <trkpt lat="42.86579" lon="1.19595">
        <ele>534.4</ele>
        <time>2025-06-29T08:27:47Z</time>
      </trkpt>
      <trkpt lat="42.86577" lon="1.19602">
        <ele>534</ele>
        <time>2025-06-29T08:27:48Z</time>
      </trkpt>
      <trkpt lat="42.86576" lon="1.19608">
        <ele>533.6</ele>
        <time>2025-06-29T08:27:49Z</time>
      </trkpt>
      <trkpt lat="42.86574" lon="1.19615">
        <ele>533.2</ele>
        <time>2025-06-29T08:27:50Z</time>
      </trkpt>
      <trkpt lat="42.86573" lon="1.19622">
        <ele>532.8</ele>
        <time>2025-06-29T08:27:51Z</time>
      </trkpt>
      <trkpt lat="42.86573" lon="1.19628">
        <ele>532.4</ele>
        <time>2025-06-29T08:27:52Z</time>
      </trkpt>
      <trkpt lat="42.86572" lon="1.19635">
        <ele>532.4</ele>
        <time>2025-06-29T08:27:53Z</time>
      </trkpt>
      <trkpt lat="42.8657" lon="1.19685">
        <ele>532.4</ele>
        <time>2025-06-29T08:28:02Z</time>
      </trkpt>
      <trkpt lat="42.86569" lon="1.19704">
        <ele>532.4</ele>
        <time>2025-06-29T08:28:06Z</time>
      </trkpt>
      <trkpt lat="42.86568" lon="1.19736">
        <ele>532.4</ele>
        <time>2025-06-29T08:28:14Z</time>
      </trkpt>
      <trkpt lat="42.86567" lon="1.1975">
        <ele>532.4</ele>
        <time>2025-06-29T08:28:21Z</time>
      </trkpt>
      <trkpt lat="42.86565" lon="1.19756">
        <ele>532.4</ele>
        <time>2025-06-29T08:28:26Z</time>
      </trkpt>
      <trkpt lat="42.86564" lon="1.19752">
        <ele>532.4</ele>
        <time>2025-06-29T08:28:29Z</time>
      </trkpt>
      <trkpt lat="42.86564" lon="1.19749">
        <ele>532.4</ele>
        <time>2025-06-29T08:28:31Z</time>
      </trkpt>
      <trkpt lat="42.86574" lon="1.19755">
        <ele>532.4</ele>
        <time>2025-06-29T08:28:32Z</time>
      </trkpt>
      <trkpt lat="42.86582" lon="1.19757">
        <ele>532.4</ele>
        <time>2025-06-29T08:28:34Z</time>
      </trkpt>
      <trkpt lat="42.86588" lon="1.19758">
        <ele>532.4</ele>
        <time>2025-06-29T08:28:36Z</time>
      </trkpt>
      <trkpt lat="42.86599" lon="1.19758">
        <ele>532.4</ele>
        <time>2025-06-29T08:28:39Z</time>
      </trkpt>
      <trkpt lat="42.86606" lon="1.19758">
        <ele>532.8</ele>
        <time>2025-06-29T08:28:41Z</time>
      </trkpt>
      <trkpt lat="42.86609" lon="1.19759">
        <ele>533.2</ele>
        <time>2025-06-29T08:28:42Z</time>
      </trkpt>
      <trkpt lat="42.86612" lon="1.19759">
        <ele>533.6</ele>
        <time>2025-06-29T08:28:43Z</time>
      </trkpt>
      <trkpt lat="42.86615" lon="1.19759">
        <ele>534</ele>
        <time>2025-06-29T08:28:44Z</time>
      </trkpt>
      <trkpt lat="42.86618" lon="1.19761">
        <ele>534.4</ele>
        <time>2025-06-29T08:28:45Z</time>
      </trkpt>
      <trkpt lat="42.86623" lon="1.19762">
        <ele>534.4</ele>
        <time>2025-06-29T08:28:48Z</time>
      </trkpt>
      <trkpt lat="42.86626" lon="1.1976">
        <ele>534.4</ele>
        <time>2025-06-29T08:28:50Z</time>
      </trkpt>
      <trkpt lat="42.86631" lon="1.19758">
        <ele>534.4</ele>
        <time>2025-06-29T08:28:53Z</time>
      </trkpt>
      <trkpt lat="42.86636" lon="1.19757">
        <ele>534.8</ele>
        <time>2025-06-29T08:28:55Z</time>
      </trkpt>
      <trkpt lat="42.86639" lon="1.19756">
        <ele>535.2</ele>
        <time>2025-06-29T08:28:56Z</time>
      </trkpt>
      <trkpt lat="42.86642" lon="1.19754">
        <ele>535.8</ele>
        <time>2025-06-29T08:28:57Z</time>
      </trkpt>
      <trkpt lat="42.86646" lon="1.19753">
        <ele>536.6</ele>
        <time>2025-06-29T08:28:58Z</time>
      </trkpt>
      <trkpt lat="42.86648" lon="1.19752">
        <ele>536.6</ele>
        <time>2025-06-29T08:28:59Z</time>
      </trkpt>
      <trkpt lat="42.8665" lon="1.1975">
        <ele>537</ele>
        <time>2025-06-29T08:29:00Z</time>
      </trkpt>
      <trkpt lat="42.86652" lon="1.19749">
        <ele>537.4</ele>
        <time>2025-06-29T08:29:01Z</time>
      </trkpt>
      <trkpt lat="42.86653" lon="1.19748">
        <ele>537.8</ele>
        <time>2025-06-29T08:29:02Z</time>
      </trkpt>
      <trkpt lat="42.86654" lon="1.19746">
        <ele>538.2</ele>
        <time>2025-06-29T08:29:03Z</time>
      </trkpt>
      <trkpt lat="42.86656" lon="1.19744">
        <ele>538.8</ele>
        <time>2025-06-29T08:29:04Z</time>
      </trkpt>
      <trkpt lat="42.86661" lon="1.19741">
        <ele>539.2</ele>
        <time>2025-06-29T08:29:06Z</time>
      </trkpt>
      <trkpt lat="42.86663" lon="1.19739">
        <ele>539.6</ele>
        <time>2025-06-29T08:29:07Z</time>
      </trkpt>
      <trkpt lat="42.86664" lon="1.19738">
        <ele>540</ele>
        <time>2025-06-29T08:29:08Z</time>
      </trkpt>
      <trkpt lat="42.86666" lon="1.19736">
        <ele>540.6</ele>
        <time>2025-06-29T08:29:09Z</time>
      </trkpt>
      <trkpt lat="42.86668" lon="1.19735">
        <ele>541</ele>
        <time>2025-06-29T08:29:10Z</time>
      </trkpt>
      <trkpt lat="42.86676" lon="1.19728">
        <ele>541.4</ele>
        <time>2025-06-29T08:29:14Z</time>
      </trkpt>
      <trkpt lat="42.86679" lon="1.19726">
        <ele>541.8</ele>
        <time>2025-06-29T08:29:15Z</time>
      </trkpt>
      <trkpt lat="42.86681" lon="1.19723">
        <ele>542.2</ele>
        <time>2025-06-29T08:29:16Z</time>
      </trkpt>
      <trkpt lat="42.86684" lon="1.19721">
        <ele>542.6</ele>
        <time>2025-06-29T08:29:17Z</time>
      </trkpt>
      <trkpt lat="42.86685" lon="1.19718">
        <ele>543.2</ele>
        <time>2025-06-29T08:29:18Z</time>
      </trkpt>
      <trkpt lat="42.86687" lon="1.19711">
        <ele>543.2</ele>
        <time>2025-06-29T08:29:21Z</time>
      </trkpt>
      <trkpt lat="42.86688" lon="1.19709">
        <ele>544</ele>
        <time>2025-06-29T08:29:22Z</time>
      </trkpt>
      <trkpt lat="42.86689" lon="1.19706">
        <ele>544.4</ele>
        <time>2025-06-29T08:29:23Z</time>
      </trkpt>
      <trkpt lat="42.8669" lon="1.19699">
        <ele>544.8</ele>
        <time>2025-06-29T08:29:24Z</time>
      </trkpt>
      <trkpt lat="42.8669" lon="1.19695">
        <ele>545.2</ele>
        <time>2025-06-29T08:29:25Z</time>
      </trkpt>
      <trkpt lat="42.86691" lon="1.19685">
        <ele>545.2</ele>
        <time>2025-06-29T08:29:27Z</time>
      </trkpt>
      <trkpt lat="42.86692" lon="1.19661">
        <ele>545.6</ele>
        <time>2025-06-29T08:29:32Z</time>
      </trkpt>
      <trkpt lat="42.86693" lon="1.19656">
        <ele>546</ele>
        <time>2025-06-29T08:29:33Z</time>
      </trkpt>
      <trkpt lat="42.86693" lon="1.19652">
        <ele>546.4</ele>
        <time>2025-06-29T08:29:34Z</time>
      </trkpt>
      <trkpt lat="42.86693" lon="1.19648">
        <ele>546.8</ele>
        <time>2025-06-29T08:29:35Z</time>
      </trkpt>
      <trkpt lat="42.86694" lon="1.19644">
        <ele>547.2</ele>
        <time>2025-06-29T08:29:36Z</time>
      </trkpt>
      <trkpt lat="42.86697" lon="1.19634">
        <ele>547.2</ele>
        <time>2025-06-29T08:29:38Z</time>
      </trkpt>
      <trkpt lat="42.86699" lon="1.19627">
        <ele>547.8</ele>
        <time>2025-06-29T08:29:40Z</time>
      </trkpt>
      <trkpt lat="42.86701" lon="1.19625">
        <ele>548.2</ele>
        <time>2025-06-29T08:29:41Z</time>
      </trkpt>
      <trkpt lat="42.86703" lon="1.19622">
        <ele>548.8</ele>
        <time>2025-06-29T08:29:42Z</time>
      </trkpt>
      <trkpt lat="42.86704" lon="1.19618">
        <ele>549.2</ele>
        <time>2025-06-29T08:29:43Z</time>
      </trkpt>
      <trkpt lat="42.86706" lon="1.19615">
        <ele>549.6</ele>
        <time>2025-06-29T08:29:44Z</time>
      </trkpt>
      <trkpt lat="42.86706" lon="1.19612">
        <ele>550.2</ele>
        <time>2025-06-29T08:29:45Z</time>
      </trkpt>
      <trkpt lat="42.86707" lon="1.19608">
        <ele>550.6</ele>
        <time>2025-06-29T08:29:46Z</time>
      </trkpt>
      <trkpt lat="42.86708" lon="1.19604">
        <ele>551.4</ele>
        <time>2025-06-29T08:29:47Z</time>
      </trkpt>
      <trkpt lat="42.8671" lon="1.19601">
        <ele>552</ele>
        <time>2025-06-29T08:29:48Z</time>
      </trkpt>
      <trkpt lat="42.86711" lon="1.19597">
        <ele>552.4</ele>
        <time>2025-06-29T08:29:49Z</time>
      </trkpt>
      <trkpt lat="42.86712" lon="1.19594">
        <ele>552.8</ele>
        <time>2025-06-29T08:29:50Z</time>
      </trkpt>
      <trkpt lat="42.86713" lon="1.1959">
        <ele>553.2</ele>
        <time>2025-06-29T08:29:51Z</time>
      </trkpt>
      <trkpt lat="42.86713" lon="1.19586">
        <ele>553.6</ele>
        <time>2025-06-29T08:29:52Z</time>
      </trkpt>
      <trkpt lat="42.86713" lon="1.19582">
        <ele>554</ele>
        <time>2025-06-29T08:29:53Z</time>
      </trkpt>
      <trkpt lat="42.86713" lon="1.19576">
        <ele>554.4</ele>
        <time>2025-06-29T08:29:55Z</time>
      </trkpt>
      <trkpt lat="42.86713" lon="1.19573">
        <ele>554.8</ele>
        <time>2025-06-29T08:29:56Z</time>
      </trkpt>
      <trkpt lat="42.86714" lon="1.19569">
        <ele>555.2</ele>
        <time>2025-06-29T08:29:57Z</time>
      </trkpt>
      <trkpt lat="42.86715" lon="1.19567">
        <ele>555.6</ele>
        <time>2025-06-29T08:29:58Z</time>
      </trkpt>
      <trkpt lat="42.86716" lon="1.19564">
        <ele>556</ele>
        <time>2025-06-29T08:29:59Z</time>
      </trkpt>
      <trkpt lat="42.86717" lon="1.19562">
        <ele>556</ele>
        <time>2025-06-29T08:30:00Z</time>
      </trkpt>
      <trkpt lat="42.86719" lon="1.19552">
        <ele>556.4</ele>
        <time>2025-06-29T08:30:04Z</time>
      </trkpt>
      <trkpt lat="42.86721" lon="1.19549">
        <ele>556.8</ele>
        <time>2025-06-29T08:30:05Z</time>
      </trkpt>
      <trkpt lat="42.86722" lon="1.19546">
        <ele>557.2</ele>
        <time>2025-06-29T08:30:06Z</time>
      </trkpt>
      <trkpt lat="42.86724" lon="1.19544">
        <ele>557.6</ele>
        <time>2025-06-29T08:30:07Z</time>
      </trkpt>
      <trkpt lat="42.86726" lon="1.19541">
        <ele>558.2</ele>
        <time>2025-06-29T08:30:08Z</time>
      </trkpt>
      <trkpt lat="42.86733" lon="1.19531">
        <ele>558.2</ele>
        <time>2025-06-29T08:30:12Z</time>
      </trkpt>
      <trkpt lat="42.86739" lon="1.19511">
        <ele>558.2</ele>
        <time>2025-06-29T08:30:18Z</time>
      </trkpt>
      <trkpt lat="42.86742" lon="1.19499">
        <ele>558.2</ele>
        <time>2025-06-29T08:30:21Z</time>
      </trkpt>
      <trkpt lat="42.86744" lon="1.19494">
        <ele>558.2</ele>
        <time>2025-06-29T08:30:22Z</time>
      </trkpt>
      <trkpt lat="42.86751" lon="1.19482">
        <ele>558.6</ele>
        <time>2025-06-29T08:30:25Z</time>
      </trkpt>
      <trkpt lat="42.86752" lon="1.19478">
        <ele>559</ele>
        <time>2025-06-29T08:30:26Z</time>
      </trkpt>
      <trkpt lat="42.86753" lon="1.19476">
        <ele>559.6</ele>
        <time>2025-06-29T08:30:27Z</time>
      </trkpt>
      <trkpt lat="42.86754" lon="1.19472">
        <ele>560</ele>
        <time>2025-06-29T08:30:28Z</time>
      </trkpt>
      <trkpt lat="42.86756" lon="1.1947">
        <ele>560.4</ele>
        <time>2025-06-29T08:30:29Z</time>
      </trkpt>
      <trkpt lat="42.86764" lon="1.19456">
        <ele>560.4</ele>
        <time>2025-06-29T08:30:33Z</time>
      </trkpt>
      <trkpt lat="42.86773" lon="1.19435">
        <ele>560.4</ele>
        <time>2025-06-29T08:30:39Z</time>
      </trkpt>
      <trkpt lat="42.8678" lon="1.19415">
        <ele>560.4</ele>
        <time>2025-06-29T08:30:45Z</time>
      </trkpt>
      <trkpt lat="42.86785" lon="1.19394">
        <ele>560.4</ele>
        <time>2025-06-29T08:30:52Z</time>
      </trkpt>
      <trkpt lat="42.86793" lon="1.19375">
        <ele>560.4</ele>
        <time>2025-06-29T08:30:58Z</time>
      </trkpt>
      <trkpt lat="42.86801" lon="1.1936">
        <ele>560.4</ele>
        <time>2025-06-29T08:31:03Z</time>
      </trkpt>
      <trkpt lat="42.86808" lon="1.19346">
        <ele>560.4</ele>
        <time>2025-06-29T08:31:08Z</time>
      </trkpt>
      <trkpt lat="42.86816" lon="1.1934">
        <ele>561</ele>
        <time>2025-06-29T08:31:11Z</time>
      </trkpt>
      <trkpt lat="42.86819" lon="1.19338">
        <ele>561.4</ele>
        <time>2025-06-29T08:31:12Z</time>
      </trkpt>
      <trkpt lat="42.86822" lon="1.19336">
        <ele>561.8</ele>
        <time>2025-06-29T08:31:13Z</time>
      </trkpt>
      <trkpt lat="42.86824" lon="1.19334">
        <ele>562.2</ele>
        <time>2025-06-29T08:31:14Z</time>
      </trkpt>
      <trkpt lat="42.86827" lon="1.19333">
        <ele>562.8</ele>
        <time>2025-06-29T08:31:15Z</time>
      </trkpt>
      <trkpt lat="42.86835" lon="1.19329">
        <ele>562.8</ele>
        <time>2025-06-29T08:31:18Z</time>
      </trkpt>
      <trkpt lat="42.86843" lon="1.19319">
        <ele>563.2</ele>
        <time>2025-06-29T08:31:22Z</time>
      </trkpt>
      <trkpt lat="42.86844" lon="1.19317">
        <ele>563.6</ele>
        <time>2025-06-29T08:31:23Z</time>
      </trkpt>
      <trkpt lat="42.86846" lon="1.19314">
        <ele>564</ele>
        <time>2025-06-29T08:31:24Z</time>
      </trkpt>
      <trkpt lat="42.86847" lon="1.19311">
        <ele>564.4</ele>
        <time>2025-06-29T08:31:25Z</time>
      </trkpt>
      <trkpt lat="42.8685" lon="1.19309">
        <ele>564.8</ele>
        <time>2025-06-29T08:31:26Z</time>
      </trkpt>
      <trkpt lat="42.86851" lon="1.19307">
        <ele>565.4</ele>
        <time>2025-06-29T08:31:27Z</time>
      </trkpt>
      <trkpt lat="42.86854" lon="1.19303">
        <ele>565.8</ele>
        <time>2025-06-29T08:31:28Z</time>
      </trkpt>
      <trkpt lat="42.86857" lon="1.19299">
        <ele>566.2</ele>
        <time>2025-06-29T08:31:29Z</time>
      </trkpt>
      <trkpt lat="42.8686" lon="1.19295">
        <ele>566.6</ele>
        <time>2025-06-29T08:31:30Z</time>
      </trkpt>
      <trkpt lat="42.86865" lon="1.19291">
        <ele>567</ele>
        <time>2025-06-29T08:31:31Z</time>
      </trkpt>
      <trkpt lat="42.86868" lon="1.19288">
        <ele>567.4</ele>
        <time>2025-06-29T08:31:32Z</time>
      </trkpt>
      <trkpt lat="42.86871" lon="1.19286">
        <ele>568</ele>
        <time>2025-06-29T08:31:33Z</time>
      </trkpt>
      <trkpt lat="42.86875" lon="1.19284">
        <ele>568.4</ele>
        <time>2025-06-29T08:31:34Z</time>
      </trkpt>
      <trkpt lat="42.86878" lon="1.19281">
        <ele>569</ele>
        <time>2025-06-29T08:31:35Z</time>
      </trkpt>
      <trkpt lat="42.86881" lon="1.19278">
        <ele>569.6</ele>
        <time>2025-06-29T08:31:36Z</time>
      </trkpt>
      <trkpt lat="42.86884" lon="1.19274">
        <ele>570</ele>
        <time>2025-06-29T08:31:37Z</time>
      </trkpt>
      <trkpt lat="42.86887" lon="1.19271">
        <ele>570.6</ele>
        <time>2025-06-29T08:31:38Z</time>
      </trkpt>
      <trkpt lat="42.86889" lon="1.19268">
        <ele>571.2</ele>
        <time>2025-06-29T08:31:39Z</time>
      </trkpt>
      <trkpt lat="42.86891" lon="1.19266">
        <ele>571.6</ele>
        <time>2025-06-29T08:31:40Z</time>
      </trkpt>
      <trkpt lat="42.86893" lon="1.19263">
        <ele>572.2</ele>
        <time>2025-06-29T08:31:41Z</time>
      </trkpt>
      <trkpt lat="42.86895" lon="1.1926">
        <ele>572.6</ele>
        <time>2025-06-29T08:31:42Z</time>
      </trkpt>
      <trkpt lat="42.86897" lon="1.19256">
        <ele>573</ele>
        <time>2025-06-29T08:31:43Z</time>
      </trkpt>
      <trkpt lat="42.86899" lon="1.19252">
        <ele>573.6</ele>
        <time>2025-06-29T08:31:44Z</time>
      </trkpt>
      <trkpt lat="42.869" lon="1.19248">
        <ele>574</ele>
        <time>2025-06-29T08:31:45Z</time>
      </trkpt>
      <trkpt lat="42.86902" lon="1.19245">
        <ele>574.4</ele>
        <time>2025-06-29T08:31:46Z</time>
      </trkpt>
      <trkpt lat="42.86903" lon="1.19241">
        <ele>574.8</ele>
        <time>2025-06-29T08:31:47Z</time>
      </trkpt>
      <trkpt lat="42.86906" lon="1.19236">
        <ele>575.4</ele>
        <time>2025-06-29T08:31:48Z</time>
      </trkpt>
      <trkpt lat="42.86908" lon="1.19232">
        <ele>575.8</ele>
        <time>2025-06-29T08:31:49Z</time>
      </trkpt>
      <trkpt lat="42.86911" lon="1.19229">
        <ele>576.2</ele>
        <time>2025-06-29T08:31:50Z</time>
      </trkpt>
      <trkpt lat="42.86926" lon="1.1921">
        <ele>576.2</ele>
        <time>2025-06-29T08:31:56Z</time>
      </trkpt>
      <trkpt lat="42.86943" lon="1.19199">
        <ele>576.2</ele>
        <time>2025-06-29T08:32:01Z</time>
      </trkpt>
      <trkpt lat="42.86954" lon="1.19185">
        <ele>576.2</ele>
        <time>2025-06-29T08:32:06Z</time>
      </trkpt>
      <trkpt lat="42.86957" lon="1.19171">
        <ele>576.8</ele>
        <time>2025-06-29T08:32:09Z</time>
      </trkpt>
      <trkpt lat="42.86959" lon="1.19167">
        <ele>577.2</ele>
        <time>2025-06-29T08:32:10Z</time>
      </trkpt>
      <trkpt lat="42.86961" lon="1.19163">
        <ele>577.8</ele>
        <time>2025-06-29T08:32:11Z</time>
      </trkpt>
      <trkpt lat="42.86962" lon="1.19161">
        <ele>578.2</ele>
        <time>2025-06-29T08:32:12Z</time>
      </trkpt>
      <trkpt lat="42.86964" lon="1.19159">
        <ele>578.8</ele>
        <time>2025-06-29T08:32:13Z</time>
      </trkpt>
      <trkpt lat="42.86966" lon="1.19157">
        <ele>579.2</ele>
        <time>2025-06-29T08:32:14Z</time>
      </trkpt>
      <trkpt lat="42.86967" lon="1.19154">
        <ele>580.4</ele>
        <time>2025-06-29T08:32:15Z</time>
      </trkpt>
      <trkpt lat="42.86969" lon="1.19153">
        <ele>580.8</ele>
        <time>2025-06-29T08:32:16Z</time>
      </trkpt>
      <trkpt lat="42.86971" lon="1.19151">
        <ele>581.4</ele>
        <time>2025-06-29T08:32:17Z</time>
      </trkpt>
      <trkpt lat="42.86973" lon="1.19148">
        <ele>582</ele>
        <time>2025-06-29T08:32:18Z</time>
      </trkpt>
      <trkpt lat="42.86974" lon="1.19146">
        <ele>582.6</ele>
        <time>2025-06-29T08:32:19Z</time>
      </trkpt>
      <trkpt lat="42.86976" lon="1.19145">
        <ele>583.2</ele>
        <time>2025-06-29T08:32:20Z</time>
      </trkpt>
      <trkpt lat="42.86978" lon="1.19144">
        <ele>583.6</ele>
        <time>2025-06-29T08:32:21Z</time>
      </trkpt>
      <trkpt lat="42.8698" lon="1.19143">
        <ele>584.2</ele>
        <time>2025-06-29T08:32:22Z</time>
      </trkpt>
      <trkpt lat="42.86982" lon="1.1914">
        <ele>584.8</ele>
        <time>2025-06-29T08:32:23Z</time>
      </trkpt>
      <trkpt lat="42.86983" lon="1.19138">
        <ele>585.4</ele>
        <time>2025-06-29T08:32:24Z</time>
      </trkpt>
      <trkpt lat="42.86992" lon="1.19129">
        <ele>585.4</ele>
        <time>2025-06-29T08:32:28Z</time>
      </trkpt>
      <trkpt lat="42.87004" lon="1.19112">
        <ele>585.4</ele>
        <time>2025-06-29T08:32:35Z</time>
      </trkpt>
      <trkpt lat="42.87015" lon="1.19103">
        <ele>585.8</ele>
        <time>2025-06-29T08:32:40Z</time>
      </trkpt>
      <trkpt lat="42.87017" lon="1.19102">
        <ele>586.4</ele>
        <time>2025-06-29T08:32:41Z</time>
      </trkpt>
      <trkpt lat="42.87018" lon="1.191">
        <ele>586.8</ele>
        <time>2025-06-29T08:32:42Z</time>
      </trkpt>
      <trkpt lat="42.8702" lon="1.19098">
        <ele>587.2</ele>
        <time>2025-06-29T08:32:43Z</time>
      </trkpt>
      <trkpt lat="42.87022" lon="1.19096">
        <ele>587.6</ele>
        <time>2025-06-29T08:32:44Z</time>
      </trkpt>
      <trkpt lat="42.87025" lon="1.19094">
        <ele>588.2</ele>
        <time>2025-06-29T08:32:45Z</time>
      </trkpt>
      <trkpt lat="42.87026" lon="1.19094">
        <ele>588.6</ele>
        <time>2025-06-29T08:32:46Z</time>
      </trkpt>
      <trkpt lat="42.87028" lon="1.19093">
        <ele>589</ele>
        <time>2025-06-29T08:32:47Z</time>
      </trkpt>
      <trkpt lat="42.8703" lon="1.19091">
        <ele>589.4</ele>
        <time>2025-06-29T08:32:48Z</time>
      </trkpt>
      <trkpt lat="42.87032" lon="1.1909">
        <ele>589.8</ele>
        <time>2025-06-29T08:32:49Z</time>
      </trkpt>
      <trkpt lat="42.87035" lon="1.19085">
        <ele>590.4</ele>
        <time>2025-06-29T08:32:51Z</time>
      </trkpt>
      <trkpt lat="42.87037" lon="1.19084">
        <ele>590.8</ele>
        <time>2025-06-29T08:32:52Z</time>
      </trkpt>
      <trkpt lat="42.87038" lon="1.19082">
        <ele>591.2</ele>
        <time>2025-06-29T08:32:53Z</time>
      </trkpt>
      <trkpt lat="42.8704" lon="1.1908">
        <ele>591.8</ele>
        <time>2025-06-29T08:32:54Z</time>
      </trkpt>
      <trkpt lat="42.87042" lon="1.19078">
        <ele>592.2</ele>
        <time>2025-06-29T08:32:55Z</time>
      </trkpt>
      <trkpt lat="42.87047" lon="1.19073">
        <ele>592.6</ele>
        <time>2025-06-29T08:32:57Z</time>
      </trkpt>
      <trkpt lat="42.87049" lon="1.19072">
        <ele>593.2</ele>
        <time>2025-06-29T08:32:58Z</time>
      </trkpt>
      <trkpt lat="42.87051" lon="1.1907">
        <ele>593.6</ele>
        <time>2025-06-29T08:32:59Z</time>
      </trkpt>
      <trkpt lat="42.87053" lon="1.19068">
        <ele>594</ele>
        <time>2025-06-29T08:33:00Z</time>
      </trkpt>
      <trkpt lat="42.87055" lon="1.19067">
        <ele>594.4</ele>
        <time>2025-06-29T08:33:01Z</time>
      </trkpt>
      <trkpt lat="42.87059" lon="1.19064">
        <ele>594.8</ele>
        <time>2025-06-29T08:33:03Z</time>
      </trkpt>
      <trkpt lat="42.87061" lon="1.19062">
        <ele>595.8</ele>
        <time>2025-06-29T08:33:04Z</time>
      </trkpt>
      <trkpt lat="42.87064" lon="1.1906">
        <ele>596.2</ele>
        <time>2025-06-29T08:33:05Z</time>
      </trkpt>
      <trkpt lat="42.87066" lon="1.19058">
        <ele>596.6</ele>
        <time>2025-06-29T08:33:06Z</time>
      </trkpt>
      <trkpt lat="42.87071" lon="1.19055">
        <ele>597.2</ele>
        <time>2025-06-29T08:33:08Z</time>
      </trkpt>
      <trkpt lat="42.87073" lon="1.19054">
        <ele>597.6</ele>
        <time>2025-06-29T08:33:09Z</time>
      </trkpt>
      <trkpt lat="42.87075" lon="1.19053">
        <ele>598</ele>
        <time>2025-06-29T08:33:10Z</time>
      </trkpt>
      <trkpt lat="42.87076" lon="1.19051">
        <ele>598.4</ele>
        <time>2025-06-29T08:33:11Z</time>
      </trkpt>
      <trkpt lat="42.87078" lon="1.19049">
        <ele>598.8</ele>
        <time>2025-06-29T08:33:12Z</time>
      </trkpt>
      <trkpt lat="42.87086" lon="1.1904">
        <ele>599.2</ele>
        <time>2025-06-29T08:33:17Z</time>
      </trkpt>
      <trkpt lat="42.87087" lon="1.19037">
        <ele>599.6</ele>
        <time>2025-06-29T08:33:18Z</time>
      </trkpt>
      <trkpt lat="42.87089" lon="1.19035">
        <ele>600</ele>
        <time>2025-06-29T08:33:19Z</time>
      </trkpt>
      <trkpt lat="42.87091" lon="1.19033">
        <ele>600.4</ele>
        <time>2025-06-29T08:33:20Z</time>
      </trkpt>
      <trkpt lat="42.87093" lon="1.1903">
        <ele>600.8</ele>
        <time>2025-06-29T08:33:21Z</time>
      </trkpt>
      <trkpt lat="42.87101" lon="1.19021">
        <ele>600.8</ele>
        <time>2025-06-29T08:33:25Z</time>
      </trkpt>
      <trkpt lat="42.87107" lon="1.1901">
        <ele>600.8</ele>
        <time>2025-06-29T08:33:30Z</time>
      </trkpt>
      <trkpt lat="42.87108" lon="1.19007">
        <ele>600.8</ele>
        <time>2025-06-29T08:33:31Z</time>
      </trkpt>
      <trkpt lat="42.87117" lon="1.18997">
        <ele>600.8</ele>
        <time>2025-06-29T08:33:34Z</time>
      </trkpt>
      <trkpt lat="42.87125" lon="1.18988">
        <ele>600.8</ele>
        <time>2025-06-29T08:33:37Z</time>
      </trkpt>
      <trkpt lat="42.87133" lon="1.18979">
        <ele>600.8</ele>
        <time>2025-06-29T08:33:41Z</time>
      </trkpt>
      <trkpt lat="42.87133" lon="1.18977">
        <ele>600.8</ele>
        <time>2025-06-29T08:33:42Z</time>
      </trkpt>
      <trkpt lat="42.87139" lon="1.18965">
        <ele>600.8</ele>
        <time>2025-06-29T08:33:46Z</time>
      </trkpt>
      <trkpt lat="42.8714" lon="1.18957">
        <ele>600.8</ele>
        <time>2025-06-29T08:33:49Z</time>
      </trkpt>
      <trkpt lat="42.87137" lon="1.18943">
        <ele>600.8</ele>
        <time>2025-06-29T08:33:53Z</time>
      </trkpt>
      <trkpt lat="42.8713" lon="1.18923">
        <ele>600.8</ele>
        <time>2025-06-29T08:33:58Z</time>
      </trkpt>
      <trkpt lat="42.87129" lon="1.1892">
        <ele>601.4</ele>
        <time>2025-06-29T08:33:59Z</time>
      </trkpt>
      <trkpt lat="42.87129" lon="1.18916">
        <ele>601.8</ele>
        <time>2025-06-29T08:34:00Z</time>
      </trkpt>
      <trkpt lat="42.87128" lon="1.18911">
        <ele>602.2</ele>
        <time>2025-06-29T08:34:01Z</time>
      </trkpt>
      <trkpt lat="42.87126" lon="1.18907">
        <ele>602.8</ele>
        <time>2025-06-29T08:34:02Z</time>
      </trkpt>
      <trkpt lat="42.87124" lon="1.18902">
        <ele>603.2</ele>
        <time>2025-06-29T08:34:03Z</time>
      </trkpt>
      <trkpt lat="42.87123" lon="1.18895">
        <ele>603.6</ele>
        <time>2025-06-29T08:34:04Z</time>
      </trkpt>
      <trkpt lat="42.87123" lon="1.1889">
        <ele>604</ele>
        <time>2025-06-29T08:34:05Z</time>
      </trkpt>
      <trkpt lat="42.87123" lon="1.18887">
        <ele>604.4</ele>
        <time>2025-06-29T08:34:06Z</time>
      </trkpt>
      <trkpt lat="42.87124" lon="1.18885">
        <ele>605</ele>
        <time>2025-06-29T08:34:07Z</time>
      </trkpt>
      <trkpt lat="42.87124" lon="1.18882">
        <ele>605.4</ele>
        <time>2025-06-29T08:34:08Z</time>
      </trkpt>
      <trkpt lat="42.87123" lon="1.1888">
        <ele>605.8</ele>
        <time>2025-06-29T08:34:09Z</time>
      </trkpt>
      <trkpt lat="42.87123" lon="1.18878">
        <ele>606.4</ele>
        <time>2025-06-29T08:34:10Z</time>
      </trkpt>
      <trkpt lat="42.87123" lon="1.18875">
        <ele>606.8</ele>
        <time>2025-06-29T08:34:11Z</time>
      </trkpt>
      <trkpt lat="42.87123" lon="1.18872">
        <ele>607.4</ele>
        <time>2025-06-29T08:34:12Z</time>
      </trkpt>
      <trkpt lat="42.87123" lon="1.18868">
        <ele>607.4</ele>
        <time>2025-06-29T08:34:13Z</time>
      </trkpt>
      <trkpt lat="42.87126" lon="1.18855">
        <ele>607.8</ele>
        <time>2025-06-29T08:34:17Z</time>
      </trkpt>
      <trkpt lat="42.87127" lon="1.18853">
        <ele>608.6</ele>
        <time>2025-06-29T08:34:18Z</time>
      </trkpt>
      <trkpt lat="42.87127" lon="1.18851">
        <ele>609</ele>
        <time>2025-06-29T08:34:19Z</time>
      </trkpt>
      <trkpt lat="42.87128" lon="1.18847">
        <ele>609.4</ele>
        <time>2025-06-29T08:34:20Z</time>
      </trkpt>
      <trkpt lat="42.8713" lon="1.18845">
        <ele>609.8</ele>
        <time>2025-06-29T08:34:22Z</time>
      </trkpt>
      <trkpt lat="42.87131" lon="1.18846">
        <ele>610.2</ele>
        <time>2025-06-29T08:34:23Z</time>
      </trkpt>
      <trkpt lat="42.87132" lon="1.18849">
        <ele>610.6</ele>
        <time>2025-06-29T08:34:24Z</time>
      </trkpt>
      <trkpt lat="42.87133" lon="1.18849">
        <ele>611</ele>
        <time>2025-06-29T08:34:25Z</time>
      </trkpt>
      <trkpt lat="42.87134" lon="1.18851">
        <ele>611.4</ele>
        <time>2025-06-29T08:34:26Z</time>
      </trkpt>
      <trkpt lat="42.87137" lon="1.18854">
        <ele>611.8</ele>
        <time>2025-06-29T08:34:28Z</time>
      </trkpt>
      <trkpt lat="42.87138" lon="1.18857">
        <ele>612.4</ele>
        <time>2025-06-29T08:34:29Z</time>
      </trkpt>
      <trkpt lat="42.8714" lon="1.18859">
        <ele>612.8</ele>
        <time>2025-06-29T08:34:30Z</time>
      </trkpt>
      <trkpt lat="42.87141" lon="1.18861">
        <ele>613.2</ele>
        <time>2025-06-29T08:34:31Z</time>
      </trkpt>
      <trkpt lat="42.87143" lon="1.18862">
        <ele>613.6</ele>
        <time>2025-06-29T08:34:32Z</time>
      </trkpt>
      <trkpt lat="42.87144" lon="1.18864">
        <ele>613.6</ele>
        <time>2025-06-29T08:34:33Z</time>
      </trkpt>
      <trkpt lat="42.87145" lon="1.18866">
        <ele>614</ele>
        <time>2025-06-29T08:34:34Z</time>
      </trkpt>
      <trkpt lat="42.87147" lon="1.18866">
        <ele>614.4</ele>
        <time>2025-06-29T08:34:35Z</time>
      </trkpt>
      <trkpt lat="42.8715" lon="1.18865">
        <ele>614.8</ele>
        <time>2025-06-29T08:34:36Z</time>
      </trkpt>
      <trkpt lat="42.87153" lon="1.18863">
        <ele>615.4</ele>
        <time>2025-06-29T08:34:37Z</time>
      </trkpt>
      <trkpt lat="42.87155" lon="1.18862">
        <ele>615.8</ele>
        <time>2025-06-29T08:34:38Z</time>
      </trkpt>
      <trkpt lat="42.87157" lon="1.18861">
        <ele>615.8</ele>
        <time>2025-06-29T08:34:39Z</time>
      </trkpt>
      <trkpt lat="42.87159" lon="1.1886">
        <ele>615.8</ele>
        <time>2025-06-29T08:34:40Z</time>
      </trkpt>
      <trkpt lat="42.87172" lon="1.18855">
        <ele>615.8</ele>
        <time>2025-06-29T08:34:45Z</time>
      </trkpt>
      <trkpt lat="42.87177" lon="1.18855">
        <ele>616.2</ele>
        <time>2025-06-29T08:34:47Z</time>
      </trkpt>
      <trkpt lat="42.87179" lon="1.18855">
        <ele>616.6</ele>
        <time>2025-06-29T08:34:48Z</time>
      </trkpt>
      <trkpt lat="42.87182" lon="1.18855">
        <ele>617</ele>
        <time>2025-06-29T08:34:49Z</time>
      </trkpt>
      <trkpt lat="42.87184" lon="1.18857">
        <ele>617.4</ele>
        <time>2025-06-29T08:34:50Z</time>
      </trkpt>
      <trkpt lat="42.87188" lon="1.18858">
        <ele>617.8</ele>
        <time>2025-06-29T08:34:51Z</time>
      </trkpt>
      <trkpt lat="42.87197" lon="1.18866">
        <ele>618.2</ele>
        <time>2025-06-29T08:34:55Z</time>
      </trkpt>
      <trkpt lat="42.87198" lon="1.18867">
        <ele>618.6</ele>
        <time>2025-06-29T08:34:56Z</time>
      </trkpt>
      <trkpt lat="42.872" lon="1.1887">
        <ele>619</ele>
        <time>2025-06-29T08:34:57Z</time>
      </trkpt>
      <trkpt lat="42.87202" lon="1.18873">
        <ele>619.4</ele>
        <time>2025-06-29T08:34:58Z</time>
      </trkpt>
      <trkpt lat="42.87204" lon="1.18875">
        <ele>619.8</ele>
        <time>2025-06-29T08:34:59Z</time>
      </trkpt>
      <trkpt lat="42.87206" lon="1.18876">
        <ele>620.4</ele>
        <time>2025-06-29T08:35:00Z</time>
      </trkpt>
      <trkpt lat="42.87207" lon="1.18877">
        <ele>620.8</ele>
        <time>2025-06-29T08:35:01Z</time>
      </trkpt>
      <trkpt lat="42.87209" lon="1.18878">
        <ele>621.2</ele>
        <time>2025-06-29T08:35:02Z</time>
      </trkpt>
      <trkpt lat="42.8721" lon="1.18879">
        <ele>621.8</ele>
        <time>2025-06-29T08:35:03Z</time>
      </trkpt>
      <trkpt lat="42.8721" lon="1.18879">
        <ele>622.2</ele>
        <time>2025-06-29T08:35:04Z</time>
      </trkpt>
      <trkpt lat="42.87212" lon="1.18881">
        <ele>622.8</ele>
        <time>2025-06-29T08:35:05Z</time>
      </trkpt>
      <trkpt lat="42.87213" lon="1.18883">
        <ele>623.2</ele>
        <time>2025-06-29T08:35:06Z</time>
      </trkpt>
      <trkpt lat="42.87216" lon="1.18886">
        <ele>624</ele>
        <time>2025-06-29T08:35:07Z</time>
      </trkpt>
      <trkpt lat="42.87218" lon="1.18888">
        <ele>624.6</ele>
        <time>2025-06-29T08:35:08Z</time>
      </trkpt>
      <trkpt lat="42.87219" lon="1.18889">
        <ele>625</ele>
        <time>2025-06-29T08:35:09Z</time>
      </trkpt>
      <trkpt lat="42.87221" lon="1.1889">
        <ele>625.4</ele>
        <time>2025-06-29T08:35:10Z</time>
      </trkpt>
      <trkpt lat="42.87223" lon="1.18891">
        <ele>625.8</ele>
        <time>2025-06-29T08:35:11Z</time>
      </trkpt>
      <trkpt lat="42.87224" lon="1.18891">
        <ele>626.2</ele>
        <time>2025-06-29T08:35:12Z</time>
      </trkpt>
      <trkpt lat="42.87226" lon="1.18892">
        <ele>626.6</ele>
        <time>2025-06-29T08:35:13Z</time>
      </trkpt>
      <trkpt lat="42.87227" lon="1.18893">
        <ele>627</ele>
        <time>2025-06-29T08:35:14Z</time>
      </trkpt>
      <trkpt lat="42.87228" lon="1.18894">
        <ele>627.6</ele>
        <time>2025-06-29T08:35:15Z</time>
      </trkpt>
      <trkpt lat="42.87229" lon="1.18894">
        <ele>628</ele>
        <time>2025-06-29T08:35:16Z</time>
      </trkpt>
      <trkpt lat="42.8723" lon="1.18894">
        <ele>628.6</ele>
        <time>2025-06-29T08:35:17Z</time>
      </trkpt>
      <trkpt lat="42.87232" lon="1.18893">
        <ele>629</ele>
        <time>2025-06-29T08:35:18Z</time>
      </trkpt>
      <trkpt lat="42.87236" lon="1.1889">
        <ele>629</ele>
        <time>2025-06-29T08:35:22Z</time>
      </trkpt>
      <trkpt lat="42.87238" lon="1.18888">
        <ele>629.4</ele>
        <time>2025-06-29T08:35:23Z</time>
      </trkpt>
      <trkpt lat="42.87239" lon="1.18888">
        <ele>629.8</ele>
        <time>2025-06-29T08:35:24Z</time>
      </trkpt>
      <trkpt lat="42.87241" lon="1.18887">
        <ele>630.2</ele>
        <time>2025-06-29T08:35:25Z</time>
      </trkpt>
      <trkpt lat="42.87242" lon="1.18885">
        <ele>630.6</ele>
        <time>2025-06-29T08:35:26Z</time>
      </trkpt>
      <trkpt lat="42.87244" lon="1.18884">
        <ele>631</ele>
        <time>2025-06-29T08:35:27Z</time>
      </trkpt>
      <trkpt lat="42.87246" lon="1.18882">
        <ele>631</ele>
        <time>2025-06-29T08:35:28Z</time>
      </trkpt>
      <trkpt lat="42.8726" lon="1.1887">
        <ele>631</ele>
        <time>2025-06-29T08:35:36Z</time>
      </trkpt>
      <trkpt lat="42.87266" lon="1.18868">
        <ele>631</ele>
        <time>2025-06-29T08:35:39Z</time>
      </trkpt>
      <trkpt lat="42.87269" lon="1.18864">
        <ele>631</ele>
        <time>2025-06-29T08:35:41Z</time>
      </trkpt>
      <trkpt lat="42.87282" lon="1.18858">
        <ele>631</ele>
        <time>2025-06-29T08:35:47Z</time>
      </trkpt>
      <trkpt lat="42.87293" lon="1.18852">
        <ele>631</ele>
        <time>2025-06-29T08:35:52Z</time>
      </trkpt>
      <trkpt lat="42.87304" lon="1.18847">
        <ele>631</ele>
        <time>2025-06-29T08:35:57Z</time>
      </trkpt>
      <trkpt lat="42.8732" lon="1.18841">
        <ele>631.4</ele>
        <time>2025-06-29T08:36:03Z</time>
      </trkpt>
      <trkpt lat="42.87322" lon="1.1884">
        <ele>632</ele>
        <time>2025-06-29T08:36:04Z</time>
      </trkpt>
      <trkpt lat="42.87324" lon="1.18839">
        <ele>632.4</ele>
        <time>2025-06-29T08:36:05Z</time>
      </trkpt>
      <trkpt lat="42.87327" lon="1.18838">
        <ele>632.8</ele>
        <time>2025-06-29T08:36:06Z</time>
      </trkpt>
      <trkpt lat="42.87329" lon="1.18836">
        <ele>633.2</ele>
        <time>2025-06-29T08:36:07Z</time>
      </trkpt>
      <trkpt lat="42.87331" lon="1.18835">
        <ele>633.2</ele>
        <time>2025-06-29T08:36:08Z</time>
      </trkpt>
      <trkpt lat="42.87342" lon="1.18834">
        <ele>633.2</ele>
        <time>2025-06-29T08:36:13Z</time>
      </trkpt>
      <trkpt lat="42.87346" lon="1.18834">
        <ele>633.2</ele>
        <time>2025-06-29T08:36:15Z</time>
      </trkpt>
      <trkpt lat="42.87351" lon="1.18835">
        <ele>633.6</ele>
        <time>2025-06-29T08:36:17Z</time>
      </trkpt>
      <trkpt lat="42.87352" lon="1.18836">
        <ele>634</ele>
        <time>2025-06-29T08:36:18Z</time>
      </trkpt>
      <trkpt lat="42.87354" lon="1.18836">
        <ele>634.4</ele>
        <time>2025-06-29T08:36:19Z</time>
      </trkpt>
      <trkpt lat="42.87357" lon="1.18836">
        <ele>634.8</ele>
        <time>2025-06-29T08:36:20Z</time>
      </trkpt>
      <trkpt lat="42.87359" lon="1.18836">
        <ele>635.2</ele>
        <time>2025-06-29T08:36:21Z</time>
      </trkpt>
      <trkpt lat="42.87364" lon="1.18831">
        <ele>635.6</ele>
        <time>2025-06-29T08:36:23Z</time>
      </trkpt>
      <trkpt lat="42.87367" lon="1.18828">
        <ele>636</ele>
        <time>2025-06-29T08:36:24Z</time>
      </trkpt>
      <trkpt lat="42.87369" lon="1.18825">
        <ele>636.4</ele>
        <time>2025-06-29T08:36:25Z</time>
      </trkpt>
      <trkpt lat="42.87372" lon="1.18823">
        <ele>636.8</ele>
        <time>2025-06-29T08:36:26Z</time>
      </trkpt>
      <trkpt lat="42.87375" lon="1.1882">
        <ele>637.2</ele>
        <time>2025-06-29T08:36:27Z</time>
      </trkpt>
      <trkpt lat="42.87379" lon="1.18814">
        <ele>637.6</ele>
        <time>2025-06-29T08:36:29Z</time>
      </trkpt>
      <trkpt lat="42.87381" lon="1.18811">
        <ele>638</ele>
        <time>2025-06-29T08:36:30Z</time>
      </trkpt>
      <trkpt lat="42.87384" lon="1.18807">
        <ele>638.4</ele>
        <time>2025-06-29T08:36:31Z</time>
      </trkpt>
      <trkpt lat="42.87386" lon="1.18803">
        <ele>638.8</ele>
        <time>2025-06-29T08:36:32Z</time>
      </trkpt>
      <trkpt lat="42.87389" lon="1.18799">
        <ele>639.2</ele>
        <time>2025-06-29T08:36:33Z</time>
      </trkpt>
      <trkpt lat="42.87394" lon="1.18793">
        <ele>639.2</ele>
        <time>2025-06-29T08:36:35Z</time>
      </trkpt>
      <trkpt lat="42.87403" lon="1.18778">
        <ele>639.2</ele>
        <time>2025-06-29T08:36:40Z</time>
      </trkpt>
      <trkpt lat="42.87419" lon="1.18764">
        <ele>639.2</ele>
        <time>2025-06-29T08:36:46Z</time>
      </trkpt>
      <trkpt lat="42.87441" lon="1.18755">
        <ele>639.6</ele>
        <time>2025-06-29T08:36:52Z</time>
      </trkpt>
      <trkpt lat="42.87445" lon="1.18754">
        <ele>640</ele>
        <time>2025-06-29T08:36:53Z</time>
      </trkpt>
      <trkpt lat="42.87448" lon="1.18754">
        <ele>640.6</ele>
        <time>2025-06-29T08:36:54Z</time>
      </trkpt>
      <trkpt lat="42.87451" lon="1.18754">
        <ele>641</ele>
        <time>2025-06-29T08:36:55Z</time>
      </trkpt>
      <trkpt lat="42.87454" lon="1.18754">
        <ele>641.4</ele>
        <time>2025-06-29T08:36:56Z</time>
      </trkpt>
      <trkpt lat="42.8746" lon="1.18755">
        <ele>641.8</ele>
        <time>2025-06-29T08:36:58Z</time>
      </trkpt>
      <trkpt lat="42.87462" lon="1.18755">
        <ele>642.2</ele>
        <time>2025-06-29T08:36:59Z</time>
      </trkpt>
      <trkpt lat="42.87465" lon="1.18756">
        <ele>642.8</ele>
        <time>2025-06-29T08:37:00Z</time>
      </trkpt>
      <trkpt lat="42.87468" lon="1.18756">
        <ele>643.2</ele>
        <time>2025-06-29T08:37:01Z</time>
      </trkpt>
      <trkpt lat="42.87471" lon="1.18756">
        <ele>643.8</ele>
        <time>2025-06-29T08:37:02Z</time>
      </trkpt>
      <trkpt lat="42.87474" lon="1.18756">
        <ele>644.2</ele>
        <time>2025-06-29T08:37:03Z</time>
      </trkpt>
      <trkpt lat="42.87477" lon="1.18755">
        <ele>644.8</ele>
        <time>2025-06-29T08:37:04Z</time>
      </trkpt>
      <trkpt lat="42.8748" lon="1.18755">
        <ele>645.2</ele>
        <time>2025-06-29T08:37:05Z</time>
      </trkpt>
      <trkpt lat="42.87483" lon="1.18755">
        <ele>645.6</ele>
        <time>2025-06-29T08:37:06Z</time>
      </trkpt>
      <trkpt lat="42.87486" lon="1.18755">
        <ele>646.2</ele>
        <time>2025-06-29T08:37:07Z</time>
      </trkpt>
      <trkpt lat="42.87489" lon="1.18756">
        <ele>646.6</ele>
        <time>2025-06-29T08:37:08Z</time>
      </trkpt>
      <trkpt lat="42.87492" lon="1.18756">
        <ele>647</ele>
        <time>2025-06-29T08:37:09Z</time>
      </trkpt>
      <trkpt lat="42.87494" lon="1.18756">
        <ele>648</ele>
        <time>2025-06-29T08:37:10Z</time>
      </trkpt>
      <trkpt lat="42.87496" lon="1.18756">
        <ele>648.4</ele>
        <time>2025-06-29T08:37:11Z</time>
      </trkpt>
      <trkpt lat="42.87501" lon="1.18756">
        <ele>648.8</ele>
        <time>2025-06-29T08:37:13Z</time>
      </trkpt>
      <trkpt lat="42.87505" lon="1.18755">
        <ele>649.2</ele>
        <time>2025-06-29T08:37:14Z</time>
      </trkpt>
      <trkpt lat="42.87508" lon="1.18754">
        <ele>649.6</ele>
        <time>2025-06-29T08:37:15Z</time>
      </trkpt>
      <trkpt lat="42.87511" lon="1.18753">
        <ele>650.2</ele>
        <time>2025-06-29T08:37:16Z</time>
      </trkpt>
      <trkpt lat="42.87514" lon="1.18751">
        <ele>650.6</ele>
        <time>2025-06-29T08:37:17Z</time>
      </trkpt>
      <trkpt lat="42.87523" lon="1.18749">
        <ele>651</ele>
        <time>2025-06-29T08:37:20Z</time>
      </trkpt>
      <trkpt lat="42.87526" lon="1.18749">
        <ele>651.4</ele>
        <time>2025-06-29T08:37:21Z</time>
      </trkpt>
      <trkpt lat="42.87529" lon="1.18748">
        <ele>651.8</ele>
        <time>2025-06-29T08:37:22Z</time>
      </trkpt>
      <trkpt lat="42.87531" lon="1.18746">
        <ele>652.2</ele>
        <time>2025-06-29T08:37:23Z</time>
      </trkpt>
      <trkpt lat="42.87532" lon="1.18743">
        <ele>652.6</ele>
        <time>2025-06-29T08:37:24Z</time>
      </trkpt>
      <trkpt lat="42.87534" lon="1.18741">
        <ele>652.6</ele>
        <time>2025-06-29T08:37:25Z</time>
      </trkpt>
      <trkpt lat="42.87538" lon="1.18731">
        <ele>653</ele>
        <time>2025-06-29T08:37:28Z</time>
      </trkpt>
      <trkpt lat="42.87539" lon="1.18728">
        <ele>653.4</ele>
        <time>2025-06-29T08:37:29Z</time>
      </trkpt>
      <trkpt lat="42.87541" lon="1.18726">
        <ele>654</ele>
        <time>2025-06-29T08:37:30Z</time>
      </trkpt>
      <trkpt lat="42.87543" lon="1.18725">
        <ele>654.4</ele>
        <time>2025-06-29T08:37:31Z</time>
      </trkpt>
      <trkpt lat="42.87545" lon="1.18725">
        <ele>654.8</ele>
        <time>2025-06-29T08:37:32Z</time>
      </trkpt>
      <trkpt lat="42.87547" lon="1.18726">
        <ele>655.2</ele>
        <time>2025-06-29T08:37:33Z</time>
      </trkpt>
      <trkpt lat="42.87549" lon="1.18727">
        <ele>655.6</ele>
        <time>2025-06-29T08:37:34Z</time>
      </trkpt>
      <trkpt lat="42.87552" lon="1.18727">
        <ele>656.8</ele>
        <time>2025-06-29T08:37:35Z</time>
      </trkpt>
      <trkpt lat="42.87554" lon="1.18726">
        <ele>657.4</ele>
        <time>2025-06-29T08:37:36Z</time>
      </trkpt>
      <trkpt lat="42.87556" lon="1.18725">
        <ele>658</ele>
        <time>2025-06-29T08:37:37Z</time>
      </trkpt>
      <trkpt lat="42.87557" lon="1.18726">
        <ele>658.6</ele>
        <time>2025-06-29T08:37:38Z</time>
      </trkpt>
      <trkpt lat="42.87558" lon="1.18727">
        <ele>659.2</ele>
        <time>2025-06-29T08:37:39Z</time>
      </trkpt>
      <trkpt lat="42.87558" lon="1.18729">
        <ele>659.2</ele>
        <time>2025-06-29T08:37:40Z</time>
      </trkpt>
      <trkpt lat="42.87554" lon="1.18743">
        <ele>659.6</ele>
        <time>2025-06-29T08:37:46Z</time>
      </trkpt>
      <trkpt lat="42.87554" lon="1.18745">
        <ele>660</ele>
        <time>2025-06-29T08:37:47Z</time>
      </trkpt>
      <trkpt lat="42.87553" lon="1.18747">
        <ele>660.4</ele>
        <time>2025-06-29T08:37:48Z</time>
      </trkpt>
      <trkpt lat="42.87552" lon="1.1875">
        <ele>660.8</ele>
        <time>2025-06-29T08:37:49Z</time>
      </trkpt>
      <trkpt lat="42.87551" lon="1.18753">
        <ele>661.2</ele>
        <time>2025-06-29T08:37:50Z</time>
      </trkpt>
      <trkpt lat="42.87551" lon="1.18756">
        <ele>661.2</ele>
        <time>2025-06-29T08:37:51Z</time>
      </trkpt>
      <trkpt lat="42.87549" lon="1.18772">
        <ele>661.6</ele>
        <time>2025-06-29T08:37:56Z</time>
      </trkpt>
      <trkpt lat="42.87549" lon="1.18775">
        <ele>662</ele>
        <time>2025-06-29T08:37:57Z</time>
      </trkpt>
      <trkpt lat="42.87548" lon="1.18778">
        <ele>662.4</ele>
        <time>2025-06-29T08:37:58Z</time>
      </trkpt>
      <trkpt lat="42.87548" lon="1.18781">
        <ele>663</ele>
        <time>2025-06-29T08:37:59Z</time>
      </trkpt>
      <trkpt lat="42.87548" lon="1.18784">
        <ele>663.4</ele>
        <time>2025-06-29T08:38:00Z</time>
      </trkpt>
      <trkpt lat="42.87545" lon="1.1879">
        <ele>663.4</ele>
        <time>2025-06-29T08:38:02Z</time>
      </trkpt>
      <trkpt lat="42.87544" lon="1.18793">
        <ele>663.8</ele>
        <time>2025-06-29T08:38:03Z</time>
      </trkpt>
      <trkpt lat="42.87543" lon="1.18796">
        <ele>664.2</ele>
        <time>2025-06-29T08:38:04Z</time>
      </trkpt>
      <trkpt lat="42.87542" lon="1.18799">
        <ele>664.6</ele>
        <time>2025-06-29T08:38:05Z</time>
      </trkpt>
      <trkpt lat="42.87541" lon="1.18802">
        <ele>665</ele>
        <time>2025-06-29T08:38:06Z</time>
      </trkpt>
      <trkpt lat="42.87541" lon="1.18805">
        <ele>665.4</ele>
        <time>2025-06-29T08:38:07Z</time>
      </trkpt>
      <trkpt lat="42.87537" lon="1.18813">
        <ele>665.4</ele>
        <time>2025-06-29T08:38:10Z</time>
      </trkpt>
      <trkpt lat="42.87534" lon="1.18817">
        <ele>665.8</ele>
        <time>2025-06-29T08:38:12Z</time>
      </trkpt>
      <trkpt lat="42.87533" lon="1.1882">
        <ele>666.2</ele>
        <time>2025-06-29T08:38:13Z</time>
      </trkpt>
      <trkpt lat="42.87531" lon="1.18822">
        <ele>666.6</ele>
        <time>2025-06-29T08:38:14Z</time>
      </trkpt>
      <trkpt lat="42.8753" lon="1.18824">
        <ele>667</ele>
        <time>2025-06-29T08:38:15Z</time>
      </trkpt>
      <trkpt lat="42.87528" lon="1.18827">
        <ele>667.4</ele>
        <time>2025-06-29T08:38:16Z</time>
      </trkpt>
      <trkpt lat="42.87523" lon="1.18838">
        <ele>667.8</ele>
        <time>2025-06-29T08:38:21Z</time>
      </trkpt>
      <trkpt lat="42.87522" lon="1.18841">
        <ele>668.2</ele>
        <time>2025-06-29T08:38:22Z</time>
      </trkpt>
      <trkpt lat="42.87521" lon="1.18843">
        <ele>668.6</ele>
        <time>2025-06-29T08:38:23Z</time>
      </trkpt>
      <trkpt lat="42.8752" lon="1.18845">
        <ele>669.6</ele>
        <time>2025-06-29T08:38:24Z</time>
      </trkpt>
      <trkpt lat="42.87511" lon="1.18861">
        <ele>670</ele>
        <time>2025-06-29T08:38:30Z</time>
      </trkpt>
      <trkpt lat="42.8751" lon="1.18864">
        <ele>670.4</ele>
        <time>2025-06-29T08:38:31Z</time>
      </trkpt>
      <trkpt lat="42.87508" lon="1.18866">
        <ele>670.8</ele>
        <time>2025-06-29T08:38:32Z</time>
      </trkpt>
      <trkpt lat="42.87508" lon="1.18868">
        <ele>671.2</ele>
        <time>2025-06-29T08:38:33Z</time>
      </trkpt>
      <trkpt lat="42.87507" lon="1.18869">
        <ele>671.6</ele>
        <time>2025-06-29T08:38:34Z</time>
      </trkpt>
      <trkpt lat="42.87503" lon="1.18875">
        <ele>671.6</ele>
        <time>2025-06-29T08:38:37Z</time>
      </trkpt>
      <trkpt lat="42.87502" lon="1.18885">
        <ele>671.6</ele>
        <time>2025-06-29T08:38:41Z</time>
      </trkpt>
      <trkpt lat="42.87504" lon="1.18885">
        <ele>671.6</ele>
        <time>2025-06-29T08:38:42Z</time>
      </trkpt>
      <trkpt lat="42.87508" lon="1.18883">
        <ele>672</ele>
        <time>2025-06-29T08:38:45Z</time>
      </trkpt>
      <trkpt lat="42.8751" lon="1.1888">
        <ele>672.4</ele>
        <time>2025-06-29T08:38:46Z</time>
      </trkpt>
      <trkpt lat="42.87512" lon="1.18878">
        <ele>672.8</ele>
        <time>2025-06-29T08:38:47Z</time>
      </trkpt>
      <trkpt lat="42.87513" lon="1.18876">
        <ele>673.2</ele>
        <time>2025-06-29T08:38:48Z</time>
      </trkpt>
      <trkpt lat="42.87515" lon="1.18874">
        <ele>673.8</ele>
        <time>2025-06-29T08:38:49Z</time>
      </trkpt>
      <trkpt lat="42.87522" lon="1.18868">
        <ele>673.8</ele>
        <time>2025-06-29T08:38:53Z</time>
      </trkpt>
      <trkpt lat="42.87533" lon="1.1886">
        <ele>673.8</ele>
        <time>2025-06-29T08:38:59Z</time>
      </trkpt>
      <trkpt lat="42.87536" lon="1.18858">
        <ele>674.2</ele>
        <time>2025-06-29T08:39:00Z</time>
      </trkpt>
      <trkpt lat="42.87538" lon="1.18856">
        <ele>674.6</ele>
        <time>2025-06-29T08:39:01Z</time>
      </trkpt>
      <trkpt lat="42.8754" lon="1.18854">
        <ele>675</ele>
        <time>2025-06-29T08:39:02Z</time>
      </trkpt>
      <trkpt lat="42.87542" lon="1.18852">
        <ele>675.4</ele>
        <time>2025-06-29T08:39:03Z</time>
      </trkpt>
      <trkpt lat="42.87545" lon="1.1885">
        <ele>675.8</ele>
        <time>2025-06-29T08:39:04Z</time>
      </trkpt>
      <trkpt lat="42.87547" lon="1.18848">
        <ele>675.8</ele>
        <time>2025-06-29T08:39:05Z</time>
      </trkpt>
      <trkpt lat="42.87559" lon="1.1884">
        <ele>675.8</ele>
        <time>2025-06-29T08:39:10Z</time>
      </trkpt>
      <trkpt lat="42.87568" lon="1.18836">
        <ele>675.8</ele>
        <time>2025-06-29T08:39:15Z</time>
      </trkpt>
      <trkpt lat="42.87571" lon="1.18834">
        <ele>675.8</ele>
        <time>2025-06-29T08:39:17Z</time>
      </trkpt>
      <trkpt lat="42.87576" lon="1.1883">
        <ele>675.8</ele>
        <time>2025-06-29T08:39:20Z</time>
      </trkpt>
      <trkpt lat="42.87585" lon="1.18824">
        <ele>676.2</ele>
        <time>2025-06-29T08:39:25Z</time>
      </trkpt>
      <trkpt lat="42.87587" lon="1.18822">
        <ele>676.6</ele>
        <time>2025-06-29T08:39:26Z</time>
      </trkpt>
      <trkpt lat="42.8759" lon="1.18821">
        <ele>677</ele>
        <time>2025-06-29T08:39:27Z</time>
      </trkpt>
      <trkpt lat="42.87592" lon="1.18819">
        <ele>677.4</ele>
        <time>2025-06-29T08:39:28Z</time>
      </trkpt>
      <trkpt lat="42.87594" lon="1.18818">
        <ele>677.8</ele>
        <time>2025-06-29T08:39:29Z</time>
      </trkpt>
      <trkpt lat="42.87599" lon="1.18816">
        <ele>677.8</ele>
        <time>2025-06-29T08:39:31Z</time>
      </trkpt>
      <trkpt lat="42.87609" lon="1.18811">
        <ele>678.4</ele>
        <time>2025-06-29T08:39:35Z</time>
      </trkpt>
      <trkpt lat="42.87612" lon="1.1881">
        <ele>678.8</ele>
        <time>2025-06-29T08:39:36Z</time>
      </trkpt>
      <trkpt lat="42.87614" lon="1.18809">
        <ele>679.2</ele>
        <time>2025-06-29T08:39:37Z</time>
      </trkpt>
      <trkpt lat="42.87617" lon="1.18808">
        <ele>680</ele>
        <time>2025-06-29T08:39:38Z</time>
      </trkpt>
      <trkpt lat="42.8762" lon="1.18807">
        <ele>680</ele>
        <time>2025-06-29T08:39:39Z</time>
      </trkpt>
      <trkpt lat="42.87644" lon="1.18803">
        <ele>680</ele>
        <time>2025-06-29T08:39:45Z</time>
      </trkpt>
      <trkpt lat="42.87678" lon="1.18798">
        <ele>680</ele>
        <time>2025-06-29T08:39:53Z</time>
      </trkpt>
      <trkpt lat="42.87703" lon="1.18795">
        <ele>680</ele>
        <time>2025-06-29T08:40:00Z</time>
      </trkpt>
      <trkpt lat="42.87725" lon="1.18792">
        <ele>680</ele>
        <time>2025-06-29T08:40:06Z</time>
      </trkpt>
      <trkpt lat="42.87747" lon="1.18794">
        <ele>680</ele>
        <time>2025-06-29T08:40:12Z</time>
      </trkpt>
      <trkpt lat="42.87755" lon="1.18795">
        <ele>680.4</ele>
        <time>2025-06-29T08:40:14Z</time>
      </trkpt>
      <trkpt lat="42.87759" lon="1.18795">
        <ele>680.8</ele>
        <time>2025-06-29T08:40:15Z</time>
      </trkpt>
      <trkpt lat="42.87762" lon="1.18796">
        <ele>681.2</ele>
        <time>2025-06-29T08:40:16Z</time>
      </trkpt>
      <trkpt lat="42.87766" lon="1.18797">
        <ele>681.6</ele>
        <time>2025-06-29T08:40:17Z</time>
      </trkpt>
      <trkpt lat="42.8777" lon="1.18798">
        <ele>682</ele>
        <time>2025-06-29T08:40:18Z</time>
      </trkpt>
      <trkpt lat="42.87773" lon="1.188">
        <ele>682</ele>
        <time>2025-06-29T08:40:19Z</time>
      </trkpt>
      <trkpt lat="42.87782" lon="1.18806">
        <ele>682.4</ele>
        <time>2025-06-29T08:40:22Z</time>
      </trkpt>
      <trkpt lat="42.87785" lon="1.18809">
        <ele>683</ele>
        <time>2025-06-29T08:40:23Z</time>
      </trkpt>
      <trkpt lat="42.87788" lon="1.18811">
        <ele>683.4</ele>
        <time>2025-06-29T08:40:24Z</time>
      </trkpt>
      <trkpt lat="42.87791" lon="1.18813">
        <ele>683.8</ele>
        <time>2025-06-29T08:40:25Z</time>
      </trkpt>
      <trkpt lat="42.87794" lon="1.18815">
        <ele>684.2</ele>
        <time>2025-06-29T08:40:26Z</time>
      </trkpt>
      <trkpt lat="42.87804" lon="1.18816">
        <ele>684.2</ele>
        <time>2025-06-29T08:40:29Z</time>
      </trkpt>
      <trkpt lat="42.87807" lon="1.18816">
        <ele>684.6</ele>
        <time>2025-06-29T08:40:30Z</time>
      </trkpt>
      <trkpt lat="42.87809" lon="1.18815">
        <ele>685</ele>
        <time>2025-06-29T08:40:31Z</time>
      </trkpt>
      <trkpt lat="42.87811" lon="1.18815">
        <ele>685.4</ele>
        <time>2025-06-29T08:40:32Z</time>
      </trkpt>
      <trkpt lat="42.87814" lon="1.18814">
        <ele>686</ele>
        <time>2025-06-29T08:40:33Z</time>
      </trkpt>
      <trkpt lat="42.87815" lon="1.18813">
        <ele>686.4</ele>
        <time>2025-06-29T08:40:34Z</time>
      </trkpt>
      <trkpt lat="42.87817" lon="1.18812">
        <ele>686.8</ele>
        <time>2025-06-29T08:40:35Z</time>
      </trkpt>
      <trkpt lat="42.87818" lon="1.18811">
        <ele>687.4</ele>
        <time>2025-06-29T08:40:36Z</time>
      </trkpt>
      <trkpt lat="42.87819" lon="1.1881">
        <ele>687.8</ele>
        <time>2025-06-29T08:40:37Z</time>
      </trkpt>
      <trkpt lat="42.87821" lon="1.1881">
        <ele>688.2</ele>
        <time>2025-06-29T08:40:38Z</time>
      </trkpt>
      <trkpt lat="42.87822" lon="1.18809">
        <ele>688.8</ele>
        <time>2025-06-29T08:40:39Z</time>
      </trkpt>
      <trkpt lat="42.87824" lon="1.18808">
        <ele>689.4</ele>
        <time>2025-06-29T08:40:40Z</time>
      </trkpt>
      <trkpt lat="42.87825" lon="1.18808">
        <ele>690</ele>
        <time>2025-06-29T08:40:41Z</time>
      </trkpt>
      <trkpt lat="42.87827" lon="1.18808">
        <ele>690.6</ele>
        <time>2025-06-29T08:40:42Z</time>
      </trkpt>
      <trkpt lat="42.87828" lon="1.18808">
        <ele>691.2</ele>
        <time>2025-06-29T08:40:43Z</time>
      </trkpt>
      <trkpt lat="42.8783" lon="1.18808">
        <ele>691.6</ele>
        <time>2025-06-29T08:40:44Z</time>
      </trkpt>
      <trkpt lat="42.87831" lon="1.18808">
        <ele>692.2</ele>
        <time>2025-06-29T08:40:45Z</time>
      </trkpt>
      <trkpt lat="42.87832" lon="1.18808">
        <ele>692.6</ele>
        <time>2025-06-29T08:40:46Z</time>
      </trkpt>
      <trkpt lat="42.87834" lon="1.18808">
        <ele>693.2</ele>
        <time>2025-06-29T08:40:47Z</time>
      </trkpt>
      <trkpt lat="42.87835" lon="1.18807">
        <ele>693.2</ele>
        <time>2025-06-29T08:40:48Z</time>
      </trkpt>
      <trkpt lat="42.87837" lon="1.18807">
        <ele>693.6</ele>
        <time>2025-06-29T08:40:49Z</time>
      </trkpt>
      <trkpt lat="42.87839" lon="1.18807">
        <ele>694</ele>
        <time>2025-06-29T08:40:50Z</time>
      </trkpt>
      <trkpt lat="42.8784" lon="1.18806">
        <ele>694.4</ele>
        <time>2025-06-29T08:40:51Z</time>
      </trkpt>
      <trkpt lat="42.87841" lon="1.18806">
        <ele>695.4</ele>
        <time>2025-06-29T08:40:52Z</time>
      </trkpt>
      <trkpt lat="42.87842" lon="1.18805">
        <ele>695.8</ele>
        <time>2025-06-29T08:40:53Z</time>
      </trkpt>
      <trkpt lat="42.87843" lon="1.18804">
        <ele>696.4</ele>
        <time>2025-06-29T08:40:54Z</time>
      </trkpt>
      <trkpt lat="42.87845" lon="1.18804">
        <ele>696.8</ele>
        <time>2025-06-29T08:40:55Z</time>
      </trkpt>
      <trkpt lat="42.87846" lon="1.18803">
        <ele>697.2</ele>
        <time>2025-06-29T08:40:56Z</time>
      </trkpt>
      <trkpt lat="42.87849" lon="1.18803">
        <ele>697.6</ele>
        <time>2025-06-29T08:40:58Z</time>
      </trkpt>
      <trkpt lat="42.8785" lon="1.18803">
        <ele>698</ele>
        <time>2025-06-29T08:40:59Z</time>
      </trkpt>
      <trkpt lat="42.87851" lon="1.18803">
        <ele>698.4</ele>
        <time>2025-06-29T08:41:00Z</time>
      </trkpt>
      <trkpt lat="42.87853" lon="1.18802">
        <ele>699</ele>
        <time>2025-06-29T08:41:01Z</time>
      </trkpt>
      <trkpt lat="42.87854" lon="1.18802">
        <ele>699.4</ele>
        <time>2025-06-29T08:41:02Z</time>
      </trkpt>
      <trkpt lat="42.87855" lon="1.18801">
        <ele>699.4</ele>
        <time>2025-06-29T08:41:03Z</time>
      </trkpt>
      <trkpt lat="42.87931" lon="1.18766">
        <ele>715.6</ele>
        <time>2025-06-29T08:42:00Z</time>
      </trkpt>
      <trkpt lat="42.87932" lon="1.18764">
        <ele>716</ele>
        <time>2025-06-29T08:42:01Z</time>
      </trkpt>
      <trkpt lat="42.87933" lon="1.18762">
        <ele>716.4</ele>
        <time>2025-06-29T08:42:02Z</time>
      </trkpt>
      <trkpt lat="42.87938" lon="1.18751">
        <ele>716.4</ele>
        <time>2025-06-29T08:42:08Z</time>
      </trkpt>
      <trkpt lat="42.87941" lon="1.18746">
        <ele>716.8</ele>
        <time>2025-06-29T08:42:11Z</time>
      </trkpt>
      <trkpt lat="42.87942" lon="1.18743">
        <ele>717.2</ele>
        <time>2025-06-29T08:42:12Z</time>
      </trkpt>
      <trkpt lat="42.87943" lon="1.18741">
        <ele>717.6</ele>
        <time>2025-06-29T08:42:13Z</time>
      </trkpt>
      <trkpt lat="42.87944" lon="1.18738">
        <ele>718</ele>
        <time>2025-06-29T08:42:14Z</time>
      </trkpt>
      <trkpt lat="42.87944" lon="1.18736">
        <ele>718.4</ele>
        <time>2025-06-29T08:42:15Z</time>
      </trkpt>
      <trkpt lat="42.87953" lon="1.18724">
        <ele>718.4</ele>
        <time>2025-06-29T08:42:21Z</time>
      </trkpt>
      <trkpt lat="42.87956" lon="1.1872">
        <ele>718.4</ele>
        <time>2025-06-29T08:42:24Z</time>
      </trkpt>
      <trkpt lat="42.87957" lon="1.18717">
        <ele>718.8</ele>
        <time>2025-06-29T08:42:25Z</time>
      </trkpt>
      <trkpt lat="42.87958" lon="1.18715">
        <ele>719.2</ele>
        <time>2025-06-29T08:42:26Z</time>
      </trkpt>
      <trkpt lat="42.87959" lon="1.18713">
        <ele>719.6</ele>
        <time>2025-06-29T08:42:27Z</time>
      </trkpt>
      <trkpt lat="42.87959" lon="1.18711">
        <ele>720</ele>
        <time>2025-06-29T08:42:28Z</time>
      </trkpt>
      <trkpt lat="42.8796" lon="1.18708">
        <ele>720.4</ele>
        <time>2025-06-29T08:42:29Z</time>
      </trkpt>
      <trkpt lat="42.87965" lon="1.187">
        <ele>720.4</ele>
        <time>2025-06-29T08:42:32Z</time>
      </trkpt>
      <trkpt lat="42.87975" lon="1.18677">
        <ele>720.4</ele>
        <time>2025-06-29T08:42:39Z</time>
      </trkpt>
      <trkpt lat="42.87987" lon="1.18659">
        <ele>720.4</ele>
        <time>2025-06-29T08:42:45Z</time>
      </trkpt>
      <trkpt lat="42.87999" lon="1.18643">
        <ele>720.4</ele>
        <time>2025-06-29T08:42:51Z</time>
      </trkpt>
      <trkpt lat="42.88011" lon="1.18629">
        <ele>720.4</ele>
        <time>2025-06-29T08:42:57Z</time>
      </trkpt>
      <trkpt lat="42.88025" lon="1.18617">
        <ele>720.4</ele>
        <time>2025-06-29T08:43:01Z</time>
      </trkpt>
      <trkpt lat="42.88045" lon="1.18605">
        <ele>720.4</ele>
        <time>2025-06-29T08:43:07Z</time>
      </trkpt>
      <trkpt lat="42.88059" lon="1.18594">
        <ele>720.4</ele>
        <time>2025-06-29T08:43:12Z</time>
      </trkpt>
      <trkpt lat="42.88078" lon="1.18587">
        <ele>720.4</ele>
        <time>2025-06-29T08:43:18Z</time>
      </trkpt>
      <trkpt lat="42.88096" lon="1.18574">
        <ele>720.4</ele>
        <time>2025-06-29T08:43:25Z</time>
      </trkpt>
      <trkpt lat="42.88114" lon="1.18561">
        <ele>720.4</ele>
        <time>2025-06-29T08:43:31Z</time>
      </trkpt>
      <trkpt lat="42.88127" lon="1.18549">
        <ele>720.4</ele>
        <time>2025-06-29T08:43:36Z</time>
      </trkpt>
      <trkpt lat="42.88133" lon="1.18544">
        <ele>721</ele>
        <time>2025-06-29T08:43:38Z</time>
      </trkpt>
      <trkpt lat="42.88136" lon="1.18542">
        <ele>721.4</ele>
        <time>2025-06-29T08:43:39Z</time>
      </trkpt>
      <trkpt lat="42.88138" lon="1.1854">
        <ele>721.8</ele>
        <time>2025-06-29T08:43:40Z</time>
      </trkpt>
      <trkpt lat="42.88142" lon="1.18538">
        <ele>722.2</ele>
        <time>2025-06-29T08:43:41Z</time>
      </trkpt>
      <trkpt lat="42.88144" lon="1.18536">
        <ele>722.6</ele>
        <time>2025-06-29T08:43:42Z</time>
      </trkpt>
      <trkpt lat="42.88157" lon="1.18526">
        <ele>722.6</ele>
        <time>2025-06-29T08:43:47Z</time>
      </trkpt>
      <trkpt lat="42.88172" lon="1.18514">
        <ele>722.6</ele>
        <time>2025-06-29T08:43:52Z</time>
      </trkpt>
      <trkpt lat="42.88185" lon="1.18504">
        <ele>722.6</ele>
        <time>2025-06-29T08:43:57Z</time>
      </trkpt>
      <trkpt lat="42.88189" lon="1.185">
        <ele>722.6</ele>
        <time>2025-06-29T08:44:01Z</time>
      </trkpt>
      <trkpt lat="42.88191" lon="1.185">
        <ele>722.6</ele>
        <time>2025-06-29T08:44:42Z</time>
      </trkpt>
      <trkpt lat="42.88194" lon="1.18502">
        <ele>722.6</ele>
        <time>2025-06-29T08:44:45Z</time>
      </trkpt>
      <trkpt lat="42.88196" lon="1.18503">
        <ele>722.6</ele>
        <time>2025-06-29T08:44:48Z</time>
      </trkpt>
      <trkpt lat="42.88205" lon="1.18509">
        <ele>722.6</ele>
        <time>2025-06-29T08:48:20Z</time>
      </trkpt>
      <trkpt lat="42.88207" lon="1.18511">
        <ele>722.6</ele>
        <time>2025-06-29T08:48:21Z</time>
      </trkpt>
      <trkpt lat="42.88218" lon="1.18528">
        <ele>722.6</ele>
        <time>2025-06-29T08:48:26Z</time>
      </trkpt>
      <trkpt lat="42.88224" lon="1.1854">
        <ele>722.2</ele>
        <time>2025-06-29T08:48:29Z</time>
      </trkpt>
      <trkpt lat="42.88225" lon="1.18544">
        <ele>721.8</ele>
        <time>2025-06-29T08:48:30Z</time>
      </trkpt>
      <trkpt lat="42.88226" lon="1.1855">
        <ele>721.4</ele>
        <time>2025-06-29T08:48:31Z</time>
      </trkpt>
      <trkpt lat="42.88227" lon="1.18555">
        <ele>721</ele>
        <time>2025-06-29T08:48:32Z</time>
      </trkpt>
      <trkpt lat="42.88229" lon="1.18559">
        <ele>720.4</ele>
        <time>2025-06-29T08:48:33Z</time>
      </trkpt>
      <trkpt lat="42.88231" lon="1.18562">
        <ele>720</ele>
        <time>2025-06-29T08:48:34Z</time>
      </trkpt>
      <trkpt lat="42.88235" lon="1.18565">
        <ele>718.6</ele>
        <time>2025-06-29T08:48:35Z</time>
      </trkpt>
      <trkpt lat="42.88238" lon="1.1857">
        <ele>718</ele>
        <time>2025-06-29T08:48:36Z</time>
      </trkpt>
      <trkpt lat="42.8824" lon="1.18575">
        <ele>717.2</ele>
        <time>2025-06-29T08:48:37Z</time>
      </trkpt>
      <trkpt lat="42.88243" lon="1.18579">
        <ele>716.6</ele>
        <time>2025-06-29T08:48:38Z</time>
      </trkpt>
      <trkpt lat="42.88245" lon="1.18581">
        <ele>715.8</ele>
        <time>2025-06-29T08:48:39Z</time>
      </trkpt>
      <trkpt lat="42.88246" lon="1.18584">
        <ele>715.8</ele>
        <time>2025-06-29T08:48:40Z</time>
      </trkpt>
      <trkpt lat="42.88253" lon="1.186">
        <ele>715.8</ele>
        <time>2025-06-29T08:48:44Z</time>
      </trkpt>
      <trkpt lat="42.88256" lon="1.1863">
        <ele>715.8</ele>
        <time>2025-06-29T08:48:49Z</time>
      </trkpt>
      <trkpt lat="42.88259" lon="1.18649">
        <ele>715.8</ele>
        <time>2025-06-29T08:48:53Z</time>
      </trkpt>
      <trkpt lat="42.88264" lon="1.18671">
        <ele>715.8</ele>
        <time>2025-06-29T08:48:58Z</time>
      </trkpt>
      <trkpt lat="42.88265" lon="1.18676">
        <ele>716.2</ele>
        <time>2025-06-29T08:48:59Z</time>
      </trkpt>
      <trkpt lat="42.88266" lon="1.1868">
        <ele>716.6</ele>
        <time>2025-06-29T08:49:00Z</time>
      </trkpt>
      <trkpt lat="42.88267" lon="1.18685">
        <ele>717</ele>
        <time>2025-06-29T08:49:01Z</time>
      </trkpt>
      <trkpt lat="42.88269" lon="1.1869">
        <ele>717.4</ele>
        <time>2025-06-29T08:49:02Z</time>
      </trkpt>
      <trkpt lat="42.88271" lon="1.18695">
        <ele>717.8</ele>
        <time>2025-06-29T08:49:03Z</time>
      </trkpt>
      <trkpt lat="42.88275" lon="1.18703">
        <ele>718.4</ele>
        <time>2025-06-29T08:49:05Z</time>
      </trkpt>
      <trkpt lat="42.88276" lon="1.18708">
        <ele>718.8</ele>
        <time>2025-06-29T08:49:06Z</time>
      </trkpt>
      <trkpt lat="42.88277" lon="1.18712">
        <ele>719.4</ele>
        <time>2025-06-29T08:49:07Z</time>
      </trkpt>
      <trkpt lat="42.88278" lon="1.18716">
        <ele>719.8</ele>
        <time>2025-06-29T08:49:08Z</time>
      </trkpt>
      <trkpt lat="42.88279" lon="1.1872">
        <ele>720.2</ele>
        <time>2025-06-29T08:49:09Z</time>
      </trkpt>
      <trkpt lat="42.8828" lon="1.18725">
        <ele>720.2</ele>
        <time>2025-06-29T08:49:10Z</time>
      </trkpt>
      <trkpt lat="42.88279" lon="1.18736">
        <ele>720.6</ele>
        <time>2025-06-29T08:49:12Z</time>
      </trkpt>
      <trkpt lat="42.88279" lon="1.1874">
        <ele>721.2</ele>
        <time>2025-06-29T08:49:13Z</time>
      </trkpt>
      <trkpt lat="42.8828" lon="1.18744">
        <ele>721.6</ele>
        <time>2025-06-29T08:49:14Z</time>
      </trkpt>
      <trkpt lat="42.88281" lon="1.18748">
        <ele>722</ele>
        <time>2025-06-29T08:49:15Z</time>
      </trkpt>
      <trkpt lat="42.88282" lon="1.18754">
        <ele>722.4</ele>
        <time>2025-06-29T08:49:16Z</time>
      </trkpt>
      <trkpt lat="42.8828" lon="1.18765">
        <ele>722.4</ele>
        <time>2025-06-29T08:49:18Z</time>
      </trkpt>
      <trkpt lat="42.88278" lon="1.1878">
        <ele>722.4</ele>
        <time>2025-06-29T08:49:23Z</time>
      </trkpt>
      <trkpt lat="42.88278" lon="1.18782">
        <ele>722.4</ele>
        <time>2025-06-29T08:49:25Z</time>
      </trkpt>
      <trkpt lat="42.88276" lon="1.18793">
        <ele>719.6</ele>
        <time>2025-06-29T08:49:32Z</time>
      </trkpt>
      <trkpt lat="42.88276" lon="1.18796">
        <ele>719</ele>
        <time>2025-06-29T08:49:33Z</time>
      </trkpt>
      <trkpt lat="42.88274" lon="1.188">
        <ele>718.4</ele>
        <time>2025-06-29T08:49:34Z</time>
      </trkpt>
      <trkpt lat="42.88273" lon="1.18804">
        <ele>717.6</ele>
        <time>2025-06-29T08:49:35Z</time>
      </trkpt>
      <trkpt lat="42.88271" lon="1.18808">
        <ele>717</ele>
        <time>2025-06-29T08:49:36Z</time>
      </trkpt>
      <trkpt lat="42.88269" lon="1.18812">
        <ele>716.2</ele>
        <time>2025-06-29T08:49:37Z</time>
      </trkpt>
      <trkpt lat="42.88268" lon="1.18818">
        <ele>715.8</ele>
        <time>2025-06-29T08:49:38Z</time>
      </trkpt>
      <trkpt lat="42.88267" lon="1.18823">
        <ele>715.2</ele>
        <time>2025-06-29T08:49:39Z</time>
      </trkpt>
      <trkpt lat="42.88266" lon="1.18828">
        <ele>714.6</ele>
        <time>2025-06-29T08:49:40Z</time>
      </trkpt>
      <trkpt lat="42.88265" lon="1.18832">
        <ele>714</ele>
        <time>2025-06-29T08:49:41Z</time>
      </trkpt>
      <trkpt lat="42.88265" lon="1.18835">
        <ele>713.6</ele>
        <time>2025-06-29T08:49:42Z</time>
      </trkpt>
      <trkpt lat="42.88265" lon="1.18842">
        <ele>713.6</ele>
        <time>2025-06-29T08:49:45Z</time>
      </trkpt>
      <trkpt lat="42.88268" lon="1.18854">
        <ele>713</ele>
        <time>2025-06-29T08:49:48Z</time>
      </trkpt>
      <trkpt lat="42.8827" lon="1.18859">
        <ele>712.2</ele>
        <time>2025-06-29T08:49:49Z</time>
      </trkpt>
      <trkpt lat="42.88272" lon="1.18864">
        <ele>711.6</ele>
        <time>2025-06-29T08:49:50Z</time>
      </trkpt>
      <trkpt lat="42.88274" lon="1.18869">
        <ele>711.2</ele>
        <time>2025-06-29T08:49:51Z</time>
      </trkpt>
      <trkpt lat="42.88276" lon="1.18879">
        <ele>710.8</ele>
        <time>2025-06-29T08:49:53Z</time>
      </trkpt>
      <trkpt lat="42.88277" lon="1.18885">
        <ele>710.4</ele>
        <time>2025-06-29T08:49:54Z</time>
      </trkpt>
      <trkpt lat="42.8828" lon="1.1889">
        <ele>710</ele>
        <time>2025-06-29T08:49:55Z</time>
      </trkpt>
      <trkpt lat="42.88283" lon="1.18897">
        <ele>709.6</ele>
        <time>2025-06-29T08:49:56Z</time>
      </trkpt>
      <trkpt lat="42.88284" lon="1.18902">
        <ele>709.2</ele>
        <time>2025-06-29T08:49:57Z</time>
      </trkpt>
      <trkpt lat="42.88286" lon="1.18906">
        <ele>708.6</ele>
        <time>2025-06-29T08:49:58Z</time>
      </trkpt>
      <trkpt lat="42.88287" lon="1.1891">
        <ele>708.2</ele>
        <time>2025-06-29T08:49:59Z</time>
      </trkpt>
      <trkpt lat="42.88288" lon="1.18915">
        <ele>707.8</ele>
        <time>2025-06-29T08:50:00Z</time>
      </trkpt>
      <trkpt lat="42.88289" lon="1.18921">
        <ele>707.2</ele>
        <time>2025-06-29T08:50:01Z</time>
      </trkpt>
      <trkpt lat="42.8829" lon="1.18926">
        <ele>706.8</ele>
        <time>2025-06-29T08:50:02Z</time>
      </trkpt>
      <trkpt lat="42.88291" lon="1.18931">
        <ele>706.8</ele>
        <time>2025-06-29T08:50:03Z</time>
      </trkpt>
      <trkpt lat="42.88292" lon="1.18939">
        <ele>706.8</ele>
        <time>2025-06-29T08:50:05Z</time>
      </trkpt>
      <trkpt lat="42.88294" lon="1.18956">
        <ele>706.8</ele>
        <time>2025-06-29T08:50:10Z</time>
      </trkpt>
      <trkpt lat="42.88293" lon="1.18959">
        <ele>706.4</ele>
        <time>2025-06-29T08:50:11Z</time>
      </trkpt>
      <trkpt lat="42.88294" lon="1.18964">
        <ele>706</ele>
        <time>2025-06-29T08:50:12Z</time>
      </trkpt>
      <trkpt lat="42.88294" lon="1.18969">
        <ele>705.6</ele>
        <time>2025-06-29T08:50:13Z</time>
      </trkpt>
      <trkpt lat="42.88294" lon="1.18975">
        <ele>704.8</ele>
        <time>2025-06-29T08:50:14Z</time>
      </trkpt>
      <trkpt lat="42.88294" lon="1.18987">
        <ele>704.8</ele>
        <time>2025-06-29T08:50:17Z</time>
      </trkpt>
      <trkpt lat="42.88297" lon="1.18994">
        <ele>704.8</ele>
        <time>2025-06-29T08:50:19Z</time>
      </trkpt>
      <trkpt lat="42.88303" lon="1.1901">
        <ele>704.8</ele>
        <time>2025-06-29T08:50:23Z</time>
      </trkpt>
      <trkpt lat="42.88304" lon="1.19013">
        <ele>704.8</ele>
        <time>2025-06-29T08:50:24Z</time>
      </trkpt>
      <trkpt lat="42.88307" lon="1.19031">
        <ele>704.8</ele>
        <time>2025-06-29T08:50:29Z</time>
      </trkpt>
      <trkpt lat="42.8831" lon="1.19045">
        <ele>704.4</ele>
        <time>2025-06-29T08:50:32Z</time>
      </trkpt>
      <trkpt lat="42.88311" lon="1.19049">
        <ele>703.8</ele>
        <time>2025-06-29T08:50:33Z</time>
      </trkpt>
      <trkpt lat="42.88311" lon="1.19055">
        <ele>703.4</ele>
        <time>2025-06-29T08:50:34Z</time>
      </trkpt>
      <trkpt lat="42.88312" lon="1.19059">
        <ele>703</ele>
        <time>2025-06-29T08:50:35Z</time>
      </trkpt>
      <trkpt lat="42.88314" lon="1.19063">
        <ele>702.6</ele>
        <time>2025-06-29T08:50:36Z</time>
      </trkpt>
      <trkpt lat="42.88316" lon="1.19067">
        <ele>702.6</ele>
        <time>2025-06-29T08:50:37Z</time>
      </trkpt>
      <trkpt lat="42.88319" lon="1.19075">
        <ele>702.6</ele>
        <time>2025-06-29T08:50:39Z</time>
      </trkpt>
      <trkpt lat="42.88325" lon="1.19094">
        <ele>702.2</ele>
        <time>2025-06-29T08:50:43Z</time>
      </trkpt>
      <trkpt lat="42.88327" lon="1.19099">
        <ele>701.8</ele>
        <time>2025-06-29T08:50:44Z</time>
      </trkpt>
      <trkpt lat="42.88329" lon="1.19103">
        <ele>701.4</ele>
        <time>2025-06-29T08:50:45Z</time>
      </trkpt>
      <trkpt lat="42.8833" lon="1.19107">
        <ele>701</ele>
        <time>2025-06-29T08:50:46Z</time>
      </trkpt>
      <trkpt lat="42.88331" lon="1.19111">
        <ele>700.6</ele>
        <time>2025-06-29T08:50:47Z</time>
      </trkpt>
      <trkpt lat="42.88336" lon="1.19123">
        <ele>700.2</ele>
        <time>2025-06-29T08:50:51Z</time>
      </trkpt>
      <trkpt lat="42.88338" lon="1.19125">
        <ele>699.6</ele>
        <time>2025-06-29T08:50:52Z</time>
      </trkpt>
      <trkpt lat="42.8834" lon="1.19127">
        <ele>699.2</ele>
        <time>2025-06-29T08:50:53Z</time>
      </trkpt>
      <trkpt lat="42.88342" lon="1.1913">
        <ele>698.8</ele>
        <time>2025-06-29T08:50:54Z</time>
      </trkpt>
      <trkpt lat="42.88344" lon="1.19132">
        <ele>698.4</ele>
        <time>2025-06-29T08:50:55Z</time>
      </trkpt>
      <trkpt lat="42.88347" lon="1.19135">
        <ele>697.8</ele>
        <time>2025-06-29T08:50:56Z</time>
      </trkpt>
      <trkpt lat="42.88349" lon="1.19138">
        <ele>697.2</ele>
        <time>2025-06-29T08:50:57Z</time>
      </trkpt>
      <trkpt lat="42.88349" lon="1.19143">
        <ele>696.6</ele>
        <time>2025-06-29T08:50:58Z</time>
      </trkpt>
      <trkpt lat="42.8835" lon="1.19149">
        <ele>695.8</ele>
        <time>2025-06-29T08:50:59Z</time>
      </trkpt>
      <trkpt lat="42.88351" lon="1.19154">
        <ele>695</ele>
        <time>2025-06-29T08:51:00Z</time>
      </trkpt>
      <trkpt lat="42.88352" lon="1.19157">
        <ele>694.2</ele>
        <time>2025-06-29T08:51:01Z</time>
      </trkpt>
      <trkpt lat="42.88352" lon="1.19162">
        <ele>692.6</ele>
        <time>2025-06-29T08:51:02Z</time>
      </trkpt>
      <trkpt lat="42.88353" lon="1.19168">
        <ele>691.6</ele>
        <time>2025-06-29T08:51:03Z</time>
      </trkpt>
      <trkpt lat="42.88354" lon="1.19174">
        <ele>690.8</ele>
        <time>2025-06-29T08:51:04Z</time>
      </trkpt>
      <trkpt lat="42.88357" lon="1.19182">
        <ele>689.8</ele>
        <time>2025-06-29T08:51:05Z</time>
      </trkpt>
      <trkpt lat="42.88359" lon="1.19189">
        <ele>689</ele>
        <time>2025-06-29T08:51:06Z</time>
      </trkpt>
      <trkpt lat="42.88361" lon="1.19197">
        <ele>688.4</ele>
        <time>2025-06-29T08:51:07Z</time>
      </trkpt>
      <trkpt lat="42.88364" lon="1.19203">
        <ele>687.6</ele>
        <time>2025-06-29T08:51:08Z</time>
      </trkpt>
      <trkpt lat="42.88366" lon="1.1921">
        <ele>687</ele>
        <time>2025-06-29T08:51:09Z</time>
      </trkpt>
      <trkpt lat="42.88367" lon="1.19216">
        <ele>686.2</ele>
        <time>2025-06-29T08:51:10Z</time>
      </trkpt>
      <trkpt lat="42.88367" lon="1.19222">
        <ele>685.6</ele>
        <time>2025-06-29T08:51:11Z</time>
      </trkpt>
      <trkpt lat="42.88372" lon="1.19241">
        <ele>685.6</ele>
        <time>2025-06-29T08:51:15Z</time>
      </trkpt>
      <trkpt lat="42.88379" lon="1.19275">
        <ele>685.6</ele>
        <time>2025-06-29T08:51:22Z</time>
      </trkpt>
      <trkpt lat="42.88385" lon="1.19294">
        <ele>685.6</ele>
        <time>2025-06-29T08:51:27Z</time>
      </trkpt>
      <trkpt lat="42.88386" lon="1.19298">
        <ele>686</ele>
        <time>2025-06-29T08:51:28Z</time>
      </trkpt>
      <trkpt lat="42.88387" lon="1.19302">
        <ele>686.4</ele>
        <time>2025-06-29T08:51:29Z</time>
      </trkpt>
      <trkpt lat="42.88388" lon="1.19305">
        <ele>686.8</ele>
        <time>2025-06-29T08:51:30Z</time>
      </trkpt>
      <trkpt lat="42.88389" lon="1.19308">
        <ele>687.4</ele>
        <time>2025-06-29T08:51:31Z</time>
      </trkpt>
      <trkpt lat="42.8839" lon="1.19312">
        <ele>687.8</ele>
        <time>2025-06-29T08:51:32Z</time>
      </trkpt>
      <trkpt lat="42.88391" lon="1.19315">
        <ele>687.8</ele>
        <time>2025-06-29T08:51:33Z</time>
      </trkpt>
      <trkpt lat="42.88393" lon="1.19326">
        <ele>687.8</ele>
        <time>2025-06-29T08:51:36Z</time>
      </trkpt>
      <trkpt lat="42.88396" lon="1.19332">
        <ele>687.8</ele>
        <time>2025-06-29T08:51:38Z</time>
      </trkpt>
      <trkpt lat="42.88404" lon="1.1935">
        <ele>687.8</ele>
        <time>2025-06-29T08:51:44Z</time>
      </trkpt>
      <trkpt lat="42.8841" lon="1.19359">
        <ele>688.2</ele>
        <time>2025-06-29T08:51:47Z</time>
      </trkpt>
      <trkpt lat="42.88413" lon="1.19361">
        <ele>688.6</ele>
        <time>2025-06-29T08:51:48Z</time>
      </trkpt>
      <trkpt lat="42.88413" lon="1.19364">
        <ele>689</ele>
        <time>2025-06-29T08:51:49Z</time>
      </trkpt>
      <trkpt lat="42.88414" lon="1.19368">
        <ele>689.4</ele>
        <time>2025-06-29T08:51:50Z</time>
      </trkpt>
      <trkpt lat="42.88415" lon="1.19372">
        <ele>689.8</ele>
        <time>2025-06-29T08:51:51Z</time>
      </trkpt>
      <trkpt lat="42.88416" lon="1.19385">
        <ele>689.8</ele>
        <time>2025-06-29T08:51:55Z</time>
      </trkpt>
      <trkpt lat="42.88415" lon="1.19401">
        <ele>689.8</ele>
        <time>2025-06-29T08:51:59Z</time>
      </trkpt>
      <trkpt lat="42.88413" lon="1.19408">
        <ele>689.8</ele>
        <time>2025-06-29T08:52:01Z</time>
      </trkpt>
      <trkpt lat="42.8841" lon="1.19426">
        <ele>689.8</ele>
        <time>2025-06-29T08:52:06Z</time>
      </trkpt>
      <trkpt lat="42.8841" lon="1.19431">
        <ele>689.4</ele>
        <time>2025-06-29T08:52:08Z</time>
      </trkpt>
      <trkpt lat="42.8841" lon="1.19433">
        <ele>688.8</ele>
        <time>2025-06-29T08:52:09Z</time>
      </trkpt>
      <trkpt lat="42.8841" lon="1.19435">
        <ele>688.4</ele>
        <time>2025-06-29T08:52:10Z</time>
      </trkpt>
      <trkpt lat="42.8841" lon="1.19438">
        <ele>688</ele>
        <time>2025-06-29T08:52:11Z</time>
      </trkpt>
      <trkpt lat="42.8841" lon="1.19442">
        <ele>687.6</ele>
        <time>2025-06-29T08:52:12Z</time>
      </trkpt>
      <trkpt lat="42.8841" lon="1.19448">
        <ele>687.6</ele>
        <time>2025-06-29T08:52:14Z</time>
      </trkpt>
      <trkpt lat="42.88411" lon="1.19451">
        <ele>687</ele>
        <time>2025-06-29T08:52:15Z</time>
      </trkpt>
      <trkpt lat="42.88412" lon="1.19455">
        <ele>686.2</ele>
        <time>2025-06-29T08:52:16Z</time>
      </trkpt>
      <trkpt lat="42.88412" lon="1.19457">
        <ele>685.6</ele>
        <time>2025-06-29T08:52:17Z</time>
      </trkpt>
      <trkpt lat="42.88413" lon="1.1946">
        <ele>685.2</ele>
        <time>2025-06-29T08:52:18Z</time>
      </trkpt>
      <trkpt lat="42.88414" lon="1.19464">
        <ele>684.8</ele>
        <time>2025-06-29T08:52:20Z</time>
      </trkpt>
      <trkpt lat="42.88423" lon="1.19484">
        <ele>681.6</ele>
        <time>2025-06-29T08:52:28Z</time>
      </trkpt>
      <trkpt lat="42.88425" lon="1.19489">
        <ele>681.2</ele>
        <time>2025-06-29T08:52:29Z</time>
      </trkpt>
      <trkpt lat="42.88426" lon="1.19494">
        <ele>680.8</ele>
        <time>2025-06-29T08:52:30Z</time>
      </trkpt>
      <trkpt lat="42.8843" lon="1.19499">
        <ele>680.4</ele>
        <time>2025-06-29T08:52:31Z</time>
      </trkpt>
      <trkpt lat="42.88433" lon="1.19503">
        <ele>680</ele>
        <time>2025-06-29T08:52:32Z</time>
      </trkpt>
      <trkpt lat="42.88433" lon="1.19506">
        <ele>679.4</ele>
        <time>2025-06-29T08:52:33Z</time>
      </trkpt>
      <trkpt lat="42.88434" lon="1.19508">
        <ele>679</ele>
        <time>2025-06-29T08:52:34Z</time>
      </trkpt>
      <trkpt lat="42.88435" lon="1.19508">
        <ele>679</ele>
        <time>2025-06-29T08:52:35Z</time>
      </trkpt>
      <trkpt lat="42.88431" lon="1.19506">
        <ele>679</ele>
        <time>2025-06-29T08:53:12Z</time>
      </trkpt>
      <trkpt lat="42.8843" lon="1.19504">
        <ele>679</ele>
        <time>2025-06-29T08:53:13Z</time>
      </trkpt>
      <trkpt lat="42.88428" lon="1.19498">
        <ele>679</ele>
        <time>2025-06-29T08:53:16Z</time>
      </trkpt>
      <trkpt lat="42.88427" lon="1.19495">
        <ele>679</ele>
        <time>2025-06-29T08:53:18Z</time>
      </trkpt>
      <trkpt lat="42.88428" lon="1.19493">
        <ele>679</ele>
        <time>2025-06-29T08:53:20Z</time>
      </trkpt>
      <trkpt lat="42.8843" lon="1.1949">
        <ele>679</ele>
        <time>2025-06-29T08:53:50Z</time>
      </trkpt>
      <trkpt lat="42.88431" lon="1.19487">
        <ele>679</ele>
        <time>2025-06-29T08:53:51Z</time>
      </trkpt>
      <trkpt lat="42.88434" lon="1.19483">
        <ele>679</ele>
        <time>2025-06-29T08:53:54Z</time>
      </trkpt>
      <trkpt lat="42.88438" lon="1.19472">
        <ele>681.2</ele>
        <time>2025-06-29T08:54:35Z</time>
      </trkpt>
      <trkpt lat="42.88439" lon="1.19469">
        <ele>681.2</ele>
        <time>2025-06-29T08:54:36Z</time>
      </trkpt>
      <trkpt lat="42.88442" lon="1.19464">
        <ele>681.2</ele>
        <time>2025-06-29T08:54:39Z</time>
      </trkpt>
      <trkpt lat="42.8847" lon="1.19436">
        <ele>680.2</ele>
        <time>2025-06-29T08:55:22Z</time>
      </trkpt>
      <trkpt lat="42.88472" lon="1.19435">
        <ele>679.8</ele>
        <time>2025-06-29T08:55:23Z</time>
      </trkpt>
      <trkpt lat="42.88474" lon="1.19433">
        <ele>679.4</ele>
        <time>2025-06-29T08:55:24Z</time>
      </trkpt>
      <trkpt lat="42.88476" lon="1.19432">
        <ele>679</ele>
        <time>2025-06-29T08:55:25Z</time>
      </trkpt>
      <trkpt lat="42.88478" lon="1.19431">
        <ele>678.4</ele>
        <time>2025-06-29T08:55:26Z</time>
      </trkpt>
      <trkpt lat="42.88481" lon="1.19431">
        <ele>678</ele>
        <time>2025-06-29T08:55:27Z</time>
      </trkpt>
      <trkpt lat="42.88483" lon="1.1943">
        <ele>677.4</ele>
        <time>2025-06-29T08:55:28Z</time>
      </trkpt>
      <trkpt lat="42.88485" lon="1.19429">
        <ele>677</ele>
        <time>2025-06-29T08:55:29Z</time>
      </trkpt>
      <trkpt lat="42.88486" lon="1.19429">
        <ele>676.4</ele>
        <time>2025-06-29T08:55:30Z</time>
      </trkpt>
      <trkpt lat="42.88487" lon="1.19428">
        <ele>676</ele>
        <time>2025-06-29T08:55:31Z</time>
      </trkpt>
      <trkpt lat="42.88468" lon="1.19445">
        <ele>680.8</ele>
        <time>2025-06-29T08:57:30Z</time>
      </trkpt>
      <trkpt lat="42.88465" lon="1.19449">
        <ele>680.8</ele>
        <time>2025-06-29T08:57:32Z</time>
      </trkpt>
      <trkpt lat="42.88455" lon="1.19456">
        <ele>680.8</ele>
        <time>2025-06-29T08:57:37Z</time>
      </trkpt>
      <trkpt lat="42.88449" lon="1.19463">
        <ele>680.8</ele>
        <time>2025-06-29T08:58:02Z</time>
      </trkpt>
      <trkpt lat="42.88443" lon="1.1947">
        <ele>680.8</ele>
        <time>2025-06-29T08:58:06Z</time>
      </trkpt>
      <trkpt lat="42.88441" lon="1.19472">
        <ele>680.8</ele>
        <time>2025-06-29T08:58:08Z</time>
      </trkpt>
      <trkpt lat="42.88435" lon="1.19496">
        <ele>680.8</ele>
        <time>2025-06-29T09:00:05Z</time>
      </trkpt>
      <trkpt lat="42.88435" lon="1.195">
        <ele>680.8</ele>
        <time>2025-06-29T09:00:06Z</time>
      </trkpt>
      <trkpt lat="42.88441" lon="1.19512">
        <ele>680.8</ele>
        <time>2025-06-29T09:00:10Z</time>
      </trkpt>
      <trkpt lat="42.88441" lon="1.19512">
        <ele>680.8</ele>
        <time>2025-06-29T09:00:11Z</time>
      </trkpt>
      <trkpt lat="42.8844" lon="1.19521">
        <ele>680.8</ele>
        <time>2025-06-29T09:00:48Z</time>
      </trkpt>
      <trkpt lat="42.88439" lon="1.19522">
        <ele>680.8</ele>
        <time>2025-06-29T09:00:49Z</time>
      </trkpt>
      <trkpt lat="42.88442" lon="1.19523">
        <ele>678.8</ele>
        <time>2025-06-29T09:03:08Z</time>
      </trkpt>
      <trkpt lat="42.88443" lon="1.19528">
        <ele>678.8</ele>
        <time>2025-06-29T09:03:10Z</time>
      </trkpt>
      <trkpt lat="42.88448" lon="1.19548">
        <ele>678.8</ele>
        <time>2025-06-29T09:03:15Z</time>
      </trkpt>
      <trkpt lat="42.88449" lon="1.19566">
        <ele>678.8</ele>
        <time>2025-06-29T09:03:20Z</time>
      </trkpt>
      <trkpt lat="42.8845" lon="1.19567">
        <ele>678.8</ele>
        <time>2025-06-29T09:03:21Z</time>
      </trkpt>
      <trkpt lat="42.88451" lon="1.19573">
        <ele>678.8</ele>
        <time>2025-06-29T09:03:24Z</time>
      </trkpt>
      <trkpt lat="42.88453" lon="1.19575">
        <ele>678.8</ele>
        <time>2025-06-29T09:03:27Z</time>
      </trkpt>
      <trkpt lat="42.88454" lon="1.19578">
        <ele>678.8</ele>
        <time>2025-06-29T09:03:39Z</time>
      </trkpt>
      <trkpt lat="42.88457" lon="1.19583">
        <ele>678.8</ele>
        <time>2025-06-29T09:03:42Z</time>
      </trkpt>
      <trkpt lat="42.88457" lon="1.19586">
        <ele>678.8</ele>
        <time>2025-06-29T09:03:43Z</time>
      </trkpt>
      <trkpt lat="42.88458" lon="1.1959">
        <ele>679.2</ele>
        <time>2025-06-29T09:03:44Z</time>
      </trkpt>
      <trkpt lat="42.88458" lon="1.19594">
        <ele>679.6</ele>
        <time>2025-06-29T09:03:45Z</time>
      </trkpt>
      <trkpt lat="42.88459" lon="1.19598">
        <ele>680</ele>
        <time>2025-06-29T09:03:46Z</time>
      </trkpt>
      <trkpt lat="42.8846" lon="1.19602">
        <ele>680.4</ele>
        <time>2025-06-29T09:03:47Z</time>
      </trkpt>
      <trkpt lat="42.88461" lon="1.19605">
        <ele>680.8</ele>
        <time>2025-06-29T09:03:48Z</time>
      </trkpt>
      <trkpt lat="42.88461" lon="1.19609">
        <ele>680.8</ele>
        <time>2025-06-29T09:03:49Z</time>
      </trkpt>
      <trkpt lat="42.8846" lon="1.19618">
        <ele>680.8</ele>
        <time>2025-06-29T09:03:54Z</time>
      </trkpt>
      <trkpt lat="42.88458" lon="1.1962">
        <ele>680.8</ele>
        <time>2025-06-29T09:04:10Z</time>
      </trkpt>
      <trkpt lat="42.88457" lon="1.19621">
        <ele>680.8</ele>
        <time>2025-06-29T09:04:12Z</time>
      </trkpt>
      <trkpt lat="42.88454" lon="1.19607">
        <ele>680.8</ele>
        <time>2025-06-29T09:05:39Z</time>
      </trkpt>
      <trkpt lat="42.88453" lon="1.196">
        <ele>680.8</ele>
        <time>2025-06-29T09:05:41Z</time>
      </trkpt>
      <trkpt lat="42.88449" lon="1.19586">
        <ele>680.8</ele>
        <time>2025-06-29T09:05:46Z</time>
      </trkpt>
      <trkpt lat="42.88447" lon="1.19583">
        <ele>680.4</ele>
        <time>2025-06-29T09:05:49Z</time>
      </trkpt>
      <trkpt lat="42.88447" lon="1.19581">
        <ele>680</ele>
        <time>2025-06-29T09:05:50Z</time>
      </trkpt>
      <trkpt lat="42.88448" lon="1.19581">
        <ele>679.6</ele>
        <time>2025-06-29T09:05:51Z</time>
      </trkpt>
      <trkpt lat="42.88453" lon="1.19603">
        <ele>678.8</ele>
        <time>2025-06-29T09:11:19Z</time>
      </trkpt>
      <trkpt lat="42.88456" lon="1.19617">
        <ele>678.8</ele>
        <time>2025-06-29T09:11:25Z</time>
      </trkpt>
      <trkpt lat="42.88457" lon="1.19625">
        <ele>679.2</ele>
        <time>2025-06-29T09:11:28Z</time>
      </trkpt>
      <trkpt lat="42.88458" lon="1.19627">
        <ele>679.6</ele>
        <time>2025-06-29T09:11:29Z</time>
      </trkpt>
      <trkpt lat="42.88458" lon="1.19629">
        <ele>680</ele>
        <time>2025-06-29T09:11:30Z</time>
      </trkpt>
      <trkpt lat="42.88458" lon="1.19631">
        <ele>680.4</ele>
        <time>2025-06-29T09:11:31Z</time>
      </trkpt>
      <trkpt lat="42.88458" lon="1.19633">
        <ele>680.8</ele>
        <time>2025-06-29T09:11:32Z</time>
      </trkpt>
      <trkpt lat="42.88458" lon="1.19651">
        <ele>680.8</ele>
        <time>2025-06-29T09:11:38Z</time>
      </trkpt>
      <trkpt lat="42.88461" lon="1.19662">
        <ele>680.8</ele>
        <time>2025-06-29T09:11:44Z</time>
      </trkpt>
      <trkpt lat="42.8846" lon="1.19663">
        <ele>680.8</ele>
        <time>2025-06-29T09:11:45Z</time>
      </trkpt>
      <trkpt lat="42.88458" lon="1.19669">
        <ele>680.8</ele>
        <time>2025-06-29T09:11:48Z</time>
      </trkpt>
      <trkpt lat="42.88455" lon="1.1968">
        <ele>680.8</ele>
        <time>2025-06-29T09:11:52Z</time>
      </trkpt>
      <trkpt lat="42.88454" lon="1.19683">
        <ele>680.8</ele>
        <time>2025-06-29T09:11:53Z</time>
      </trkpt>
      <trkpt lat="42.88448" lon="1.19702">
        <ele>680.8</ele>
        <time>2025-06-29T09:12:00Z</time>
      </trkpt>
      <trkpt lat="42.88446" lon="1.19719">
        <ele>681.2</ele>
        <time>2025-06-29T09:12:06Z</time>
      </trkpt>
      <trkpt lat="42.88446" lon="1.19722">
        <ele>681.6</ele>
        <time>2025-06-29T09:12:07Z</time>
      </trkpt>
      <trkpt lat="42.88445" lon="1.19725">
        <ele>682</ele>
        <time>2025-06-29T09:12:08Z</time>
      </trkpt>
      <trkpt lat="42.88444" lon="1.19728">
        <ele>682.4</ele>
        <time>2025-06-29T09:12:09Z</time>
      </trkpt>
      <trkpt lat="42.88444" lon="1.19731">
        <ele>682.8</ele>
        <time>2025-06-29T09:12:10Z</time>
      </trkpt>
      <trkpt lat="42.88439" lon="1.1975">
        <ele>682.8</ele>
        <time>2025-06-29T09:12:17Z</time>
      </trkpt>
      <trkpt lat="42.88436" lon="1.19757">
        <ele>682.8</ele>
        <time>2025-06-29T09:12:20Z</time>
      </trkpt>
      <trkpt lat="42.88434" lon="1.19759">
        <ele>682.8</ele>
        <time>2025-06-29T09:12:22Z</time>
      </trkpt>
      <trkpt lat="42.88432" lon="1.1976">
        <ele>682.8</ele>
        <time>2025-06-29T09:12:24Z</time>
      </trkpt>
      <trkpt lat="42.88431" lon="1.1976">
        <ele>682.8</ele>
        <time>2025-06-29T09:12:52Z</time>
      </trkpt>
      <trkpt lat="42.8843" lon="1.1976">
        <ele>682.8</ele>
        <time>2025-06-29T09:12:53Z</time>
      </trkpt>
      <trkpt lat="42.88428" lon="1.1976">
        <ele>682.4</ele>
        <time>2025-06-29T09:12:54Z</time>
      </trkpt>
      <trkpt lat="42.88425" lon="1.19761">
        <ele>682</ele>
        <time>2025-06-29T09:12:55Z</time>
      </trkpt>
      <trkpt lat="42.88422" lon="1.19762">
        <ele>681.6</ele>
        <time>2025-06-29T09:12:56Z</time>
      </trkpt>
      <trkpt lat="42.88418" lon="1.19764">
        <ele>681.2</ele>
        <time>2025-06-29T09:12:57Z</time>
      </trkpt>
      <trkpt lat="42.88416" lon="1.19764">
        <ele>680.8</ele>
        <time>2025-06-29T09:12:58Z</time>
      </trkpt>
      <trkpt lat="42.88414" lon="1.19765">
        <ele>680.2</ele>
        <time>2025-06-29T09:12:59Z</time>
      </trkpt>
      <trkpt lat="42.88412" lon="1.19765">
        <ele>679.8</ele>
        <time>2025-06-29T09:13:00Z</time>
      </trkpt>
      <trkpt lat="42.88411" lon="1.19765">
        <ele>679.2</ele>
        <time>2025-06-29T09:13:01Z</time>
      </trkpt>
      <trkpt lat="42.88408" lon="1.19766">
        <ele>678.6</ele>
        <time>2025-06-29T09:13:02Z</time>
      </trkpt>
      <trkpt lat="42.88406" lon="1.19767">
        <ele>678.2</ele>
        <time>2025-06-29T09:13:03Z</time>
      </trkpt>
      <trkpt lat="42.88402" lon="1.19769">
        <ele>677.6</ele>
        <time>2025-06-29T09:13:04Z</time>
      </trkpt>
      <trkpt lat="42.88399" lon="1.1977">
        <ele>677</ele>
        <time>2025-06-29T09:13:05Z</time>
      </trkpt>
      <trkpt lat="42.88397" lon="1.19772">
        <ele>676.4</ele>
        <time>2025-06-29T09:13:06Z</time>
      </trkpt>
      <trkpt lat="42.88394" lon="1.19774">
        <ele>675.8</ele>
        <time>2025-06-29T09:13:07Z</time>
      </trkpt>
      <trkpt lat="42.88392" lon="1.19775">
        <ele>675</ele>
        <time>2025-06-29T09:13:08Z</time>
      </trkpt>
      <trkpt lat="42.8839" lon="1.19775">
        <ele>674.2</ele>
        <time>2025-06-29T09:13:09Z</time>
      </trkpt>
      <trkpt lat="42.88389" lon="1.19775">
        <ele>673.6</ele>
        <time>2025-06-29T09:13:10Z</time>
      </trkpt>
      <trkpt lat="42.88386" lon="1.19776">
        <ele>672.8</ele>
        <time>2025-06-29T09:13:11Z</time>
      </trkpt>
      <trkpt lat="42.88385" lon="1.19777">
        <ele>671.6</ele>
        <time>2025-06-29T09:13:12Z</time>
      </trkpt>
      <trkpt lat="42.88383" lon="1.19778">
        <ele>671</ele>
        <time>2025-06-29T09:13:13Z</time>
      </trkpt>
      <trkpt lat="42.88381" lon="1.19777">
        <ele>670.4</ele>
        <time>2025-06-29T09:13:14Z</time>
      </trkpt>
      <trkpt lat="42.88378" lon="1.19776">
        <ele>669.8</ele>
        <time>2025-06-29T09:13:15Z</time>
      </trkpt>
      <trkpt lat="42.88377" lon="1.19775">
        <ele>669.2</ele>
        <time>2025-06-29T09:13:16Z</time>
      </trkpt>
      <trkpt lat="42.88375" lon="1.19774">
        <ele>668.6</ele>
        <time>2025-06-29T09:13:17Z</time>
      </trkpt>
      <trkpt lat="42.88374" lon="1.19772">
        <ele>668</ele>
        <time>2025-06-29T09:13:18Z</time>
      </trkpt>
      <trkpt lat="42.88372" lon="1.1977">
        <ele>667.4</ele>
        <time>2025-06-29T09:13:19Z</time>
      </trkpt>
      <trkpt lat="42.88371" lon="1.19769">
        <ele>666.6</ele>
        <time>2025-06-29T09:13:20Z</time>
      </trkpt>
      <trkpt lat="42.8837" lon="1.19768">
        <ele>666</ele>
        <time>2025-06-29T09:13:21Z</time>
      </trkpt>
      <trkpt lat="42.88368" lon="1.19766">
        <ele>665.4</ele>
        <time>2025-06-29T09:13:22Z</time>
      </trkpt>
      <trkpt lat="42.88367" lon="1.19764">
        <ele>664.6</ele>
        <time>2025-06-29T09:13:23Z</time>
      </trkpt>
      <trkpt lat="42.88366" lon="1.19762">
        <ele>664</ele>
        <time>2025-06-29T09:13:24Z</time>
      </trkpt>
      <trkpt lat="42.88364" lon="1.19761">
        <ele>663.2</ele>
        <time>2025-06-29T09:13:25Z</time>
      </trkpt>
      <trkpt lat="42.88363" lon="1.19758">
        <ele>662.8</ele>
        <time>2025-06-29T09:13:26Z</time>
      </trkpt>
      <trkpt lat="42.88362" lon="1.19755">
        <ele>662.2</ele>
        <time>2025-06-29T09:13:27Z</time>
      </trkpt>
      <trkpt lat="42.8836" lon="1.19754">
        <ele>661.6</ele>
        <time>2025-06-29T09:13:28Z</time>
      </trkpt>
      <trkpt lat="42.88358" lon="1.19751">
        <ele>661.2</ele>
        <time>2025-06-29T09:13:29Z</time>
      </trkpt>
      <trkpt lat="42.88357" lon="1.19749">
        <ele>660.6</ele>
        <time>2025-06-29T09:13:30Z</time>
      </trkpt>
      <trkpt lat="42.88356" lon="1.19747">
        <ele>660</ele>
        <time>2025-06-29T09:13:31Z</time>
      </trkpt>
      <trkpt lat="42.88354" lon="1.19744">
        <ele>659.6</ele>
        <time>2025-06-29T09:13:32Z</time>
      </trkpt>
      <trkpt lat="42.88353" lon="1.19741">
        <ele>659</ele>
        <time>2025-06-29T09:13:33Z</time>
      </trkpt>
      <trkpt lat="42.88351" lon="1.19739">
        <ele>658.4</ele>
        <time>2025-06-29T09:13:34Z</time>
      </trkpt>
      <trkpt lat="42.88349" lon="1.19738">
        <ele>657.8</ele>
        <time>2025-06-29T09:13:35Z</time>
      </trkpt>
      <trkpt lat="42.88347" lon="1.19737">
        <ele>657.2</ele>
        <time>2025-06-29T09:13:36Z</time>
      </trkpt>
      <trkpt lat="42.88344" lon="1.19736">
        <ele>656</ele>
        <time>2025-06-29T09:13:37Z</time>
      </trkpt>
      <trkpt lat="42.88341" lon="1.19735">
        <ele>655.4</ele>
        <time>2025-06-29T09:13:38Z</time>
      </trkpt>
      <trkpt lat="42.88338" lon="1.19734">
        <ele>654.8</ele>
        <time>2025-06-29T09:13:39Z</time>
      </trkpt>
      <trkpt lat="42.88335" lon="1.19733">
        <ele>654.2</ele>
        <time>2025-06-29T09:13:40Z</time>
      </trkpt>
      <trkpt lat="42.88333" lon="1.19732">
        <ele>653.6</ele>
        <time>2025-06-29T09:13:41Z</time>
      </trkpt>
      <trkpt lat="42.88331" lon="1.1973">
        <ele>653</ele>
        <time>2025-06-29T09:13:42Z</time>
      </trkpt>
      <trkpt lat="42.88329" lon="1.1973">
        <ele>652.4</ele>
        <time>2025-06-29T09:13:43Z</time>
      </trkpt>
      <trkpt lat="42.88328" lon="1.19729">
        <ele>651.8</ele>
        <time>2025-06-29T09:13:44Z</time>
      </trkpt>
      <trkpt lat="42.88326" lon="1.19729">
        <ele>651.2</ele>
        <time>2025-06-29T09:13:45Z</time>
      </trkpt>
      <trkpt lat="42.88325" lon="1.19729">
        <ele>650.6</ele>
        <time>2025-06-29T09:13:46Z</time>
      </trkpt>
      <trkpt lat="42.88324" lon="1.19729">
        <ele>650</ele>
        <time>2025-06-29T09:13:47Z</time>
      </trkpt>
      <trkpt lat="42.88323" lon="1.19727">
        <ele>649.4</ele>
        <time>2025-06-29T09:13:48Z</time>
      </trkpt>
      <trkpt lat="42.88322" lon="1.19726">
        <ele>649</ele>
        <time>2025-06-29T09:13:49Z</time>
      </trkpt>
      <trkpt lat="42.88321" lon="1.19726">
        <ele>648.4</ele>
        <time>2025-06-29T09:13:50Z</time>
      </trkpt>
      <trkpt lat="42.88319" lon="1.19725">
        <ele>648</ele>
        <time>2025-06-29T09:13:51Z</time>
      </trkpt>
      <trkpt lat="42.88318" lon="1.19726">
        <ele>647.6</ele>
        <time>2025-06-29T09:13:52Z</time>
      </trkpt>
      <trkpt lat="42.88317" lon="1.19727">
        <ele>647</ele>
        <time>2025-06-29T09:13:53Z</time>
      </trkpt>
      <trkpt lat="42.88316" lon="1.19729">
        <ele>646.6</ele>
        <time>2025-06-29T09:13:54Z</time>
      </trkpt>
      <trkpt lat="42.88316" lon="1.19731">
        <ele>646.6</ele>
        <time>2025-06-29T09:13:55Z</time>
      </trkpt>
      <trkpt lat="42.88311" lon="1.19743">
        <ele>646.6</ele>
        <time>2025-06-29T09:14:01Z</time>
      </trkpt>
      <trkpt lat="42.88309" lon="1.19751">
        <ele>646.6</ele>
        <time>2025-06-29T09:14:04Z</time>
      </trkpt>
      <trkpt lat="42.88309" lon="1.19755">
        <ele>646.6</ele>
        <time>2025-06-29T09:14:06Z</time>
      </trkpt>
      <trkpt lat="42.88307" lon="1.19764">
        <ele>646.6</ele>
        <time>2025-06-29T09:14:09Z</time>
      </trkpt>
      <trkpt lat="42.88304" lon="1.19771">
        <ele>646.6</ele>
        <time>2025-06-29T09:14:12Z</time>
      </trkpt>
      <trkpt lat="42.88302" lon="1.19782">
        <ele>646.6</ele>
        <time>2025-06-29T09:14:15Z</time>
      </trkpt>
      <trkpt lat="42.88302" lon="1.19796">
        <ele>646.6</ele>
        <time>2025-06-29T09:14:18Z</time>
      </trkpt>
      <trkpt lat="42.88305" lon="1.19809">
        <ele>646.2</ele>
        <time>2025-06-29T09:14:22Z</time>
      </trkpt>
      <trkpt lat="42.88306" lon="1.19813">
        <ele>645.8</ele>
        <time>2025-06-29T09:14:23Z</time>
      </trkpt>
      <trkpt lat="42.88308" lon="1.19816">
        <ele>645.4</ele>
        <time>2025-06-29T09:14:24Z</time>
      </trkpt>
      <trkpt lat="42.88309" lon="1.19821">
        <ele>645</ele>
        <time>2025-06-29T09:14:25Z</time>
      </trkpt>
      <trkpt lat="42.8831" lon="1.19823">
        <ele>644.6</ele>
        <time>2025-06-29T09:14:26Z</time>
      </trkpt>
      <trkpt lat="42.88316" lon="1.19833">
        <ele>644</ele>
        <time>2025-06-29T09:14:29Z</time>
      </trkpt>
      <trkpt lat="42.88317" lon="1.19836">
        <ele>643.6</ele>
        <time>2025-06-29T09:14:30Z</time>
      </trkpt>
      <trkpt lat="42.88318" lon="1.19838">
        <ele>643.2</ele>
        <time>2025-06-29T09:14:31Z</time>
      </trkpt>
      <trkpt lat="42.8832" lon="1.19841">
        <ele>642.6</ele>
        <time>2025-06-29T09:14:32Z</time>
      </trkpt>
      <trkpt lat="42.88322" lon="1.19844">
        <ele>642.2</ele>
        <time>2025-06-29T09:14:33Z</time>
      </trkpt>
      <trkpt lat="42.88323" lon="1.19847">
        <ele>641.8</ele>
        <time>2025-06-29T09:14:34Z</time>
      </trkpt>
      <trkpt lat="42.88324" lon="1.1985">
        <ele>641.2</ele>
        <time>2025-06-29T09:14:35Z</time>
      </trkpt>
      <trkpt lat="42.88325" lon="1.19853">
        <ele>640.8</ele>
        <time>2025-06-29T09:14:36Z</time>
      </trkpt>
      <trkpt lat="42.88327" lon="1.19856">
        <ele>640.2</ele>
        <time>2025-06-29T09:14:37Z</time>
      </trkpt>
      <trkpt lat="42.88328" lon="1.19859">
        <ele>639.8</ele>
        <time>2025-06-29T09:14:38Z</time>
      </trkpt>
      <trkpt lat="42.8833" lon="1.19862">
        <ele>639.4</ele>
        <time>2025-06-29T09:14:39Z</time>
      </trkpt>
      <trkpt lat="42.88333" lon="1.19866">
        <ele>638.8</ele>
        <time>2025-06-29T09:14:40Z</time>
      </trkpt>
      <trkpt lat="42.88336" lon="1.19868">
        <ele>638.4</ele>
        <time>2025-06-29T09:14:41Z</time>
      </trkpt>
      <trkpt lat="42.88337" lon="1.1987">
        <ele>638</ele>
        <time>2025-06-29T09:14:42Z</time>
      </trkpt>
      <trkpt lat="42.88339" lon="1.19872">
        <ele>637.4</ele>
        <time>2025-06-29T09:14:43Z</time>
      </trkpt>
      <trkpt lat="42.88345" lon="1.19883">
        <ele>637.4</ele>
        <time>2025-06-29T09:14:47Z</time>
      </trkpt>
      <trkpt lat="42.88348" lon="1.199">
        <ele>637.4</ele>
        <time>2025-06-29T09:14:53Z</time>
      </trkpt>
      <trkpt lat="42.88345" lon="1.19917">
        <ele>637.4</ele>
        <time>2025-06-29T09:14:58Z</time>
      </trkpt>
      <trkpt lat="42.88337" lon="1.19939">
        <ele>637.4</ele>
        <time>2025-06-29T09:15:04Z</time>
      </trkpt>
      <trkpt lat="42.88335" lon="1.19945">
        <ele>637</ele>
        <time>2025-06-29T09:15:05Z</time>
      </trkpt>
      <trkpt lat="42.88334" lon="1.1995">
        <ele>636.6</ele>
        <time>2025-06-29T09:15:06Z</time>
      </trkpt>
      <trkpt lat="42.88332" lon="1.19955">
        <ele>636.2</ele>
        <time>2025-06-29T09:15:07Z</time>
      </trkpt>
      <trkpt lat="42.8833" lon="1.1996">
        <ele>635.8</ele>
        <time>2025-06-29T09:15:08Z</time>
      </trkpt>
      <trkpt lat="42.88329" lon="1.19964">
        <ele>635.4</ele>
        <time>2025-06-29T09:15:09Z</time>
      </trkpt>
      <trkpt lat="42.88324" lon="1.19988">
        <ele>635.4</ele>
        <time>2025-06-29T09:15:14Z</time>
      </trkpt>
      <trkpt lat="42.88322" lon="1.20008">
        <ele>635</ele>
        <time>2025-06-29T09:15:18Z</time>
      </trkpt>
      <trkpt lat="42.88322" lon="1.20014">
        <ele>634.6</ele>
        <time>2025-06-29T09:15:19Z</time>
      </trkpt>
      <trkpt lat="42.88322" lon="1.20018">
        <ele>634.2</ele>
        <time>2025-06-29T09:15:20Z</time>
      </trkpt>
      <trkpt lat="42.88323" lon="1.20022">
        <ele>633.6</ele>
        <time>2025-06-29T09:15:21Z</time>
      </trkpt>
      <trkpt lat="42.88324" lon="1.20025">
        <ele>633.2</ele>
        <time>2025-06-29T09:15:22Z</time>
      </trkpt>
      <trkpt lat="42.88324" lon="1.20028">
        <ele>632.8</ele>
        <time>2025-06-29T09:15:23Z</time>
      </trkpt>
      <trkpt lat="42.88325" lon="1.20029">
        <ele>632.4</ele>
        <time>2025-06-29T09:15:24Z</time>
      </trkpt>
      <trkpt lat="42.88325" lon="1.2003">
        <ele>632</ele>
        <time>2025-06-29T09:15:25Z</time>
      </trkpt>
      <trkpt lat="42.88326" lon="1.20032">
        <ele>631.4</ele>
        <time>2025-06-29T09:15:26Z</time>
      </trkpt>
      <trkpt lat="42.88326" lon="1.20035">
        <ele>631</ele>
        <time>2025-06-29T09:15:27Z</time>
      </trkpt>
      <trkpt lat="42.88331" lon="1.20044">
        <ele>630.6</ele>
        <time>2025-06-29T09:15:30Z</time>
      </trkpt>
      <trkpt lat="42.88333" lon="1.20048">
        <ele>630.2</ele>
        <time>2025-06-29T09:15:31Z</time>
      </trkpt>
      <trkpt lat="42.88335" lon="1.20054">
        <ele>629.6</ele>
        <time>2025-06-29T09:15:32Z</time>
      </trkpt>
      <trkpt lat="42.88336" lon="1.2006">
        <ele>629.2</ele>
        <time>2025-06-29T09:15:33Z</time>
      </trkpt>
      <trkpt lat="42.88336" lon="1.20067">
        <ele>628.8</ele>
        <time>2025-06-29T09:15:34Z</time>
      </trkpt>
      <trkpt lat="42.88337" lon="1.20073">
        <ele>628.8</ele>
        <time>2025-06-29T09:15:35Z</time>
      </trkpt>
      <trkpt lat="42.88337" lon="1.20092">
        <ele>628.8</ele>
        <time>2025-06-29T09:15:39Z</time>
      </trkpt>
      <trkpt lat="42.88338" lon="1.20112">
        <ele>628.8</ele>
        <time>2025-06-29T09:15:44Z</time>
      </trkpt>
      <trkpt lat="42.88343" lon="1.20128">
        <ele>628.8</ele>
        <time>2025-06-29T09:15:48Z</time>
      </trkpt>
      <trkpt lat="42.88344" lon="1.20131">
        <ele>629.2</ele>
        <time>2025-06-29T09:15:49Z</time>
      </trkpt>
      <trkpt lat="42.88345" lon="1.20134">
        <ele>629.6</ele>
        <time>2025-06-29T09:15:50Z</time>
      </trkpt>
      <trkpt lat="42.88346" lon="1.20136">
        <ele>630</ele>
        <time>2025-06-29T09:15:51Z</time>
      </trkpt>
      <trkpt lat="42.88347" lon="1.20139">
        <ele>630.4</ele>
        <time>2025-06-29T09:15:52Z</time>
      </trkpt>
      <trkpt lat="42.88349" lon="1.20141">
        <ele>630.8</ele>
        <time>2025-06-29T09:15:53Z</time>
      </trkpt>
      <trkpt lat="42.88352" lon="1.20147">
        <ele>630.8</ele>
        <time>2025-06-29T09:15:55Z</time>
      </trkpt>
      <trkpt lat="42.88356" lon="1.20152">
        <ele>631.2</ele>
        <time>2025-06-29T09:15:57Z</time>
      </trkpt>
      <trkpt lat="42.88357" lon="1.20155">
        <ele>631.8</ele>
        <time>2025-06-29T09:15:58Z</time>
      </trkpt>
      <trkpt lat="42.88359" lon="1.20157">
        <ele>632.2</ele>
        <time>2025-06-29T09:15:59Z</time>
      </trkpt>
      <trkpt lat="42.88359" lon="1.2016">
        <ele>632.6</ele>
        <time>2025-06-29T09:16:00Z</time>
      </trkpt>
      <trkpt lat="42.88361" lon="1.20162">
        <ele>633</ele>
        <time>2025-06-29T09:16:01Z</time>
      </trkpt>
      <trkpt lat="42.88364" lon="1.20172">
        <ele>632.6</ele>
        <time>2025-06-29T09:16:05Z</time>
      </trkpt>
      <trkpt lat="42.88367" lon="1.20177">
        <ele>632.2</ele>
        <time>2025-06-29T09:16:06Z</time>
      </trkpt>
      <trkpt lat="42.88369" lon="1.2018">
        <ele>631.8</ele>
        <time>2025-06-29T09:16:07Z</time>
      </trkpt>
      <trkpt lat="42.88371" lon="1.20183">
        <ele>631.2</ele>
        <time>2025-06-29T09:16:08Z</time>
      </trkpt>
      <trkpt lat="42.88373" lon="1.20185">
        <ele>630.8</ele>
        <time>2025-06-29T09:16:09Z</time>
      </trkpt>
      <trkpt lat="42.88374" lon="1.20187">
        <ele>630.4</ele>
        <time>2025-06-29T09:16:10Z</time>
      </trkpt>
      <trkpt lat="42.88375" lon="1.20189">
        <ele>629.8</ele>
        <time>2025-06-29T09:16:11Z</time>
      </trkpt>
      <trkpt lat="42.88377" lon="1.20193">
        <ele>629.4</ele>
        <time>2025-06-29T09:16:12Z</time>
      </trkpt>
      <trkpt lat="42.88378" lon="1.20197">
        <ele>628.8</ele>
        <time>2025-06-29T09:16:13Z</time>
      </trkpt>
      <trkpt lat="42.88379" lon="1.20201">
        <ele>628.4</ele>
        <time>2025-06-29T09:16:14Z</time>
      </trkpt>
      <trkpt lat="42.88379" lon="1.20205">
        <ele>627.8</ele>
        <time>2025-06-29T09:16:15Z</time>
      </trkpt>
      <trkpt lat="42.8838" lon="1.2021">
        <ele>627.4</ele>
        <time>2025-06-29T09:16:16Z</time>
      </trkpt>
      <trkpt lat="42.88381" lon="1.20213">
        <ele>626.8</ele>
        <time>2025-06-29T09:16:17Z</time>
      </trkpt>
      <trkpt lat="42.88382" lon="1.20216">
        <ele>626.2</ele>
        <time>2025-06-29T09:16:18Z</time>
      </trkpt>
      <trkpt lat="42.88382" lon="1.20218">
        <ele>625.4</ele>
        <time>2025-06-29T09:16:19Z</time>
      </trkpt>
      <trkpt lat="42.88383" lon="1.20222">
        <ele>624.8</ele>
        <time>2025-06-29T09:16:20Z</time>
      </trkpt>
      <trkpt lat="42.88383" lon="1.20225">
        <ele>624.2</ele>
        <time>2025-06-29T09:16:21Z</time>
      </trkpt>
      <trkpt lat="42.88386" lon="1.20228">
        <ele>623.4</ele>
        <time>2025-06-29T09:16:22Z</time>
      </trkpt>
      <trkpt lat="42.88387" lon="1.2023">
        <ele>622.8</ele>
        <time>2025-06-29T09:16:23Z</time>
      </trkpt>
      <trkpt lat="42.88389" lon="1.20233">
        <ele>622</ele>
        <time>2025-06-29T09:16:24Z</time>
      </trkpt>
      <trkpt lat="42.8839" lon="1.20237">
        <ele>621.4</ele>
        <time>2025-06-29T09:16:25Z</time>
      </trkpt>
      <trkpt lat="42.88391" lon="1.20242">
        <ele>620.6</ele>
        <time>2025-06-29T09:16:26Z</time>
      </trkpt>
      <trkpt lat="42.88393" lon="1.20248">
        <ele>619.8</ele>
        <time>2025-06-29T09:16:27Z</time>
      </trkpt>
      <trkpt lat="42.88395" lon="1.20254">
        <ele>619</ele>
        <time>2025-06-29T09:16:28Z</time>
      </trkpt>
      <trkpt lat="42.88396" lon="1.2026">
        <ele>618.2</ele>
        <time>2025-06-29T09:16:29Z</time>
      </trkpt>
      <trkpt lat="42.88397" lon="1.20265">
        <ele>616.4</ele>
        <time>2025-06-29T09:16:30Z</time>
      </trkpt>
      <trkpt lat="42.88399" lon="1.20272">
        <ele>615.4</ele>
        <time>2025-06-29T09:16:31Z</time>
      </trkpt>
      <trkpt lat="42.884" lon="1.20277">
        <ele>614.4</ele>
        <time>2025-06-29T09:16:32Z</time>
      </trkpt>
      <trkpt lat="42.88401" lon="1.20282">
        <ele>613.6</ele>
        <time>2025-06-29T09:16:33Z</time>
      </trkpt>
      <trkpt lat="42.88401" lon="1.20287">
        <ele>612.6</ele>
        <time>2025-06-29T09:16:34Z</time>
      </trkpt>
      <trkpt lat="42.884" lon="1.20291">
        <ele>611.6</ele>
        <time>2025-06-29T09:16:35Z</time>
      </trkpt>
      <trkpt lat="42.884" lon="1.20296">
        <ele>610.8</ele>
        <time>2025-06-29T09:16:36Z</time>
      </trkpt>
      <trkpt lat="42.88399" lon="1.20298">
        <ele>610</ele>
        <time>2025-06-29T09:16:37Z</time>
      </trkpt>
      <trkpt lat="42.88399" lon="1.20299">
        <ele>609</ele>
        <time>2025-06-29T09:16:38Z</time>
      </trkpt>
      <trkpt lat="42.88402" lon="1.20297">
        <ele>606.2</ele>
        <time>2025-06-29T09:17:33Z</time>
      </trkpt>
      <trkpt lat="42.88407" lon="1.20294">
        <ele>606.2</ele>
        <time>2025-06-29T09:17:35Z</time>
      </trkpt>
      <trkpt lat="42.88413" lon="1.20291">
        <ele>605.8</ele>
        <time>2025-06-29T09:17:37Z</time>
      </trkpt>
      <trkpt lat="42.88415" lon="1.20289">
        <ele>605.4</ele>
        <time>2025-06-29T09:17:38Z</time>
      </trkpt>
      <trkpt lat="42.88417" lon="1.20287">
        <ele>605</ele>
        <time>2025-06-29T09:17:39Z</time>
      </trkpt>
      <trkpt lat="42.88419" lon="1.20287">
        <ele>604.6</ele>
        <time>2025-06-29T09:17:40Z</time>
      </trkpt>
      <trkpt lat="42.88421" lon="1.20287">
        <ele>604.2</ele>
        <time>2025-06-29T09:17:41Z</time>
      </trkpt>
      <trkpt lat="42.88422" lon="1.20287">
        <ele>604.2</ele>
        <time>2025-06-29T09:17:42Z</time>
      </trkpt>
      <trkpt lat="42.88426" lon="1.20291">
        <ele>603.2</ele>
        <time>2025-06-29T09:17:44Z</time>
      </trkpt>
      <trkpt lat="42.88427" lon="1.20293">
        <ele>602.8</ele>
        <time>2025-06-29T09:17:45Z</time>
      </trkpt>
      <trkpt lat="42.8843" lon="1.20296">
        <ele>602.4</ele>
        <time>2025-06-29T09:17:46Z</time>
      </trkpt>
      <trkpt lat="42.88432" lon="1.203">
        <ele>602</ele>
        <time>2025-06-29T09:17:47Z</time>
      </trkpt>
      <trkpt lat="42.88435" lon="1.20305">
        <ele>601.4</ele>
        <time>2025-06-29T09:17:48Z</time>
      </trkpt>
      <trkpt lat="42.88437" lon="1.2031">
        <ele>601</ele>
        <time>2025-06-29T09:17:49Z</time>
      </trkpt>
      <trkpt lat="42.88439" lon="1.20314">
        <ele>600.4</ele>
        <time>2025-06-29T09:17:50Z</time>
      </trkpt>
      <trkpt lat="42.88441" lon="1.20317">
        <ele>600</ele>
        <time>2025-06-29T09:17:51Z</time>
      </trkpt>
      <trkpt lat="42.88443" lon="1.20321">
        <ele>599.4</ele>
        <time>2025-06-29T09:17:53Z</time>
      </trkpt>
      <trkpt lat="42.88444" lon="1.20324">
        <ele>599</ele>
        <time>2025-06-29T09:17:54Z</time>
      </trkpt>
      <trkpt lat="42.88444" lon="1.20326">
        <ele>598.6</ele>
        <time>2025-06-29T09:17:55Z</time>
      </trkpt>
      <trkpt lat="42.88443" lon="1.20327">
        <ele>598.2</ele>
        <time>2025-06-29T09:17:56Z</time>
      </trkpt>
      <trkpt lat="42.88442" lon="1.20334">
        <ele>597.8</ele>
        <time>2025-06-29T09:18:21Z</time>
      </trkpt>
      <trkpt lat="42.88443" lon="1.20337">
        <ele>597.8</ele>
        <time>2025-06-29T09:18:22Z</time>
      </trkpt>
      <trkpt lat="42.88448" lon="1.20366">
        <ele>597.8</ele>
        <time>2025-06-29T09:18:28Z</time>
      </trkpt>
      <trkpt lat="42.88448" lon="1.20371">
        <ele>597.4</ele>
        <time>2025-06-29T09:18:29Z</time>
      </trkpt>
      <trkpt lat="42.88447" lon="1.20376">
        <ele>597</ele>
        <time>2025-06-29T09:18:30Z</time>
      </trkpt>
      <trkpt lat="42.88446" lon="1.20382">
        <ele>596.4</ele>
        <time>2025-06-29T09:18:31Z</time>
      </trkpt>
      <trkpt lat="42.88444" lon="1.20387">
        <ele>596</ele>
        <time>2025-06-29T09:18:32Z</time>
      </trkpt>
      <trkpt lat="42.88443" lon="1.20392">
        <ele>595.6</ele>
        <time>2025-06-29T09:18:33Z</time>
      </trkpt>
      <trkpt lat="42.88438" lon="1.2041">
        <ele>595.2</ele>
        <time>2025-06-29T09:18:36Z</time>
      </trkpt>
      <trkpt lat="42.88436" lon="1.20415">
        <ele>594.8</ele>
        <time>2025-06-29T09:18:37Z</time>
      </trkpt>
      <trkpt lat="42.88434" lon="1.20422">
        <ele>594.4</ele>
        <time>2025-06-29T09:18:38Z</time>
      </trkpt>
      <trkpt lat="42.88433" lon="1.20428">
        <ele>594</ele>
        <time>2025-06-29T09:18:39Z</time>
      </trkpt>
      <trkpt lat="42.88431" lon="1.20433">
        <ele>593.6</ele>
        <time>2025-06-29T09:18:40Z</time>
      </trkpt>
      <trkpt lat="42.88425" lon="1.20448">
        <ele>593.6</ele>
        <time>2025-06-29T09:18:43Z</time>
      </trkpt>
      <trkpt lat="42.8842" lon="1.20476">
        <ele>593.6</ele>
        <time>2025-06-29T09:18:48Z</time>
      </trkpt>
      <trkpt lat="42.88422" lon="1.20504">
        <ele>593.6</ele>
        <time>2025-06-29T09:18:54Z</time>
      </trkpt>
      <trkpt lat="42.88423" lon="1.20512">
        <ele>594</ele>
        <time>2025-06-29T09:18:56Z</time>
      </trkpt>
      <trkpt lat="42.88424" lon="1.20517">
        <ele>594.4</ele>
        <time>2025-06-29T09:18:57Z</time>
      </trkpt>
      <trkpt lat="42.88424" lon="1.20521">
        <ele>595.2</ele>
        <time>2025-06-29T09:18:58Z</time>
      </trkpt>
      <trkpt lat="42.88425" lon="1.20526">
        <ele>595.8</ele>
        <time>2025-06-29T09:18:59Z</time>
      </trkpt>
      <trkpt lat="42.88427" lon="1.20533">
        <ele>595.8</ele>
        <time>2025-06-29T09:19:01Z</time>
      </trkpt>
      <trkpt lat="42.88429" lon="1.20539">
        <ele>596.2</ele>
        <time>2025-06-29T09:19:03Z</time>
      </trkpt>
      <trkpt lat="42.88429" lon="1.20541">
        <ele>596.6</ele>
        <time>2025-06-29T09:19:04Z</time>
      </trkpt>
      <trkpt lat="42.8843" lon="1.20544">
        <ele>597</ele>
        <time>2025-06-29T09:19:05Z</time>
      </trkpt>
      <trkpt lat="42.88431" lon="1.20546">
        <ele>597.4</ele>
        <time>2025-06-29T09:19:06Z</time>
      </trkpt>
      <trkpt lat="42.88431" lon="1.20547">
        <ele>598</ele>
        <time>2025-06-29T09:19:07Z</time>
      </trkpt>
      <trkpt lat="42.88433" lon="1.20554">
        <ele>598</ele>
        <time>2025-06-29T09:19:09Z</time>
      </trkpt>
      <trkpt lat="42.88434" lon="1.20557">
        <ele>598</ele>
        <time>2025-06-29T09:19:10Z</time>
      </trkpt>
      <trkpt lat="42.88435" lon="1.2056">
        <ele>598</ele>
        <time>2025-06-29T09:19:11Z</time>
      </trkpt>
      <trkpt lat="42.88441" lon="1.20578">
        <ele>598</ele>
        <time>2025-06-29T09:19:15Z</time>
      </trkpt>
      <trkpt lat="42.88442" lon="1.20584">
        <ele>597.4</ele>
        <time>2025-06-29T09:19:16Z</time>
      </trkpt>
      <trkpt lat="42.88443" lon="1.20589">
        <ele>597</ele>
        <time>2025-06-29T09:19:17Z</time>
      </trkpt>
      <trkpt lat="42.88446" lon="1.20595">
        <ele>596.6</ele>
        <time>2025-06-29T09:19:18Z</time>
      </trkpt>
      <trkpt lat="42.88449" lon="1.20602">
        <ele>596.2</ele>
        <time>2025-06-29T09:19:19Z</time>
      </trkpt>
      <trkpt lat="42.88452" lon="1.20608">
        <ele>595.6</ele>
        <time>2025-06-29T09:19:20Z</time>
      </trkpt>
      <trkpt lat="42.88454" lon="1.20614">
        <ele>595.6</ele>
        <time>2025-06-29T09:19:21Z</time>
      </trkpt>
      <trkpt lat="42.88456" lon="1.20617">
        <ele>595.2</ele>
        <time>2025-06-29T09:19:22Z</time>
      </trkpt>
      <trkpt lat="42.88457" lon="1.2062">
        <ele>594.2</ele>
        <time>2025-06-29T09:19:23Z</time>
      </trkpt>
      <trkpt lat="42.88458" lon="1.20622">
        <ele>593.8</ele>
        <time>2025-06-29T09:19:24Z</time>
      </trkpt>
      <trkpt lat="42.8846" lon="1.20623">
        <ele>593.2</ele>
        <time>2025-06-29T09:19:25Z</time>
      </trkpt>
      <trkpt lat="42.8846" lon="1.20625">
        <ele>593.2</ele>
        <time>2025-06-29T09:19:28Z</time>
      </trkpt>
      <trkpt lat="42.8846" lon="1.2063">
        <ele>593.2</ele>
        <time>2025-06-29T09:20:01Z</time>
      </trkpt>
      <trkpt lat="42.88463" lon="1.20643">
        <ele>593.2</ele>
        <time>2025-06-29T09:20:05Z</time>
      </trkpt>
      <trkpt lat="42.88464" lon="1.20645">
        <ele>593.2</ele>
        <time>2025-06-29T09:20:06Z</time>
      </trkpt>
      <trkpt lat="42.88465" lon="1.20651">
        <ele>592.8</ele>
        <time>2025-06-29T09:20:09Z</time>
      </trkpt>
      <trkpt lat="42.88464" lon="1.20653">
        <ele>592.4</ele>
        <time>2025-06-29T09:20:10Z</time>
      </trkpt>
      <trkpt lat="42.88465" lon="1.20655">
        <ele>592</ele>
        <time>2025-06-29T09:20:11Z</time>
      </trkpt>
      <trkpt lat="42.88465" lon="1.20656">
        <ele>591.2</ele>
        <time>2025-06-29T09:20:12Z</time>
      </trkpt>
      <trkpt lat="42.88465" lon="1.20658">
        <ele>591.2</ele>
        <time>2025-06-29T09:20:14Z</time>
      </trkpt>
      <trkpt lat="42.88464" lon="1.20653">
        <ele>591.2</ele>
        <time>2025-06-29T09:20:33Z</time>
      </trkpt>
      <trkpt lat="42.88463" lon="1.20636">
        <ele>591.2</ele>
        <time>2025-06-29T09:20:40Z</time>
      </trkpt>
      <trkpt lat="42.88458" lon="1.20628">
        <ele>591.6</ele>
        <time>2025-06-29T09:20:45Z</time>
      </trkpt>
      <trkpt lat="42.88457" lon="1.20626">
        <ele>592</ele>
        <time>2025-06-29T09:20:46Z</time>
      </trkpt>
      <trkpt lat="42.88456" lon="1.20624">
        <ele>592.6</ele>
        <time>2025-06-29T09:20:47Z</time>
      </trkpt>
      <trkpt lat="42.88455" lon="1.20622">
        <ele>593</ele>
        <time>2025-06-29T09:20:48Z</time>
      </trkpt>
      <trkpt lat="42.88454" lon="1.2062">
        <ele>593.4</ele>
        <time>2025-06-29T09:20:49Z</time>
      </trkpt>
      <trkpt lat="42.88456" lon="1.20616">
        <ele>593.4</ele>
        <time>2025-06-29T09:20:51Z</time>
      </trkpt>
      <trkpt lat="42.88453" lon="1.20603">
        <ele>593.4</ele>
        <time>2025-06-29T09:20:57Z</time>
      </trkpt>
      <trkpt lat="42.88453" lon="1.20602">
        <ele>593.8</ele>
        <time>2025-06-29T09:20:58Z</time>
      </trkpt>
      <trkpt lat="42.88455" lon="1.20608">
        <ele>593.6</ele>
        <time>2025-06-29T09:21:23Z</time>
      </trkpt>
      <trkpt lat="42.88455" lon="1.2061">
        <ele>593.2</ele>
        <time>2025-06-29T09:21:24Z</time>
      </trkpt>
      <trkpt lat="42.88457" lon="1.20614">
        <ele>593.2</ele>
        <time>2025-06-29T09:21:25Z</time>
      </trkpt>
      <trkpt lat="42.88458" lon="1.20617">
        <ele>592.4</ele>
        <time>2025-06-29T09:21:26Z</time>
      </trkpt>
      <trkpt lat="42.8846" lon="1.20619">
        <ele>592</ele>
        <time>2025-06-29T09:21:27Z</time>
      </trkpt>
      <trkpt lat="42.88461" lon="1.20621">
        <ele>591.6</ele>
        <time>2025-06-29T09:21:28Z</time>
      </trkpt>
      <trkpt lat="42.88462" lon="1.20621">
        <ele>591.2</ele>
        <time>2025-06-29T09:21:29Z</time>
      </trkpt>
      <trkpt lat="42.88464" lon="1.20622">
        <ele>591.2</ele>
        <time>2025-06-29T09:21:30Z</time>
      </trkpt>
      <trkpt lat="42.88465" lon="1.20622">
        <ele>591.2</ele>
        <time>2025-06-29T09:21:31Z</time>
      </trkpt>
      <trkpt lat="42.88453" lon="1.20599">
        <ele>593.2</ele>
        <time>2025-06-29T09:25:32Z</time>
      </trkpt>
      <trkpt lat="42.88454" lon="1.20602">
        <ele>592.4</ele>
        <time>2025-06-29T09:25:33Z</time>
      </trkpt>
      <trkpt lat="42.88455" lon="1.20607">
        <ele>592</ele>
        <time>2025-06-29T09:25:34Z</time>
      </trkpt>
      <trkpt lat="42.88456" lon="1.20611">
        <ele>591.4</ele>
        <time>2025-06-29T09:25:35Z</time>
      </trkpt>
      <trkpt lat="42.8846" lon="1.20617">
        <ele>591</ele>
        <time>2025-06-29T09:25:36Z</time>
      </trkpt>
      <trkpt lat="42.88468" lon="1.20627">
        <ele>590.6</ele>
        <time>2025-06-29T09:25:39Z</time>
      </trkpt>
      <trkpt lat="42.88471" lon="1.20629">
        <ele>590.2</ele>
        <time>2025-06-29T09:25:40Z</time>
      </trkpt>
      <trkpt lat="42.88472" lon="1.20631">
        <ele>589.8</ele>
        <time>2025-06-29T09:25:41Z</time>
      </trkpt>
      <trkpt lat="42.88475" lon="1.20631">
        <ele>589.2</ele>
        <time>2025-06-29T09:25:42Z</time>
      </trkpt>
      <trkpt lat="42.88476" lon="1.20631">
        <ele>588.8</ele>
        <time>2025-06-29T09:25:43Z</time>
      </trkpt>
      <trkpt lat="42.88477" lon="1.20632">
        <ele>588.2</ele>
        <time>2025-06-29T09:25:44Z</time>
      </trkpt>
      <trkpt lat="42.88478" lon="1.20632">
        <ele>587.6</ele>
        <time>2025-06-29T09:25:45Z</time>
      </trkpt>
      <trkpt lat="42.88478" lon="1.20633">
        <ele>587.2</ele>
        <time>2025-06-29T09:25:46Z</time>
      </trkpt>
      <trkpt lat="42.88479" lon="1.20633">
        <ele>586.6</ele>
        <time>2025-06-29T09:25:47Z</time>
      </trkpt>
      <trkpt lat="42.88491" lon="1.20634">
        <ele>584.2</ele>
        <time>2025-06-29T09:26:29Z</time>
      </trkpt>
      <trkpt lat="42.88494" lon="1.20636">
        <ele>583.8</ele>
        <time>2025-06-29T09:26:30Z</time>
      </trkpt>
      <trkpt lat="42.88496" lon="1.20638">
        <ele>583.4</ele>
        <time>2025-06-29T09:26:31Z</time>
      </trkpt>
      <trkpt lat="42.88498" lon="1.2064">
        <ele>583</ele>
        <time>2025-06-29T09:26:32Z</time>
      </trkpt>
      <trkpt lat="42.88501" lon="1.20642">
        <ele>582.6</ele>
        <time>2025-06-29T09:26:33Z</time>
      </trkpt>
      <trkpt lat="42.88503" lon="1.20645">
        <ele>582</ele>
        <time>2025-06-29T09:26:34Z</time>
      </trkpt>
      <trkpt lat="42.88504" lon="1.20647">
        <ele>581.4</ele>
        <time>2025-06-29T09:26:35Z</time>
      </trkpt>
      <trkpt lat="42.88504" lon="1.20649">
        <ele>580.6</ele>
        <time>2025-06-29T09:26:36Z</time>
      </trkpt>
      <trkpt lat="42.88507" lon="1.20652">
        <ele>580</ele>
        <time>2025-06-29T09:26:37Z</time>
      </trkpt>
      <trkpt lat="42.88508" lon="1.20654">
        <ele>579.2</ele>
        <time>2025-06-29T09:26:38Z</time>
      </trkpt>
      <trkpt lat="42.88509" lon="1.20656">
        <ele>578.4</ele>
        <time>2025-06-29T09:26:39Z</time>
      </trkpt>
      <trkpt lat="42.8851" lon="1.20658">
        <ele>577.6</ele>
        <time>2025-06-29T09:26:40Z</time>
      </trkpt>
      <trkpt lat="42.88511" lon="1.20661">
        <ele>576.8</ele>
        <time>2025-06-29T09:26:41Z</time>
      </trkpt>
      <trkpt lat="42.88511" lon="1.20664">
        <ele>575.8</ele>
        <time>2025-06-29T09:26:42Z</time>
      </trkpt>
      <trkpt lat="42.88511" lon="1.20669">
        <ele>575</ele>
        <time>2025-06-29T09:26:43Z</time>
      </trkpt>
      <trkpt lat="42.88511" lon="1.20673">
        <ele>574.2</ele>
        <time>2025-06-29T09:26:44Z</time>
      </trkpt>
      <trkpt lat="42.88511" lon="1.20677">
        <ele>573.4</ele>
        <time>2025-06-29T09:26:45Z</time>
      </trkpt>
      <trkpt lat="42.88511" lon="1.20681">
        <ele>572.4</ele>
        <time>2025-06-29T09:26:46Z</time>
      </trkpt>
      <trkpt lat="42.88511" lon="1.20686">
        <ele>570.8</ele>
        <time>2025-06-29T09:26:47Z</time>
      </trkpt>
      <trkpt lat="42.88513" lon="1.2069">
        <ele>570</ele>
        <time>2025-06-29T09:26:48Z</time>
      </trkpt>
      <trkpt lat="42.88513" lon="1.20698">
        <ele>569.4</ele>
        <time>2025-06-29T09:26:50Z</time>
      </trkpt>
      <trkpt lat="42.88513" lon="1.20701">
        <ele>569</ele>
        <time>2025-06-29T09:26:51Z</time>
      </trkpt>
      <trkpt lat="42.88513" lon="1.20707">
        <ele>568.6</ele>
        <time>2025-06-29T09:26:52Z</time>
      </trkpt>
      <trkpt lat="42.88512" lon="1.20712">
        <ele>568</ele>
        <time>2025-06-29T09:26:53Z</time>
      </trkpt>
      <trkpt lat="42.88514" lon="1.20718">
        <ele>567.6</ele>
        <time>2025-06-29T09:26:54Z</time>
      </trkpt>
      <trkpt lat="42.88516" lon="1.20724">
        <ele>567.6</ele>
        <time>2025-06-29T09:26:55Z</time>
      </trkpt>
      <trkpt lat="42.88518" lon="1.20731">
        <ele>567.2</ele>
        <time>2025-06-29T09:26:56Z</time>
      </trkpt>
      <trkpt lat="42.88518" lon="1.20737">
        <ele>566.6</ele>
        <time>2025-06-29T09:26:57Z</time>
      </trkpt>
      <trkpt lat="42.88519" lon="1.20743">
        <ele>566.2</ele>
        <time>2025-06-29T09:26:58Z</time>
      </trkpt>
      <trkpt lat="42.8852" lon="1.20749">
        <ele>565.8</ele>
        <time>2025-06-29T09:26:59Z</time>
      </trkpt>
      <trkpt lat="42.88521" lon="1.20755">
        <ele>565.2</ele>
        <time>2025-06-29T09:27:00Z</time>
      </trkpt>
      <trkpt lat="42.88522" lon="1.20761">
        <ele>564.8</ele>
        <time>2025-06-29T09:27:01Z</time>
      </trkpt>
      <trkpt lat="42.88523" lon="1.20767">
        <ele>564.4</ele>
        <time>2025-06-29T09:27:02Z</time>
      </trkpt>
      <trkpt lat="42.88525" lon="1.20772">
        <ele>563.8</ele>
        <time>2025-06-29T09:27:03Z</time>
      </trkpt>
      <trkpt lat="42.88525" lon="1.20777">
        <ele>563.4</ele>
        <time>2025-06-29T09:27:04Z</time>
      </trkpt>
      <trkpt lat="42.88525" lon="1.20783">
        <ele>563</ele>
        <time>2025-06-29T09:27:05Z</time>
      </trkpt>
      <trkpt lat="42.88526" lon="1.20786">
        <ele>562.4</ele>
        <time>2025-06-29T09:27:06Z</time>
      </trkpt>
      <trkpt lat="42.88527" lon="1.2079">
        <ele>562</ele>
        <time>2025-06-29T09:27:07Z</time>
      </trkpt>
      <trkpt lat="42.88529" lon="1.20793">
        <ele>561.6</ele>
        <time>2025-06-29T09:27:08Z</time>
      </trkpt>
      <trkpt lat="42.88536" lon="1.20799">
        <ele>561</ele>
        <time>2025-06-29T09:27:09Z</time>
      </trkpt>
      <trkpt lat="42.88538" lon="1.20801">
        <ele>560.4</ele>
        <time>2025-06-29T09:27:10Z</time>
      </trkpt>
      <trkpt lat="42.8854" lon="1.20803">
        <ele>559.8</ele>
        <time>2025-06-29T09:27:11Z</time>
      </trkpt>
      <trkpt lat="42.88542" lon="1.20805">
        <ele>558.4</ele>
        <time>2025-06-29T09:27:12Z</time>
      </trkpt>
      <trkpt lat="42.88543" lon="1.20807">
        <ele>557.6</ele>
        <time>2025-06-29T09:27:13Z</time>
      </trkpt>
      <trkpt lat="42.88545" lon="1.20809">
        <ele>556.4</ele>
        <time>2025-06-29T09:27:14Z</time>
      </trkpt>
      <trkpt lat="42.88548" lon="1.20812">
        <ele>555.4</ele>
        <time>2025-06-29T09:27:15Z</time>
      </trkpt>
      <trkpt lat="42.8855" lon="1.20814">
        <ele>554.2</ele>
        <time>2025-06-29T09:27:16Z</time>
      </trkpt>
      <trkpt lat="42.88551" lon="1.20815">
        <ele>553.2</ele>
        <time>2025-06-29T09:27:17Z</time>
      </trkpt>
      <trkpt lat="42.88552" lon="1.20818">
        <ele>552</ele>
        <time>2025-06-29T09:27:18Z</time>
      </trkpt>
      <trkpt lat="42.88552" lon="1.2082">
        <ele>551</ele>
        <time>2025-06-29T09:27:19Z</time>
      </trkpt>
      <trkpt lat="42.88554" lon="1.20823">
        <ele>550</ele>
        <time>2025-06-29T09:27:20Z</time>
      </trkpt>
      <trkpt lat="42.8857" lon="1.20835">
        <ele>549.2</ele>
        <time>2025-06-29T09:27:21Z</time>
      </trkpt>
      <trkpt lat="42.88574" lon="1.20838">
        <ele>548.4</ele>
        <time>2025-06-29T09:27:22Z</time>
      </trkpt>
      <trkpt lat="42.88574" lon="1.20838">
        <ele>547.4</ele>
        <time>2025-06-29T09:27:23Z</time>
      </trkpt>
      <trkpt lat="42.88574" lon="1.20837">
        <ele>546.6</ele>
        <time>2025-06-29T09:27:24Z</time>
      </trkpt>
      <trkpt lat="42.88574" lon="1.20837">
        <ele>545.6</ele>
        <time>2025-06-29T09:27:25Z</time>
      </trkpt>
      <trkpt lat="42.88573" lon="1.20839">
        <ele>544.6</ele>
        <time>2025-06-29T09:27:26Z</time>
      </trkpt>
      <trkpt lat="42.88572" lon="1.20841">
        <ele>543.6</ele>
        <time>2025-06-29T09:27:27Z</time>
      </trkpt>
      <trkpt lat="42.88571" lon="1.20843">
        <ele>542.6</ele>
        <time>2025-06-29T09:27:28Z</time>
      </trkpt>
      <trkpt lat="42.8857" lon="1.20845">
        <ele>541.6</ele>
        <time>2025-06-29T09:27:29Z</time>
      </trkpt>
      <trkpt lat="42.88568" lon="1.20848">
        <ele>540.4</ele>
        <time>2025-06-29T09:27:30Z</time>
      </trkpt>
      <trkpt lat="42.88566" lon="1.2085">
        <ele>539.4</ele>
        <time>2025-06-29T09:27:31Z</time>
      </trkpt>
      <trkpt lat="42.88564" lon="1.20852">
        <ele>538.6</ele>
        <time>2025-06-29T09:27:32Z</time>
      </trkpt>
      <trkpt lat="42.88562" lon="1.20854">
        <ele>537.6</ele>
        <time>2025-06-29T09:27:33Z</time>
      </trkpt>
      <trkpt lat="42.8856" lon="1.20856">
        <ele>536.6</ele>
        <time>2025-06-29T09:27:34Z</time>
      </trkpt>
      <trkpt lat="42.8857" lon="1.2087">
        <ele>535.8</ele>
        <time>2025-06-29T09:27:35Z</time>
      </trkpt>
      <trkpt lat="42.88571" lon="1.20875">
        <ele>535</ele>
        <time>2025-06-29T09:27:36Z</time>
      </trkpt>
      <trkpt lat="42.88573" lon="1.20881">
        <ele>533.2</ele>
        <time>2025-06-29T09:27:37Z</time>
      </trkpt>
      <trkpt lat="42.88574" lon="1.20887">
        <ele>532.6</ele>
        <time>2025-06-29T09:27:38Z</time>
      </trkpt>
      <trkpt lat="42.88577" lon="1.20894">
        <ele>532</ele>
        <time>2025-06-29T09:27:39Z</time>
      </trkpt>
      <trkpt lat="42.88578" lon="1.20899">
        <ele>531.4</ele>
        <time>2025-06-29T09:27:40Z</time>
      </trkpt>
      <trkpt lat="42.8858" lon="1.20902">
        <ele>530.6</ele>
        <time>2025-06-29T09:27:41Z</time>
      </trkpt>
      <trkpt lat="42.88582" lon="1.20906">
        <ele>530</ele>
        <time>2025-06-29T09:27:42Z</time>
      </trkpt>
      <trkpt lat="42.88584" lon="1.2091">
        <ele>529.2</ele>
        <time>2025-06-29T09:27:43Z</time>
      </trkpt>
      <trkpt lat="42.88586" lon="1.20913">
        <ele>528.4</ele>
        <time>2025-06-29T09:27:44Z</time>
      </trkpt>
      <trkpt lat="42.88588" lon="1.20916">
        <ele>527.6</ele>
        <time>2025-06-29T09:27:45Z</time>
      </trkpt>
      <trkpt lat="42.88595" lon="1.20921">
        <ele>526.6</ele>
        <time>2025-06-29T09:27:46Z</time>
      </trkpt>
      <trkpt lat="42.88596" lon="1.20922">
        <ele>525.6</ele>
        <time>2025-06-29T09:27:47Z</time>
      </trkpt>
      <trkpt lat="42.88598" lon="1.20925">
        <ele>524.4</ele>
        <time>2025-06-29T09:27:48Z</time>
      </trkpt>
      <trkpt lat="42.88599" lon="1.20925">
        <ele>523.4</ele>
        <time>2025-06-29T09:27:49Z</time>
      </trkpt>
      <trkpt lat="42.88602" lon="1.20927">
        <ele>522.2</ele>
        <time>2025-06-29T09:27:50Z</time>
      </trkpt>
      <trkpt lat="42.88603" lon="1.20928">
        <ele>521.2</ele>
        <time>2025-06-29T09:27:51Z</time>
      </trkpt>
      <trkpt lat="42.88603" lon="1.20928">
        <ele>520.2</ele>
        <time>2025-06-29T09:27:52Z</time>
      </trkpt>
      <trkpt lat="42.88591" lon="1.20915">
        <ele>526.6</ele>
        <time>2025-06-29T09:29:20Z</time>
      </trkpt>
      <trkpt lat="42.88589" lon="1.20916">
        <ele>526.2</ele>
        <time>2025-06-29T09:29:21Z</time>
      </trkpt>
      <trkpt lat="42.88587" lon="1.20916">
        <ele>525.8</ele>
        <time>2025-06-29T09:29:22Z</time>
      </trkpt>
      <trkpt lat="42.88586" lon="1.20915">
        <ele>525</ele>
        <time>2025-06-29T09:29:23Z</time>
      </trkpt>
      <trkpt lat="42.88585" lon="1.20915">
        <ele>524.2</ele>
        <time>2025-06-29T09:29:24Z</time>
      </trkpt>
      <trkpt lat="42.88585" lon="1.20915">
        <ele>523.2</ele>
        <time>2025-06-29T09:29:25Z</time>
      </trkpt>
      <trkpt lat="42.88585" lon="1.20915">
        <ele>522.2</ele>
        <time>2025-06-29T09:29:26Z</time>
      </trkpt>
      <trkpt lat="42.88585" lon="1.20918">
        <ele>519.4</ele>
        <time>2025-06-29T09:29:29Z</time>
      </trkpt>
      <trkpt lat="42.88588" lon="1.20922">
        <ele>519.4</ele>
        <time>2025-06-29T09:29:31Z</time>
      </trkpt>
      <trkpt lat="42.88588" lon="1.20923">
        <ele>519.4</ele>
        <time>2025-06-29T09:29:32Z</time>
      </trkpt>
      <trkpt lat="42.88644" lon="1.20962">
        <ele>517.4</ele>
        <time>2025-06-29T09:33:53Z</time>
      </trkpt>
      <trkpt lat="42.88647" lon="1.20965">
        <ele>517.4</ele>
        <time>2025-06-29T09:33:54Z</time>
      </trkpt>
      <trkpt lat="42.88658" lon="1.20978">
        <ele>517.4</ele>
        <time>2025-06-29T09:33:58Z</time>
      </trkpt>
      <trkpt lat="42.88661" lon="1.20984">
        <ele>517</ele>
        <time>2025-06-29T09:33:59Z</time>
      </trkpt>
      <trkpt lat="42.88663" lon="1.2099">
        <ele>516.4</ele>
        <time>2025-06-29T09:34:00Z</time>
      </trkpt>
      <trkpt lat="42.88665" lon="1.20997">
        <ele>516</ele>
        <time>2025-06-29T09:34:01Z</time>
      </trkpt>
      <trkpt lat="42.88667" lon="1.21003">
        <ele>515.4</ele>
        <time>2025-06-29T09:34:02Z</time>
      </trkpt>
      <trkpt lat="42.88669" lon="1.2101">
        <ele>514.8</ele>
        <time>2025-06-29T09:34:03Z</time>
      </trkpt>
      <trkpt lat="42.88671" lon="1.21016">
        <ele>514.2</ele>
        <time>2025-06-29T09:34:04Z</time>
      </trkpt>
      <trkpt lat="42.88673" lon="1.21023">
        <ele>513.6</ele>
        <time>2025-06-29T09:34:05Z</time>
      </trkpt>
      <trkpt lat="42.88673" lon="1.2103">
        <ele>512.8</ele>
        <time>2025-06-29T09:34:06Z</time>
      </trkpt>
      <trkpt lat="42.88674" lon="1.21036">
        <ele>512.2</ele>
        <time>2025-06-29T09:34:07Z</time>
      </trkpt>
      <trkpt lat="42.88676" lon="1.21042">
        <ele>511.6</ele>
        <time>2025-06-29T09:34:08Z</time>
      </trkpt>
      <trkpt lat="42.88679" lon="1.21046">
        <ele>511</ele>
        <time>2025-06-29T09:34:09Z</time>
      </trkpt>
      <trkpt lat="42.88682" lon="1.21049">
        <ele>510.4</ele>
        <time>2025-06-29T09:34:10Z</time>
      </trkpt>
      <trkpt lat="42.88685" lon="1.21053">
        <ele>510</ele>
        <time>2025-06-29T09:34:11Z</time>
      </trkpt>
      <trkpt lat="42.88688" lon="1.21057">
        <ele>509.6</ele>
        <time>2025-06-29T09:34:12Z</time>
      </trkpt>
      <trkpt lat="42.88693" lon="1.2106">
        <ele>508.8</ele>
        <time>2025-06-29T09:34:13Z</time>
      </trkpt>
      <trkpt lat="42.88697" lon="1.21064">
        <ele>508.8</ele>
        <time>2025-06-29T09:34:14Z</time>
      </trkpt>
      <trkpt lat="42.88702" lon="1.21068">
        <ele>508.4</ele>
        <time>2025-06-29T09:34:15Z</time>
      </trkpt>
      <trkpt lat="42.88707" lon="1.21073">
        <ele>508</ele>
        <time>2025-06-29T09:34:16Z</time>
      </trkpt>
      <trkpt lat="42.88713" lon="1.21077">
        <ele>507.4</ele>
        <time>2025-06-29T09:34:17Z</time>
      </trkpt>
      <trkpt lat="42.88718" lon="1.21081">
        <ele>507</ele>
        <time>2025-06-29T09:34:18Z</time>
      </trkpt>
      <trkpt lat="42.88724" lon="1.21084">
        <ele>506.6</ele>
        <time>2025-06-29T09:34:19Z</time>
      </trkpt>
      <trkpt lat="42.88729" lon="1.21086">
        <ele>506.2</ele>
        <time>2025-06-29T09:34:20Z</time>
      </trkpt>
      <trkpt lat="42.88732" lon="1.21087">
        <ele>505.6</ele>
        <time>2025-06-29T09:34:21Z</time>
      </trkpt>
      <trkpt lat="42.88735" lon="1.21086">
        <ele>505.2</ele>
        <time>2025-06-29T09:34:22Z</time>
      </trkpt>
      <trkpt lat="42.88738" lon="1.21085">
        <ele>504.8</ele>
        <time>2025-06-29T09:34:23Z</time>
      </trkpt>
      <trkpt lat="42.8874" lon="1.21082">
        <ele>504.4</ele>
        <time>2025-06-29T09:34:24Z</time>
      </trkpt>
      <trkpt lat="42.88742" lon="1.21078">
        <ele>504.4</ele>
        <time>2025-06-29T09:34:25Z</time>
      </trkpt>
      <trkpt lat="42.88751" lon="1.21053">
        <ele>504.4</ele>
        <time>2025-06-29T09:34:32Z</time>
      </trkpt>
      <trkpt lat="42.88761" lon="1.21026">
        <ele>504.4</ele>
        <time>2025-06-29T09:34:38Z</time>
      </trkpt>
      <trkpt lat="42.88775" lon="1.21003">
        <ele>504.4</ele>
        <time>2025-06-29T09:34:44Z</time>
      </trkpt>
      <trkpt lat="42.88788" lon="1.20993">
        <ele>504</ele>
        <time>2025-06-29T09:34:48Z</time>
      </trkpt>
      <trkpt lat="42.88791" lon="1.2099">
        <ele>503.6</ele>
        <time>2025-06-29T09:34:49Z</time>
      </trkpt>
      <trkpt lat="42.88794" lon="1.20989">
        <ele>503.2</ele>
        <time>2025-06-29T09:34:50Z</time>
      </trkpt>
      <trkpt lat="42.88797" lon="1.20988">
        <ele>502.8</ele>
        <time>2025-06-29T09:34:51Z</time>
      </trkpt>
      <trkpt lat="42.88801" lon="1.20987">
        <ele>502.2</ele>
        <time>2025-06-29T09:34:52Z</time>
      </trkpt>
      <trkpt lat="42.88805" lon="1.20986">
        <ele>502.2</ele>
        <time>2025-06-29T09:34:53Z</time>
      </trkpt>
      <trkpt lat="42.8881" lon="1.20986">
        <ele>502.2</ele>
        <time>2025-06-29T09:34:54Z</time>
      </trkpt>
      <trkpt lat="42.88824" lon="1.20991">
        <ele>502.2</ele>
        <time>2025-06-29T09:34:57Z</time>
      </trkpt>
      <trkpt lat="42.88828" lon="1.20994">
        <ele>502.2</ele>
        <time>2025-06-29T09:34:58Z</time>
      </trkpt>
      <trkpt lat="42.88839" lon="1.21006">
        <ele>502.2</ele>
        <time>2025-06-29T09:35:01Z</time>
      </trkpt>
      <trkpt lat="42.88858" lon="1.21032">
        <ele>501.8</ele>
        <time>2025-06-29T09:35:07Z</time>
      </trkpt>
      <trkpt lat="42.88862" lon="1.21036">
        <ele>501.4</ele>
        <time>2025-06-29T09:35:08Z</time>
      </trkpt>
      <trkpt lat="42.88866" lon="1.2104">
        <ele>501</ele>
        <time>2025-06-29T09:35:09Z</time>
      </trkpt>
      <trkpt lat="42.88869" lon="1.21043">
        <ele>500.6</ele>
        <time>2025-06-29T09:35:10Z</time>
      </trkpt>
      <trkpt lat="42.88873" lon="1.21047">
        <ele>500.2</ele>
        <time>2025-06-29T09:35:11Z</time>
      </trkpt>
      <trkpt lat="42.88885" lon="1.21057">
        <ele>500.2</ele>
        <time>2025-06-29T09:35:14Z</time>
      </trkpt>
      <trkpt lat="42.88888" lon="1.21061">
        <ele>500.2</ele>
        <time>2025-06-29T09:35:15Z</time>
      </trkpt>
      <trkpt lat="42.88893" lon="1.21062">
        <ele>500.2</ele>
        <time>2025-06-29T09:35:16Z</time>
      </trkpt>
      <trkpt lat="42.88902" lon="1.21063">
        <ele>500.2</ele>
        <time>2025-06-29T09:35:18Z</time>
      </trkpt>
      <trkpt lat="42.88916" lon="1.21064">
        <ele>500.2</ele>
        <time>2025-06-29T09:35:21Z</time>
      </trkpt>
      <trkpt lat="42.88927" lon="1.21066">
        <ele>500.2</ele>
        <time>2025-06-29T09:35:23Z</time>
      </trkpt>
      <trkpt lat="42.88952" lon="1.21068">
        <ele>499.8</ele>
        <time>2025-06-29T09:35:28Z</time>
      </trkpt>
      <trkpt lat="42.88957" lon="1.21069">
        <ele>499.4</ele>
        <time>2025-06-29T09:35:29Z</time>
      </trkpt>
      <trkpt lat="42.88962" lon="1.2107">
        <ele>499</ele>
        <time>2025-06-29T09:35:30Z</time>
      </trkpt>
      <trkpt lat="42.88967" lon="1.21071">
        <ele>498.6</ele>
        <time>2025-06-29T09:35:31Z</time>
      </trkpt>
      <trkpt lat="42.88972" lon="1.21072">
        <ele>498.2</ele>
        <time>2025-06-29T09:35:32Z</time>
      </trkpt>
      <trkpt lat="42.88996" lon="1.21074">
        <ele>498.2</ele>
        <time>2025-06-29T09:35:37Z</time>
      </trkpt>
      <trkpt lat="42.89005" lon="1.21075">
        <ele>498.2</ele>
        <time>2025-06-29T09:35:39Z</time>
      </trkpt>
      <trkpt lat="42.89023" lon="1.21075">
        <ele>498.2</ele>
        <time>2025-06-29T09:35:43Z</time>
      </trkpt>
      <trkpt lat="42.89054" lon="1.21075">
        <ele>498.2</ele>
        <time>2025-06-29T09:35:50Z</time>
      </trkpt>
      <trkpt lat="42.89088" lon="1.21077">
        <ele>498.2</ele>
        <time>2025-06-29T09:35:58Z</time>
      </trkpt>
      <trkpt lat="42.89123" lon="1.21083">
        <ele>498.2</ele>
        <time>2025-06-29T09:36:06Z</time>
      </trkpt>
      <trkpt lat="42.8915" lon="1.21092">
        <ele>498.2</ele>
        <time>2025-06-29T09:36:12Z</time>
      </trkpt>
      <trkpt lat="42.89154" lon="1.21095">
        <ele>498.2</ele>
        <time>2025-06-29T09:36:13Z</time>
      </trkpt>
      <trkpt lat="42.89185" lon="1.21107">
        <ele>498.2</ele>
        <time>2025-06-29T09:36:19Z</time>
      </trkpt>
      <trkpt lat="42.8919" lon="1.21108">
        <ele>498.2</ele>
        <time>2025-06-29T09:36:20Z</time>
      </trkpt>
      <trkpt lat="42.89207" lon="1.2111">
        <ele>498.2</ele>
        <time>2025-06-29T09:36:23Z</time>
      </trkpt>
      <trkpt lat="42.89219" lon="1.21111">
        <ele>497.8</ele>
        <time>2025-06-29T09:36:25Z</time>
      </trkpt>
      <trkpt lat="42.89225" lon="1.21111">
        <ele>497.4</ele>
        <time>2025-06-29T09:36:26Z</time>
      </trkpt>
      <trkpt lat="42.89231" lon="1.21112">
        <ele>496.8</ele>
        <time>2025-06-29T09:36:27Z</time>
      </trkpt>
      <trkpt lat="42.89237" lon="1.21112">
        <ele>496.4</ele>
        <time>2025-06-29T09:36:28Z</time>
      </trkpt>
      <trkpt lat="42.89244" lon="1.21111">
        <ele>496</ele>
        <time>2025-06-29T09:36:29Z</time>
      </trkpt>
      <trkpt lat="42.89256" lon="1.21111">
        <ele>496</ele>
        <time>2025-06-29T09:36:31Z</time>
      </trkpt>
      <trkpt lat="42.89275" lon="1.21109">
        <ele>495.6</ele>
        <time>2025-06-29T09:36:34Z</time>
      </trkpt>
      <trkpt lat="42.89281" lon="1.21109">
        <ele>495</ele>
        <time>2025-06-29T09:36:35Z</time>
      </trkpt>
      <trkpt lat="42.89286" lon="1.2111">
        <ele>494.6</ele>
        <time>2025-06-29T09:36:36Z</time>
      </trkpt>
      <trkpt lat="42.89292" lon="1.2111">
        <ele>494.2</ele>
        <time>2025-06-29T09:36:37Z</time>
      </trkpt>
      <trkpt lat="42.89298" lon="1.2111">
        <ele>493.8</ele>
        <time>2025-06-29T09:36:38Z</time>
      </trkpt>
      <trkpt lat="42.89321" lon="1.21115">
        <ele>493.8</ele>
        <time>2025-06-29T09:36:42Z</time>
      </trkpt>
      <trkpt lat="42.89332" lon="1.21122">
        <ele>493.8</ele>
        <time>2025-06-29T09:36:44Z</time>
      </trkpt>
      <trkpt lat="42.89342" lon="1.2113">
        <ele>493.8</ele>
        <time>2025-06-29T09:36:46Z</time>
      </trkpt>
      <trkpt lat="42.89359" lon="1.21142">
        <ele>493.4</ele>
        <time>2025-06-29T09:36:49Z</time>
      </trkpt>
      <trkpt lat="42.89365" lon="1.21146">
        <ele>492.8</ele>
        <time>2025-06-29T09:36:50Z</time>
      </trkpt>
      <trkpt lat="42.89371" lon="1.21149">
        <ele>492.4</ele>
        <time>2025-06-29T09:36:51Z</time>
      </trkpt>
      <trkpt lat="42.89376" lon="1.21152">
        <ele>492</ele>
        <time>2025-06-29T09:36:52Z</time>
      </trkpt>
      <trkpt lat="42.8938" lon="1.21156">
        <ele>491.6</ele>
        <time>2025-06-29T09:36:53Z</time>
      </trkpt>
      <trkpt lat="42.89382" lon="1.21162">
        <ele>491.6</ele>
        <time>2025-06-29T09:36:54Z</time>
      </trkpt>
      <trkpt lat="42.89388" lon="1.2118">
        <ele>491.6</ele>
        <time>2025-06-29T09:36:57Z</time>
      </trkpt>
      <trkpt lat="42.89393" lon="1.21183">
        <ele>491.2</ele>
        <time>2025-06-29T09:36:58Z</time>
      </trkpt>
      <trkpt lat="42.89397" lon="1.21184">
        <ele>490.8</ele>
        <time>2025-06-29T09:36:59Z</time>
      </trkpt>
      <trkpt lat="42.894" lon="1.21184">
        <ele>490.4</ele>
        <time>2025-06-29T09:37:00Z</time>
      </trkpt>
      <trkpt lat="42.89403" lon="1.21183">
        <ele>489.8</ele>
        <time>2025-06-29T09:37:01Z</time>
      </trkpt>
      <trkpt lat="42.89405" lon="1.21182">
        <ele>489.4</ele>
        <time>2025-06-29T09:37:02Z</time>
      </trkpt>
      <trkpt lat="42.89406" lon="1.2118">
        <ele>489.4</ele>
        <time>2025-06-29T09:37:03Z</time>
      </trkpt>
      <trkpt lat="42.89407" lon="1.21178">
        <ele>489.4</ele>
        <time>2025-06-29T09:37:05Z</time>
      </trkpt>
    </trkseg>
  </trk>
</gpx>